<?xml version="1.0" encoding="UTF-8" standalone="no" ?>
<gpx xmlns="http://www.topografix.com/GPX/1/1" xmlns:xsi="http://www.w3.org/2001/XMLSchema-instance" xsi:schemaLocation="http://www.topografix.com/GPX/1/1 http://www.topografix.com/GPX/1/1/gpx.xsd" version="1.1" creator="VisuGPX - https://www.visugpx.com">
  <metadata>
    <name>16- VTT des Amis Donner 65 km</name>
    <desc><![CDATA[VTT Ad Etalle 64 km 2022]]></desc>
  </metadata>
  <trk>
    <name><![CDATA[16- VTT des Amis Donner 65 km]]></name>
    <trkseg>
      <trkpt lat="49.6728" lon="5.60397">
        <ele>333</ele>
        <time>2022-03-25T07:46:51.000Z</time>
      </trkpt>
      <trkpt lat="49.67279" lon="5.60395">
        <ele>333.20001220703</ele>
        <time>2022-03-25T07:46:55.000Z</time>
      </trkpt>
      <trkpt lat="49.67276" lon="5.6039">
        <ele>333.20001220703</ele>
        <time>2022-03-25T07:46:57.000Z</time>
      </trkpt>
      <trkpt lat="49.67261" lon="5.60384">
        <ele>333.79998779297</ele>
        <time>2022-03-25T07:47:02.000Z</time>
      </trkpt>
      <trkpt lat="49.67245" lon="5.60386">
        <ele>334.20001220703</ele>
        <time>2022-03-25T07:47:07.000Z</time>
      </trkpt>
      <trkpt lat="49.67235" lon="5.6039">
        <ele>334</ele>
        <time>2022-03-25T07:47:10.000Z</time>
      </trkpt>
      <trkpt lat="49.67224" lon="5.6039">
        <ele>334</ele>
        <time>2022-03-25T07:47:13.000Z</time>
      </trkpt>
      <trkpt lat="49.67199" lon="5.60382">
        <ele>333.39999389648</ele>
        <time>2022-03-25T07:47:21.000Z</time>
      </trkpt>
      <trkpt lat="49.67186" lon="5.60372">
        <ele>333.60000610352</ele>
        <time>2022-03-25T07:47:25.000Z</time>
      </trkpt>
      <trkpt lat="49.67163" lon="5.60376">
        <ele>333.60000610352</ele>
        <time>2022-03-25T07:47:31.000Z</time>
      </trkpt>
      <trkpt lat="49.67151" lon="5.60383">
        <ele>333.39999389648</ele>
        <time>2022-03-25T07:47:34.000Z</time>
      </trkpt>
      <trkpt lat="49.67141" lon="5.60394">
        <ele>333</ele>
        <time>2022-03-25T07:47:37.000Z</time>
      </trkpt>
      <trkpt lat="49.67103" lon="5.60435">
        <ele>334</ele>
        <time>2022-03-25T07:47:47.000Z</time>
      </trkpt>
      <trkpt lat="49.67074" lon="5.60464">
        <ele>332.39999389648</ele>
        <time>2022-03-25T07:47:54.000Z</time>
      </trkpt>
      <trkpt lat="49.67061" lon="5.60476">
        <ele>331</ele>
        <time>2022-03-25T07:47:57.000Z</time>
      </trkpt>
      <trkpt lat="49.67038" lon="5.60488">
        <ele>331.39999389648</ele>
        <time>2022-03-25T07:48:02.000Z</time>
      </trkpt>
      <trkpt lat="49.67033" lon="5.60489">
        <ele>331.39999389648</ele>
        <time>2022-03-25T07:48:03.000Z</time>
      </trkpt>
      <trkpt lat="49.66997" lon="5.60493">
        <ele>334.79998779297</ele>
        <time>2022-03-25T07:48:11.000Z</time>
      </trkpt>
      <trkpt lat="49.66969" lon="5.60496">
        <ele>339.20001220703</ele>
        <time>2022-03-25T07:48:18.000Z</time>
      </trkpt>
      <trkpt lat="49.66961" lon="5.60496">
        <ele>339.60000610352</ele>
        <time>2022-03-25T07:48:20.000Z</time>
      </trkpt>
      <trkpt lat="49.66945" lon="5.60497">
        <ele>340.60000610352</ele>
        <time>2022-03-25T07:48:24.000Z</time>
      </trkpt>
      <trkpt lat="49.6693" lon="5.60501">
        <ele>341.60000610352</ele>
        <time>2022-03-25T07:48:28.000Z</time>
      </trkpt>
      <trkpt lat="49.66926" lon="5.60502">
        <ele>341.79998779297</ele>
        <time>2022-03-25T07:48:29.000Z</time>
      </trkpt>
      <trkpt lat="49.66904" lon="5.60511">
        <ele>342</ele>
        <time>2022-03-25T07:48:35.000Z</time>
      </trkpt>
      <trkpt lat="49.669" lon="5.60512">
        <ele>342.20001220703</ele>
        <time>2022-03-25T07:48:36.000Z</time>
      </trkpt>
      <trkpt lat="49.66882" lon="5.60522">
        <ele>342</ele>
        <time>2022-03-25T07:48:41.000Z</time>
      </trkpt>
      <trkpt lat="49.66864" lon="5.60532">
        <ele>342</ele>
        <time>2022-03-25T07:48:46.000Z</time>
      </trkpt>
      <trkpt lat="49.66857" lon="5.60536">
        <ele>341.60000610352</ele>
        <time>2022-03-25T07:48:48.000Z</time>
      </trkpt>
      <trkpt lat="49.66843" lon="5.60544">
        <ele>341</ele>
        <time>2022-03-25T07:48:52.000Z</time>
      </trkpt>
      <trkpt lat="49.66822" lon="5.60556">
        <ele>341</ele>
        <time>2022-03-25T07:48:58.000Z</time>
      </trkpt>
      <trkpt lat="49.66785" lon="5.60581">
        <ele>340.79998779297</ele>
        <time>2022-03-25T07:49:08.000Z</time>
      </trkpt>
      <trkpt lat="49.66779" lon="5.6059">
        <ele>341.20001220703</ele>
        <time>2022-03-25T07:49:10.000Z</time>
      </trkpt>
      <trkpt lat="49.6677" lon="5.60606">
        <ele>341.60000610352</ele>
        <time>2022-03-25T07:49:13.000Z</time>
      </trkpt>
      <trkpt lat="49.66766" lon="5.6061">
        <ele>341.39999389648</ele>
        <time>2022-03-25T07:49:14.000Z</time>
      </trkpt>
      <trkpt lat="49.66753" lon="5.60611">
        <ele>341</ele>
        <time>2022-03-25T07:49:17.000Z</time>
      </trkpt>
      <trkpt lat="49.66738" lon="5.60596">
        <ele>341</ele>
        <time>2022-03-25T07:49:21.000Z</time>
      </trkpt>
      <trkpt lat="49.66712" lon="5.60569">
        <ele>340.39999389648</ele>
        <time>2022-03-25T07:49:28.000Z</time>
      </trkpt>
      <trkpt lat="49.66705" lon="5.60561">
        <ele>340.20001220703</ele>
        <time>2022-03-25T07:49:30.000Z</time>
      </trkpt>
      <trkpt lat="49.66671" lon="5.60524">
        <ele>340</ele>
        <time>2022-03-25T07:49:39.000Z</time>
      </trkpt>
      <trkpt lat="49.66631" lon="5.60488">
        <ele>341.39999389648</ele>
        <time>2022-03-25T07:49:48.000Z</time>
      </trkpt>
      <trkpt lat="49.66604" lon="5.60481">
        <ele>341.60000610352</ele>
        <time>2022-03-25T07:49:53.000Z</time>
      </trkpt>
      <trkpt lat="49.66583" lon="5.60488">
        <ele>340.79998779297</ele>
        <time>2022-03-25T07:49:57.000Z</time>
      </trkpt>
      <trkpt lat="49.66578" lon="5.6049">
        <ele>340.60000610352</ele>
        <time>2022-03-25T07:49:58.000Z</time>
      </trkpt>
      <trkpt lat="49.66573" lon="5.60494">
        <ele>340.20001220703</ele>
        <time>2022-03-25T07:49:59.000Z</time>
      </trkpt>
      <trkpt lat="49.66555" lon="5.60514">
        <ele>339.20001220703</ele>
        <time>2022-03-25T07:50:03.000Z</time>
      </trkpt>
      <trkpt lat="49.66516" lon="5.60559">
        <ele>341.79998779297</ele>
        <time>2022-03-25T07:50:12.000Z</time>
      </trkpt>
      <trkpt lat="49.66497" lon="5.60572">
        <ele>344.60000610352</ele>
        <time>2022-03-25T07:50:16.000Z</time>
      </trkpt>
      <trkpt lat="49.66486" lon="5.60574">
        <ele>345.39999389648</ele>
        <time>2022-03-25T07:50:18.000Z</time>
      </trkpt>
      <trkpt lat="49.66471" lon="5.60574">
        <ele>345.60000610352</ele>
        <time>2022-03-25T07:50:21.000Z</time>
      </trkpt>
      <trkpt lat="49.66466" lon="5.60572">
        <ele>345.20001220703</ele>
        <time>2022-03-25T07:50:22.000Z</time>
      </trkpt>
      <trkpt lat="49.66461" lon="5.6057">
        <ele>344.60000610352</ele>
        <time>2022-03-25T07:50:23.000Z</time>
      </trkpt>
      <trkpt lat="49.66438" lon="5.60551">
        <ele>342.79998779297</ele>
        <time>2022-03-25T07:50:28.000Z</time>
      </trkpt>
      <trkpt lat="49.66428" lon="5.60534">
        <ele>342</ele>
        <time>2022-03-25T07:50:31.000Z</time>
      </trkpt>
      <trkpt lat="49.66418" lon="5.60515">
        <ele>341.60000610352</ele>
        <time>2022-03-25T07:50:34.000Z</time>
      </trkpt>
      <trkpt lat="49.66383" lon="5.60448">
        <ele>342.39999389648</ele>
        <time>2022-03-25T07:50:45.000Z</time>
      </trkpt>
      <trkpt lat="49.66377" lon="5.60436">
        <ele>343</ele>
        <time>2022-03-25T07:50:47.000Z</time>
      </trkpt>
      <trkpt lat="49.66363" lon="5.60414">
        <ele>344.39999389648</ele>
        <time>2022-03-25T07:50:51.000Z</time>
      </trkpt>
      <trkpt lat="49.66354" lon="5.60408">
        <ele>345.60000610352</ele>
        <time>2022-03-25T07:50:53.000Z</time>
      </trkpt>
      <trkpt lat="49.66349" lon="5.60409">
        <ele>346.20001220703</ele>
        <time>2022-03-25T07:50:54.000Z</time>
      </trkpt>
      <trkpt lat="49.66336" lon="5.60423">
        <ele>347.20001220703</ele>
        <time>2022-03-25T07:50:57.000Z</time>
      </trkpt>
      <trkpt lat="49.66329" lon="5.60435">
        <ele>347.79998779297</ele>
        <time>2022-03-25T07:50:59.000Z</time>
      </trkpt>
      <trkpt lat="49.66311" lon="5.60463">
        <ele>351.39999389648</ele>
        <time>2022-03-25T07:51:04.000Z</time>
      </trkpt>
      <trkpt lat="49.66275" lon="5.60532">
        <ele>352.39999389648</ele>
        <time>2022-03-25T07:51:15.000Z</time>
      </trkpt>
      <trkpt lat="49.66272" lon="5.60538">
        <ele>352.20001220703</ele>
        <time>2022-03-25T07:51:16.000Z</time>
      </trkpt>
      <trkpt lat="49.66238" lon="5.60611">
        <ele>348.79998779297</ele>
        <time>2022-03-25T07:51:27.000Z</time>
      </trkpt>
      <trkpt lat="49.66206" lon="5.60684">
        <ele>344.39999389648</ele>
        <time>2022-03-25T07:51:38.000Z</time>
      </trkpt>
      <trkpt lat="49.66203" lon="5.6069">
        <ele>344.20001220703</ele>
        <time>2022-03-25T07:51:39.000Z</time>
      </trkpt>
      <trkpt lat="49.66172" lon="5.60757">
        <ele>346</ele>
        <time>2022-03-25T07:51:49.000Z</time>
      </trkpt>
      <trkpt lat="49.66154" lon="5.60796">
        <ele>347</ele>
        <time>2022-03-25T07:51:55.000Z</time>
      </trkpt>
      <trkpt lat="49.66142" lon="5.60822">
        <ele>347</ele>
        <time>2022-03-25T07:51:59.000Z</time>
      </trkpt>
      <trkpt lat="49.66119" lon="5.60867">
        <ele>347.79998779297</ele>
        <time>2022-03-25T07:52:06.000Z</time>
      </trkpt>
      <trkpt lat="49.66085" lon="5.60936">
        <ele>350</ele>
        <time>2022-03-25T07:52:17.000Z</time>
      </trkpt>
      <trkpt lat="49.66051" lon="5.61001">
        <ele>347.79998779297</ele>
        <time>2022-03-25T07:52:27.000Z</time>
      </trkpt>
      <trkpt lat="49.66019" lon="5.61055">
        <ele>344.20001220703</ele>
        <time>2022-03-25T07:52:35.000Z</time>
      </trkpt>
      <trkpt lat="49.66014" lon="5.61062">
        <ele>343.60000610352</ele>
        <time>2022-03-25T07:52:36.000Z</time>
      </trkpt>
      <trkpt lat="49.65996" lon="5.61091">
        <ele>343.20001220703</ele>
        <time>2022-03-25T07:52:40.000Z</time>
      </trkpt>
      <trkpt lat="49.65973" lon="5.61127">
        <ele>345</ele>
        <time>2022-03-25T07:52:45.000Z</time>
      </trkpt>
      <trkpt lat="49.65968" lon="5.61134">
        <ele>345.39999389648</ele>
        <time>2022-03-25T07:52:46.000Z</time>
      </trkpt>
      <trkpt lat="49.65939" lon="5.61177">
        <ele>347.20001220703</ele>
        <time>2022-03-25T07:52:53.000Z</time>
      </trkpt>
      <trkpt lat="49.65914" lon="5.61218">
        <ele>347</ele>
        <time>2022-03-25T07:53:00.000Z</time>
      </trkpt>
      <trkpt lat="49.65908" lon="5.61228">
        <ele>347.60000610352</ele>
        <time>2022-03-25T07:53:02.000Z</time>
      </trkpt>
      <trkpt lat="49.65901" lon="5.61246">
        <ele>349.79998779297</ele>
        <time>2022-03-25T07:53:05.000Z</time>
      </trkpt>
      <trkpt lat="49.65895" lon="5.61256">
        <ele>350.60000610352</ele>
        <time>2022-03-25T07:53:07.000Z</time>
      </trkpt>
      <trkpt lat="49.65892" lon="5.61273">
        <ele>353.60000610352</ele>
        <time>2022-03-25T07:53:10.000Z</time>
      </trkpt>
      <trkpt lat="49.65894" lon="5.61298">
        <ele>357.39999389648</ele>
        <time>2022-03-25T07:53:14.000Z</time>
      </trkpt>
      <trkpt lat="49.65898" lon="5.6131">
        <ele>359.20001220703</ele>
        <time>2022-03-25T07:53:16.000Z</time>
      </trkpt>
      <trkpt lat="49.65905" lon="5.61326">
        <ele>359.79998779297</ele>
        <time>2022-03-25T07:53:19.000Z</time>
      </trkpt>
      <trkpt lat="49.6591" lon="5.61335">
        <ele>360.20001220703</ele>
        <time>2022-03-25T07:53:21.000Z</time>
      </trkpt>
      <trkpt lat="49.6592" lon="5.61347">
        <ele>360.20001220703</ele>
        <time>2022-03-25T07:53:24.000Z</time>
      </trkpt>
      <trkpt lat="49.65933" lon="5.61362">
        <ele>359.60000610352</ele>
        <time>2022-03-25T07:53:28.000Z</time>
      </trkpt>
      <trkpt lat="49.65951" lon="5.61376">
        <ele>359.39999389648</ele>
        <time>2022-03-25T07:53:33.000Z</time>
      </trkpt>
      <trkpt lat="49.65959" lon="5.6138">
        <ele>360</ele>
        <time>2022-03-25T07:53:35.000Z</time>
      </trkpt>
      <trkpt lat="49.65971" lon="5.61386">
        <ele>360.79998779297</ele>
        <time>2022-03-25T07:53:38.000Z</time>
      </trkpt>
      <trkpt lat="49.65986" lon="5.614">
        <ele>361</ele>
        <time>2022-03-25T07:53:42.000Z</time>
      </trkpt>
      <trkpt lat="49.66021" lon="5.61436">
        <ele>356.60000610352</ele>
        <time>2022-03-25T07:53:51.000Z</time>
      </trkpt>
      <trkpt lat="49.66027" lon="5.61445">
        <ele>354.60000610352</ele>
        <time>2022-03-25T07:53:53.000Z</time>
      </trkpt>
      <trkpt lat="49.66033" lon="5.61457">
        <ele>352.60000610352</ele>
        <time>2022-03-25T07:53:55.000Z</time>
      </trkpt>
      <trkpt lat="49.66035" lon="5.61462">
        <ele>351.79998779297</ele>
        <time>2022-03-25T07:53:56.000Z</time>
      </trkpt>
      <trkpt lat="49.66039" lon="5.61484">
        <ele>349</ele>
        <time>2022-03-25T07:54:00.000Z</time>
      </trkpt>
      <trkpt lat="49.66038" lon="5.61515">
        <ele>347</ele>
        <time>2022-03-25T07:54:07.000Z</time>
      </trkpt>
      <trkpt lat="49.66038" lon="5.6156">
        <ele>346.20001220703</ele>
        <time>2022-03-25T07:54:14.000Z</time>
      </trkpt>
      <trkpt lat="49.66039" lon="5.61575">
        <ele>346.20001220703</ele>
        <time>2022-03-25T07:54:16.000Z</time>
      </trkpt>
      <trkpt lat="49.66041" lon="5.6159">
        <ele>346.60000610352</ele>
        <time>2022-03-25T07:54:18.000Z</time>
      </trkpt>
      <trkpt lat="49.66042" lon="5.61596">
        <ele>346.60000610352</ele>
        <time>2022-03-25T07:54:19.000Z</time>
      </trkpt>
      <trkpt lat="49.66044" lon="5.61604">
        <ele>346.39999389648</ele>
        <time>2022-03-25T07:54:20.000Z</time>
      </trkpt>
      <trkpt lat="49.6605" lon="5.61629">
        <ele>345.39999389648</ele>
        <time>2022-03-25T07:54:24.000Z</time>
      </trkpt>
      <trkpt lat="49.66052" lon="5.61635">
        <ele>345.20001220703</ele>
        <time>2022-03-25T07:54:25.000Z</time>
      </trkpt>
      <trkpt lat="49.66059" lon="5.61656">
        <ele>344.60000610352</ele>
        <time>2022-03-25T07:54:29.000Z</time>
      </trkpt>
      <trkpt lat="49.66061" lon="5.61671">
        <ele>345</ele>
        <time>2022-03-25T07:54:32.000Z</time>
      </trkpt>
      <trkpt lat="49.6606" lon="5.61674">
        <ele>345</ele>
        <time>2022-03-25T07:54:33.000Z</time>
      </trkpt>
      <trkpt lat="49.66048" lon="5.61694">
        <ele>346.20001220703</ele>
        <time>2022-03-25T07:54:39.000Z</time>
      </trkpt>
      <trkpt lat="49.66035" lon="5.61713">
        <ele>347.79998779297</ele>
        <time>2022-03-25T07:54:45.000Z</time>
      </trkpt>
      <trkpt lat="49.66019" lon="5.61736">
        <ele>349.39999389648</ele>
        <time>2022-03-25T07:54:51.000Z</time>
      </trkpt>
      <trkpt lat="49.66017" lon="5.6174">
        <ele>349.60000610352</ele>
        <time>2022-03-25T07:54:52.000Z</time>
      </trkpt>
      <trkpt lat="49.66003" lon="5.61761">
        <ele>350.79998779297</ele>
        <time>2022-03-25T07:54:58.000Z</time>
      </trkpt>
      <trkpt lat="49.65983" lon="5.61789">
        <ele>352.79998779297</ele>
        <time>2022-03-25T07:55:05.000Z</time>
      </trkpt>
      <trkpt lat="49.65966" lon="5.61812">
        <ele>353.60000610352</ele>
        <time>2022-03-25T07:55:11.000Z</time>
      </trkpt>
      <trkpt lat="49.65946" lon="5.61841">
        <ele>354.39999389648</ele>
        <time>2022-03-25T07:55:19.000Z</time>
      </trkpt>
      <trkpt lat="49.65925" lon="5.61869">
        <ele>353.39999389648</ele>
        <time>2022-03-25T07:55:26.000Z</time>
      </trkpt>
      <trkpt lat="49.65908" lon="5.61891">
        <ele>352.39999389648</ele>
        <time>2022-03-25T07:55:32.000Z</time>
      </trkpt>
      <trkpt lat="49.65887" lon="5.61919">
        <ele>352.79998779297</ele>
        <time>2022-03-25T07:55:38.000Z</time>
      </trkpt>
      <trkpt lat="49.65877" lon="5.61931">
        <ele>351.60000610352</ele>
        <time>2022-03-25T07:55:40.000Z</time>
      </trkpt>
      <trkpt lat="49.65874" lon="5.61936">
        <ele>351.39999389648</ele>
        <time>2022-03-25T07:55:41.000Z</time>
      </trkpt>
      <trkpt lat="49.65866" lon="5.61947">
        <ele>351</ele>
        <time>2022-03-25T07:55:43.000Z</time>
      </trkpt>
      <trkpt lat="49.6586" lon="5.61956">
        <ele>350</ele>
        <time>2022-03-25T07:55:45.000Z</time>
      </trkpt>
      <trkpt lat="49.65844" lon="5.61981">
        <ele>346.20001220703</ele>
        <time>2022-03-25T07:55:50.000Z</time>
      </trkpt>
      <trkpt lat="49.65836" lon="5.61998">
        <ele>346</ele>
        <time>2022-03-25T07:55:53.000Z</time>
      </trkpt>
      <trkpt lat="49.65835" lon="5.62003">
        <ele>346</ele>
        <time>2022-03-25T07:55:54.000Z</time>
      </trkpt>
      <trkpt lat="49.65839" lon="5.62012">
        <ele>346</ele>
        <time>2022-03-25T07:55:57.000Z</time>
      </trkpt>
      <trkpt lat="49.65844" lon="5.62017">
        <ele>346</ele>
        <time>2022-03-25T07:55:59.000Z</time>
      </trkpt>
      <trkpt lat="49.6587" lon="5.62031">
        <ele>346.20001220703</ele>
        <time>2022-03-25T07:56:07.000Z</time>
      </trkpt>
      <trkpt lat="49.65872" lon="5.62034">
        <ele>346.39999389648</ele>
        <time>2022-03-25T07:56:08.000Z</time>
      </trkpt>
      <trkpt lat="49.65869" lon="5.62042">
        <ele>346.60000610352</ele>
        <time>2022-03-25T07:56:10.000Z</time>
      </trkpt>
      <trkpt lat="49.65864" lon="5.62045">
        <ele>346.60000610352</ele>
        <time>2022-03-25T07:56:12.000Z</time>
      </trkpt>
      <trkpt lat="49.65857" lon="5.62046">
        <ele>346.60000610352</ele>
        <time>2022-03-25T07:56:14.000Z</time>
      </trkpt>
      <trkpt lat="49.65841" lon="5.62048">
        <ele>346.20001220703</ele>
        <time>2022-03-25T07:56:17.000Z</time>
      </trkpt>
      <trkpt lat="49.65831" lon="5.6205">
        <ele>346.20001220703</ele>
        <time>2022-03-25T07:56:19.000Z</time>
      </trkpt>
      <trkpt lat="49.65825" lon="5.62051">
        <ele>346.20001220703</ele>
        <time>2022-03-25T07:56:20.000Z</time>
      </trkpt>
      <trkpt lat="49.65782" lon="5.62057">
        <ele>346</ele>
        <time>2022-03-25T07:56:28.000Z</time>
      </trkpt>
      <trkpt lat="49.65741" lon="5.6206">
        <ele>347.39999389648</ele>
        <time>2022-03-25T07:56:36.000Z</time>
      </trkpt>
      <trkpt lat="49.65725" lon="5.62061">
        <ele>347.79998779297</ele>
        <time>2022-03-25T07:56:39.000Z</time>
      </trkpt>
      <trkpt lat="49.65704" lon="5.62061">
        <ele>348.60000610352</ele>
        <time>2022-03-25T07:56:43.000Z</time>
      </trkpt>
      <trkpt lat="49.65683" lon="5.62062">
        <ele>350.60000610352</ele>
        <time>2022-03-25T07:56:47.000Z</time>
      </trkpt>
      <trkpt lat="49.65672" lon="5.62062">
        <ele>351.60000610352</ele>
        <time>2022-03-25T07:56:49.000Z</time>
      </trkpt>
      <trkpt lat="49.65667" lon="5.62063">
        <ele>351.60000610352</ele>
        <time>2022-03-25T07:56:50.000Z</time>
      </trkpt>
      <trkpt lat="49.65657" lon="5.62067">
        <ele>351.60000610352</ele>
        <time>2022-03-25T07:56:52.000Z</time>
      </trkpt>
      <trkpt lat="49.65649" lon="5.62076">
        <ele>351</ele>
        <time>2022-03-25T07:56:54.000Z</time>
      </trkpt>
      <trkpt lat="49.65637" lon="5.62106">
        <ele>350</ele>
        <time>2022-03-25T07:56:59.000Z</time>
      </trkpt>
      <trkpt lat="49.65635" lon="5.62112">
        <ele>350</ele>
        <time>2022-03-25T07:57:00.000Z</time>
      </trkpt>
      <trkpt lat="49.65629" lon="5.62129">
        <ele>350.60000610352</ele>
        <time>2022-03-25T07:57:03.000Z</time>
      </trkpt>
      <trkpt lat="49.65625" lon="5.62145">
        <ele>351.79998779297</ele>
        <time>2022-03-25T07:57:06.000Z</time>
      </trkpt>
      <trkpt lat="49.65623" lon="5.62156">
        <ele>352.39999389648</ele>
        <time>2022-03-25T07:57:08.000Z</time>
      </trkpt>
      <trkpt lat="49.65619" lon="5.62171">
        <ele>353.79998779297</ele>
        <time>2022-03-25T07:57:11.000Z</time>
      </trkpt>
      <trkpt lat="49.65616" lon="5.62182">
        <ele>354.39999389648</ele>
        <time>2022-03-25T07:57:13.000Z</time>
      </trkpt>
      <trkpt lat="49.65613" lon="5.622">
        <ele>355</ele>
        <time>2022-03-25T07:57:16.000Z</time>
      </trkpt>
      <trkpt lat="49.6561" lon="5.62219">
        <ele>355.79998779297</ele>
        <time>2022-03-25T07:57:19.000Z</time>
      </trkpt>
      <trkpt lat="49.65599" lon="5.62279">
        <ele>358</ele>
        <time>2022-03-25T07:57:28.000Z</time>
      </trkpt>
      <trkpt lat="49.65591" lon="5.62327">
        <ele>355.79998779297</ele>
        <time>2022-03-25T07:57:34.000Z</time>
      </trkpt>
      <trkpt lat="49.65587" lon="5.62344">
        <ele>353.79998779297</ele>
        <time>2022-03-25T07:57:36.000Z</time>
      </trkpt>
      <trkpt lat="49.65578" lon="5.62371">
        <ele>351.60000610352</ele>
        <time>2022-03-25T07:57:39.000Z</time>
      </trkpt>
      <trkpt lat="49.65575" lon="5.6238">
        <ele>351</ele>
        <time>2022-03-25T07:57:40.000Z</time>
      </trkpt>
      <trkpt lat="49.65565" lon="5.62408">
        <ele>350.20001220703</ele>
        <time>2022-03-25T07:57:43.000Z</time>
      </trkpt>
      <trkpt lat="49.65558" lon="5.62434">
        <ele>348.60000610352</ele>
        <time>2022-03-25T07:57:46.000Z</time>
      </trkpt>
      <trkpt lat="49.65556" lon="5.62443">
        <ele>348.60000610352</ele>
        <time>2022-03-25T07:57:47.000Z</time>
      </trkpt>
      <trkpt lat="49.65548" lon="5.62488">
        <ele>352</ele>
        <time>2022-03-25T07:57:53.000Z</time>
      </trkpt>
      <trkpt lat="49.65546" lon="5.62501">
        <ele>352.39999389648</ele>
        <time>2022-03-25T07:57:55.000Z</time>
      </trkpt>
      <trkpt lat="49.65545" lon="5.62507">
        <ele>352.79998779297</ele>
        <time>2022-03-25T07:57:56.000Z</time>
      </trkpt>
      <trkpt lat="49.65543" lon="5.6252">
        <ele>353.60000610352</ele>
        <time>2022-03-25T07:57:58.000Z</time>
      </trkpt>
      <trkpt lat="49.65542" lon="5.62526">
        <ele>353.60000610352</ele>
        <time>2022-03-25T07:57:59.000Z</time>
      </trkpt>
      <trkpt lat="49.6554" lon="5.62532">
        <ele>353.79998779297</ele>
        <time>2022-03-25T07:58:00.000Z</time>
      </trkpt>
      <trkpt lat="49.65533" lon="5.62544">
        <ele>354.39999389648</ele>
        <time>2022-03-25T07:58:02.000Z</time>
      </trkpt>
      <trkpt lat="49.65529" lon="5.62549">
        <ele>354.79998779297</ele>
        <time>2022-03-25T07:58:03.000Z</time>
      </trkpt>
      <trkpt lat="49.65525" lon="5.62553">
        <ele>355</ele>
        <time>2022-03-25T07:58:04.000Z</time>
      </trkpt>
      <trkpt lat="49.65516" lon="5.62563">
        <ele>355.20001220703</ele>
        <time>2022-03-25T07:58:06.000Z</time>
      </trkpt>
      <trkpt lat="49.65504" lon="5.62576">
        <ele>355.60000610352</ele>
        <time>2022-03-25T07:58:09.000Z</time>
      </trkpt>
      <trkpt lat="49.65492" lon="5.62591">
        <ele>355.20001220703</ele>
        <time>2022-03-25T07:58:12.000Z</time>
      </trkpt>
      <trkpt lat="49.65486" lon="5.62603">
        <ele>355</ele>
        <time>2022-03-25T07:58:14.000Z</time>
      </trkpt>
      <trkpt lat="49.65467" lon="5.6265">
        <ele>355.60000610352</ele>
        <time>2022-03-25T07:58:21.000Z</time>
      </trkpt>
      <trkpt lat="49.65449" lon="5.62687">
        <ele>354</ele>
        <time>2022-03-25T07:58:27.000Z</time>
      </trkpt>
      <trkpt lat="49.6543" lon="5.62726">
        <ele>353.60000610352</ele>
        <time>2022-03-25T07:58:33.000Z</time>
      </trkpt>
      <trkpt lat="49.6541" lon="5.62767">
        <ele>356.39999389648</ele>
        <time>2022-03-25T07:58:39.000Z</time>
      </trkpt>
      <trkpt lat="49.65408" lon="5.62775">
        <ele>356.79998779297</ele>
        <time>2022-03-25T07:58:40.000Z</time>
      </trkpt>
      <trkpt lat="49.65407" lon="5.62802">
        <ele>358</ele>
        <time>2022-03-25T07:58:43.000Z</time>
      </trkpt>
      <trkpt lat="49.65412" lon="5.62818">
        <ele>358.60000610352</ele>
        <time>2022-03-25T07:58:45.000Z</time>
      </trkpt>
      <trkpt lat="49.65417" lon="5.62835">
        <ele>359</ele>
        <time>2022-03-25T07:58:47.000Z</time>
      </trkpt>
      <trkpt lat="49.65433" lon="5.62903">
        <ele>357.60000610352</ele>
        <time>2022-03-25T07:58:55.000Z</time>
      </trkpt>
      <trkpt lat="49.65442" lon="5.62947">
        <ele>357.20001220703</ele>
        <time>2022-03-25T07:59:00.000Z</time>
      </trkpt>
      <trkpt lat="49.65444" lon="5.62956">
        <ele>357.39999389648</ele>
        <time>2022-03-25T07:59:01.000Z</time>
      </trkpt>
      <trkpt lat="49.65456" lon="5.63018">
        <ele>357.20001220703</ele>
        <time>2022-03-25T07:59:08.000Z</time>
      </trkpt>
      <trkpt lat="49.6546" lon="5.63035">
        <ele>356.39999389648</ele>
        <time>2022-03-25T07:59:10.000Z</time>
      </trkpt>
      <trkpt lat="49.65478" lon="5.63111">
        <ele>352.20001220703</ele>
        <time>2022-03-25T07:59:19.000Z</time>
      </trkpt>
      <trkpt lat="49.65489" lon="5.63171">
        <ele>353</ele>
        <time>2022-03-25T07:59:26.000Z</time>
      </trkpt>
      <trkpt lat="49.65498" lon="5.63208">
        <ele>354</ele>
        <time>2022-03-25T07:59:30.000Z</time>
      </trkpt>
      <trkpt lat="49.65506" lon="5.63236">
        <ele>353.39999389648</ele>
        <time>2022-03-25T07:59:33.000Z</time>
      </trkpt>
      <trkpt lat="49.65517" lon="5.63281">
        <ele>351.39999389648</ele>
        <time>2022-03-25T07:59:38.000Z</time>
      </trkpt>
      <trkpt lat="49.65519" lon="5.6329">
        <ele>351.20001220703</ele>
        <time>2022-03-25T07:59:39.000Z</time>
      </trkpt>
      <trkpt lat="49.65533" lon="5.63341">
        <ele>350</ele>
        <time>2022-03-25T07:59:45.000Z</time>
      </trkpt>
      <trkpt lat="49.65535" lon="5.63348">
        <ele>349.79998779297</ele>
        <time>2022-03-25T07:59:46.000Z</time>
      </trkpt>
      <trkpt lat="49.6555" lon="5.63396">
        <ele>349.39999389648</ele>
        <time>2022-03-25T07:59:52.000Z</time>
      </trkpt>
      <trkpt lat="49.65553" lon="5.63404">
        <ele>348.60000610352</ele>
        <time>2022-03-25T07:59:53.000Z</time>
      </trkpt>
      <trkpt lat="49.65566" lon="5.63455">
        <ele>344.39999389648</ele>
        <time>2022-03-25T07:59:59.000Z</time>
      </trkpt>
      <trkpt lat="49.65567" lon="5.63463">
        <ele>344</ele>
        <time>2022-03-25T08:00:00.000Z</time>
      </trkpt>
      <trkpt lat="49.65564" lon="5.63479">
        <ele>343.60000610352</ele>
        <time>2022-03-25T08:00:02.000Z</time>
      </trkpt>
      <trkpt lat="49.65555" lon="5.63496">
        <ele>344.79998779297</ele>
        <time>2022-03-25T08:00:05.000Z</time>
      </trkpt>
      <trkpt lat="49.65551" lon="5.63503">
        <ele>345</ele>
        <time>2022-03-25T08:00:06.000Z</time>
      </trkpt>
      <trkpt lat="49.65547" lon="5.63509">
        <ele>345.39999389648</ele>
        <time>2022-03-25T08:00:07.000Z</time>
      </trkpt>
      <trkpt lat="49.65539" lon="5.63531">
        <ele>346.20001220703</ele>
        <time>2022-03-25T08:00:10.000Z</time>
      </trkpt>
      <trkpt lat="49.65527" lon="5.63581">
        <ele>346.39999389648</ele>
        <time>2022-03-25T08:00:16.000Z</time>
      </trkpt>
      <trkpt lat="49.65526" lon="5.6359">
        <ele>346.79998779297</ele>
        <time>2022-03-25T08:00:17.000Z</time>
      </trkpt>
      <trkpt lat="49.65507" lon="5.63658">
        <ele>349.39999389648</ele>
        <time>2022-03-25T08:00:25.000Z</time>
      </trkpt>
      <trkpt lat="49.65504" lon="5.63665">
        <ele>349.39999389648</ele>
        <time>2022-03-25T08:00:26.000Z</time>
      </trkpt>
      <trkpt lat="49.65488" lon="5.63692">
        <ele>347.60000610352</ele>
        <time>2022-03-25T08:00:30.000Z</time>
      </trkpt>
      <trkpt lat="49.65467" lon="5.63725">
        <ele>343</ele>
        <time>2022-03-25T08:00:35.000Z</time>
      </trkpt>
      <trkpt lat="49.65459" lon="5.6374">
        <ele>340.60000610352</ele>
        <time>2022-03-25T08:00:37.000Z</time>
      </trkpt>
      <trkpt lat="49.65436" lon="5.63785">
        <ele>338.20001220703</ele>
        <time>2022-03-25T08:00:43.000Z</time>
      </trkpt>
      <trkpt lat="49.65433" lon="5.63793">
        <ele>338.79998779297</ele>
        <time>2022-03-25T08:00:44.000Z</time>
      </trkpt>
      <trkpt lat="49.65425" lon="5.63824">
        <ele>342.60000610352</ele>
        <time>2022-03-25T08:00:48.000Z</time>
      </trkpt>
      <trkpt lat="49.65417" lon="5.63831">
        <ele>344.20001220703</ele>
        <time>2022-03-25T08:00:51.000Z</time>
      </trkpt>
      <trkpt lat="49.65407" lon="5.63831">
        <ele>344.39999389648</ele>
        <time>2022-03-25T08:00:54.000Z</time>
      </trkpt>
      <trkpt lat="49.654" lon="5.63828">
        <ele>344.20001220703</ele>
        <time>2022-03-25T08:00:56.000Z</time>
      </trkpt>
      <trkpt lat="49.65387" lon="5.63823">
        <ele>344</ele>
        <time>2022-03-25T08:01:00.000Z</time>
      </trkpt>
      <trkpt lat="49.65379" lon="5.63821">
        <ele>344</ele>
        <time>2022-03-25T08:01:02.000Z</time>
      </trkpt>
      <trkpt lat="49.6536" lon="5.63815">
        <ele>344.79998779297</ele>
        <time>2022-03-25T08:01:08.000Z</time>
      </trkpt>
      <trkpt lat="49.65356" lon="5.63813">
        <ele>345.39999389648</ele>
        <time>2022-03-25T08:01:09.000Z</time>
      </trkpt>
      <trkpt lat="49.65347" lon="5.6381">
        <ele>347.20001220703</ele>
        <time>2022-03-25T08:01:12.000Z</time>
      </trkpt>
      <trkpt lat="49.65334" lon="5.63805">
        <ele>349.20001220703</ele>
        <time>2022-03-25T08:01:16.000Z</time>
      </trkpt>
      <trkpt lat="49.65319" lon="5.63797">
        <ele>350.60000610352</ele>
        <time>2022-03-25T08:01:20.000Z</time>
      </trkpt>
      <trkpt lat="49.65311" lon="5.63793">
        <ele>351.20001220703</ele>
        <time>2022-03-25T08:01:22.000Z</time>
      </trkpt>
      <trkpt lat="49.65306" lon="5.6379">
        <ele>351.39999389648</ele>
        <time>2022-03-25T08:01:23.000Z</time>
      </trkpt>
      <trkpt lat="49.65286" lon="5.63778">
        <ele>351.79998779297</ele>
        <time>2022-03-25T08:01:27.000Z</time>
      </trkpt>
      <trkpt lat="49.65277" lon="5.63768">
        <ele>352</ele>
        <time>2022-03-25T08:01:29.000Z</time>
      </trkpt>
      <trkpt lat="49.65269" lon="5.63756">
        <ele>352</ele>
        <time>2022-03-25T08:01:31.000Z</time>
      </trkpt>
      <trkpt lat="49.65266" lon="5.63749">
        <ele>351.60000610352</ele>
        <time>2022-03-25T08:01:32.000Z</time>
      </trkpt>
      <trkpt lat="49.65247" lon="5.6372">
        <ele>350.20001220703</ele>
        <time>2022-03-25T08:01:37.000Z</time>
      </trkpt>
      <trkpt lat="49.65217" lon="5.63682">
        <ele>349.39999389648</ele>
        <time>2022-03-25T08:01:45.000Z</time>
      </trkpt>
      <trkpt lat="49.65208" lon="5.63668">
        <ele>349.20001220703</ele>
        <time>2022-03-25T08:01:48.000Z</time>
      </trkpt>
      <trkpt lat="49.65198" lon="5.63651">
        <ele>349.79998779297</ele>
        <time>2022-03-25T08:01:51.000Z</time>
      </trkpt>
      <trkpt lat="49.65178" lon="5.6362">
        <ele>351.20001220703</ele>
        <time>2022-03-25T08:01:57.000Z</time>
      </trkpt>
      <trkpt lat="49.65174" lon="5.636">
        <ele>351</ele>
        <time>2022-03-25T08:02:01.000Z</time>
      </trkpt>
      <trkpt lat="49.65183" lon="5.63572">
        <ele>350.20001220703</ele>
        <time>2022-03-25T08:02:06.000Z</time>
      </trkpt>
      <trkpt lat="49.65192" lon="5.63544">
        <ele>349.20001220703</ele>
        <time>2022-03-25T08:02:12.000Z</time>
      </trkpt>
      <trkpt lat="49.65193" lon="5.63535">
        <ele>348.60000610352</ele>
        <time>2022-03-25T08:02:14.000Z</time>
      </trkpt>
      <trkpt lat="49.65195" lon="5.6351">
        <ele>348.60000610352</ele>
        <time>2022-03-25T08:02:19.000Z</time>
      </trkpt>
      <trkpt lat="49.65189" lon="5.63474">
        <ele>349.79998779297</ele>
        <time>2022-03-25T08:02:25.000Z</time>
      </trkpt>
      <trkpt lat="49.6517" lon="5.63442">
        <ele>352.60000610352</ele>
        <time>2022-03-25T08:02:31.000Z</time>
      </trkpt>
      <trkpt lat="49.65147" lon="5.63404">
        <ele>351.60000610352</ele>
        <time>2022-03-25T08:02:38.000Z</time>
      </trkpt>
      <trkpt lat="49.65139" lon="5.63386">
        <ele>350.60000610352</ele>
        <time>2022-03-25T08:02:41.000Z</time>
      </trkpt>
      <trkpt lat="49.65132" lon="5.63376">
        <ele>350</ele>
        <time>2022-03-25T08:02:43.000Z</time>
      </trkpt>
      <trkpt lat="49.65116" lon="5.63346">
        <ele>347.20001220703</ele>
        <time>2022-03-25T08:02:49.000Z</time>
      </trkpt>
      <trkpt lat="49.65101" lon="5.63324">
        <ele>346.60000610352</ele>
        <time>2022-03-25T08:02:54.000Z</time>
      </trkpt>
      <trkpt lat="49.65077" lon="5.63293">
        <ele>348.60000610352</ele>
        <time>2022-03-25T08:03:00.000Z</time>
      </trkpt>
      <trkpt lat="49.65047" lon="5.63256">
        <ele>352</ele>
        <time>2022-03-25T08:03:07.000Z</time>
      </trkpt>
      <trkpt lat="49.65039" lon="5.63246">
        <ele>351.79998779297</ele>
        <time>2022-03-25T08:03:09.000Z</time>
      </trkpt>
      <trkpt lat="49.65029" lon="5.63231">
        <ele>351</ele>
        <time>2022-03-25T08:03:12.000Z</time>
      </trkpt>
      <trkpt lat="49.65027" lon="5.63226">
        <ele>350.39999389648</ele>
        <time>2022-03-25T08:03:13.000Z</time>
      </trkpt>
      <trkpt lat="49.65017" lon="5.63207">
        <ele>348.60000610352</ele>
        <time>2022-03-25T08:03:17.000Z</time>
      </trkpt>
      <trkpt lat="49.65009" lon="5.63191">
        <ele>347.79998779297</ele>
        <time>2022-03-25T08:03:20.000Z</time>
      </trkpt>
      <trkpt lat="49.64997" lon="5.6318">
        <ele>348.20001220703</ele>
        <time>2022-03-25T08:03:23.000Z</time>
      </trkpt>
      <trkpt lat="49.64974" lon="5.63159">
        <ele>349.39999389648</ele>
        <time>2022-03-25T08:03:29.000Z</time>
      </trkpt>
      <trkpt lat="49.64954" lon="5.63135">
        <ele>349.60000610352</ele>
        <time>2022-03-25T08:03:35.000Z</time>
      </trkpt>
      <trkpt lat="49.6495" lon="5.63128">
        <ele>349.79998779297</ele>
        <time>2022-03-25T08:03:37.000Z</time>
      </trkpt>
      <trkpt lat="49.64947" lon="5.63116">
        <ele>350</ele>
        <time>2022-03-25T08:03:39.000Z</time>
      </trkpt>
      <trkpt lat="49.64933" lon="5.63099">
        <ele>350.60000610352</ele>
        <time>2022-03-25T08:03:43.000Z</time>
      </trkpt>
      <trkpt lat="49.64924" lon="5.63102">
        <ele>350.39999389648</ele>
        <time>2022-03-25T08:03:46.000Z</time>
      </trkpt>
      <trkpt lat="49.64901" lon="5.63111">
        <ele>350.79998779297</ele>
        <time>2022-03-25T08:03:52.000Z</time>
      </trkpt>
      <trkpt lat="49.64883" lon="5.63117">
        <ele>351</ele>
        <time>2022-03-25T08:03:56.000Z</time>
      </trkpt>
      <trkpt lat="49.64862" lon="5.63123">
        <ele>351.79998779297</ele>
        <time>2022-03-25T08:04:01.000Z</time>
      </trkpt>
      <trkpt lat="49.64846" lon="5.63129">
        <ele>352.60000610352</ele>
        <time>2022-03-25T08:04:05.000Z</time>
      </trkpt>
      <trkpt lat="49.64833" lon="5.63134">
        <ele>352.60000610352</ele>
        <time>2022-03-25T08:04:08.000Z</time>
      </trkpt>
      <trkpt lat="49.64829" lon="5.63135">
        <ele>352.39999389648</ele>
        <time>2022-03-25T08:04:09.000Z</time>
      </trkpt>
      <trkpt lat="49.64801" lon="5.63141">
        <ele>353</ele>
        <time>2022-03-25T08:04:15.000Z</time>
      </trkpt>
      <trkpt lat="49.64767" lon="5.63145">
        <ele>354.39999389648</ele>
        <time>2022-03-25T08:04:22.000Z</time>
      </trkpt>
      <trkpt lat="49.64746" lon="5.63155">
        <ele>355.79998779297</ele>
        <time>2022-03-25T08:04:27.000Z</time>
      </trkpt>
      <trkpt lat="49.64734" lon="5.63166">
        <ele>356</ele>
        <time>2022-03-25T08:04:32.000Z</time>
      </trkpt>
      <trkpt lat="49.64732" lon="5.63169">
        <ele>356</ele>
        <time>2022-03-25T08:04:33.000Z</time>
      </trkpt>
      <trkpt lat="49.64725" lon="5.63184">
        <ele>356</ele>
        <time>2022-03-25T08:04:38.000Z</time>
      </trkpt>
      <trkpt lat="49.64724" lon="5.63187">
        <ele>356</ele>
        <time>2022-03-25T08:04:39.000Z</time>
      </trkpt>
      <trkpt lat="49.64717" lon="5.63198">
        <ele>356.39999389648</ele>
        <time>2022-03-25T08:04:43.000Z</time>
      </trkpt>
      <trkpt lat="49.64714" lon="5.63204">
        <ele>356.60000610352</ele>
        <time>2022-03-25T08:04:45.000Z</time>
      </trkpt>
      <trkpt lat="49.64711" lon="5.6321">
        <ele>357</ele>
        <time>2022-03-25T08:04:47.000Z</time>
      </trkpt>
      <trkpt lat="49.64701" lon="5.63226">
        <ele>358</ele>
        <time>2022-03-25T08:04:51.000Z</time>
      </trkpt>
      <trkpt lat="49.64694" lon="5.63235">
        <ele>358.20001220703</ele>
        <time>2022-03-25T08:04:53.000Z</time>
      </trkpt>
      <trkpt lat="49.64684" lon="5.63249">
        <ele>359</ele>
        <time>2022-03-25T08:04:57.000Z</time>
      </trkpt>
      <trkpt lat="49.64668" lon="5.63271">
        <ele>359.39999389648</ele>
        <time>2022-03-25T08:05:03.000Z</time>
      </trkpt>
      <trkpt lat="49.64665" lon="5.63274">
        <ele>359.39999389648</ele>
        <time>2022-03-25T08:05:04.000Z</time>
      </trkpt>
      <trkpt lat="49.64651" lon="5.63306">
        <ele>359.60000610352</ele>
        <time>2022-03-25T08:05:11.000Z</time>
      </trkpt>
      <trkpt lat="49.64645" lon="5.6332">
        <ele>360.20001220703</ele>
        <time>2022-03-25T08:05:14.000Z</time>
      </trkpt>
      <trkpt lat="49.64635" lon="5.63344">
        <ele>361.79998779297</ele>
        <time>2022-03-25T08:05:19.000Z</time>
      </trkpt>
      <trkpt lat="49.64623" lon="5.63371">
        <ele>363</ele>
        <time>2022-03-25T08:05:25.000Z</time>
      </trkpt>
      <trkpt lat="49.6462" lon="5.63376">
        <ele>363.20001220703</ele>
        <time>2022-03-25T08:05:26.000Z</time>
      </trkpt>
      <trkpt lat="49.64602" lon="5.6341">
        <ele>364.39999389648</ele>
        <time>2022-03-25T08:05:33.000Z</time>
      </trkpt>
      <trkpt lat="49.64593" lon="5.63432">
        <ele>363.39999389648</ele>
        <time>2022-03-25T08:05:38.000Z</time>
      </trkpt>
      <trkpt lat="49.64595" lon="5.63441">
        <ele>362.79998779297</ele>
        <time>2022-03-25T08:05:41.000Z</time>
      </trkpt>
      <trkpt lat="49.64601" lon="5.63457">
        <ele>361.79998779297</ele>
        <time>2022-03-25T08:05:45.000Z</time>
      </trkpt>
      <trkpt lat="49.64611" lon="5.63485">
        <ele>360.60000610352</ele>
        <time>2022-03-25T08:05:50.000Z</time>
      </trkpt>
      <trkpt lat="49.64613" lon="5.63498">
        <ele>360.20001220703</ele>
        <time>2022-03-25T08:05:52.000Z</time>
      </trkpt>
      <trkpt lat="49.64612" lon="5.63511">
        <ele>359.79998779297</ele>
        <time>2022-03-25T08:05:54.000Z</time>
      </trkpt>
      <trkpt lat="49.64612" lon="5.63518">
        <ele>359.79998779297</ele>
        <time>2022-03-25T08:05:55.000Z</time>
      </trkpt>
      <trkpt lat="49.6461" lon="5.63535">
        <ele>359.79998779297</ele>
        <time>2022-03-25T08:05:58.000Z</time>
      </trkpt>
      <trkpt lat="49.64608" lon="5.6354">
        <ele>359.79998779297</ele>
        <time>2022-03-25T08:05:59.000Z</time>
      </trkpt>
      <trkpt lat="49.64605" lon="5.63545">
        <ele>359.79998779297</ele>
        <time>2022-03-25T08:06:00.000Z</time>
      </trkpt>
      <trkpt lat="49.64601" lon="5.63565">
        <ele>360.20001220703</ele>
        <time>2022-03-25T08:06:03.000Z</time>
      </trkpt>
      <trkpt lat="49.64596" lon="5.63588">
        <ele>360.60000610352</ele>
        <time>2022-03-25T08:06:06.000Z</time>
      </trkpt>
      <trkpt lat="49.64595" lon="5.63596">
        <ele>360.79998779297</ele>
        <time>2022-03-25T08:06:07.000Z</time>
      </trkpt>
      <trkpt lat="49.64593" lon="5.63603">
        <ele>361</ele>
        <time>2022-03-25T08:06:08.000Z</time>
      </trkpt>
      <trkpt lat="49.64583" lon="5.63628">
        <ele>360.79998779297</ele>
        <time>2022-03-25T08:06:12.000Z</time>
      </trkpt>
      <trkpt lat="49.6458" lon="5.63634">
        <ele>360.79998779297</ele>
        <time>2022-03-25T08:06:13.000Z</time>
      </trkpt>
      <trkpt lat="49.64578" lon="5.63642">
        <ele>360.60000610352</ele>
        <time>2022-03-25T08:06:14.000Z</time>
      </trkpt>
      <trkpt lat="49.64575" lon="5.63659">
        <ele>360</ele>
        <time>2022-03-25T08:06:16.000Z</time>
      </trkpt>
      <trkpt lat="49.64577" lon="5.63692">
        <ele>360</ele>
        <time>2022-03-25T08:06:20.000Z</time>
      </trkpt>
      <trkpt lat="49.64589" lon="5.63717">
        <ele>360</ele>
        <time>2022-03-25T08:06:24.000Z</time>
      </trkpt>
      <trkpt lat="49.64593" lon="5.63721">
        <ele>360.20001220703</ele>
        <time>2022-03-25T08:06:25.000Z</time>
      </trkpt>
      <trkpt lat="49.64607" lon="5.63736">
        <ele>360.39999389648</ele>
        <time>2022-03-25T08:06:29.000Z</time>
      </trkpt>
      <trkpt lat="49.64611" lon="5.63739">
        <ele>360.39999389648</ele>
        <time>2022-03-25T08:06:30.000Z</time>
      </trkpt>
      <trkpt lat="49.64622" lon="5.6375">
        <ele>360.39999389648</ele>
        <time>2022-03-25T08:06:33.000Z</time>
      </trkpt>
      <trkpt lat="49.64629" lon="5.63759">
        <ele>360.39999389648</ele>
        <time>2022-03-25T08:06:35.000Z</time>
      </trkpt>
      <trkpt lat="49.64646" lon="5.63776">
        <ele>360.39999389648</ele>
        <time>2022-03-25T08:06:40.000Z</time>
      </trkpt>
      <trkpt lat="49.64672" lon="5.63802">
        <ele>362</ele>
        <time>2022-03-25T08:06:46.000Z</time>
      </trkpt>
      <trkpt lat="49.64689" lon="5.63819">
        <ele>362.60000610352</ele>
        <time>2022-03-25T08:06:50.000Z</time>
      </trkpt>
      <trkpt lat="49.64698" lon="5.63827">
        <ele>363</ele>
        <time>2022-03-25T08:06:52.000Z</time>
      </trkpt>
      <trkpt lat="49.64711" lon="5.63841">
        <ele>363.39999389648</ele>
        <time>2022-03-25T08:06:55.000Z</time>
      </trkpt>
      <trkpt lat="49.64715" lon="5.63844">
        <ele>363.60000610352</ele>
        <time>2022-03-25T08:06:56.000Z</time>
      </trkpt>
      <trkpt lat="49.6473" lon="5.63861">
        <ele>363.79998779297</ele>
        <time>2022-03-25T08:07:00.000Z</time>
      </trkpt>
      <trkpt lat="49.64733" lon="5.63867">
        <ele>363.39999389648</ele>
        <time>2022-03-25T08:07:01.000Z</time>
      </trkpt>
      <trkpt lat="49.6474" lon="5.63879">
        <ele>362.60000610352</ele>
        <time>2022-03-25T08:07:03.000Z</time>
      </trkpt>
      <trkpt lat="49.64742" lon="5.63886">
        <ele>362.20001220703</ele>
        <time>2022-03-25T08:07:04.000Z</time>
      </trkpt>
      <trkpt lat="49.64747" lon="5.63915">
        <ele>361.60000610352</ele>
        <time>2022-03-25T08:07:09.000Z</time>
      </trkpt>
      <trkpt lat="49.64742" lon="5.63939">
        <ele>361.79998779297</ele>
        <time>2022-03-25T08:07:13.000Z</time>
      </trkpt>
      <trkpt lat="49.64739" lon="5.63954">
        <ele>362.20001220703</ele>
        <time>2022-03-25T08:07:15.000Z</time>
      </trkpt>
      <trkpt lat="49.64736" lon="5.63977">
        <ele>361.60000610352</ele>
        <time>2022-03-25T08:07:18.000Z</time>
      </trkpt>
      <trkpt lat="49.64734" lon="5.64004">
        <ele>361</ele>
        <time>2022-03-25T08:07:21.000Z</time>
      </trkpt>
      <trkpt lat="49.64736" lon="5.6402">
        <ele>360.39999389648</ele>
        <time>2022-03-25T08:07:23.000Z</time>
      </trkpt>
      <trkpt lat="49.64737" lon="5.64029">
        <ele>360</ele>
        <time>2022-03-25T08:07:24.000Z</time>
      </trkpt>
      <trkpt lat="49.6474" lon="5.6407">
        <ele>361.39999389648</ele>
        <time>2022-03-25T08:07:29.000Z</time>
      </trkpt>
      <trkpt lat="49.6474" lon="5.64078">
        <ele>361.60000610352</ele>
        <time>2022-03-25T08:07:30.000Z</time>
      </trkpt>
      <trkpt lat="49.64742" lon="5.64092">
        <ele>362.20001220703</ele>
        <time>2022-03-25T08:07:32.000Z</time>
      </trkpt>
      <trkpt lat="49.64747" lon="5.64117">
        <ele>363</ele>
        <time>2022-03-25T08:07:35.000Z</time>
      </trkpt>
      <trkpt lat="49.64751" lon="5.64133">
        <ele>363</ele>
        <time>2022-03-25T08:07:37.000Z</time>
      </trkpt>
      <trkpt lat="49.64757" lon="5.64156">
        <ele>363.39999389648</ele>
        <time>2022-03-25T08:07:40.000Z</time>
      </trkpt>
      <trkpt lat="49.64767" lon="5.64193">
        <ele>363.20001220703</ele>
        <time>2022-03-25T08:07:45.000Z</time>
      </trkpt>
      <trkpt lat="49.6477" lon="5.64209">
        <ele>362.60000610352</ele>
        <time>2022-03-25T08:07:47.000Z</time>
      </trkpt>
      <trkpt lat="49.64774" lon="5.64239">
        <ele>362.20001220703</ele>
        <time>2022-03-25T08:07:51.000Z</time>
      </trkpt>
      <trkpt lat="49.64777" lon="5.64276">
        <ele>362</ele>
        <time>2022-03-25T08:07:56.000Z</time>
      </trkpt>
      <trkpt lat="49.64781" lon="5.64304">
        <ele>362</ele>
        <time>2022-03-25T08:08:00.000Z</time>
      </trkpt>
      <trkpt lat="49.64782" lon="5.64317">
        <ele>362</ele>
        <time>2022-03-25T08:08:02.000Z</time>
      </trkpt>
      <trkpt lat="49.64785" lon="5.64331">
        <ele>361.79998779297</ele>
        <time>2022-03-25T08:08:04.000Z</time>
      </trkpt>
      <trkpt lat="49.64789" lon="5.64345">
        <ele>361.20001220703</ele>
        <time>2022-03-25T08:08:06.000Z</time>
      </trkpt>
      <trkpt lat="49.64791" lon="5.64351">
        <ele>360.79998779297</ele>
        <time>2022-03-25T08:08:07.000Z</time>
      </trkpt>
      <trkpt lat="49.64802" lon="5.6438">
        <ele>359</ele>
        <time>2022-03-25T08:08:12.000Z</time>
      </trkpt>
      <trkpt lat="49.64811" lon="5.64417">
        <ele>357.20001220703</ele>
        <time>2022-03-25T08:08:17.000Z</time>
      </trkpt>
      <trkpt lat="49.64813" lon="5.64425">
        <ele>357.39999389648</ele>
        <time>2022-03-25T08:08:18.000Z</time>
      </trkpt>
      <trkpt lat="49.64821" lon="5.64457">
        <ele>358.79998779297</ele>
        <time>2022-03-25T08:08:23.000Z</time>
      </trkpt>
      <trkpt lat="49.64825" lon="5.64463">
        <ele>359</ele>
        <time>2022-03-25T08:08:24.000Z</time>
      </trkpt>
      <trkpt lat="49.6483" lon="5.64478">
        <ele>359.39999389648</ele>
        <time>2022-03-25T08:08:26.000Z</time>
      </trkpt>
      <trkpt lat="49.64832" lon="5.64491">
        <ele>359.20001220703</ele>
        <time>2022-03-25T08:08:28.000Z</time>
      </trkpt>
      <trkpt lat="49.64828" lon="5.64498">
        <ele>358.79998779297</ele>
        <time>2022-03-25T08:08:31.000Z</time>
      </trkpt>
      <trkpt lat="49.64819" lon="5.64498">
        <ele>358.79998779297</ele>
        <time>2022-03-25T08:08:34.000Z</time>
      </trkpt>
      <trkpt lat="49.64809" lon="5.64496">
        <ele>358.79998779297</ele>
        <time>2022-03-25T08:08:37.000Z</time>
      </trkpt>
      <trkpt lat="49.64787" lon="5.64495">
        <ele>359</ele>
        <time>2022-03-25T08:08:43.000Z</time>
      </trkpt>
      <trkpt lat="49.64776" lon="5.64497">
        <ele>359</ele>
        <time>2022-03-25T08:08:46.000Z</time>
      </trkpt>
      <trkpt lat="49.64766" lon="5.64498">
        <ele>359</ele>
        <time>2022-03-25T08:08:49.000Z</time>
      </trkpt>
      <trkpt lat="49.64752" lon="5.64506">
        <ele>359</ele>
        <time>2022-03-25T08:08:53.000Z</time>
      </trkpt>
      <trkpt lat="49.64748" lon="5.64509">
        <ele>359</ele>
        <time>2022-03-25T08:08:54.000Z</time>
      </trkpt>
      <trkpt lat="49.64733" lon="5.64535">
        <ele>359</ele>
        <time>2022-03-25T08:09:00.000Z</time>
      </trkpt>
      <trkpt lat="49.64733" lon="5.64555">
        <ele>359.79998779297</ele>
        <time>2022-03-25T08:09:04.000Z</time>
      </trkpt>
      <trkpt lat="49.64737" lon="5.6458">
        <ele>360.39999389648</ele>
        <time>2022-03-25T08:09:08.000Z</time>
      </trkpt>
      <trkpt lat="49.6474" lon="5.64608">
        <ele>361</ele>
        <time>2022-03-25T08:09:12.000Z</time>
      </trkpt>
      <trkpt lat="49.64739" lon="5.64615">
        <ele>361</ele>
        <time>2022-03-25T08:09:13.000Z</time>
      </trkpt>
      <trkpt lat="49.64733" lon="5.64638">
        <ele>361.79998779297</ele>
        <time>2022-03-25T08:09:17.000Z</time>
      </trkpt>
      <trkpt lat="49.64725" lon="5.64666">
        <ele>362.79998779297</ele>
        <time>2022-03-25T08:09:22.000Z</time>
      </trkpt>
      <trkpt lat="49.6472" lon="5.64678">
        <ele>362.79998779297</ele>
        <time>2022-03-25T08:09:24.000Z</time>
      </trkpt>
      <trkpt lat="49.64715" lon="5.6469">
        <ele>362.60000610352</ele>
        <time>2022-03-25T08:09:26.000Z</time>
      </trkpt>
      <trkpt lat="49.64701" lon="5.64705">
        <ele>362.20001220703</ele>
        <time>2022-03-25T08:09:30.000Z</time>
      </trkpt>
      <trkpt lat="49.64693" lon="5.64719">
        <ele>362</ele>
        <time>2022-03-25T08:09:33.000Z</time>
      </trkpt>
      <trkpt lat="49.64693" lon="5.64726">
        <ele>361.79998779297</ele>
        <time>2022-03-25T08:09:34.000Z</time>
      </trkpt>
      <trkpt lat="49.64694" lon="5.64761">
        <ele>360.79998779297</ele>
        <time>2022-03-25T08:09:39.000Z</time>
      </trkpt>
      <trkpt lat="49.6469" lon="5.64794">
        <ele>360</ele>
        <time>2022-03-25T08:09:44.000Z</time>
      </trkpt>
      <trkpt lat="49.64688" lon="5.64801">
        <ele>359.60000610352</ele>
        <time>2022-03-25T08:09:45.000Z</time>
      </trkpt>
      <trkpt lat="49.64677" lon="5.64822">
        <ele>358.20001220703</ele>
        <time>2022-03-25T08:09:49.000Z</time>
      </trkpt>
      <trkpt lat="49.64669" lon="5.64828">
        <ele>358</ele>
        <time>2022-03-25T08:09:51.000Z</time>
      </trkpt>
      <trkpt lat="49.64658" lon="5.64839">
        <ele>357.39999389648</ele>
        <time>2022-03-25T08:09:54.000Z</time>
      </trkpt>
      <trkpt lat="49.6465" lon="5.64845">
        <ele>357</ele>
        <time>2022-03-25T08:09:56.000Z</time>
      </trkpt>
      <trkpt lat="49.64641" lon="5.64846">
        <ele>357.20001220703</ele>
        <time>2022-03-25T08:09:58.000Z</time>
      </trkpt>
      <trkpt lat="49.64627" lon="5.64856">
        <ele>358.20001220703</ele>
        <time>2022-03-25T08:10:02.000Z</time>
      </trkpt>
      <trkpt lat="49.64623" lon="5.64861">
        <ele>358.39999389648</ele>
        <time>2022-03-25T08:10:03.000Z</time>
      </trkpt>
      <trkpt lat="49.64618" lon="5.64865">
        <ele>358.79998779297</ele>
        <time>2022-03-25T08:10:04.000Z</time>
      </trkpt>
      <trkpt lat="49.64608" lon="5.64874">
        <ele>359.60000610352</ele>
        <time>2022-03-25T08:10:06.000Z</time>
      </trkpt>
      <trkpt lat="49.64599" lon="5.64881">
        <ele>360</ele>
        <time>2022-03-25T08:10:08.000Z</time>
      </trkpt>
      <trkpt lat="49.6459" lon="5.64887">
        <ele>360</ele>
        <time>2022-03-25T08:10:10.000Z</time>
      </trkpt>
      <trkpt lat="49.6458" lon="5.64892">
        <ele>359.60000610352</ele>
        <time>2022-03-25T08:10:12.000Z</time>
      </trkpt>
      <trkpt lat="49.64571" lon="5.64895">
        <ele>359.39999389648</ele>
        <time>2022-03-25T08:10:14.000Z</time>
      </trkpt>
      <trkpt lat="49.64563" lon="5.64899">
        <ele>359.39999389648</ele>
        <time>2022-03-25T08:10:16.000Z</time>
      </trkpt>
      <trkpt lat="49.64554" lon="5.64906">
        <ele>359.20001220703</ele>
        <time>2022-03-25T08:10:18.000Z</time>
      </trkpt>
      <trkpt lat="49.6455" lon="5.64909">
        <ele>359.20001220703</ele>
        <time>2022-03-25T08:10:19.000Z</time>
      </trkpt>
      <trkpt lat="49.64546" lon="5.64913">
        <ele>359</ele>
        <time>2022-03-25T08:10:20.000Z</time>
      </trkpt>
      <trkpt lat="49.64541" lon="5.64924">
        <ele>358.60000610352</ele>
        <time>2022-03-25T08:10:22.000Z</time>
      </trkpt>
      <trkpt lat="49.64535" lon="5.64938">
        <ele>358.20001220703</ele>
        <time>2022-03-25T08:10:24.000Z</time>
      </trkpt>
      <trkpt lat="49.64523" lon="5.64969">
        <ele>357.79998779297</ele>
        <time>2022-03-25T08:10:29.000Z</time>
      </trkpt>
      <trkpt lat="49.64518" lon="5.64981">
        <ele>358</ele>
        <time>2022-03-25T08:10:31.000Z</time>
      </trkpt>
      <trkpt lat="49.64507" lon="5.64987">
        <ele>358</ele>
        <time>2022-03-25T08:10:34.000Z</time>
      </trkpt>
      <trkpt lat="49.64504" lon="5.64984">
        <ele>358</ele>
        <time>2022-03-25T08:10:35.000Z</time>
      </trkpt>
      <trkpt lat="49.64501" lon="5.64974">
        <ele>358</ele>
        <time>2022-03-25T08:10:37.000Z</time>
      </trkpt>
      <trkpt lat="49.64492" lon="5.64938">
        <ele>357.39999389648</ele>
        <time>2022-03-25T08:10:43.000Z</time>
      </trkpt>
      <trkpt lat="49.64486" lon="5.64911">
        <ele>358</ele>
        <time>2022-03-25T08:10:47.000Z</time>
      </trkpt>
      <trkpt lat="49.64483" lon="5.64898">
        <ele>358.60000610352</ele>
        <time>2022-03-25T08:10:49.000Z</time>
      </trkpt>
      <trkpt lat="49.64482" lon="5.64891">
        <ele>359</ele>
        <time>2022-03-25T08:10:50.000Z</time>
      </trkpt>
      <trkpt lat="49.64477" lon="5.64872">
        <ele>360.39999389648</ele>
        <time>2022-03-25T08:10:53.000Z</time>
      </trkpt>
      <trkpt lat="49.64467" lon="5.64827">
        <ele>361.60000610352</ele>
        <time>2022-03-25T08:11:00.000Z</time>
      </trkpt>
      <trkpt lat="49.6446" lon="5.64809">
        <ele>362.20001220703</ele>
        <time>2022-03-25T08:11:03.000Z</time>
      </trkpt>
      <trkpt lat="49.64451" lon="5.64789">
        <ele>362.79998779297</ele>
        <time>2022-03-25T08:11:06.000Z</time>
      </trkpt>
      <trkpt lat="49.64436" lon="5.64742">
        <ele>363.60000610352</ele>
        <time>2022-03-25T08:11:13.000Z</time>
      </trkpt>
      <trkpt lat="49.64435" lon="5.64717">
        <ele>363</ele>
        <time>2022-03-25T08:11:17.000Z</time>
      </trkpt>
      <trkpt lat="49.64435" lon="5.6471">
        <ele>363</ele>
        <time>2022-03-25T08:11:18.000Z</time>
      </trkpt>
      <trkpt lat="49.64432" lon="5.64697">
        <ele>362.79998779297</ele>
        <time>2022-03-25T08:11:20.000Z</time>
      </trkpt>
      <trkpt lat="49.64429" lon="5.64683">
        <ele>361.79998779297</ele>
        <time>2022-03-25T08:11:22.000Z</time>
      </trkpt>
      <trkpt lat="49.64417" lon="5.64629">
        <ele>360.39999389648</ele>
        <time>2022-03-25T08:11:29.000Z</time>
      </trkpt>
      <trkpt lat="49.6441" lon="5.64591">
        <ele>360</ele>
        <time>2022-03-25T08:11:34.000Z</time>
      </trkpt>
      <trkpt lat="49.6441" lon="5.64585">
        <ele>360</ele>
        <time>2022-03-25T08:11:35.000Z</time>
      </trkpt>
      <trkpt lat="49.64413" lon="5.64551">
        <ele>361</ele>
        <time>2022-03-25T08:11:40.000Z</time>
      </trkpt>
      <trkpt lat="49.64416" lon="5.6453">
        <ele>361.79998779297</ele>
        <time>2022-03-25T08:11:43.000Z</time>
      </trkpt>
      <trkpt lat="49.6442" lon="5.64516">
        <ele>362</ele>
        <time>2022-03-25T08:11:45.000Z</time>
      </trkpt>
      <trkpt lat="49.64422" lon="5.64494">
        <ele>361.20001220703</ele>
        <time>2022-03-25T08:11:48.000Z</time>
      </trkpt>
      <trkpt lat="49.64422" lon="5.64486">
        <ele>360.60000610352</ele>
        <time>2022-03-25T08:11:49.000Z</time>
      </trkpt>
      <trkpt lat="49.64422" lon="5.64478">
        <ele>360.20001220703</ele>
        <time>2022-03-25T08:11:50.000Z</time>
      </trkpt>
      <trkpt lat="49.64415" lon="5.64446">
        <ele>359.20001220703</ele>
        <time>2022-03-25T08:11:54.000Z</time>
      </trkpt>
      <trkpt lat="49.64413" lon="5.6443">
        <ele>358.60000610352</ele>
        <time>2022-03-25T08:11:56.000Z</time>
      </trkpt>
      <trkpt lat="49.64411" lon="5.64412">
        <ele>357.79998779297</ele>
        <time>2022-03-25T08:11:58.000Z</time>
      </trkpt>
      <trkpt lat="49.64409" lon="5.64404">
        <ele>357.20001220703</ele>
        <time>2022-03-25T08:11:59.000Z</time>
      </trkpt>
      <trkpt lat="49.64401" lon="5.64373">
        <ele>356</ele>
        <time>2022-03-25T08:12:02.000Z</time>
      </trkpt>
      <trkpt lat="49.64397" lon="5.64362">
        <ele>355.79998779297</ele>
        <time>2022-03-25T08:12:03.000Z</time>
      </trkpt>
      <trkpt lat="49.64387" lon="5.6434">
        <ele>355.39999389648</ele>
        <time>2022-03-25T08:12:05.000Z</time>
      </trkpt>
      <trkpt lat="49.64377" lon="5.64318">
        <ele>355</ele>
        <time>2022-03-25T08:12:07.000Z</time>
      </trkpt>
      <trkpt lat="49.64372" lon="5.64308">
        <ele>355</ele>
        <time>2022-03-25T08:12:08.000Z</time>
      </trkpt>
      <trkpt lat="49.64362" lon="5.6429">
        <ele>355.20001220703</ele>
        <time>2022-03-25T08:12:10.000Z</time>
      </trkpt>
      <trkpt lat="49.64358" lon="5.64282">
        <ele>355.60000610352</ele>
        <time>2022-03-25T08:12:11.000Z</time>
      </trkpt>
      <trkpt lat="49.64348" lon="5.64267">
        <ele>355.79998779297</ele>
        <time>2022-03-25T08:12:13.000Z</time>
      </trkpt>
      <trkpt lat="49.64328" lon="5.6424">
        <ele>356</ele>
        <time>2022-03-25T08:12:17.000Z</time>
      </trkpt>
      <trkpt lat="49.6432" lon="5.64225">
        <ele>356</ele>
        <time>2022-03-25T08:12:19.000Z</time>
      </trkpt>
      <trkpt lat="49.64316" lon="5.64218">
        <ele>355.79998779297</ele>
        <time>2022-03-25T08:12:20.000Z</time>
      </trkpt>
      <trkpt lat="49.64311" lon="5.64212">
        <ele>355.39999389648</ele>
        <time>2022-03-25T08:12:21.000Z</time>
      </trkpt>
      <trkpt lat="49.64303" lon="5.642">
        <ele>355.20001220703</ele>
        <time>2022-03-25T08:12:23.000Z</time>
      </trkpt>
      <trkpt lat="49.6429" lon="5.64172">
        <ele>354.79998779297</ele>
        <time>2022-03-25T08:12:27.000Z</time>
      </trkpt>
      <trkpt lat="49.6427" lon="5.64122">
        <ele>353.39999389648</ele>
        <time>2022-03-25T08:12:33.000Z</time>
      </trkpt>
      <trkpt lat="49.64257" lon="5.64074">
        <ele>352.60000610352</ele>
        <time>2022-03-25T08:12:38.000Z</time>
      </trkpt>
      <trkpt lat="49.6425" lon="5.64056">
        <ele>352.20001220703</ele>
        <time>2022-03-25T08:12:40.000Z</time>
      </trkpt>
      <trkpt lat="49.64238" lon="5.64033">
        <ele>352.60000610352</ele>
        <time>2022-03-25T08:12:43.000Z</time>
      </trkpt>
      <trkpt lat="49.64225" lon="5.64009">
        <ele>352.20001220703</ele>
        <time>2022-03-25T08:12:46.000Z</time>
      </trkpt>
      <trkpt lat="49.64198" lon="5.63964">
        <ele>351</ele>
        <time>2022-03-25T08:12:52.000Z</time>
      </trkpt>
      <trkpt lat="49.64194" lon="5.63957">
        <ele>350.39999389648</ele>
        <time>2022-03-25T08:12:53.000Z</time>
      </trkpt>
      <trkpt lat="49.6417" lon="5.63918">
        <ele>348</ele>
        <time>2022-03-25T08:12:58.000Z</time>
      </trkpt>
      <trkpt lat="49.64161" lon="5.63902">
        <ele>347.60000610352</ele>
        <time>2022-03-25T08:13:00.000Z</time>
      </trkpt>
      <trkpt lat="49.64156" lon="5.63895">
        <ele>347.39999389648</ele>
        <time>2022-03-25T08:13:01.000Z</time>
      </trkpt>
      <trkpt lat="49.64145" lon="5.63876">
        <ele>347</ele>
        <time>2022-03-25T08:13:04.000Z</time>
      </trkpt>
      <trkpt lat="49.64143" lon="5.63869">
        <ele>347</ele>
        <time>2022-03-25T08:13:05.000Z</time>
      </trkpt>
      <trkpt lat="49.64136" lon="5.63858">
        <ele>347.79998779297</ele>
        <time>2022-03-25T08:13:08.000Z</time>
      </trkpt>
      <trkpt lat="49.64134" lon="5.63865">
        <ele>348</ele>
        <time>2022-03-25T08:13:11.000Z</time>
      </trkpt>
      <trkpt lat="49.64134" lon="5.63884">
        <ele>348</ele>
        <time>2022-03-25T08:13:15.000Z</time>
      </trkpt>
      <trkpt lat="49.64135" lon="5.63889">
        <ele>347.60000610352</ele>
        <time>2022-03-25T08:13:16.000Z</time>
      </trkpt>
      <trkpt lat="49.64135" lon="5.63913">
        <ele>347.60000610352</ele>
        <time>2022-03-25T08:13:20.000Z</time>
      </trkpt>
      <trkpt lat="49.64134" lon="5.6392">
        <ele>347.39999389648</ele>
        <time>2022-03-25T08:13:21.000Z</time>
      </trkpt>
      <trkpt lat="49.64126" lon="5.63943">
        <ele>346.79998779297</ele>
        <time>2022-03-25T08:13:24.000Z</time>
      </trkpt>
      <trkpt lat="49.64124" lon="5.6395">
        <ele>346.20001220703</ele>
        <time>2022-03-25T08:13:25.000Z</time>
      </trkpt>
      <trkpt lat="49.64119" lon="5.63958">
        <ele>345.79998779297</ele>
        <time>2022-03-25T08:13:26.000Z</time>
      </trkpt>
      <trkpt lat="49.64102" lon="5.63987">
        <ele>344.60000610352</ele>
        <time>2022-03-25T08:13:30.000Z</time>
      </trkpt>
      <trkpt lat="49.64094" lon="5.64">
        <ele>344.20001220703</ele>
        <time>2022-03-25T08:13:32.000Z</time>
      </trkpt>
      <trkpt lat="49.6408" lon="5.6402">
        <ele>342.79998779297</ele>
        <time>2022-03-25T08:13:35.000Z</time>
      </trkpt>
      <trkpt lat="49.64058" lon="5.64053">
        <ele>342.20001220703</ele>
        <time>2022-03-25T08:13:39.000Z</time>
      </trkpt>
      <trkpt lat="49.64046" lon="5.64069">
        <ele>341.79998779297</ele>
        <time>2022-03-25T08:13:41.000Z</time>
      </trkpt>
      <trkpt lat="49.64039" lon="5.64075">
        <ele>341.60000610352</ele>
        <time>2022-03-25T08:13:42.000Z</time>
      </trkpt>
      <trkpt lat="49.6402" lon="5.64089">
        <ele>341</ele>
        <time>2022-03-25T08:13:45.000Z</time>
      </trkpt>
      <trkpt lat="49.63997" lon="5.64104">
        <ele>341.79998779297</ele>
        <time>2022-03-25T08:13:49.000Z</time>
      </trkpt>
      <trkpt lat="49.63987" lon="5.64109">
        <ele>342</ele>
        <time>2022-03-25T08:13:51.000Z</time>
      </trkpt>
      <trkpt lat="49.63982" lon="5.64116">
        <ele>342.20001220703</ele>
        <time>2022-03-25T08:13:53.000Z</time>
      </trkpt>
      <trkpt lat="49.63983" lon="5.64135">
        <ele>343.39999389648</ele>
        <time>2022-03-25T08:13:57.000Z</time>
      </trkpt>
      <trkpt lat="49.63985" lon="5.64147">
        <ele>344.60000610352</ele>
        <time>2022-03-25T08:14:00.000Z</time>
      </trkpt>
      <trkpt lat="49.63987" lon="5.64158">
        <ele>346.20001220703</ele>
        <time>2022-03-25T08:14:03.000Z</time>
      </trkpt>
      <trkpt lat="49.63988" lon="5.64168">
        <ele>347.60000610352</ele>
        <time>2022-03-25T08:14:06.000Z</time>
      </trkpt>
      <trkpt lat="49.63991" lon="5.6418">
        <ele>348.39999389648</ele>
        <time>2022-03-25T08:14:09.000Z</time>
      </trkpt>
      <trkpt lat="49.63995" lon="5.64193">
        <ele>348.79998779297</ele>
        <time>2022-03-25T08:14:12.000Z</time>
      </trkpt>
      <trkpt lat="49.64" lon="5.64207">
        <ele>349.39999389648</ele>
        <time>2022-03-25T08:14:15.000Z</time>
      </trkpt>
      <trkpt lat="49.64002" lon="5.64212">
        <ele>349.39999389648</ele>
        <time>2022-03-25T08:14:16.000Z</time>
      </trkpt>
      <trkpt lat="49.64008" lon="5.6423">
        <ele>350.20001220703</ele>
        <time>2022-03-25T08:14:20.000Z</time>
      </trkpt>
      <trkpt lat="49.64009" lon="5.64234">
        <ele>350.39999389648</ele>
        <time>2022-03-25T08:14:21.000Z</time>
      </trkpt>
      <trkpt lat="49.6401" lon="5.64243">
        <ele>350.79998779297</ele>
        <time>2022-03-25T08:14:23.000Z</time>
      </trkpt>
      <trkpt lat="49.64012" lon="5.64259">
        <ele>351.20001220703</ele>
        <time>2022-03-25T08:14:26.000Z</time>
      </trkpt>
      <trkpt lat="49.64012" lon="5.64264">
        <ele>351.20001220703</ele>
        <time>2022-03-25T08:14:27.000Z</time>
      </trkpt>
      <trkpt lat="49.64014" lon="5.64285">
        <ele>350.79998779297</ele>
        <time>2022-03-25T08:14:31.000Z</time>
      </trkpt>
      <trkpt lat="49.64014" lon="5.6429">
        <ele>350.79998779297</ele>
        <time>2022-03-25T08:14:32.000Z</time>
      </trkpt>
      <trkpt lat="49.64013" lon="5.64302">
        <ele>350.60000610352</ele>
        <time>2022-03-25T08:14:35.000Z</time>
      </trkpt>
      <trkpt lat="49.6401" lon="5.64318">
        <ele>350.79998779297</ele>
        <time>2022-03-25T08:14:39.000Z</time>
      </trkpt>
      <trkpt lat="49.64009" lon="5.64322">
        <ele>351.20001220703</ele>
        <time>2022-03-25T08:14:40.000Z</time>
      </trkpt>
      <trkpt lat="49.64007" lon="5.64335">
        <ele>352</ele>
        <time>2022-03-25T08:14:43.000Z</time>
      </trkpt>
      <trkpt lat="49.64006" lon="5.64343">
        <ele>352.60000610352</ele>
        <time>2022-03-25T08:14:45.000Z</time>
      </trkpt>
      <trkpt lat="49.64004" lon="5.64365">
        <ele>354</ele>
        <time>2022-03-25T08:14:49.000Z</time>
      </trkpt>
      <trkpt lat="49.64003" lon="5.64377">
        <ele>354.79998779297</ele>
        <time>2022-03-25T08:14:51.000Z</time>
      </trkpt>
      <trkpt lat="49.64001" lon="5.64391">
        <ele>355.79998779297</ele>
        <time>2022-03-25T08:14:54.000Z</time>
      </trkpt>
      <trkpt lat="49.64" lon="5.64401">
        <ele>356.79998779297</ele>
        <time>2022-03-25T08:14:56.000Z</time>
      </trkpt>
      <trkpt lat="49.64004" lon="5.64425">
        <ele>358.20001220703</ele>
        <time>2022-03-25T08:15:00.000Z</time>
      </trkpt>
      <trkpt lat="49.64009" lon="5.64442">
        <ele>358.79998779297</ele>
        <time>2022-03-25T08:15:03.000Z</time>
      </trkpt>
      <trkpt lat="49.64019" lon="5.64467">
        <ele>359</ele>
        <time>2022-03-25T08:15:08.000Z</time>
      </trkpt>
      <trkpt lat="49.64021" lon="5.64472">
        <ele>359</ele>
        <time>2022-03-25T08:15:09.000Z</time>
      </trkpt>
      <trkpt lat="49.6403" lon="5.64492">
        <ele>359</ele>
        <time>2022-03-25T08:15:13.000Z</time>
      </trkpt>
      <trkpt lat="49.64046" lon="5.64522">
        <ele>359</ele>
        <time>2022-03-25T08:15:19.000Z</time>
      </trkpt>
      <trkpt lat="49.64061" lon="5.64547">
        <ele>359</ele>
        <time>2022-03-25T08:15:25.000Z</time>
      </trkpt>
      <trkpt lat="49.64063" lon="5.64551">
        <ele>359</ele>
        <time>2022-03-25T08:15:26.000Z</time>
      </trkpt>
      <trkpt lat="49.64077" lon="5.6457">
        <ele>358.60000610352</ele>
        <time>2022-03-25T08:15:31.000Z</time>
      </trkpt>
      <trkpt lat="49.64098" lon="5.64602">
        <ele>357.20001220703</ele>
        <time>2022-03-25T08:15:38.000Z</time>
      </trkpt>
      <trkpt lat="49.64101" lon="5.64607">
        <ele>357</ele>
        <time>2022-03-25T08:15:39.000Z</time>
      </trkpt>
      <trkpt lat="49.64105" lon="5.64611">
        <ele>356.79998779297</ele>
        <time>2022-03-25T08:15:40.000Z</time>
      </trkpt>
      <trkpt lat="49.64118" lon="5.6463">
        <ele>356</ele>
        <time>2022-03-25T08:15:44.000Z</time>
      </trkpt>
      <trkpt lat="49.64132" lon="5.64654">
        <ele>356.79998779297</ele>
        <time>2022-03-25T08:15:49.000Z</time>
      </trkpt>
      <trkpt lat="49.64142" lon="5.64667">
        <ele>357.60000610352</ele>
        <time>2022-03-25T08:15:52.000Z</time>
      </trkpt>
      <trkpt lat="49.64152" lon="5.64681">
        <ele>358.39999389648</ele>
        <time>2022-03-25T08:15:55.000Z</time>
      </trkpt>
      <trkpt lat="49.64175" lon="5.64723">
        <ele>359.20001220703</ele>
        <time>2022-03-25T08:16:02.000Z</time>
      </trkpt>
      <trkpt lat="49.64185" lon="5.64741">
        <ele>359.60000610352</ele>
        <time>2022-03-25T08:16:05.000Z</time>
      </trkpt>
      <trkpt lat="49.6419" lon="5.64753">
        <ele>360</ele>
        <time>2022-03-25T08:16:07.000Z</time>
      </trkpt>
      <trkpt lat="49.64205" lon="5.64785">
        <ele>361.60000610352</ele>
        <time>2022-03-25T08:16:12.000Z</time>
      </trkpt>
      <trkpt lat="49.64208" lon="5.64791">
        <ele>361.79998779297</ele>
        <time>2022-03-25T08:16:13.000Z</time>
      </trkpt>
      <trkpt lat="49.64214" lon="5.64804">
        <ele>362.39999389648</ele>
        <time>2022-03-25T08:16:15.000Z</time>
      </trkpt>
      <trkpt lat="49.64225" lon="5.64824">
        <ele>363</ele>
        <time>2022-03-25T08:16:18.000Z</time>
      </trkpt>
      <trkpt lat="49.64233" lon="5.64847">
        <ele>363.20001220703</ele>
        <time>2022-03-25T08:16:21.000Z</time>
      </trkpt>
      <trkpt lat="49.64241" lon="5.64868">
        <ele>363.39999389648</ele>
        <time>2022-03-25T08:16:24.000Z</time>
      </trkpt>
      <trkpt lat="49.64253" lon="5.64894">
        <ele>362.79998779297</ele>
        <time>2022-03-25T08:16:28.000Z</time>
      </trkpt>
      <trkpt lat="49.64258" lon="5.64907">
        <ele>362</ele>
        <time>2022-03-25T08:16:30.000Z</time>
      </trkpt>
      <trkpt lat="49.64256" lon="5.64926">
        <ele>360.79998779297</ele>
        <time>2022-03-25T08:16:33.000Z</time>
      </trkpt>
      <trkpt lat="49.64251" lon="5.64934">
        <ele>360.60000610352</ele>
        <time>2022-03-25T08:16:35.000Z</time>
      </trkpt>
      <trkpt lat="49.64246" lon="5.64943">
        <ele>360.20001220703</ele>
        <time>2022-03-25T08:16:37.000Z</time>
      </trkpt>
      <trkpt lat="49.64236" lon="5.64957">
        <ele>360</ele>
        <time>2022-03-25T08:16:40.000Z</time>
      </trkpt>
      <trkpt lat="49.64223" lon="5.64976">
        <ele>360</ele>
        <time>2022-03-25T08:16:44.000Z</time>
      </trkpt>
      <trkpt lat="49.64215" lon="5.64984">
        <ele>360</ele>
        <time>2022-03-25T08:16:46.000Z</time>
      </trkpt>
      <trkpt lat="49.64205" lon="5.64996">
        <ele>360.39999389648</ele>
        <time>2022-03-25T08:16:49.000Z</time>
      </trkpt>
      <trkpt lat="49.64184" lon="5.65014">
        <ele>360.20001220703</ele>
        <time>2022-03-25T08:16:54.000Z</time>
      </trkpt>
      <trkpt lat="49.64179" lon="5.65017">
        <ele>360</ele>
        <time>2022-03-25T08:16:55.000Z</time>
      </trkpt>
      <trkpt lat="49.64158" lon="5.65033">
        <ele>359</ele>
        <time>2022-03-25T08:17:01.000Z</time>
      </trkpt>
      <trkpt lat="49.64134" lon="5.65066">
        <ele>357.39999389648</ele>
        <time>2022-03-25T08:17:07.000Z</time>
      </trkpt>
      <trkpt lat="49.64105" lon="5.65108">
        <ele>357</ele>
        <time>2022-03-25T08:17:13.000Z</time>
      </trkpt>
      <trkpt lat="49.64091" lon="5.65124">
        <ele>357.60000610352</ele>
        <time>2022-03-25T08:17:16.000Z</time>
      </trkpt>
      <trkpt lat="49.6408" lon="5.65128">
        <ele>357.60000610352</ele>
        <time>2022-03-25T08:17:18.000Z</time>
      </trkpt>
      <trkpt lat="49.64068" lon="5.65132">
        <ele>357.60000610352</ele>
        <time>2022-03-25T08:17:20.000Z</time>
      </trkpt>
      <trkpt lat="49.64051" lon="5.65139">
        <ele>357.79998779297</ele>
        <time>2022-03-25T08:17:23.000Z</time>
      </trkpt>
      <trkpt lat="49.64041" lon="5.65147">
        <ele>358.20001220703</ele>
        <time>2022-03-25T08:17:25.000Z</time>
      </trkpt>
      <trkpt lat="49.64035" lon="5.65152">
        <ele>358.39999389648</ele>
        <time>2022-03-25T08:17:26.000Z</time>
      </trkpt>
      <trkpt lat="49.6401" lon="5.6518">
        <ele>359</ele>
        <time>2022-03-25T08:17:31.000Z</time>
      </trkpt>
      <trkpt lat="49.64" lon="5.65193">
        <ele>358.60000610352</ele>
        <time>2022-03-25T08:17:33.000Z</time>
      </trkpt>
      <trkpt lat="49.63996" lon="5.652">
        <ele>358.20001220703</ele>
        <time>2022-03-25T08:17:34.000Z</time>
      </trkpt>
      <trkpt lat="49.63985" lon="5.6522">
        <ele>356.60000610352</ele>
        <time>2022-03-25T08:17:37.000Z</time>
      </trkpt>
      <trkpt lat="49.6396" lon="5.65273">
        <ele>355.60000610352</ele>
        <time>2022-03-25T08:17:44.000Z</time>
      </trkpt>
      <trkpt lat="49.63947" lon="5.65292">
        <ele>356.39999389648</ele>
        <time>2022-03-25T08:17:47.000Z</time>
      </trkpt>
      <trkpt lat="49.63937" lon="5.65302">
        <ele>356.79998779297</ele>
        <time>2022-03-25T08:17:49.000Z</time>
      </trkpt>
      <trkpt lat="49.63903" lon="5.65321">
        <ele>356.39999389648</ele>
        <time>2022-03-25T08:17:55.000Z</time>
      </trkpt>
      <trkpt lat="49.63897" lon="5.65324">
        <ele>355.60000610352</ele>
        <time>2022-03-25T08:17:56.000Z</time>
      </trkpt>
      <trkpt lat="49.63871" lon="5.65342">
        <ele>353.39999389648</ele>
        <time>2022-03-25T08:18:01.000Z</time>
      </trkpt>
      <trkpt lat="49.63865" lon="5.65346">
        <ele>353</ele>
        <time>2022-03-25T08:18:02.000Z</time>
      </trkpt>
      <trkpt lat="49.63859" lon="5.6535">
        <ele>353.20001220703</ele>
        <time>2022-03-25T08:18:03.000Z</time>
      </trkpt>
      <trkpt lat="49.63833" lon="5.65366">
        <ele>354.20001220703</ele>
        <time>2022-03-25T08:18:08.000Z</time>
      </trkpt>
      <trkpt lat="49.63797" lon="5.65387">
        <ele>354.39999389648</ele>
        <time>2022-03-25T08:18:14.000Z</time>
      </trkpt>
      <trkpt lat="49.63791" lon="5.6539">
        <ele>353.79998779297</ele>
        <time>2022-03-25T08:18:15.000Z</time>
      </trkpt>
      <trkpt lat="49.63764" lon="5.65398">
        <ele>352.39999389648</ele>
        <time>2022-03-25T08:18:19.000Z</time>
      </trkpt>
      <trkpt lat="49.63758" lon="5.65398">
        <ele>352.20001220703</ele>
        <time>2022-03-25T08:18:20.000Z</time>
      </trkpt>
      <trkpt lat="49.63745" lon="5.65396">
        <ele>352</ele>
        <time>2022-03-25T08:18:22.000Z</time>
      </trkpt>
      <trkpt lat="49.63713" lon="5.65389">
        <ele>352</ele>
        <time>2022-03-25T08:18:27.000Z</time>
      </trkpt>
      <trkpt lat="49.63688" lon="5.65381">
        <ele>352.39999389648</ele>
        <time>2022-03-25T08:18:31.000Z</time>
      </trkpt>
      <trkpt lat="49.63682" lon="5.6538">
        <ele>352.79998779297</ele>
        <time>2022-03-25T08:18:32.000Z</time>
      </trkpt>
      <trkpt lat="49.63657" lon="5.65386">
        <ele>353.79998779297</ele>
        <time>2022-03-25T08:18:36.000Z</time>
      </trkpt>
      <trkpt lat="49.63651" lon="5.65389">
        <ele>353.79998779297</ele>
        <time>2022-03-25T08:18:37.000Z</time>
      </trkpt>
      <trkpt lat="49.63633" lon="5.654">
        <ele>353.20001220703</ele>
        <time>2022-03-25T08:18:40.000Z</time>
      </trkpt>
      <trkpt lat="49.63627" lon="5.65405">
        <ele>352.79998779297</ele>
        <time>2022-03-25T08:18:41.000Z</time>
      </trkpt>
      <trkpt lat="49.63621" lon="5.6541">
        <ele>352</ele>
        <time>2022-03-25T08:18:42.000Z</time>
      </trkpt>
      <trkpt lat="49.63609" lon="5.6542">
        <ele>350.39999389648</ele>
        <time>2022-03-25T08:18:44.000Z</time>
      </trkpt>
      <trkpt lat="49.63596" lon="5.65429">
        <ele>348.60000610352</ele>
        <time>2022-03-25T08:18:46.000Z</time>
      </trkpt>
      <trkpt lat="49.63583" lon="5.65438">
        <ele>347.60000610352</ele>
        <time>2022-03-25T08:18:48.000Z</time>
      </trkpt>
      <trkpt lat="49.63576" lon="5.65443">
        <ele>346.79998779297</ele>
        <time>2022-03-25T08:18:49.000Z</time>
      </trkpt>
      <trkpt lat="49.63563" lon="5.65456">
        <ele>345.20001220703</ele>
        <time>2022-03-25T08:18:51.000Z</time>
      </trkpt>
      <trkpt lat="49.63551" lon="5.65471">
        <ele>344.60000610352</ele>
        <time>2022-03-25T08:18:53.000Z</time>
      </trkpt>
      <trkpt lat="49.63544" lon="5.65478">
        <ele>344.39999389648</ele>
        <time>2022-03-25T08:18:54.000Z</time>
      </trkpt>
      <trkpt lat="49.6352" lon="5.65508">
        <ele>342.79998779297</ele>
        <time>2022-03-25T08:18:58.000Z</time>
      </trkpt>
      <trkpt lat="49.63509" lon="5.65523">
        <ele>342.20001220703</ele>
        <time>2022-03-25T08:19:00.000Z</time>
      </trkpt>
      <trkpt lat="49.63504" lon="5.65529">
        <ele>342.20001220703</ele>
        <time>2022-03-25T08:19:01.000Z</time>
      </trkpt>
      <trkpt lat="49.63492" lon="5.65546">
        <ele>340.60000610352</ele>
        <time>2022-03-25T08:19:04.000Z</time>
      </trkpt>
      <trkpt lat="49.63469" lon="5.65587">
        <ele>338.60000610352</ele>
        <time>2022-03-25T08:20:09.000Z</time>
      </trkpt>
      <trkpt lat="49.63473" lon="5.65597">
        <ele>338.79998779297</ele>
        <time>2022-03-25T08:20:12.000Z</time>
      </trkpt>
      <trkpt lat="49.63478" lon="5.65623">
        <ele>339.39999389648</ele>
        <time>2022-03-25T08:20:20.000Z</time>
      </trkpt>
      <trkpt lat="49.63478" lon="5.65635">
        <ele>339.79998779297</ele>
        <time>2022-03-25T08:20:23.000Z</time>
      </trkpt>
      <trkpt lat="49.63478" lon="5.65639">
        <ele>340</ele>
        <time>2022-03-25T08:20:24.000Z</time>
      </trkpt>
      <trkpt lat="49.63481" lon="5.65661">
        <ele>340.39999389648</ele>
        <time>2022-03-25T08:20:29.000Z</time>
      </trkpt>
      <trkpt lat="49.63482" lon="5.65669">
        <ele>340.39999389648</ele>
        <time>2022-03-25T08:20:31.000Z</time>
      </trkpt>
      <trkpt lat="49.63483" lon="5.65688">
        <ele>341.20001220703</ele>
        <time>2022-03-25T08:20:36.000Z</time>
      </trkpt>
      <trkpt lat="49.63483" lon="5.65692">
        <ele>341.20001220703</ele>
        <time>2022-03-25T08:20:37.000Z</time>
      </trkpt>
      <trkpt lat="49.63488" lon="5.65709">
        <ele>342.20001220703</ele>
        <time>2022-03-25T08:20:42.000Z</time>
      </trkpt>
      <trkpt lat="49.63489" lon="5.65712">
        <ele>342.39999389648</ele>
        <time>2022-03-25T08:20:43.000Z</time>
      </trkpt>
      <trkpt lat="49.63495" lon="5.65726">
        <ele>343</ele>
        <time>2022-03-25T08:20:47.000Z</time>
      </trkpt>
      <trkpt lat="49.63502" lon="5.65737">
        <ele>344.20001220703</ele>
        <time>2022-03-25T08:20:50.000Z</time>
      </trkpt>
      <trkpt lat="49.63517" lon="5.65752">
        <ele>345.79998779297</ele>
        <time>2022-03-25T08:20:56.000Z</time>
      </trkpt>
      <trkpt lat="49.63528" lon="5.65756">
        <ele>346.79998779297</ele>
        <time>2022-03-25T08:21:00.000Z</time>
      </trkpt>
      <trkpt lat="49.63537" lon="5.65758">
        <ele>347.20001220703</ele>
        <time>2022-03-25T08:21:03.000Z</time>
      </trkpt>
      <trkpt lat="49.63562" lon="5.65771">
        <ele>348.39999389648</ele>
        <time>2022-03-25T08:21:11.000Z</time>
      </trkpt>
      <trkpt lat="49.63565" lon="5.65775">
        <ele>348.39999389648</ele>
        <time>2022-03-25T08:21:12.000Z</time>
      </trkpt>
      <trkpt lat="49.63581" lon="5.65797">
        <ele>348.20001220703</ele>
        <time>2022-03-25T08:21:18.000Z</time>
      </trkpt>
      <trkpt lat="49.63599" lon="5.65828">
        <ele>347.39999389648</ele>
        <time>2022-03-25T08:21:24.000Z</time>
      </trkpt>
      <trkpt lat="49.63616" lon="5.65857">
        <ele>345.60000610352</ele>
        <time>2022-03-25T08:21:30.000Z</time>
      </trkpt>
      <trkpt lat="49.63619" lon="5.65859">
        <ele>345.39999389648</ele>
        <time>2022-03-25T08:21:31.000Z</time>
      </trkpt>
      <trkpt lat="49.63628" lon="5.65863">
        <ele>345.20001220703</ele>
        <time>2022-03-25T08:21:34.000Z</time>
      </trkpt>
      <trkpt lat="49.6364" lon="5.65861">
        <ele>345.20001220703</ele>
        <time>2022-03-25T08:21:37.000Z</time>
      </trkpt>
      <trkpt lat="49.63647" lon="5.6586">
        <ele>345.79998779297</ele>
        <time>2022-03-25T08:21:39.000Z</time>
      </trkpt>
      <trkpt lat="49.63667" lon="5.65865">
        <ele>347.60000610352</ele>
        <time>2022-03-25T08:21:44.000Z</time>
      </trkpt>
      <trkpt lat="49.63689" lon="5.6587">
        <ele>350</ele>
        <time>2022-03-25T08:21:50.000Z</time>
      </trkpt>
      <trkpt lat="49.63706" lon="5.65869">
        <ele>350.60000610352</ele>
        <time>2022-03-25T08:21:55.000Z</time>
      </trkpt>
      <trkpt lat="49.6373" lon="5.65879">
        <ele>349.20001220703</ele>
        <time>2022-03-25T08:22:01.000Z</time>
      </trkpt>
      <trkpt lat="49.63757" lon="5.65909">
        <ele>346.39999389648</ele>
        <time>2022-03-25T08:22:08.000Z</time>
      </trkpt>
      <trkpt lat="49.63789" lon="5.65947">
        <ele>345.39999389648</ele>
        <time>2022-03-25T08:22:17.000Z</time>
      </trkpt>
      <trkpt lat="49.63798" lon="5.65961">
        <ele>345.60000610352</ele>
        <time>2022-03-25T08:22:22.000Z</time>
      </trkpt>
      <trkpt lat="49.63809" lon="5.65983">
        <ele>346</ele>
        <time>2022-03-25T08:22:28.000Z</time>
      </trkpt>
      <trkpt lat="49.63814" lon="5.65996">
        <ele>346.20001220703</ele>
        <time>2022-03-25T08:22:31.000Z</time>
      </trkpt>
      <trkpt lat="49.6382" lon="5.66">
        <ele>346.39999389648</ele>
        <time>2022-03-25T08:22:33.000Z</time>
      </trkpt>
      <trkpt lat="49.63833" lon="5.65995">
        <ele>346.79998779297</ele>
        <time>2022-03-25T08:22:37.000Z</time>
      </trkpt>
      <trkpt lat="49.6384" lon="5.65991">
        <ele>347</ele>
        <time>2022-03-25T08:22:39.000Z</time>
      </trkpt>
      <trkpt lat="49.63856" lon="5.65973">
        <ele>346.39999389648</ele>
        <time>2022-03-25T08:22:45.000Z</time>
      </trkpt>
      <trkpt lat="49.63872" lon="5.65958">
        <ele>347</ele>
        <time>2022-03-25T08:22:50.000Z</time>
      </trkpt>
      <trkpt lat="49.63875" lon="5.65955">
        <ele>347.39999389648</ele>
        <time>2022-03-25T08:22:51.000Z</time>
      </trkpt>
      <trkpt lat="49.63893" lon="5.65936">
        <ele>350.39999389648</ele>
        <time>2022-03-25T08:22:56.000Z</time>
      </trkpt>
      <trkpt lat="49.63907" lon="5.65919">
        <ele>353.79998779297</ele>
        <time>2022-03-25T08:23:00.000Z</time>
      </trkpt>
      <trkpt lat="49.63914" lon="5.65911">
        <ele>354.79998779297</ele>
        <time>2022-03-25T08:23:02.000Z</time>
      </trkpt>
      <trkpt lat="49.63927" lon="5.65897">
        <ele>356.39999389648</ele>
        <time>2022-03-25T08:23:05.000Z</time>
      </trkpt>
      <trkpt lat="49.63934" lon="5.65888">
        <ele>357</ele>
        <time>2022-03-25T08:23:07.000Z</time>
      </trkpt>
      <trkpt lat="49.63943" lon="5.65874">
        <ele>357.20001220703</ele>
        <time>2022-03-25T08:23:10.000Z</time>
      </trkpt>
      <trkpt lat="49.63951" lon="5.65863">
        <ele>357</ele>
        <time>2022-03-25T08:23:12.000Z</time>
      </trkpt>
      <trkpt lat="49.63969" lon="5.65841">
        <ele>356.79998779297</ele>
        <time>2022-03-25T08:23:17.000Z</time>
      </trkpt>
      <trkpt lat="49.63973" lon="5.65837">
        <ele>356.79998779297</ele>
        <time>2022-03-25T08:23:18.000Z</time>
      </trkpt>
      <trkpt lat="49.63995" lon="5.65809">
        <ele>354.60000610352</ele>
        <time>2022-03-25T08:23:24.000Z</time>
      </trkpt>
      <trkpt lat="49.63999" lon="5.65805">
        <ele>354.20001220703</ele>
        <time>2022-03-25T08:23:25.000Z</time>
      </trkpt>
      <trkpt lat="49.64017" lon="5.65789">
        <ele>353.39999389648</ele>
        <time>2022-03-25T08:23:29.000Z</time>
      </trkpt>
      <trkpt lat="49.64029" lon="5.65781">
        <ele>354</ele>
        <time>2022-03-25T08:23:32.000Z</time>
      </trkpt>
      <trkpt lat="49.64051" lon="5.65765">
        <ele>355</ele>
        <time>2022-03-25T08:23:37.000Z</time>
      </trkpt>
      <trkpt lat="49.64055" lon="5.65762">
        <ele>355.39999389648</ele>
        <time>2022-03-25T08:23:38.000Z</time>
      </trkpt>
      <trkpt lat="49.64087" lon="5.65745">
        <ele>357</ele>
        <time>2022-03-25T08:23:45.000Z</time>
      </trkpt>
      <trkpt lat="49.64092" lon="5.65742">
        <ele>357</ele>
        <time>2022-03-25T08:23:46.000Z</time>
      </trkpt>
      <trkpt lat="49.64112" lon="5.65735">
        <ele>357</ele>
        <time>2022-03-25T08:23:50.000Z</time>
      </trkpt>
      <trkpt lat="49.64141" lon="5.65726">
        <ele>358</ele>
        <time>2022-03-25T08:23:55.000Z</time>
      </trkpt>
      <trkpt lat="49.64147" lon="5.65723">
        <ele>358.20001220703</ele>
        <time>2022-03-25T08:23:56.000Z</time>
      </trkpt>
      <trkpt lat="49.64152" lon="5.6572">
        <ele>358.60000610352</ele>
        <time>2022-03-25T08:23:57.000Z</time>
      </trkpt>
      <trkpt lat="49.64162" lon="5.65712">
        <ele>359.20001220703</ele>
        <time>2022-03-25T08:23:59.000Z</time>
      </trkpt>
      <trkpt lat="49.64174" lon="5.65698">
        <ele>359.20001220703</ele>
        <time>2022-03-25T08:24:02.000Z</time>
      </trkpt>
      <trkpt lat="49.64178" lon="5.65692">
        <ele>359.79998779297</ele>
        <time>2022-03-25T08:24:03.000Z</time>
      </trkpt>
      <trkpt lat="49.64181" lon="5.65687">
        <ele>360.20001220703</ele>
        <time>2022-03-25T08:24:04.000Z</time>
      </trkpt>
      <trkpt lat="49.64184" lon="5.65682">
        <ele>360.39999389648</ele>
        <time>2022-03-25T08:24:05.000Z</time>
      </trkpt>
      <trkpt lat="49.64191" lon="5.65673">
        <ele>360.79998779297</ele>
        <time>2022-03-25T08:24:07.000Z</time>
      </trkpt>
      <trkpt lat="49.64199" lon="5.65664">
        <ele>361.60000610352</ele>
        <time>2022-03-25T08:24:09.000Z</time>
      </trkpt>
      <trkpt lat="49.64218" lon="5.65641">
        <ele>363.79998779297</ele>
        <time>2022-03-25T08:24:14.000Z</time>
      </trkpt>
      <trkpt lat="49.64223" lon="5.65637">
        <ele>364</ele>
        <time>2022-03-25T08:24:15.000Z</time>
      </trkpt>
      <trkpt lat="49.64227" lon="5.65633">
        <ele>364.39999389648</ele>
        <time>2022-03-25T08:24:16.000Z</time>
      </trkpt>
      <trkpt lat="49.64253" lon="5.65607">
        <ele>366</ele>
        <time>2022-03-25T08:24:22.000Z</time>
      </trkpt>
      <trkpt lat="49.6426" lon="5.65599">
        <ele>366.20001220703</ele>
        <time>2022-03-25T08:24:24.000Z</time>
      </trkpt>
      <trkpt lat="49.64273" lon="5.65587">
        <ele>366.60000610352</ele>
        <time>2022-03-25T08:24:27.000Z</time>
      </trkpt>
      <trkpt lat="49.64308" lon="5.65554">
        <ele>364.79998779297</ele>
        <time>2022-03-25T08:24:35.000Z</time>
      </trkpt>
      <trkpt lat="49.6433" lon="5.65533">
        <ele>359.39999389648</ele>
        <time>2022-03-25T08:24:40.000Z</time>
      </trkpt>
      <trkpt lat="49.64349" lon="5.65518">
        <ele>354.79998779297</ele>
        <time>2022-03-25T08:24:44.000Z</time>
      </trkpt>
      <trkpt lat="49.64353" lon="5.65512">
        <ele>354.39999389648</ele>
        <time>2022-03-25T08:24:45.000Z</time>
      </trkpt>
      <trkpt lat="49.64358" lon="5.65507">
        <ele>354.20001220703</ele>
        <time>2022-03-25T08:24:46.000Z</time>
      </trkpt>
      <trkpt lat="49.6437" lon="5.65495">
        <ele>354.39999389648</ele>
        <time>2022-03-25T08:24:48.000Z</time>
      </trkpt>
      <trkpt lat="49.64382" lon="5.65483">
        <ele>355.60000610352</ele>
        <time>2022-03-25T08:24:50.000Z</time>
      </trkpt>
      <trkpt lat="49.64394" lon="5.65474">
        <ele>357.20001220703</ele>
        <time>2022-03-25T08:24:52.000Z</time>
      </trkpt>
      <trkpt lat="49.64407" lon="5.65466">
        <ele>358.39999389648</ele>
        <time>2022-03-25T08:24:54.000Z</time>
      </trkpt>
      <trkpt lat="49.64414" lon="5.65462">
        <ele>358.79998779297</ele>
        <time>2022-03-25T08:24:55.000Z</time>
      </trkpt>
      <trkpt lat="49.64421" lon="5.65459">
        <ele>359</ele>
        <time>2022-03-25T08:24:56.000Z</time>
      </trkpt>
      <trkpt lat="49.64441" lon="5.65451">
        <ele>357</ele>
        <time>2022-03-25T08:24:59.000Z</time>
      </trkpt>
      <trkpt lat="49.64451" lon="5.65446">
        <ele>355.39999389648</ele>
        <time>2022-03-25T08:25:01.000Z</time>
      </trkpt>
      <trkpt lat="49.64481" lon="5.6543">
        <ele>349.79998779297</ele>
        <time>2022-03-25T08:25:07.000Z</time>
      </trkpt>
      <trkpt lat="49.64503" lon="5.65414">
        <ele>344.60000610352</ele>
        <time>2022-03-25T08:25:11.000Z</time>
      </trkpt>
      <trkpt lat="49.64515" lon="5.65407">
        <ele>343.79998779297</ele>
        <time>2022-03-25T08:25:13.000Z</time>
      </trkpt>
      <trkpt lat="49.64533" lon="5.65399">
        <ele>342</ele>
        <time>2022-03-25T08:25:16.000Z</time>
      </trkpt>
      <trkpt lat="49.64551" lon="5.65396">
        <ele>342</ele>
        <time>2022-03-25T08:25:19.000Z</time>
      </trkpt>
      <trkpt lat="49.64586" lon="5.65382">
        <ele>343</ele>
        <time>2022-03-25T08:25:25.000Z</time>
      </trkpt>
      <trkpt lat="49.64615" lon="5.65353">
        <ele>343</ele>
        <time>2022-03-25T08:25:31.000Z</time>
      </trkpt>
      <trkpt lat="49.64652" lon="5.65314">
        <ele>342.20001220703</ele>
        <time>2022-03-25T08:25:39.000Z</time>
      </trkpt>
      <trkpt lat="49.64694" lon="5.65273">
        <ele>342.20001220703</ele>
        <time>2022-03-25T08:25:48.000Z</time>
      </trkpt>
      <trkpt lat="49.64729" lon="5.65234">
        <ele>343.20001220703</ele>
        <time>2022-03-25T08:25:56.000Z</time>
      </trkpt>
      <trkpt lat="49.64759" lon="5.65211">
        <ele>344</ele>
        <time>2022-03-25T08:26:02.000Z</time>
      </trkpt>
      <trkpt lat="49.64789" lon="5.65196">
        <ele>343.79998779297</ele>
        <time>2022-03-25T08:26:08.000Z</time>
      </trkpt>
      <trkpt lat="49.64795" lon="5.65194">
        <ele>343.79998779297</ele>
        <time>2022-03-25T08:26:09.000Z</time>
      </trkpt>
      <trkpt lat="49.64831" lon="5.65186">
        <ele>343</ele>
        <time>2022-03-25T08:26:15.000Z</time>
      </trkpt>
      <trkpt lat="49.64877" lon="5.65178">
        <ele>343.79998779297</ele>
        <time>2022-03-25T08:26:23.000Z</time>
      </trkpt>
      <trkpt lat="49.64935" lon="5.6517">
        <ele>342</ele>
        <time>2022-03-25T08:26:33.000Z</time>
      </trkpt>
      <trkpt lat="49.64986" lon="5.65166">
        <ele>341.60000610352</ele>
        <time>2022-03-25T08:26:42.000Z</time>
      </trkpt>
      <trkpt lat="49.65037" lon="5.65165">
        <ele>343.20001220703</ele>
        <time>2022-03-25T08:26:51.000Z</time>
      </trkpt>
      <trkpt lat="49.65092" lon="5.65168">
        <ele>344</ele>
        <time>2022-03-25T08:27:01.000Z</time>
      </trkpt>
      <trkpt lat="49.65097" lon="5.65168">
        <ele>344</ele>
        <time>2022-03-25T08:27:02.000Z</time>
      </trkpt>
      <trkpt lat="49.65145" lon="5.65171">
        <ele>344</ele>
        <time>2022-03-25T08:27:11.000Z</time>
      </trkpt>
      <trkpt lat="49.6515" lon="5.65172">
        <ele>344</ele>
        <time>2022-03-25T08:27:12.000Z</time>
      </trkpt>
      <trkpt lat="49.65178" lon="5.65174">
        <ele>343.60000610352</ele>
        <time>2022-03-25T08:27:18.000Z</time>
      </trkpt>
      <trkpt lat="49.65182" lon="5.65176">
        <ele>343.39999389648</ele>
        <time>2022-03-25T08:27:19.000Z</time>
      </trkpt>
      <trkpt lat="49.65188" lon="5.65188">
        <ele>342.79998779297</ele>
        <time>2022-03-25T08:27:21.000Z</time>
      </trkpt>
      <trkpt lat="49.65186" lon="5.65213">
        <ele>342</ele>
        <time>2022-03-25T08:27:24.000Z</time>
      </trkpt>
      <trkpt lat="49.65185" lon="5.65221">
        <ele>341.60000610352</ele>
        <time>2022-03-25T08:27:25.000Z</time>
      </trkpt>
      <trkpt lat="49.65178" lon="5.65274">
        <ele>340.20001220703</ele>
        <time>2022-03-25T08:27:31.000Z</time>
      </trkpt>
      <trkpt lat="49.65173" lon="5.65337">
        <ele>338.20001220703</ele>
        <time>2022-03-25T08:27:39.000Z</time>
      </trkpt>
      <trkpt lat="49.65185" lon="5.65348">
        <ele>339.39999389648</ele>
        <time>2022-03-25T08:27:42.000Z</time>
      </trkpt>
      <trkpt lat="49.65195" lon="5.65351">
        <ele>340.20001220703</ele>
        <time>2022-03-25T08:27:44.000Z</time>
      </trkpt>
      <trkpt lat="49.652" lon="5.65351">
        <ele>340.39999389648</ele>
        <time>2022-03-25T08:27:45.000Z</time>
      </trkpt>
      <trkpt lat="49.65211" lon="5.65352">
        <ele>340.60000610352</ele>
        <time>2022-03-25T08:27:47.000Z</time>
      </trkpt>
      <trkpt lat="49.65237" lon="5.65358">
        <ele>340.39999389648</ele>
        <time>2022-03-25T08:27:52.000Z</time>
      </trkpt>
      <trkpt lat="49.65243" lon="5.65359">
        <ele>340.20001220703</ele>
        <time>2022-03-25T08:27:53.000Z</time>
      </trkpt>
      <trkpt lat="49.65287" lon="5.65365">
        <ele>339</ele>
        <time>2022-03-25T08:28:01.000Z</time>
      </trkpt>
      <trkpt lat="49.65326" lon="5.65369">
        <ele>339.20001220703</ele>
        <time>2022-03-25T08:28:08.000Z</time>
      </trkpt>
      <trkpt lat="49.65365" lon="5.65376">
        <ele>339.79998779297</ele>
        <time>2022-03-25T08:28:15.000Z</time>
      </trkpt>
      <trkpt lat="49.65387" lon="5.65382">
        <ele>340.39999389648</ele>
        <time>2022-03-25T08:28:19.000Z</time>
      </trkpt>
      <trkpt lat="49.65392" lon="5.65386">
        <ele>340.60000610352</ele>
        <time>2022-03-25T08:28:20.000Z</time>
      </trkpt>
      <trkpt lat="49.65401" lon="5.65403">
        <ele>341.79998779297</ele>
        <time>2022-03-25T08:28:23.000Z</time>
      </trkpt>
      <trkpt lat="49.65407" lon="5.65433">
        <ele>343.39999389648</ele>
        <time>2022-03-25T08:28:27.000Z</time>
      </trkpt>
      <trkpt lat="49.65408" lon="5.65441">
        <ele>343.79998779297</ele>
        <time>2022-03-25T08:28:28.000Z</time>
      </trkpt>
      <trkpt lat="49.65413" lon="5.65472">
        <ele>344.79998779297</ele>
        <time>2022-03-25T08:28:32.000Z</time>
      </trkpt>
      <trkpt lat="49.65417" lon="5.65504">
        <ele>345.60000610352</ele>
        <time>2022-03-25T08:28:36.000Z</time>
      </trkpt>
      <trkpt lat="49.65419" lon="5.65521">
        <ele>345.79998779297</ele>
        <time>2022-03-25T08:28:38.000Z</time>
      </trkpt>
      <trkpt lat="49.6542" lon="5.65529">
        <ele>346</ele>
        <time>2022-03-25T08:28:39.000Z</time>
      </trkpt>
      <trkpt lat="49.65423" lon="5.65554">
        <ele>346.20001220703</ele>
        <time>2022-03-25T08:28:42.000Z</time>
      </trkpt>
      <trkpt lat="49.65424" lon="5.65562">
        <ele>346.20001220703</ele>
        <time>2022-03-25T08:28:43.000Z</time>
      </trkpt>
      <trkpt lat="49.65429" lon="5.65595">
        <ele>345.39999389648</ele>
        <time>2022-03-25T08:28:47.000Z</time>
      </trkpt>
      <trkpt lat="49.65444" lon="5.65667">
        <ele>344</ele>
        <time>2022-03-25T08:28:56.000Z</time>
      </trkpt>
      <trkpt lat="49.65456" lon="5.6571">
        <ele>344</ele>
        <time>2022-03-25T08:29:02.000Z</time>
      </trkpt>
      <trkpt lat="49.65474" lon="5.65773">
        <ele>344</ele>
        <time>2022-03-25T08:29:10.000Z</time>
      </trkpt>
      <trkpt lat="49.6549" lon="5.65823">
        <ele>343.60000610352</ele>
        <time>2022-03-25T08:29:16.000Z</time>
      </trkpt>
      <trkpt lat="49.65495" lon="5.65841">
        <ele>343</ele>
        <time>2022-03-25T08:29:18.000Z</time>
      </trkpt>
      <trkpt lat="49.65514" lon="5.65893">
        <ele>342.60000610352</ele>
        <time>2022-03-25T08:29:24.000Z</time>
      </trkpt>
      <trkpt lat="49.65522" lon="5.65918">
        <ele>342.39999389648</ele>
        <time>2022-03-25T08:29:27.000Z</time>
      </trkpt>
      <trkpt lat="49.65525" lon="5.65925">
        <ele>342.39999389648</ele>
        <time>2022-03-25T08:29:28.000Z</time>
      </trkpt>
      <trkpt lat="49.65543" lon="5.65975">
        <ele>344</ele>
        <time>2022-03-25T08:29:35.000Z</time>
      </trkpt>
      <trkpt lat="49.65564" lon="5.66026">
        <ele>345.39999389648</ele>
        <time>2022-03-25T08:29:43.000Z</time>
      </trkpt>
      <trkpt lat="49.65569" lon="5.6604">
        <ele>345.60000610352</ele>
        <time>2022-03-25T08:29:45.000Z</time>
      </trkpt>
      <trkpt lat="49.65575" lon="5.66061">
        <ele>346</ele>
        <time>2022-03-25T08:29:48.000Z</time>
      </trkpt>
      <trkpt lat="49.65577" lon="5.66068">
        <ele>346.20001220703</ele>
        <time>2022-03-25T08:29:49.000Z</time>
      </trkpt>
      <trkpt lat="49.65576" lon="5.66075">
        <ele>346.20001220703</ele>
        <time>2022-03-25T08:29:50.000Z</time>
      </trkpt>
      <trkpt lat="49.6557" lon="5.66088">
        <ele>345.79998779297</ele>
        <time>2022-03-25T08:29:52.000Z</time>
      </trkpt>
      <trkpt lat="49.65563" lon="5.661">
        <ele>345.60000610352</ele>
        <time>2022-03-25T08:29:54.000Z</time>
      </trkpt>
      <trkpt lat="49.65555" lon="5.66112">
        <ele>346</ele>
        <time>2022-03-25T08:29:56.000Z</time>
      </trkpt>
      <trkpt lat="49.65543" lon="5.66128">
        <ele>346.39999389648</ele>
        <time>2022-03-25T08:29:59.000Z</time>
      </trkpt>
      <trkpt lat="49.65529" lon="5.66146">
        <ele>347.60000610352</ele>
        <time>2022-03-25T08:30:03.000Z</time>
      </trkpt>
      <trkpt lat="49.65524" lon="5.66154">
        <ele>349</ele>
        <time>2022-03-25T08:30:05.000Z</time>
      </trkpt>
      <trkpt lat="49.65515" lon="5.66166">
        <ele>350.20001220703</ele>
        <time>2022-03-25T08:30:08.000Z</time>
      </trkpt>
      <trkpt lat="49.65503" lon="5.66182">
        <ele>351.20001220703</ele>
        <time>2022-03-25T08:30:12.000Z</time>
      </trkpt>
      <trkpt lat="49.655" lon="5.66186">
        <ele>351.39999389648</ele>
        <time>2022-03-25T08:30:13.000Z</time>
      </trkpt>
      <trkpt lat="49.6548" lon="5.66215">
        <ele>351.79998779297</ele>
        <time>2022-03-25T08:30:20.000Z</time>
      </trkpt>
      <trkpt lat="49.65473" lon="5.66223">
        <ele>351.20001220703</ele>
        <time>2022-03-25T08:30:22.000Z</time>
      </trkpt>
      <trkpt lat="49.65465" lon="5.66234">
        <ele>351.79998779297</ele>
        <time>2022-03-25T08:30:25.000Z</time>
      </trkpt>
      <trkpt lat="49.65452" lon="5.66251">
        <ele>352.79998779297</ele>
        <time>2022-03-25T08:30:29.000Z</time>
      </trkpt>
      <trkpt lat="49.65447" lon="5.66278">
        <ele>353.20001220703</ele>
        <time>2022-03-25T08:30:34.000Z</time>
      </trkpt>
      <trkpt lat="49.65449" lon="5.6631">
        <ele>354</ele>
        <time>2022-03-25T08:30:39.000Z</time>
      </trkpt>
      <trkpt lat="49.65447" lon="5.6634">
        <ele>356.20001220703</ele>
        <time>2022-03-25T08:30:44.000Z</time>
      </trkpt>
      <trkpt lat="49.6544" lon="5.66367">
        <ele>358</ele>
        <time>2022-03-25T08:30:49.000Z</time>
      </trkpt>
      <trkpt lat="49.65437" lon="5.664">
        <ele>359.79998779297</ele>
        <time>2022-03-25T08:30:55.000Z</time>
      </trkpt>
      <trkpt lat="49.65437" lon="5.66405">
        <ele>360</ele>
        <time>2022-03-25T08:30:56.000Z</time>
      </trkpt>
      <trkpt lat="49.6544" lon="5.6644">
        <ele>361.60000610352</ele>
        <time>2022-03-25T08:31:01.000Z</time>
      </trkpt>
      <trkpt lat="49.65439" lon="5.66446">
        <ele>361.79998779297</ele>
        <time>2022-03-25T08:31:02.000Z</time>
      </trkpt>
      <trkpt lat="49.65433" lon="5.66462">
        <ele>362.39999389648</ele>
        <time>2022-03-25T08:31:05.000Z</time>
      </trkpt>
      <trkpt lat="49.65416" lon="5.66496">
        <ele>363</ele>
        <time>2022-03-25T08:31:11.000Z</time>
      </trkpt>
      <trkpt lat="49.65399" lon="5.66528">
        <ele>364.60000610352</ele>
        <time>2022-03-25T08:31:17.000Z</time>
      </trkpt>
      <trkpt lat="49.65377" lon="5.66562">
        <ele>366.60000610352</ele>
        <time>2022-03-25T08:31:24.000Z</time>
      </trkpt>
      <trkpt lat="49.6536" lon="5.66582">
        <ele>368.79998779297</ele>
        <time>2022-03-25T08:31:29.000Z</time>
      </trkpt>
      <trkpt lat="49.65357" lon="5.66585">
        <ele>369</ele>
        <time>2022-03-25T08:31:30.000Z</time>
      </trkpt>
      <trkpt lat="49.65353" lon="5.66589">
        <ele>369</ele>
        <time>2022-03-25T08:31:31.000Z</time>
      </trkpt>
      <trkpt lat="49.65332" lon="5.66611">
        <ele>369.79998779297</ele>
        <time>2022-03-25T08:31:37.000Z</time>
      </trkpt>
      <trkpt lat="49.65326" lon="5.6662">
        <ele>370</ele>
        <time>2022-03-25T08:31:39.000Z</time>
      </trkpt>
      <trkpt lat="49.6531" lon="5.66639">
        <ele>370</ele>
        <time>2022-03-25T08:31:44.000Z</time>
      </trkpt>
      <trkpt lat="49.65298" lon="5.66654">
        <ele>370</ele>
        <time>2022-03-25T08:31:48.000Z</time>
      </trkpt>
      <trkpt lat="49.65292" lon="5.66663">
        <ele>370</ele>
        <time>2022-03-25T08:31:50.000Z</time>
      </trkpt>
      <trkpt lat="49.65276" lon="5.66677">
        <ele>369.39999389648</ele>
        <time>2022-03-25T08:31:55.000Z</time>
      </trkpt>
      <trkpt lat="49.65273" lon="5.66686">
        <ele>368.79998779297</ele>
        <time>2022-03-25T08:31:57.000Z</time>
      </trkpt>
      <trkpt lat="49.65273" lon="5.66695">
        <ele>368.39999389648</ele>
        <time>2022-03-25T08:31:59.000Z</time>
      </trkpt>
      <trkpt lat="49.65276" lon="5.66716">
        <ele>367.20001220703</ele>
        <time>2022-03-25T08:32:03.000Z</time>
      </trkpt>
      <trkpt lat="49.65276" lon="5.66721">
        <ele>366.79998779297</ele>
        <time>2022-03-25T08:32:04.000Z</time>
      </trkpt>
      <trkpt lat="49.6528" lon="5.66744">
        <ele>366.79998779297</ele>
        <time>2022-03-25T08:32:08.000Z</time>
      </trkpt>
      <trkpt lat="49.6528" lon="5.66749">
        <ele>366.79998779297</ele>
        <time>2022-03-25T08:32:09.000Z</time>
      </trkpt>
      <trkpt lat="49.65284" lon="5.66779">
        <ele>367.20001220703</ele>
        <time>2022-03-25T08:32:15.000Z</time>
      </trkpt>
      <trkpt lat="49.6529" lon="5.66826">
        <ele>365.20001220703</ele>
        <time>2022-03-25T08:32:22.000Z</time>
      </trkpt>
      <trkpt lat="49.65291" lon="5.66833">
        <ele>365</ele>
        <time>2022-03-25T08:32:23.000Z</time>
      </trkpt>
      <trkpt lat="49.65297" lon="5.66861">
        <ele>364.79998779297</ele>
        <time>2022-03-25T08:32:27.000Z</time>
      </trkpt>
      <trkpt lat="49.65297" lon="5.66868">
        <ele>364.79998779297</ele>
        <time>2022-03-25T08:32:28.000Z</time>
      </trkpt>
      <trkpt lat="49.653" lon="5.66889">
        <ele>365.39999389648</ele>
        <time>2022-03-25T08:32:31.000Z</time>
      </trkpt>
      <trkpt lat="49.65307" lon="5.66922">
        <ele>366.79998779297</ele>
        <time>2022-03-25T08:32:36.000Z</time>
      </trkpt>
      <trkpt lat="49.65316" lon="5.66942">
        <ele>369.39999389648</ele>
        <time>2022-03-25T08:32:41.000Z</time>
      </trkpt>
      <trkpt lat="49.65328" lon="5.66939">
        <ele>370.79998779297</ele>
        <time>2022-03-25T08:32:45.000Z</time>
      </trkpt>
      <trkpt lat="49.65334" lon="5.66936">
        <ele>371.60000610352</ele>
        <time>2022-03-25T08:32:47.000Z</time>
      </trkpt>
      <trkpt lat="49.65347" lon="5.66928">
        <ele>372</ele>
        <time>2022-03-25T08:32:51.000Z</time>
      </trkpt>
      <trkpt lat="49.65369" lon="5.66915">
        <ele>373.60000610352</ele>
        <time>2022-03-25T08:32:57.000Z</time>
      </trkpt>
      <trkpt lat="49.65379" lon="5.66915">
        <ele>373.20001220703</ele>
        <time>2022-03-25T08:33:01.000Z</time>
      </trkpt>
      <trkpt lat="49.65379" lon="5.66914">
        <ele>373.20001220703</ele>
        <time>2022-03-25T08:33:02.000Z</time>
      </trkpt>
      <trkpt lat="49.6538" lon="5.66916">
        <ele>373.20001220703</ele>
        <time>2022-03-25T08:33:20.000Z</time>
      </trkpt>
      <trkpt lat="49.65383" lon="5.6692">
        <ele>373.39999389648</ele>
        <time>2022-03-25T08:33:22.000Z</time>
      </trkpt>
      <trkpt lat="49.65388" lon="5.66942">
        <ele>373.20001220703</ele>
        <time>2022-03-25T08:33:27.000Z</time>
      </trkpt>
      <trkpt lat="49.65395" lon="5.66963">
        <ele>373</ele>
        <time>2022-03-25T08:33:32.000Z</time>
      </trkpt>
      <trkpt lat="49.654" lon="5.66997">
        <ele>372.39999389648</ele>
        <time>2022-03-25T08:33:39.000Z</time>
      </trkpt>
      <trkpt lat="49.65407" lon="5.67018">
        <ele>371.60000610352</ele>
        <time>2022-03-25T08:33:43.000Z</time>
      </trkpt>
      <trkpt lat="49.65413" lon="5.67044">
        <ele>370.20001220703</ele>
        <time>2022-03-25T08:33:48.000Z</time>
      </trkpt>
      <trkpt lat="49.65418" lon="5.67064">
        <ele>369</ele>
        <time>2022-03-25T08:33:52.000Z</time>
      </trkpt>
      <trkpt lat="49.65425" lon="5.67088">
        <ele>367.79998779297</ele>
        <time>2022-03-25T08:33:56.000Z</time>
      </trkpt>
      <trkpt lat="49.65427" lon="5.67093">
        <ele>367.39999389648</ele>
        <time>2022-03-25T08:33:57.000Z</time>
      </trkpt>
      <trkpt lat="49.6543" lon="5.67111">
        <ele>367</ele>
        <time>2022-03-25T08:34:01.000Z</time>
      </trkpt>
      <trkpt lat="49.65429" lon="5.67113">
        <ele>367.20001220703</ele>
        <time>2022-03-25T08:34:02.000Z</time>
      </trkpt>
      <trkpt lat="49.65421" lon="5.6712">
        <ele>367.79998779297</ele>
        <time>2022-03-25T08:34:06.000Z</time>
      </trkpt>
      <trkpt lat="49.65419" lon="5.67122">
        <ele>367.79998779297</ele>
        <time>2022-03-25T08:34:07.000Z</time>
      </trkpt>
      <trkpt lat="49.65402" lon="5.67134">
        <ele>368.39999389648</ele>
        <time>2022-03-25T08:34:12.000Z</time>
      </trkpt>
      <trkpt lat="49.65381" lon="5.67146">
        <ele>369.39999389648</ele>
        <time>2022-03-25T08:34:17.000Z</time>
      </trkpt>
      <trkpt lat="49.65348" lon="5.67161">
        <ele>369.79998779297</ele>
        <time>2022-03-25T08:34:24.000Z</time>
      </trkpt>
      <trkpt lat="49.65339" lon="5.67167">
        <ele>369.39999389648</ele>
        <time>2022-03-25T08:34:26.000Z</time>
      </trkpt>
      <trkpt lat="49.65329" lon="5.67173">
        <ele>369.20001220703</ele>
        <time>2022-03-25T08:34:29.000Z</time>
      </trkpt>
      <trkpt lat="49.65301" lon="5.67191">
        <ele>368.20001220703</ele>
        <time>2022-03-25T08:34:36.000Z</time>
      </trkpt>
      <trkpt lat="49.65295" lon="5.67194">
        <ele>368.39999389648</ele>
        <time>2022-03-25T08:34:38.000Z</time>
      </trkpt>
      <trkpt lat="49.65283" lon="5.67201">
        <ele>368.60000610352</ele>
        <time>2022-03-25T08:34:41.000Z</time>
      </trkpt>
      <trkpt lat="49.65275" lon="5.67206">
        <ele>368.20001220703</ele>
        <time>2022-03-25T08:34:43.000Z</time>
      </trkpt>
      <trkpt lat="49.65266" lon="5.67214">
        <ele>367.79998779297</ele>
        <time>2022-03-25T08:34:46.000Z</time>
      </trkpt>
      <trkpt lat="49.65242" lon="5.67229">
        <ele>369</ele>
        <time>2022-03-25T08:34:52.000Z</time>
      </trkpt>
      <trkpt lat="49.65215" lon="5.67242">
        <ele>369</ele>
        <time>2022-03-25T08:34:58.000Z</time>
      </trkpt>
      <trkpt lat="49.65192" lon="5.67253">
        <ele>369</ele>
        <time>2022-03-25T08:35:03.000Z</time>
      </trkpt>
      <trkpt lat="49.65159" lon="5.67268">
        <ele>368.20001220703</ele>
        <time>2022-03-25T08:35:10.000Z</time>
      </trkpt>
      <trkpt lat="49.65129" lon="5.67274">
        <ele>365.79998779297</ele>
        <time>2022-03-25T08:35:16.000Z</time>
      </trkpt>
      <trkpt lat="49.65103" lon="5.67279">
        <ele>364.60000610352</ele>
        <time>2022-03-25T08:35:22.000Z</time>
      </trkpt>
      <trkpt lat="49.6509" lon="5.67284">
        <ele>364</ele>
        <time>2022-03-25T08:35:25.000Z</time>
      </trkpt>
      <trkpt lat="49.65073" lon="5.6729">
        <ele>363.79998779297</ele>
        <time>2022-03-25T08:35:28.000Z</time>
      </trkpt>
      <trkpt lat="49.65063" lon="5.67294">
        <ele>363.60000610352</ele>
        <time>2022-03-25T08:35:30.000Z</time>
      </trkpt>
      <trkpt lat="49.65056" lon="5.67298">
        <ele>363.39999389648</ele>
        <time>2022-03-25T08:35:32.000Z</time>
      </trkpt>
      <trkpt lat="49.65039" lon="5.67304">
        <ele>363.79998779297</ele>
        <time>2022-03-25T08:35:36.000Z</time>
      </trkpt>
      <trkpt lat="49.65007" lon="5.67314">
        <ele>366</ele>
        <time>2022-03-25T08:35:43.000Z</time>
      </trkpt>
      <trkpt lat="49.64983" lon="5.67322">
        <ele>367.20001220703</ele>
        <time>2022-03-25T08:35:48.000Z</time>
      </trkpt>
      <trkpt lat="49.64979" lon="5.67323">
        <ele>367.39999389648</ele>
        <time>2022-03-25T08:35:49.000Z</time>
      </trkpt>
      <trkpt lat="49.64949" lon="5.67335">
        <ele>367.79998779297</ele>
        <time>2022-03-25T08:35:56.000Z</time>
      </trkpt>
      <trkpt lat="49.64907" lon="5.6735">
        <ele>366</ele>
        <time>2022-03-25T08:36:04.000Z</time>
      </trkpt>
      <trkpt lat="49.64893" lon="5.67355">
        <ele>365.60000610352</ele>
        <time>2022-03-25T08:36:06.000Z</time>
      </trkpt>
      <trkpt lat="49.6487" lon="5.67364">
        <ele>362.60000610352</ele>
        <time>2022-03-25T08:36:09.000Z</time>
      </trkpt>
      <trkpt lat="49.64854" lon="5.67368">
        <ele>361.20001220703</ele>
        <time>2022-03-25T08:36:11.000Z</time>
      </trkpt>
      <trkpt lat="49.64839" lon="5.6737">
        <ele>360.20001220703</ele>
        <time>2022-03-25T08:36:13.000Z</time>
      </trkpt>
      <trkpt lat="49.64831" lon="5.67373">
        <ele>360</ele>
        <time>2022-03-25T08:36:14.000Z</time>
      </trkpt>
      <trkpt lat="49.64816" lon="5.67378">
        <ele>359.60000610352</ele>
        <time>2022-03-25T08:36:16.000Z</time>
      </trkpt>
      <trkpt lat="49.64795" lon="5.67386">
        <ele>359.39999389648</ele>
        <time>2022-03-25T08:36:19.000Z</time>
      </trkpt>
      <trkpt lat="49.64783" lon="5.6739">
        <ele>359</ele>
        <time>2022-03-25T08:36:21.000Z</time>
      </trkpt>
      <trkpt lat="49.64753" lon="5.674">
        <ele>359.79998779297</ele>
        <time>2022-03-25T08:36:27.000Z</time>
      </trkpt>
      <trkpt lat="49.64712" lon="5.67414">
        <ele>358.20001220703</ele>
        <time>2022-03-25T08:36:35.000Z</time>
      </trkpt>
      <trkpt lat="49.64688" lon="5.67425">
        <ele>357.20001220703</ele>
        <time>2022-03-25T08:36:40.000Z</time>
      </trkpt>
      <trkpt lat="49.64664" lon="5.67434">
        <ele>355.39999389648</ele>
        <time>2022-03-25T08:36:45.000Z</time>
      </trkpt>
      <trkpt lat="49.64659" lon="5.67435">
        <ele>355.20001220703</ele>
        <time>2022-03-25T08:36:46.000Z</time>
      </trkpt>
      <trkpt lat="49.64649" lon="5.67435">
        <ele>354.79998779297</ele>
        <time>2022-03-25T08:36:48.000Z</time>
      </trkpt>
      <trkpt lat="49.64645" lon="5.67421">
        <ele>354.20001220703</ele>
        <time>2022-03-25T08:36:50.000Z</time>
      </trkpt>
      <trkpt lat="49.64643" lon="5.67409">
        <ele>353.60000610352</ele>
        <time>2022-03-25T08:36:52.000Z</time>
      </trkpt>
      <trkpt lat="49.64643" lon="5.67404">
        <ele>353.39999389648</ele>
        <time>2022-03-25T08:36:53.000Z</time>
      </trkpt>
      <trkpt lat="49.64645" lon="5.67398">
        <ele>353.20001220703</ele>
        <time>2022-03-25T08:36:54.000Z</time>
      </trkpt>
      <trkpt lat="49.64653" lon="5.67371">
        <ele>352.39999389648</ele>
        <time>2022-03-25T08:36:58.000Z</time>
      </trkpt>
      <trkpt lat="49.64661" lon="5.67346">
        <ele>351.60000610352</ele>
        <time>2022-03-25T08:37:01.000Z</time>
      </trkpt>
      <trkpt lat="49.6467" lon="5.67318">
        <ele>351.39999389648</ele>
        <time>2022-03-25T08:37:04.000Z</time>
      </trkpt>
      <trkpt lat="49.64673" lon="5.67308">
        <ele>351.20001220703</ele>
        <time>2022-03-25T08:37:05.000Z</time>
      </trkpt>
      <trkpt lat="49.64682" lon="5.67278">
        <ele>350.60000610352</ele>
        <time>2022-03-25T08:37:08.000Z</time>
      </trkpt>
      <trkpt lat="49.64691" lon="5.67248">
        <ele>349.39999389648</ele>
        <time>2022-03-25T08:37:11.000Z</time>
      </trkpt>
      <trkpt lat="49.647" lon="5.6722">
        <ele>349</ele>
        <time>2022-03-25T08:37:14.000Z</time>
      </trkpt>
      <trkpt lat="49.64707" lon="5.67202">
        <ele>348.60000610352</ele>
        <time>2022-03-25T08:37:16.000Z</time>
      </trkpt>
      <trkpt lat="49.64724" lon="5.6715">
        <ele>348.39999389648</ele>
        <time>2022-03-25T08:37:22.000Z</time>
      </trkpt>
      <trkpt lat="49.6474" lon="5.67102">
        <ele>348.60000610352</ele>
        <time>2022-03-25T08:37:28.000Z</time>
      </trkpt>
      <trkpt lat="49.64758" lon="5.67043">
        <ele>349.60000610352</ele>
        <time>2022-03-25T08:37:35.000Z</time>
      </trkpt>
      <trkpt lat="49.64759" lon="5.67036">
        <ele>350.20001220703</ele>
        <time>2022-03-25T08:37:36.000Z</time>
      </trkpt>
      <trkpt lat="49.64754" lon="5.67028">
        <ele>350.39999389648</ele>
        <time>2022-03-25T08:37:38.000Z</time>
      </trkpt>
      <trkpt lat="49.64743" lon="5.67031">
        <ele>349.60000610352</ele>
        <time>2022-03-25T08:37:41.000Z</time>
      </trkpt>
      <trkpt lat="49.64738" lon="5.67034">
        <ele>349.39999389648</ele>
        <time>2022-03-25T08:37:42.000Z</time>
      </trkpt>
      <trkpt lat="49.64719" lon="5.67047">
        <ele>349.20001220703</ele>
        <time>2022-03-25T08:37:46.000Z</time>
      </trkpt>
      <trkpt lat="49.64714" lon="5.67051">
        <ele>349.60000610352</ele>
        <time>2022-03-25T08:37:47.000Z</time>
      </trkpt>
      <trkpt lat="49.6468" lon="5.67075">
        <ele>351.60000610352</ele>
        <time>2022-03-25T08:37:53.000Z</time>
      </trkpt>
      <trkpt lat="49.64654" lon="5.67091">
        <ele>350.20001220703</ele>
        <time>2022-03-25T08:37:57.000Z</time>
      </trkpt>
      <trkpt lat="49.6464" lon="5.67099">
        <ele>349.20001220703</ele>
        <time>2022-03-25T08:37:59.000Z</time>
      </trkpt>
      <trkpt lat="49.64633" lon="5.67103">
        <ele>349.20001220703</ele>
        <time>2022-03-25T08:38:00.000Z</time>
      </trkpt>
      <trkpt lat="49.64612" lon="5.67113">
        <ele>347.79998779297</ele>
        <time>2022-03-25T08:38:03.000Z</time>
      </trkpt>
      <trkpt lat="49.64605" lon="5.67115">
        <ele>348</ele>
        <time>2022-03-25T08:38:04.000Z</time>
      </trkpt>
      <trkpt lat="49.64578" lon="5.67126">
        <ele>347.60000610352</ele>
        <time>2022-03-25T08:38:08.000Z</time>
      </trkpt>
      <trkpt lat="49.6456" lon="5.67133">
        <ele>346.20001220703</ele>
        <time>2022-03-25T08:38:11.000Z</time>
      </trkpt>
      <trkpt lat="49.64537" lon="5.6714">
        <ele>344.39999389648</ele>
        <time>2022-03-25T08:38:15.000Z</time>
      </trkpt>
      <trkpt lat="49.64532" lon="5.67142">
        <ele>343.79998779297</ele>
        <time>2022-03-25T08:38:16.000Z</time>
      </trkpt>
      <trkpt lat="49.64516" lon="5.67145">
        <ele>343</ele>
        <time>2022-03-25T08:38:19.000Z</time>
      </trkpt>
      <trkpt lat="49.64497" lon="5.67149">
        <ele>341.60000610352</ele>
        <time>2022-03-25T08:38:22.000Z</time>
      </trkpt>
      <trkpt lat="49.64478" lon="5.67151">
        <ele>340</ele>
        <time>2022-03-25T08:38:25.000Z</time>
      </trkpt>
      <trkpt lat="49.6446" lon="5.6715">
        <ele>339.79998779297</ele>
        <time>2022-03-25T08:38:28.000Z</time>
      </trkpt>
      <trkpt lat="49.64454" lon="5.67148">
        <ele>339.39999389648</ele>
        <time>2022-03-25T08:38:29.000Z</time>
      </trkpt>
      <trkpt lat="49.64449" lon="5.67143">
        <ele>339</ele>
        <time>2022-03-25T08:38:30.000Z</time>
      </trkpt>
      <trkpt lat="49.64445" lon="5.67137">
        <ele>338.60000610352</ele>
        <time>2022-03-25T08:38:31.000Z</time>
      </trkpt>
      <trkpt lat="49.64432" lon="5.67124">
        <ele>338.60000610352</ele>
        <time>2022-03-25T08:38:34.000Z</time>
      </trkpt>
      <trkpt lat="49.64423" lon="5.6712">
        <ele>339</ele>
        <time>2022-03-25T08:38:36.000Z</time>
      </trkpt>
      <trkpt lat="49.64406" lon="5.67119">
        <ele>340.20001220703</ele>
        <time>2022-03-25T08:38:39.000Z</time>
      </trkpt>
      <trkpt lat="49.64394" lon="5.67117">
        <ele>341</ele>
        <time>2022-03-25T08:38:41.000Z</time>
      </trkpt>
      <trkpt lat="49.64377" lon="5.67115">
        <ele>340.39999389648</ele>
        <time>2022-03-25T08:38:44.000Z</time>
      </trkpt>
      <trkpt lat="49.64347" lon="5.67109">
        <ele>340</ele>
        <time>2022-03-25T08:38:49.000Z</time>
      </trkpt>
      <trkpt lat="49.64342" lon="5.6711">
        <ele>340</ele>
        <time>2022-03-25T08:38:50.000Z</time>
      </trkpt>
      <trkpt lat="49.64332" lon="5.67113">
        <ele>340.20001220703</ele>
        <time>2022-03-25T08:38:52.000Z</time>
      </trkpt>
      <trkpt lat="49.64328" lon="5.67116">
        <ele>340</ele>
        <time>2022-03-25T08:38:53.000Z</time>
      </trkpt>
      <trkpt lat="49.64315" lon="5.67127">
        <ele>339.79998779297</ele>
        <time>2022-03-25T08:38:57.000Z</time>
      </trkpt>
      <trkpt lat="49.643" lon="5.67118">
        <ele>339.60000610352</ele>
        <time>2022-03-25T08:39:01.000Z</time>
      </trkpt>
      <trkpt lat="49.64296" lon="5.67115">
        <ele>339.60000610352</ele>
        <time>2022-03-25T08:39:02.000Z</time>
      </trkpt>
      <trkpt lat="49.64292" lon="5.67114">
        <ele>339.39999389648</ele>
        <time>2022-03-25T08:39:03.000Z</time>
      </trkpt>
      <trkpt lat="49.64283" lon="5.67113">
        <ele>339.20001220703</ele>
        <time>2022-03-25T08:39:05.000Z</time>
      </trkpt>
      <trkpt lat="49.64274" lon="5.67114">
        <ele>338.39999389648</ele>
        <time>2022-03-25T08:39:07.000Z</time>
      </trkpt>
      <trkpt lat="49.64267" lon="5.67113">
        <ele>338</ele>
        <time>2022-03-25T08:39:09.000Z</time>
      </trkpt>
      <trkpt lat="49.64264" lon="5.67112">
        <ele>338</ele>
        <time>2022-03-25T08:39:10.000Z</time>
      </trkpt>
      <trkpt lat="49.64247" lon="5.67099">
        <ele>337.79998779297</ele>
        <time>2022-03-25T08:39:16.000Z</time>
      </trkpt>
      <trkpt lat="49.6423" lon="5.67096">
        <ele>338.39999389648</ele>
        <time>2022-03-25T08:39:21.000Z</time>
      </trkpt>
      <trkpt lat="49.64215" lon="5.67097">
        <ele>338.39999389648</ele>
        <time>2022-03-25T08:39:26.000Z</time>
      </trkpt>
      <trkpt lat="49.642" lon="5.67098">
        <ele>338.20001220703</ele>
        <time>2022-03-25T08:39:32.000Z</time>
      </trkpt>
      <trkpt lat="49.64191" lon="5.67096">
        <ele>338.39999389648</ele>
        <time>2022-03-25T08:39:34.000Z</time>
      </trkpt>
      <trkpt lat="49.6418" lon="5.67094">
        <ele>338.60000610352</ele>
        <time>2022-03-25T08:39:36.000Z</time>
      </trkpt>
      <trkpt lat="49.64156" lon="5.67089">
        <ele>339.60000610352</ele>
        <time>2022-03-25T08:39:40.000Z</time>
      </trkpt>
      <trkpt lat="49.6415" lon="5.67088">
        <ele>339.79998779297</ele>
        <time>2022-03-25T08:39:41.000Z</time>
      </trkpt>
      <trkpt lat="49.64113" lon="5.6708">
        <ele>340.39999389648</ele>
        <time>2022-03-25T08:39:48.000Z</time>
      </trkpt>
      <trkpt lat="49.64107" lon="5.67079">
        <ele>340</ele>
        <time>2022-03-25T08:39:49.000Z</time>
      </trkpt>
      <trkpt lat="49.64089" lon="5.67071">
        <ele>338.79998779297</ele>
        <time>2022-03-25T08:39:52.000Z</time>
      </trkpt>
      <trkpt lat="49.64083" lon="5.67067">
        <ele>338.39999389648</ele>
        <time>2022-03-25T08:39:53.000Z</time>
      </trkpt>
      <trkpt lat="49.64078" lon="5.67063">
        <ele>337.79998779297</ele>
        <time>2022-03-25T08:39:54.000Z</time>
      </trkpt>
      <trkpt lat="49.64075" lon="5.67058">
        <ele>337.39999389648</ele>
        <time>2022-03-25T08:39:55.000Z</time>
      </trkpt>
      <trkpt lat="49.64071" lon="5.67047">
        <ele>336</ele>
        <time>2022-03-25T08:39:57.000Z</time>
      </trkpt>
      <trkpt lat="49.64074" lon="5.67034">
        <ele>335.20001220703</ele>
        <time>2022-03-25T08:40:00.000Z</time>
      </trkpt>
      <trkpt lat="49.64081" lon="5.67014">
        <ele>334.20001220703</ele>
        <time>2022-03-25T08:40:03.000Z</time>
      </trkpt>
      <trkpt lat="49.64084" lon="5.67">
        <ele>333.39999389648</ele>
        <time>2022-03-25T08:40:05.000Z</time>
      </trkpt>
      <trkpt lat="49.64084" lon="5.66983">
        <ele>333.60000610352</ele>
        <time>2022-03-25T08:40:08.000Z</time>
      </trkpt>
      <trkpt lat="49.64082" lon="5.66972">
        <ele>333.20001220703</ele>
        <time>2022-03-25T08:40:10.000Z</time>
      </trkpt>
      <trkpt lat="49.6408" lon="5.66966">
        <ele>333.20001220703</ele>
        <time>2022-03-25T08:40:11.000Z</time>
      </trkpt>
      <trkpt lat="49.64071" lon="5.66931">
        <ele>332.20001220703</ele>
        <time>2022-03-25T08:40:16.000Z</time>
      </trkpt>
      <trkpt lat="49.64049" lon="5.66886">
        <ele>331.39999389648</ele>
        <time>2022-03-25T08:40:23.000Z</time>
      </trkpt>
      <trkpt lat="49.64039" lon="5.66849">
        <ele>333.20001220703</ele>
        <time>2022-03-25T08:40:29.000Z</time>
      </trkpt>
      <trkpt lat="49.6403" lon="5.66824">
        <ele>333.79998779297</ele>
        <time>2022-03-25T08:40:33.000Z</time>
      </trkpt>
      <trkpt lat="49.64024" lon="5.66821">
        <ele>333.60000610352</ele>
        <time>2022-03-25T08:40:34.000Z</time>
      </trkpt>
      <trkpt lat="49.64004" lon="5.66818">
        <ele>332</ele>
        <time>2022-03-25T08:40:37.000Z</time>
      </trkpt>
      <trkpt lat="49.63998" lon="5.66817">
        <ele>331.60000610352</ele>
        <time>2022-03-25T08:40:38.000Z</time>
      </trkpt>
      <trkpt lat="49.63957" lon="5.66803">
        <ele>331.20001220703</ele>
        <time>2022-03-25T08:40:45.000Z</time>
      </trkpt>
      <trkpt lat="49.63918" lon="5.66791">
        <ele>331</ele>
        <time>2022-03-25T08:40:51.000Z</time>
      </trkpt>
      <trkpt lat="49.63912" lon="5.66789">
        <ele>330</ele>
        <time>2022-03-25T08:40:52.000Z</time>
      </trkpt>
      <trkpt lat="49.63906" lon="5.66785">
        <ele>329.20001220703</ele>
        <time>2022-03-25T08:40:53.000Z</time>
      </trkpt>
      <trkpt lat="49.63891" lon="5.6677">
        <ele>327.60000610352</ele>
        <time>2022-03-25T08:40:56.000Z</time>
      </trkpt>
      <trkpt lat="49.63886" lon="5.66767">
        <ele>326.79998779297</ele>
        <time>2022-03-25T08:40:57.000Z</time>
      </trkpt>
      <trkpt lat="49.63864" lon="5.66764">
        <ele>323</ele>
        <time>2022-03-25T08:41:00.000Z</time>
      </trkpt>
      <trkpt lat="49.63849" lon="5.66761">
        <ele>320.39999389648</ele>
        <time>2022-03-25T08:41:02.000Z</time>
      </trkpt>
      <trkpt lat="49.63826" lon="5.66759">
        <ele>318.79998779297</ele>
        <time>2022-03-25T08:41:05.000Z</time>
      </trkpt>
      <trkpt lat="49.63818" lon="5.66759">
        <ele>318.39999389648</ele>
        <time>2022-03-25T08:41:06.000Z</time>
      </trkpt>
      <trkpt lat="49.63812" lon="5.66759">
        <ele>318.39999389648</ele>
        <time>2022-03-25T08:41:07.000Z</time>
      </trkpt>
      <trkpt lat="49.63798" lon="5.6676">
        <ele>319.79998779297</ele>
        <time>2022-03-25T08:41:10.000Z</time>
      </trkpt>
      <trkpt lat="49.63797" lon="5.66762">
        <ele>320.20001220703</ele>
        <time>2022-03-25T08:41:11.000Z</time>
      </trkpt>
      <trkpt lat="49.63798" lon="5.66768">
        <ele>320.60000610352</ele>
        <time>2022-03-25T08:41:13.000Z</time>
      </trkpt>
      <trkpt lat="49.63805" lon="5.66779">
        <ele>321.20001220703</ele>
        <time>2022-03-25T08:41:16.000Z</time>
      </trkpt>
      <trkpt lat="49.63807" lon="5.66783">
        <ele>321.39999389648</ele>
        <time>2022-03-25T08:41:17.000Z</time>
      </trkpt>
      <trkpt lat="49.63814" lon="5.66806">
        <ele>323.79998779297</ele>
        <time>2022-03-25T08:41:22.000Z</time>
      </trkpt>
      <trkpt lat="49.63818" lon="5.66823">
        <ele>325.20001220703</ele>
        <time>2022-03-25T08:41:26.000Z</time>
      </trkpt>
      <trkpt lat="49.63828" lon="5.66863">
        <ele>327.79998779297</ele>
        <time>2022-03-25T08:41:32.000Z</time>
      </trkpt>
      <trkpt lat="49.63829" lon="5.6687">
        <ele>328.39999389648</ele>
        <time>2022-03-25T08:41:33.000Z</time>
      </trkpt>
      <trkpt lat="49.63834" lon="5.66882">
        <ele>328.39999389648</ele>
        <time>2022-03-25T08:41:36.000Z</time>
      </trkpt>
      <trkpt lat="49.63841" lon="5.66903">
        <ele>329.39999389648</ele>
        <time>2022-03-25T08:41:42.000Z</time>
      </trkpt>
      <trkpt lat="49.63844" lon="5.66921">
        <ele>330.20001220703</ele>
        <time>2022-03-25T08:41:45.000Z</time>
      </trkpt>
      <trkpt lat="49.63849" lon="5.66936">
        <ele>331.79998779297</ele>
        <time>2022-03-25T08:41:48.000Z</time>
      </trkpt>
      <trkpt lat="49.63857" lon="5.6696">
        <ele>333.39999389648</ele>
        <time>2022-03-25T08:41:52.000Z</time>
      </trkpt>
      <trkpt lat="49.63859" lon="5.66967">
        <ele>333.60000610352</ele>
        <time>2022-03-25T08:41:53.000Z</time>
      </trkpt>
      <trkpt lat="49.63861" lon="5.6698">
        <ele>334.60000610352</ele>
        <time>2022-03-25T08:41:55.000Z</time>
      </trkpt>
      <trkpt lat="49.63863" lon="5.66994">
        <ele>335.39999389648</ele>
        <time>2022-03-25T08:41:57.000Z</time>
      </trkpt>
      <trkpt lat="49.63865" lon="5.67011">
        <ele>336</ele>
        <time>2022-03-25T08:42:00.000Z</time>
      </trkpt>
      <trkpt lat="49.63868" lon="5.67028">
        <ele>335.79998779297</ele>
        <time>2022-03-25T08:42:03.000Z</time>
      </trkpt>
      <trkpt lat="49.63873" lon="5.67041">
        <ele>335.20001220703</ele>
        <time>2022-03-25T08:42:05.000Z</time>
      </trkpt>
      <trkpt lat="49.63878" lon="5.67071">
        <ele>334.20001220703</ele>
        <time>2022-03-25T08:42:09.000Z</time>
      </trkpt>
      <trkpt lat="49.6388" lon="5.67086">
        <ele>333.79998779297</ele>
        <time>2022-03-25T08:42:11.000Z</time>
      </trkpt>
      <trkpt lat="49.63883" lon="5.67114">
        <ele>332.39999389648</ele>
        <time>2022-03-25T08:42:15.000Z</time>
      </trkpt>
      <trkpt lat="49.63883" lon="5.6712">
        <ele>332.39999389648</ele>
        <time>2022-03-25T08:42:16.000Z</time>
      </trkpt>
      <trkpt lat="49.63885" lon="5.67143">
        <ele>331.79998779297</ele>
        <time>2022-03-25T08:42:20.000Z</time>
      </trkpt>
      <trkpt lat="49.63885" lon="5.67151">
        <ele>331.79998779297</ele>
        <time>2022-03-25T08:42:21.000Z</time>
      </trkpt>
      <trkpt lat="49.6389" lon="5.67165">
        <ele>331.39999389648</ele>
        <time>2022-03-25T08:42:23.000Z</time>
      </trkpt>
      <trkpt lat="49.639" lon="5.67204">
        <ele>331.60000610352</ele>
        <time>2022-03-25T08:42:29.000Z</time>
      </trkpt>
      <trkpt lat="49.63905" lon="5.67233">
        <ele>331.60000610352</ele>
        <time>2022-03-25T08:42:34.000Z</time>
      </trkpt>
      <trkpt lat="49.63904" lon="5.67243">
        <ele>331.39999389648</ele>
        <time>2022-03-25T08:42:36.000Z</time>
      </trkpt>
      <trkpt lat="49.63902" lon="5.67249">
        <ele>331.39999389648</ele>
        <time>2022-03-25T08:42:37.000Z</time>
      </trkpt>
      <trkpt lat="49.63894" lon="5.67259">
        <ele>331</ele>
        <time>2022-03-25T08:42:39.000Z</time>
      </trkpt>
      <trkpt lat="49.6389" lon="5.67263">
        <ele>331</ele>
        <time>2022-03-25T08:42:40.000Z</time>
      </trkpt>
      <trkpt lat="49.63871" lon="5.67292">
        <ele>330.79998779297</ele>
        <time>2022-03-25T08:42:46.000Z</time>
      </trkpt>
      <trkpt lat="49.63857" lon="5.67308">
        <ele>331.39999389648</ele>
        <time>2022-03-25T08:42:50.000Z</time>
      </trkpt>
      <trkpt lat="49.63847" lon="5.67325">
        <ele>331.60000610352</ele>
        <time>2022-03-25T08:42:53.000Z</time>
      </trkpt>
      <trkpt lat="49.63844" lon="5.67332">
        <ele>331.79998779297</ele>
        <time>2022-03-25T08:42:54.000Z</time>
      </trkpt>
      <trkpt lat="49.63832" lon="5.67362">
        <ele>334.20001220703</ele>
        <time>2022-03-25T08:42:59.000Z</time>
      </trkpt>
      <trkpt lat="49.63825" lon="5.67392">
        <ele>336.39999389648</ele>
        <time>2022-03-25T08:43:04.000Z</time>
      </trkpt>
      <trkpt lat="49.63824" lon="5.67399">
        <ele>336.79998779297</ele>
        <time>2022-03-25T08:43:05.000Z</time>
      </trkpt>
      <trkpt lat="49.63814" lon="5.67441">
        <ele>340.20001220703</ele>
        <time>2022-03-25T08:43:11.000Z</time>
      </trkpt>
      <trkpt lat="49.63801" lon="5.67479">
        <ele>342.20001220703</ele>
        <time>2022-03-25T08:43:17.000Z</time>
      </trkpt>
      <trkpt lat="49.63788" lon="5.67505">
        <ele>342.79998779297</ele>
        <time>2022-03-25T08:43:22.000Z</time>
      </trkpt>
      <trkpt lat="49.63786" lon="5.67509">
        <ele>342.79998779297</ele>
        <time>2022-03-25T08:43:23.000Z</time>
      </trkpt>
      <trkpt lat="49.63779" lon="5.6752">
        <ele>344.39999389648</ele>
        <time>2022-03-25T08:43:26.000Z</time>
      </trkpt>
      <trkpt lat="49.6377" lon="5.67528">
        <ele>345.79998779297</ele>
        <time>2022-03-25T08:43:29.000Z</time>
      </trkpt>
      <trkpt lat="49.63757" lon="5.6754">
        <ele>347</ele>
        <time>2022-03-25T08:43:33.000Z</time>
      </trkpt>
      <trkpt lat="49.63747" lon="5.67546">
        <ele>348</ele>
        <time>2022-03-25T08:43:36.000Z</time>
      </trkpt>
      <trkpt lat="49.6374" lon="5.67552">
        <ele>348.60000610352</ele>
        <time>2022-03-25T08:43:39.000Z</time>
      </trkpt>
      <trkpt lat="49.63733" lon="5.67555">
        <ele>348.79998779297</ele>
        <time>2022-03-25T08:43:41.000Z</time>
      </trkpt>
      <trkpt lat="49.63729" lon="5.67557">
        <ele>349</ele>
        <time>2022-03-25T08:43:42.000Z</time>
      </trkpt>
      <trkpt lat="49.63713" lon="5.67566">
        <ele>349.60000610352</ele>
        <time>2022-03-25T08:43:47.000Z</time>
      </trkpt>
      <trkpt lat="49.63694" lon="5.67578">
        <ele>349.79998779297</ele>
        <time>2022-03-25T08:43:53.000Z</time>
      </trkpt>
      <trkpt lat="49.63681" lon="5.67588">
        <ele>350</ele>
        <time>2022-03-25T08:43:57.000Z</time>
      </trkpt>
      <trkpt lat="49.63677" lon="5.67591">
        <ele>350.20001220703</ele>
        <time>2022-03-25T08:43:58.000Z</time>
      </trkpt>
      <trkpt lat="49.63661" lon="5.67607">
        <ele>351.39999389648</ele>
        <time>2022-03-25T08:44:03.000Z</time>
      </trkpt>
      <trkpt lat="49.63659" lon="5.67611">
        <ele>351.39999389648</ele>
        <time>2022-03-25T08:44:04.000Z</time>
      </trkpt>
      <trkpt lat="49.63656" lon="5.6763">
        <ele>352.39999389648</ele>
        <time>2022-03-25T08:44:08.000Z</time>
      </trkpt>
      <trkpt lat="49.63654" lon="5.6766">
        <ele>353.39999389648</ele>
        <time>2022-03-25T08:44:14.000Z</time>
      </trkpt>
      <trkpt lat="49.63655" lon="5.6767">
        <ele>353.79998779297</ele>
        <time>2022-03-25T08:44:16.000Z</time>
      </trkpt>
      <trkpt lat="49.63659" lon="5.67689">
        <ele>354.20001220703</ele>
        <time>2022-03-25T08:44:19.000Z</time>
      </trkpt>
      <trkpt lat="49.63661" lon="5.67702">
        <ele>354.39999389648</ele>
        <time>2022-03-25T08:44:21.000Z</time>
      </trkpt>
      <trkpt lat="49.63663" lon="5.67721">
        <ele>354.39999389648</ele>
        <time>2022-03-25T08:44:24.000Z</time>
      </trkpt>
      <trkpt lat="49.63668" lon="5.67752">
        <ele>355.79998779297</ele>
        <time>2022-03-25T08:44:29.000Z</time>
      </trkpt>
      <trkpt lat="49.6367" lon="5.6776">
        <ele>356.20001220703</ele>
        <time>2022-03-25T08:44:30.000Z</time>
      </trkpt>
      <trkpt lat="49.63672" lon="5.67773">
        <ele>356.79998779297</ele>
        <time>2022-03-25T08:44:32.000Z</time>
      </trkpt>
      <trkpt lat="49.63676" lon="5.67793">
        <ele>357.60000610352</ele>
        <time>2022-03-25T08:44:35.000Z</time>
      </trkpt>
      <trkpt lat="49.63683" lon="5.67831">
        <ele>359</ele>
        <time>2022-03-25T08:44:42.000Z</time>
      </trkpt>
      <trkpt lat="49.63684" lon="5.67836">
        <ele>359</ele>
        <time>2022-03-25T08:44:43.000Z</time>
      </trkpt>
      <trkpt lat="49.63686" lon="5.67864">
        <ele>358.20001220703</ele>
        <time>2022-03-25T08:44:48.000Z</time>
      </trkpt>
      <trkpt lat="49.63687" lon="5.67904">
        <ele>356.39999389648</ele>
        <time>2022-03-25T08:44:54.000Z</time>
      </trkpt>
      <trkpt lat="49.63688" lon="5.67926">
        <ele>355.60000610352</ele>
        <time>2022-03-25T08:44:57.000Z</time>
      </trkpt>
      <trkpt lat="49.63687" lon="5.67949">
        <ele>355.60000610352</ele>
        <time>2022-03-25T08:45:00.000Z</time>
      </trkpt>
      <trkpt lat="49.63685" lon="5.67981">
        <ele>356</ele>
        <time>2022-03-25T08:45:04.000Z</time>
      </trkpt>
      <trkpt lat="49.63686" lon="5.67996">
        <ele>356</ele>
        <time>2022-03-25T08:45:06.000Z</time>
      </trkpt>
      <trkpt lat="49.63695" lon="5.68014">
        <ele>356.20001220703</ele>
        <time>2022-03-25T08:45:10.000Z</time>
      </trkpt>
      <trkpt lat="49.63713" lon="5.68038">
        <ele>356.79998779297</ele>
        <time>2022-03-25T08:45:16.000Z</time>
      </trkpt>
      <trkpt lat="49.63723" lon="5.68058">
        <ele>356.79998779297</ele>
        <time>2022-03-25T08:45:20.000Z</time>
      </trkpt>
      <trkpt lat="49.63738" lon="5.68083">
        <ele>355.39999389648</ele>
        <time>2022-03-25T08:45:25.000Z</time>
      </trkpt>
      <trkpt lat="49.63749" lon="5.68103">
        <ele>353.79998779297</ele>
        <time>2022-03-25T08:45:29.000Z</time>
      </trkpt>
      <trkpt lat="49.63751" lon="5.68109">
        <ele>353.39999389648</ele>
        <time>2022-03-25T08:45:30.000Z</time>
      </trkpt>
      <trkpt lat="49.63754" lon="5.68116">
        <ele>353</ele>
        <time>2022-03-25T08:45:31.000Z</time>
      </trkpt>
      <trkpt lat="49.63758" lon="5.68129">
        <ele>353.20001220703</ele>
        <time>2022-03-25T08:45:33.000Z</time>
      </trkpt>
      <trkpt lat="49.6376" lon="5.68138">
        <ele>353.60000610352</ele>
        <time>2022-03-25T08:45:35.000Z</time>
      </trkpt>
      <trkpt lat="49.63761" lon="5.68146">
        <ele>354.20001220703</ele>
        <time>2022-03-25T08:45:37.000Z</time>
      </trkpt>
      <trkpt lat="49.63761" lon="5.68151">
        <ele>354.39999389648</ele>
        <time>2022-03-25T08:45:38.000Z</time>
      </trkpt>
      <trkpt lat="49.63752" lon="5.68175">
        <ele>356.20001220703</ele>
        <time>2022-03-25T08:45:43.000Z</time>
      </trkpt>
      <trkpt lat="49.63739" lon="5.68198">
        <ele>356.60000610352</ele>
        <time>2022-03-25T08:45:47.000Z</time>
      </trkpt>
      <trkpt lat="49.63727" lon="5.68224">
        <ele>357.79998779297</ele>
        <time>2022-03-25T08:45:51.000Z</time>
      </trkpt>
      <trkpt lat="49.63721" lon="5.68236">
        <ele>357.39999389648</ele>
        <time>2022-03-25T08:45:53.000Z</time>
      </trkpt>
      <trkpt lat="49.63702" lon="5.68269">
        <ele>356</ele>
        <time>2022-03-25T08:45:59.000Z</time>
      </trkpt>
      <trkpt lat="49.637" lon="5.68274">
        <ele>355.79998779297</ele>
        <time>2022-03-25T08:46:00.000Z</time>
      </trkpt>
      <trkpt lat="49.63686" lon="5.68299">
        <ele>354.60000610352</ele>
        <time>2022-03-25T08:46:05.000Z</time>
      </trkpt>
      <trkpt lat="49.63673" lon="5.68325">
        <ele>353.39999389648</ele>
        <time>2022-03-25T08:46:09.000Z</time>
      </trkpt>
      <trkpt lat="49.63669" lon="5.68332">
        <ele>353</ele>
        <time>2022-03-25T08:46:10.000Z</time>
      </trkpt>
      <trkpt lat="49.63664" lon="5.68338">
        <ele>352.60000610352</ele>
        <time>2022-03-25T08:46:11.000Z</time>
      </trkpt>
      <trkpt lat="49.63654" lon="5.68349">
        <ele>351</ele>
        <time>2022-03-25T08:46:13.000Z</time>
      </trkpt>
      <trkpt lat="49.63645" lon="5.68357">
        <ele>349.20001220703</ele>
        <time>2022-03-25T08:46:15.000Z</time>
      </trkpt>
      <trkpt lat="49.63637" lon="5.68359">
        <ele>348.20001220703</ele>
        <time>2022-03-25T08:46:17.000Z</time>
      </trkpt>
      <trkpt lat="49.63621" lon="5.6835">
        <ele>347.60000610352</ele>
        <time>2022-03-25T08:46:21.000Z</time>
      </trkpt>
      <trkpt lat="49.63617" lon="5.68345">
        <ele>347.60000610352</ele>
        <time>2022-03-25T08:46:22.000Z</time>
      </trkpt>
      <trkpt lat="49.63614" lon="5.6834">
        <ele>347.79998779297</ele>
        <time>2022-03-25T08:46:23.000Z</time>
      </trkpt>
      <trkpt lat="49.63602" lon="5.68324">
        <ele>348</ele>
        <time>2022-03-25T08:46:26.000Z</time>
      </trkpt>
      <trkpt lat="49.63598" lon="5.68318">
        <ele>348.20001220703</ele>
        <time>2022-03-25T08:46:27.000Z</time>
      </trkpt>
      <trkpt lat="49.63586" lon="5.683">
        <ele>348.39999389648</ele>
        <time>2022-03-25T08:46:30.000Z</time>
      </trkpt>
      <trkpt lat="49.63576" lon="5.68284">
        <ele>348.20001220703</ele>
        <time>2022-03-25T08:46:33.000Z</time>
      </trkpt>
      <trkpt lat="49.63565" lon="5.68261">
        <ele>348.20001220703</ele>
        <time>2022-03-25T08:46:37.000Z</time>
      </trkpt>
      <trkpt lat="49.6356" lon="5.68249">
        <ele>348</ele>
        <time>2022-03-25T08:46:39.000Z</time>
      </trkpt>
      <trkpt lat="49.63554" lon="5.68226">
        <ele>347.60000610352</ele>
        <time>2022-03-25T08:46:42.000Z</time>
      </trkpt>
      <trkpt lat="49.63545" lon="5.68196">
        <ele>347.20001220703</ele>
        <time>2022-03-25T08:46:46.000Z</time>
      </trkpt>
      <trkpt lat="49.63542" lon="5.68191">
        <ele>347</ele>
        <time>2022-03-25T08:46:47.000Z</time>
      </trkpt>
      <trkpt lat="49.63535" lon="5.6818">
        <ele>347</ele>
        <time>2022-03-25T08:46:49.000Z</time>
      </trkpt>
      <trkpt lat="49.63523" lon="5.68164">
        <ele>347</ele>
        <time>2022-03-25T08:46:52.000Z</time>
      </trkpt>
      <trkpt lat="49.63518" lon="5.68158">
        <ele>347</ele>
        <time>2022-03-25T08:46:53.000Z</time>
      </trkpt>
      <trkpt lat="49.63513" lon="5.68152">
        <ele>347</ele>
        <time>2022-03-25T08:46:54.000Z</time>
      </trkpt>
      <trkpt lat="49.63501" lon="5.68137">
        <ele>346.60000610352</ele>
        <time>2022-03-25T08:46:57.000Z</time>
      </trkpt>
      <trkpt lat="49.63497" lon="5.68133">
        <ele>346.20001220703</ele>
        <time>2022-03-25T08:46:58.000Z</time>
      </trkpt>
      <trkpt lat="49.63482" lon="5.68118">
        <ele>344.60000610352</ele>
        <time>2022-03-25T08:47:02.000Z</time>
      </trkpt>
      <trkpt lat="49.63457" lon="5.68091">
        <ele>341.79998779297</ele>
        <time>2022-03-25T08:47:08.000Z</time>
      </trkpt>
      <trkpt lat="49.63443" lon="5.68075">
        <ele>340.60000610352</ele>
        <time>2022-03-25T08:47:11.000Z</time>
      </trkpt>
      <trkpt lat="49.63433" lon="5.68065">
        <ele>340.20001220703</ele>
        <time>2022-03-25T08:47:13.000Z</time>
      </trkpt>
      <trkpt lat="49.63422" lon="5.68053">
        <ele>340</ele>
        <time>2022-03-25T08:47:15.000Z</time>
      </trkpt>
      <trkpt lat="49.63414" lon="5.68043">
        <ele>340.20001220703</ele>
        <time>2022-03-25T08:47:17.000Z</time>
      </trkpt>
      <trkpt lat="49.63401" lon="5.68028">
        <ele>340.79998779297</ele>
        <time>2022-03-25T08:47:20.000Z</time>
      </trkpt>
      <trkpt lat="49.63376" lon="5.68004">
        <ele>341.39999389648</ele>
        <time>2022-03-25T08:47:26.000Z</time>
      </trkpt>
      <trkpt lat="49.63354" lon="5.6799">
        <ele>339.60000610352</ele>
        <time>2022-03-25T08:47:30.000Z</time>
      </trkpt>
      <trkpt lat="49.63349" lon="5.67986">
        <ele>339.20001220703</ele>
        <time>2022-03-25T08:47:31.000Z</time>
      </trkpt>
      <trkpt lat="49.63345" lon="5.67981">
        <ele>338.60000610352</ele>
        <time>2022-03-25T08:47:32.000Z</time>
      </trkpt>
      <trkpt lat="49.63337" lon="5.67969">
        <ele>338</ele>
        <time>2022-03-25T08:47:34.000Z</time>
      </trkpt>
      <trkpt lat="49.6333" lon="5.67957">
        <ele>337.39999389648</ele>
        <time>2022-03-25T08:47:36.000Z</time>
      </trkpt>
      <trkpt lat="49.63322" lon="5.67944">
        <ele>337.20001220703</ele>
        <time>2022-03-25T08:47:38.000Z</time>
      </trkpt>
      <trkpt lat="49.63314" lon="5.67932">
        <ele>337</ele>
        <time>2022-03-25T08:47:40.000Z</time>
      </trkpt>
      <trkpt lat="49.63303" lon="5.67918">
        <ele>337</ele>
        <time>2022-03-25T08:47:43.000Z</time>
      </trkpt>
      <trkpt lat="49.6329" lon="5.67906">
        <ele>337</ele>
        <time>2022-03-25T08:47:46.000Z</time>
      </trkpt>
      <trkpt lat="49.63269" lon="5.67893">
        <ele>335.60000610352</ele>
        <time>2022-03-25T08:47:50.000Z</time>
      </trkpt>
      <trkpt lat="49.63259" lon="5.67892">
        <ele>334.60000610352</ele>
        <time>2022-03-25T08:47:52.000Z</time>
      </trkpt>
      <trkpt lat="49.63254" lon="5.67892">
        <ele>334</ele>
        <time>2022-03-25T08:47:53.000Z</time>
      </trkpt>
      <trkpt lat="49.63247" lon="5.67892">
        <ele>333.60000610352</ele>
        <time>2022-03-25T08:47:55.000Z</time>
      </trkpt>
      <trkpt lat="49.63241" lon="5.67892">
        <ele>333</ele>
        <time>2022-03-25T08:48:25.000Z</time>
      </trkpt>
      <trkpt lat="49.63239" lon="5.67893">
        <ele>333</ele>
        <time>2022-03-25T08:48:26.000Z</time>
      </trkpt>
      <trkpt lat="49.63231" lon="5.67898">
        <ele>332.60000610352</ele>
        <time>2022-03-25T08:48:30.000Z</time>
      </trkpt>
      <trkpt lat="49.63222" lon="5.67899">
        <ele>332</ele>
        <time>2022-03-25T08:48:34.000Z</time>
      </trkpt>
      <trkpt lat="49.63218" lon="5.67901">
        <ele>332</ele>
        <time>2022-03-25T08:48:36.000Z</time>
      </trkpt>
      <trkpt lat="49.63205" lon="5.67898">
        <ele>331.39999389648</ele>
        <time>2022-03-25T08:49:34.000Z</time>
      </trkpt>
      <trkpt lat="49.63203" lon="5.67895">
        <ele>331.20001220703</ele>
        <time>2022-03-25T08:49:35.000Z</time>
      </trkpt>
      <trkpt lat="49.63198" lon="5.67891">
        <ele>331</ele>
        <time>2022-03-25T08:49:37.000Z</time>
      </trkpt>
      <trkpt lat="49.63182" lon="5.6788">
        <ele>331</ele>
        <time>2022-03-25T08:49:42.000Z</time>
      </trkpt>
      <trkpt lat="49.63165" lon="5.6787">
        <ele>330.79998779297</ele>
        <time>2022-03-25T08:49:46.000Z</time>
      </trkpt>
      <trkpt lat="49.63157" lon="5.67866">
        <ele>331</ele>
        <time>2022-03-25T08:49:48.000Z</time>
      </trkpt>
      <trkpt lat="49.63142" lon="5.67861">
        <ele>331.20001220703</ele>
        <time>2022-03-25T08:49:51.000Z</time>
      </trkpt>
      <trkpt lat="49.63137" lon="5.67861">
        <ele>331.20001220703</ele>
        <time>2022-03-25T08:49:52.000Z</time>
      </trkpt>
      <trkpt lat="49.63121" lon="5.67859">
        <ele>330.20001220703</ele>
        <time>2022-03-25T08:49:55.000Z</time>
      </trkpt>
      <trkpt lat="49.63116" lon="5.67857">
        <ele>330.20001220703</ele>
        <time>2022-03-25T08:49:56.000Z</time>
      </trkpt>
      <trkpt lat="49.63098" lon="5.67838">
        <ele>331.39999389648</ele>
        <time>2022-03-25T08:50:00.000Z</time>
      </trkpt>
      <trkpt lat="49.63094" lon="5.67832">
        <ele>331.39999389648</ele>
        <time>2022-03-25T08:50:01.000Z</time>
      </trkpt>
      <trkpt lat="49.63073" lon="5.67799">
        <ele>331.60000610352</ele>
        <time>2022-03-25T08:50:06.000Z</time>
      </trkpt>
      <trkpt lat="49.63069" lon="5.67792">
        <ele>331.39999389648</ele>
        <time>2022-03-25T08:50:07.000Z</time>
      </trkpt>
      <trkpt lat="49.63064" lon="5.67787">
        <ele>331.20001220703</ele>
        <time>2022-03-25T08:50:08.000Z</time>
      </trkpt>
      <trkpt lat="49.63054" lon="5.6778">
        <ele>331</ele>
        <time>2022-03-25T08:50:10.000Z</time>
      </trkpt>
      <trkpt lat="49.63048" lon="5.67778">
        <ele>331.20001220703</ele>
        <time>2022-03-25T08:50:11.000Z</time>
      </trkpt>
      <trkpt lat="49.63034" lon="5.67777">
        <ele>331.20001220703</ele>
        <time>2022-03-25T08:50:13.000Z</time>
      </trkpt>
      <trkpt lat="49.63027" lon="5.67776">
        <ele>331</ele>
        <time>2022-03-25T08:50:14.000Z</time>
      </trkpt>
      <trkpt lat="49.6302" lon="5.67776">
        <ele>330.39999389648</ele>
        <time>2022-03-25T08:50:15.000Z</time>
      </trkpt>
      <trkpt lat="49.62987" lon="5.67788">
        <ele>326.60000610352</ele>
        <time>2022-03-25T08:50:20.000Z</time>
      </trkpt>
      <trkpt lat="49.62962" lon="5.67805">
        <ele>324</ele>
        <time>2022-03-25T08:50:24.000Z</time>
      </trkpt>
      <trkpt lat="49.6295" lon="5.67814">
        <ele>323.60000610352</ele>
        <time>2022-03-25T08:50:26.000Z</time>
      </trkpt>
      <trkpt lat="49.62944" lon="5.67819">
        <ele>323.39999389648</ele>
        <time>2022-03-25T08:50:27.000Z</time>
      </trkpt>
      <trkpt lat="49.62923" lon="5.67837">
        <ele>323.79998779297</ele>
        <time>2022-03-25T08:50:30.000Z</time>
      </trkpt>
      <trkpt lat="49.62908" lon="5.6785">
        <ele>323.20001220703</ele>
        <time>2022-03-25T08:50:32.000Z</time>
      </trkpt>
      <trkpt lat="49.62901" lon="5.67856">
        <ele>322.79998779297</ele>
        <time>2022-03-25T08:50:33.000Z</time>
      </trkpt>
      <trkpt lat="49.62873" lon="5.67878">
        <ele>320.39999389648</ele>
        <time>2022-03-25T08:50:37.000Z</time>
      </trkpt>
      <trkpt lat="49.62859" lon="5.67888">
        <ele>318</ele>
        <time>2022-03-25T08:50:39.000Z</time>
      </trkpt>
      <trkpt lat="49.62852" lon="5.67894">
        <ele>317.60000610352</ele>
        <time>2022-03-25T08:50:40.000Z</time>
      </trkpt>
      <trkpt lat="49.62837" lon="5.67905">
        <ele>316.39999389648</ele>
        <time>2022-03-25T08:50:42.000Z</time>
      </trkpt>
      <trkpt lat="49.62821" lon="5.67917">
        <ele>315.60000610352</ele>
        <time>2022-03-25T08:50:44.000Z</time>
      </trkpt>
      <trkpt lat="49.62809" lon="5.67928">
        <ele>314.39999389648</ele>
        <time>2022-03-25T08:50:46.000Z</time>
      </trkpt>
      <trkpt lat="49.62804" lon="5.67935">
        <ele>314.60000610352</ele>
        <time>2022-03-25T08:50:47.000Z</time>
      </trkpt>
      <trkpt lat="49.6279" lon="5.67959">
        <ele>313</ele>
        <time>2022-03-25T08:50:50.000Z</time>
      </trkpt>
      <trkpt lat="49.62781" lon="5.67977">
        <ele>311</ele>
        <time>2022-03-25T08:50:52.000Z</time>
      </trkpt>
      <trkpt lat="49.62768" lon="5.68001">
        <ele>309.79998779297</ele>
        <time>2022-03-25T08:50:55.000Z</time>
      </trkpt>
      <trkpt lat="49.62764" lon="5.6801">
        <ele>310</ele>
        <time>2022-03-25T08:50:56.000Z</time>
      </trkpt>
      <trkpt lat="49.6276" lon="5.68019">
        <ele>309.60000610352</ele>
        <time>2022-03-25T08:50:57.000Z</time>
      </trkpt>
      <trkpt lat="49.62746" lon="5.68051">
        <ele>306.60000610352</ele>
        <time>2022-03-25T08:51:00.000Z</time>
      </trkpt>
      <trkpt lat="49.62737" lon="5.68078">
        <ele>303.79998779297</ele>
        <time>2022-03-25T08:51:03.000Z</time>
      </trkpt>
      <trkpt lat="49.62723" lon="5.68131">
        <ele>300.60000610352</ele>
        <time>2022-03-25T08:51:09.000Z</time>
      </trkpt>
      <trkpt lat="49.62713" lon="5.68152">
        <ele>301.60000610352</ele>
        <time>2022-03-25T08:51:12.000Z</time>
      </trkpt>
      <trkpt lat="49.62708" lon="5.68158">
        <ele>302.20001220703</ele>
        <time>2022-03-25T08:51:13.000Z</time>
      </trkpt>
      <trkpt lat="49.62686" lon="5.68171">
        <ele>304</ele>
        <time>2022-03-25T08:51:17.000Z</time>
      </trkpt>
      <trkpt lat="49.6268" lon="5.68173">
        <ele>304.20001220703</ele>
        <time>2022-03-25T08:51:18.000Z</time>
      </trkpt>
      <trkpt lat="49.62644" lon="5.68178">
        <ele>303.60000610352</ele>
        <time>2022-03-25T08:51:24.000Z</time>
      </trkpt>
      <trkpt lat="49.62632" lon="5.68176">
        <ele>303.60000610352</ele>
        <time>2022-03-25T08:51:26.000Z</time>
      </trkpt>
      <trkpt lat="49.62604" lon="5.68173">
        <ele>305.20001220703</ele>
        <time>2022-03-25T08:51:31.000Z</time>
      </trkpt>
      <trkpt lat="49.62568" lon="5.68171">
        <ele>307.79998779297</ele>
        <time>2022-03-25T08:51:38.000Z</time>
      </trkpt>
      <trkpt lat="49.62544" lon="5.6817">
        <ele>307.20001220703</ele>
        <time>2022-03-25T08:51:44.000Z</time>
      </trkpt>
      <trkpt lat="49.62544" lon="5.68162">
        <ele>308.60000610352</ele>
        <time>2022-03-25T08:51:47.000Z</time>
      </trkpt>
      <trkpt lat="49.62545" lon="5.68157">
        <ele>309.60000610352</ele>
        <time>2022-03-25T08:51:49.000Z</time>
      </trkpt>
      <trkpt lat="49.62553" lon="5.68147">
        <ele>312</ele>
        <time>2022-03-25T08:51:53.000Z</time>
      </trkpt>
      <trkpt lat="49.62555" lon="5.68145">
        <ele>312.60000610352</ele>
        <time>2022-03-25T08:51:54.000Z</time>
      </trkpt>
      <trkpt lat="49.62563" lon="5.68138">
        <ele>313.60000610352</ele>
        <time>2022-03-25T08:51:57.000Z</time>
      </trkpt>
      <trkpt lat="49.62571" lon="5.6813">
        <ele>314.20001220703</ele>
        <time>2022-03-25T08:52:00.000Z</time>
      </trkpt>
      <trkpt lat="49.62573" lon="5.68126">
        <ele>314.39999389648</ele>
        <time>2022-03-25T08:52:01.000Z</time>
      </trkpt>
      <trkpt lat="49.62575" lon="5.68123">
        <ele>314.60000610352</ele>
        <time>2022-03-25T08:52:02.000Z</time>
      </trkpt>
      <trkpt lat="49.62581" lon="5.68113">
        <ele>315.39999389648</ele>
        <time>2022-03-25T08:52:05.000Z</time>
      </trkpt>
      <trkpt lat="49.62587" lon="5.68102">
        <ele>316</ele>
        <time>2022-03-25T08:52:08.000Z</time>
      </trkpt>
      <trkpt lat="49.62591" lon="5.68088">
        <ele>316.60000610352</ele>
        <time>2022-03-25T08:52:12.000Z</time>
      </trkpt>
      <trkpt lat="49.62595" lon="5.68076">
        <ele>316.60000610352</ele>
        <time>2022-03-25T08:52:15.000Z</time>
      </trkpt>
      <trkpt lat="49.62597" lon="5.68072">
        <ele>316.60000610352</ele>
        <time>2022-03-25T08:52:16.000Z</time>
      </trkpt>
      <trkpt lat="49.62599" lon="5.68063">
        <ele>317.60000610352</ele>
        <time>2022-03-25T08:52:19.000Z</time>
      </trkpt>
      <trkpt lat="49.62601" lon="5.68056">
        <ele>318.60000610352</ele>
        <time>2022-03-25T08:52:21.000Z</time>
      </trkpt>
      <trkpt lat="49.62604" lon="5.68041">
        <ele>320.39999389648</ele>
        <time>2022-03-25T08:52:25.000Z</time>
      </trkpt>
      <trkpt lat="49.62605" lon="5.68033">
        <ele>321.60000610352</ele>
        <time>2022-03-25T08:52:27.000Z</time>
      </trkpt>
      <trkpt lat="49.62607" lon="5.68021">
        <ele>322.79998779297</ele>
        <time>2022-03-25T08:52:30.000Z</time>
      </trkpt>
      <trkpt lat="49.62614" lon="5.68001">
        <ele>326</ele>
        <time>2022-03-25T08:52:34.000Z</time>
      </trkpt>
      <trkpt lat="49.62625" lon="5.67971">
        <ele>325.60000610352</ele>
        <time>2022-03-25T08:52:40.000Z</time>
      </trkpt>
      <trkpt lat="49.62636" lon="5.67947">
        <ele>325</ele>
        <time>2022-03-25T08:52:45.000Z</time>
      </trkpt>
      <trkpt lat="49.62648" lon="5.6793">
        <ele>323.20001220703</ele>
        <time>2022-03-25T08:52:49.000Z</time>
      </trkpt>
      <trkpt lat="49.62654" lon="5.6792">
        <ele>323.79998779297</ele>
        <time>2022-03-25T08:52:51.000Z</time>
      </trkpt>
      <trkpt lat="49.62665" lon="5.67902">
        <ele>324.39999389648</ele>
        <time>2022-03-25T08:52:56.000Z</time>
      </trkpt>
      <trkpt lat="49.62678" lon="5.67882">
        <ele>325.79998779297</ele>
        <time>2022-03-25T08:53:01.000Z</time>
      </trkpt>
      <trkpt lat="49.62694" lon="5.67862">
        <ele>325.39999389648</ele>
        <time>2022-03-25T08:53:05.000Z</time>
      </trkpt>
      <trkpt lat="49.62702" lon="5.67851">
        <ele>325.20001220703</ele>
        <time>2022-03-25T08:53:07.000Z</time>
      </trkpt>
      <trkpt lat="49.62725" lon="5.67822">
        <ele>325.39999389648</ele>
        <time>2022-03-25T08:53:13.000Z</time>
      </trkpt>
      <trkpt lat="49.62736" lon="5.67813">
        <ele>325.79998779297</ele>
        <time>2022-03-25T08:53:16.000Z</time>
      </trkpt>
      <trkpt lat="49.62744" lon="5.67805">
        <ele>326.39999389648</ele>
        <time>2022-03-25T08:53:18.000Z</time>
      </trkpt>
      <trkpt lat="49.62775" lon="5.67776">
        <ele>328.39999389648</ele>
        <time>2022-03-25T08:53:24.000Z</time>
      </trkpt>
      <trkpt lat="49.62781" lon="5.6777">
        <ele>328.60000610352</ele>
        <time>2022-03-25T08:53:25.000Z</time>
      </trkpt>
      <trkpt lat="49.62798" lon="5.67745">
        <ele>329.39999389648</ele>
        <time>2022-03-25T08:53:29.000Z</time>
      </trkpt>
      <trkpt lat="49.62804" lon="5.67733">
        <ele>329.60000610352</ele>
        <time>2022-03-25T08:53:31.000Z</time>
      </trkpt>
      <trkpt lat="49.62809" lon="5.6772">
        <ele>330</ele>
        <time>2022-03-25T08:53:33.000Z</time>
      </trkpt>
      <trkpt lat="49.62813" lon="5.67707">
        <ele>330.20001220703</ele>
        <time>2022-03-25T08:53:35.000Z</time>
      </trkpt>
      <trkpt lat="49.62816" lon="5.67693">
        <ele>330.60000610352</ele>
        <time>2022-03-25T08:53:37.000Z</time>
      </trkpt>
      <trkpt lat="49.62822" lon="5.67663">
        <ele>331.39999389648</ele>
        <time>2022-03-25T08:53:41.000Z</time>
      </trkpt>
      <trkpt lat="49.62826" lon="5.67641">
        <ele>331.79998779297</ele>
        <time>2022-03-25T08:53:44.000Z</time>
      </trkpt>
      <trkpt lat="49.62827" lon="5.67619">
        <ele>331.79998779297</ele>
        <time>2022-03-25T08:53:47.000Z</time>
      </trkpt>
      <trkpt lat="49.62826" lon="5.67601">
        <ele>332</ele>
        <time>2022-03-25T08:53:50.000Z</time>
      </trkpt>
      <trkpt lat="49.62825" lon="5.67585">
        <ele>332.20001220703</ele>
        <time>2022-03-25T08:53:53.000Z</time>
      </trkpt>
      <trkpt lat="49.62823" lon="5.67584">
        <ele>332</ele>
        <time>2022-03-25T08:53:54.000Z</time>
      </trkpt>
      <trkpt lat="49.6282" lon="5.67588">
        <ele>331.60000610352</ele>
        <time>2022-03-25T08:53:56.000Z</time>
      </trkpt>
      <trkpt lat="49.62818" lon="5.676">
        <ele>331</ele>
        <time>2022-03-25T08:53:58.000Z</time>
      </trkpt>
      <trkpt lat="49.62816" lon="5.67608">
        <ele>330.79998779297</ele>
        <time>2022-03-25T08:53:59.000Z</time>
      </trkpt>
      <trkpt lat="49.62813" lon="5.67625">
        <ele>330.39999389648</ele>
        <time>2022-03-25T08:54:01.000Z</time>
      </trkpt>
      <trkpt lat="49.62809" lon="5.67645">
        <ele>330</ele>
        <time>2022-03-25T08:54:03.000Z</time>
      </trkpt>
      <trkpt lat="49.62806" lon="5.67655">
        <ele>329.79998779297</ele>
        <time>2022-03-25T08:54:04.000Z</time>
      </trkpt>
      <trkpt lat="49.62803" lon="5.67665">
        <ele>329.39999389648</ele>
        <time>2022-03-25T08:54:05.000Z</time>
      </trkpt>
      <trkpt lat="49.62793" lon="5.67686">
        <ele>328.39999389648</ele>
        <time>2022-03-25T08:54:07.000Z</time>
      </trkpt>
      <trkpt lat="49.62788" lon="5.67696">
        <ele>327.79998779297</ele>
        <time>2022-03-25T08:54:08.000Z</time>
      </trkpt>
      <trkpt lat="49.62783" lon="5.67705">
        <ele>327.20001220703</ele>
        <time>2022-03-25T08:54:09.000Z</time>
      </trkpt>
      <trkpt lat="49.62772" lon="5.67723">
        <ele>326</ele>
        <time>2022-03-25T08:54:11.000Z</time>
      </trkpt>
      <trkpt lat="49.62763" lon="5.67737">
        <ele>325.39999389648</ele>
        <time>2022-03-25T08:54:13.000Z</time>
      </trkpt>
      <trkpt lat="49.62759" lon="5.67742">
        <ele>325.39999389648</ele>
        <time>2022-03-25T08:54:14.000Z</time>
      </trkpt>
      <trkpt lat="49.62752" lon="5.67751">
        <ele>325.79998779297</ele>
        <time>2022-03-25T08:54:16.000Z</time>
      </trkpt>
      <trkpt lat="49.62749" lon="5.67754">
        <ele>325.60000610352</ele>
        <time>2022-03-25T08:54:17.000Z</time>
      </trkpt>
      <trkpt lat="49.6273" lon="5.67764">
        <ele>324.60000610352</ele>
        <time>2022-03-25T08:54:23.000Z</time>
      </trkpt>
      <trkpt lat="49.62712" lon="5.67765">
        <ele>323.39999389648</ele>
        <time>2022-03-25T08:54:28.000Z</time>
      </trkpt>
      <trkpt lat="49.62681" lon="5.67759">
        <ele>320.79998779297</ele>
        <time>2022-03-25T08:54:35.000Z</time>
      </trkpt>
      <trkpt lat="49.62677" lon="5.67756">
        <ele>320.39999389648</ele>
        <time>2022-03-25T08:54:36.000Z</time>
      </trkpt>
      <trkpt lat="49.62658" lon="5.67748">
        <ele>320</ele>
        <time>2022-03-25T08:54:40.000Z</time>
      </trkpt>
      <trkpt lat="49.6264" lon="5.67741">
        <ele>320.20001220703</ele>
        <time>2022-03-25T08:54:44.000Z</time>
      </trkpt>
      <trkpt lat="49.6263" lon="5.67736">
        <ele>321</ele>
        <time>2022-03-25T08:54:46.000Z</time>
      </trkpt>
      <trkpt lat="49.62618" lon="5.67735">
        <ele>321.79998779297</ele>
        <time>2022-03-25T08:54:48.000Z</time>
      </trkpt>
      <trkpt lat="49.62605" lon="5.67736">
        <ele>322</ele>
        <time>2022-03-25T08:54:50.000Z</time>
      </trkpt>
      <trkpt lat="49.62599" lon="5.67736">
        <ele>322</ele>
        <time>2022-03-25T08:54:51.000Z</time>
      </trkpt>
      <trkpt lat="49.62579" lon="5.67733">
        <ele>321.79998779297</ele>
        <time>2022-03-25T08:54:54.000Z</time>
      </trkpt>
      <trkpt lat="49.62574" lon="5.67735">
        <ele>321.60000610352</ele>
        <time>2022-03-25T08:54:55.000Z</time>
      </trkpt>
      <trkpt lat="49.62569" lon="5.6774">
        <ele>321.39999389648</ele>
        <time>2022-03-25T08:54:56.000Z</time>
      </trkpt>
      <trkpt lat="49.6256" lon="5.67751">
        <ele>321.79998779297</ele>
        <time>2022-03-25T08:54:58.000Z</time>
      </trkpt>
      <trkpt lat="49.62556" lon="5.67757">
        <ele>321.39999389648</ele>
        <time>2022-03-25T08:54:59.000Z</time>
      </trkpt>
      <trkpt lat="49.6254" lon="5.67783">
        <ele>319.20001220703</ele>
        <time>2022-03-25T08:55:03.000Z</time>
      </trkpt>
      <trkpt lat="49.62526" lon="5.67807">
        <ele>318</ele>
        <time>2022-03-25T08:55:07.000Z</time>
      </trkpt>
      <trkpt lat="49.62522" lon="5.67813">
        <ele>317.39999389648</ele>
        <time>2022-03-25T08:55:08.000Z</time>
      </trkpt>
      <trkpt lat="49.62508" lon="5.67831">
        <ele>315.60000610352</ele>
        <time>2022-03-25T08:55:11.000Z</time>
      </trkpt>
      <trkpt lat="49.62503" lon="5.67838">
        <ele>315</ele>
        <time>2022-03-25T08:55:12.000Z</time>
      </trkpt>
      <trkpt lat="49.62499" lon="5.67846">
        <ele>314.20001220703</ele>
        <time>2022-03-25T08:55:13.000Z</time>
      </trkpt>
      <trkpt lat="49.62487" lon="5.67864">
        <ele>312.39999389648</ele>
        <time>2022-03-25T08:55:15.000Z</time>
      </trkpt>
      <trkpt lat="49.6248" lon="5.6787">
        <ele>311.60000610352</ele>
        <time>2022-03-25T08:55:16.000Z</time>
      </trkpt>
      <trkpt lat="49.62473" lon="5.67877">
        <ele>311</ele>
        <time>2022-03-25T08:55:17.000Z</time>
      </trkpt>
      <trkpt lat="49.62466" lon="5.67882">
        <ele>310.60000610352</ele>
        <time>2022-03-25T08:55:18.000Z</time>
      </trkpt>
      <trkpt lat="49.6246" lon="5.67886">
        <ele>309.79998779297</ele>
        <time>2022-03-25T08:55:19.000Z</time>
      </trkpt>
      <trkpt lat="49.62454" lon="5.67889">
        <ele>309</ele>
        <time>2022-03-25T08:55:20.000Z</time>
      </trkpt>
      <trkpt lat="49.6245" lon="5.6789">
        <ele>308.39999389648</ele>
        <time>2022-03-25T08:55:21.000Z</time>
      </trkpt>
      <trkpt lat="49.62447" lon="5.67889">
        <ele>308</ele>
        <time>2022-03-25T08:55:22.000Z</time>
      </trkpt>
      <trkpt lat="49.62444" lon="5.67886">
        <ele>307.60000610352</ele>
        <time>2022-03-25T08:55:23.000Z</time>
      </trkpt>
      <trkpt lat="49.62442" lon="5.67883">
        <ele>307.39999389648</ele>
        <time>2022-03-25T08:55:24.000Z</time>
      </trkpt>
      <trkpt lat="49.6244" lon="5.6787">
        <ele>307.20001220703</ele>
        <time>2022-03-25T08:55:27.000Z</time>
      </trkpt>
      <trkpt lat="49.62439" lon="5.67861">
        <ele>307</ele>
        <time>2022-03-25T08:55:29.000Z</time>
      </trkpt>
      <trkpt lat="49.62437" lon="5.67848">
        <ele>306.39999389648</ele>
        <time>2022-03-25T08:55:32.000Z</time>
      </trkpt>
      <trkpt lat="49.62432" lon="5.67825">
        <ele>305.39999389648</ele>
        <time>2022-03-25T08:55:37.000Z</time>
      </trkpt>
      <trkpt lat="49.62426" lon="5.6779">
        <ele>303.60000610352</ele>
        <time>2022-03-25T08:55:43.000Z</time>
      </trkpt>
      <trkpt lat="49.62421" lon="5.67765">
        <ele>303</ele>
        <time>2022-03-25T08:55:48.000Z</time>
      </trkpt>
      <trkpt lat="49.62417" lon="5.67737">
        <ele>303</ele>
        <time>2022-03-25T08:55:54.000Z</time>
      </trkpt>
      <trkpt lat="49.6242" lon="5.67706">
        <ele>303</ele>
        <time>2022-03-25T08:55:59.000Z</time>
      </trkpt>
      <trkpt lat="49.62421" lon="5.67663">
        <ele>304</ele>
        <time>2022-03-25T08:56:05.000Z</time>
      </trkpt>
      <trkpt lat="49.6242" lon="5.67641">
        <ele>304</ele>
        <time>2022-03-25T08:56:08.000Z</time>
      </trkpt>
      <trkpt lat="49.62419" lon="5.67634">
        <ele>303.60000610352</ele>
        <time>2022-03-25T08:56:09.000Z</time>
      </trkpt>
      <trkpt lat="49.62418" lon="5.67627">
        <ele>303.39999389648</ele>
        <time>2022-03-25T08:56:10.000Z</time>
      </trkpt>
      <trkpt lat="49.62418" lon="5.67611">
        <ele>302.39999389648</ele>
        <time>2022-03-25T08:56:12.000Z</time>
      </trkpt>
      <trkpt lat="49.62419" lon="5.67585">
        <ele>299.79998779297</ele>
        <time>2022-03-25T08:56:15.000Z</time>
      </trkpt>
      <trkpt lat="49.6242" lon="5.67576">
        <ele>299</ele>
        <time>2022-03-25T08:56:16.000Z</time>
      </trkpt>
      <trkpt lat="49.62421" lon="5.67557">
        <ele>297.79998779297</ele>
        <time>2022-03-25T08:56:18.000Z</time>
      </trkpt>
      <trkpt lat="49.62421" lon="5.67545">
        <ele>297.39999389648</ele>
        <time>2022-03-25T08:56:19.000Z</time>
      </trkpt>
      <trkpt lat="49.62419" lon="5.67532">
        <ele>297</ele>
        <time>2022-03-25T08:56:20.000Z</time>
      </trkpt>
      <trkpt lat="49.62415" lon="5.67503">
        <ele>296.20001220703</ele>
        <time>2022-03-25T08:56:22.000Z</time>
      </trkpt>
      <trkpt lat="49.62413" lon="5.67475">
        <ele>296.79998779297</ele>
        <time>2022-03-25T08:56:24.000Z</time>
      </trkpt>
      <trkpt lat="49.62413" lon="5.67461">
        <ele>296.79998779297</ele>
        <time>2022-03-25T08:56:25.000Z</time>
      </trkpt>
      <trkpt lat="49.62415" lon="5.67448">
        <ele>296.79998779297</ele>
        <time>2022-03-25T08:56:26.000Z</time>
      </trkpt>
      <trkpt lat="49.62419" lon="5.67427">
        <ele>297</ele>
        <time>2022-03-25T08:56:28.000Z</time>
      </trkpt>
      <trkpt lat="49.62423" lon="5.67405">
        <ele>297.20001220703</ele>
        <time>2022-03-25T08:56:31.000Z</time>
      </trkpt>
      <trkpt lat="49.62424" lon="5.67398">
        <ele>297.20001220703</ele>
        <time>2022-03-25T08:56:32.000Z</time>
      </trkpt>
      <trkpt lat="49.62424" lon="5.67392">
        <ele>297.20001220703</ele>
        <time>2022-03-25T08:56:33.000Z</time>
      </trkpt>
      <trkpt lat="49.62425" lon="5.67379">
        <ele>297.20001220703</ele>
        <time>2022-03-25T08:56:35.000Z</time>
      </trkpt>
      <trkpt lat="49.62427" lon="5.6736">
        <ele>297.20001220703</ele>
        <time>2022-03-25T08:56:38.000Z</time>
      </trkpt>
      <trkpt lat="49.6243" lon="5.67316">
        <ele>296.20001220703</ele>
        <time>2022-03-25T08:56:44.000Z</time>
      </trkpt>
      <trkpt lat="49.62434" lon="5.67287">
        <ele>296.20001220703</ele>
        <time>2022-03-25T08:56:49.000Z</time>
      </trkpt>
      <trkpt lat="49.62441" lon="5.67258">
        <ele>296.39999389648</ele>
        <time>2022-03-25T08:56:53.000Z</time>
      </trkpt>
      <trkpt lat="49.62444" lon="5.6725">
        <ele>296.60000610352</ele>
        <time>2022-03-25T08:56:54.000Z</time>
      </trkpt>
      <trkpt lat="49.62457" lon="5.6721">
        <ele>296.79998779297</ele>
        <time>2022-03-25T08:56:59.000Z</time>
      </trkpt>
      <trkpt lat="49.6246" lon="5.67202">
        <ele>296.39999389648</ele>
        <time>2022-03-25T08:57:00.000Z</time>
      </trkpt>
      <trkpt lat="49.62465" lon="5.67185">
        <ele>296.20001220703</ele>
        <time>2022-03-25T08:57:02.000Z</time>
      </trkpt>
      <trkpt lat="49.62473" lon="5.6716">
        <ele>295</ele>
        <time>2022-03-25T08:57:05.000Z</time>
      </trkpt>
      <trkpt lat="49.62475" lon="5.67152">
        <ele>294.60000610352</ele>
        <time>2022-03-25T08:57:06.000Z</time>
      </trkpt>
      <trkpt lat="49.62485" lon="5.67104">
        <ele>293.20001220703</ele>
        <time>2022-03-25T08:57:12.000Z</time>
      </trkpt>
      <trkpt lat="49.62493" lon="5.67054">
        <ele>292.79998779297</ele>
        <time>2022-03-25T08:57:19.000Z</time>
      </trkpt>
      <trkpt lat="49.62499" lon="5.67015">
        <ele>295.60000610352</ele>
        <time>2022-03-25T08:57:25.000Z</time>
      </trkpt>
      <trkpt lat="49.62501" lon="5.67004">
        <ele>296.79998779297</ele>
        <time>2022-03-25T08:57:27.000Z</time>
      </trkpt>
      <trkpt lat="49.62503" lon="5.66989">
        <ele>298.20001220703</ele>
        <time>2022-03-25T08:57:30.000Z</time>
      </trkpt>
      <trkpt lat="49.62505" lon="5.66982">
        <ele>298.79998779297</ele>
        <time>2022-03-25T08:57:32.000Z</time>
      </trkpt>
      <trkpt lat="49.62508" lon="5.66982">
        <ele>299.39999389648</ele>
        <time>2022-03-25T08:57:37.000Z</time>
      </trkpt>
      <trkpt lat="49.62529" lon="5.66993">
        <ele>302.39999389648</ele>
        <time>2022-03-25T08:57:43.000Z</time>
      </trkpt>
      <trkpt lat="49.62561" lon="5.67006">
        <ele>307.20001220703</ele>
        <time>2022-03-25T08:57:50.000Z</time>
      </trkpt>
      <trkpt lat="49.62595" lon="5.67011">
        <ele>309.39999389648</ele>
        <time>2022-03-25T08:57:56.000Z</time>
      </trkpt>
      <trkpt lat="49.62615" lon="5.67011">
        <ele>310.20001220703</ele>
        <time>2022-03-25T08:58:01.000Z</time>
      </trkpt>
      <trkpt lat="49.62619" lon="5.67011">
        <ele>310.39999389648</ele>
        <time>2022-03-25T08:58:02.000Z</time>
      </trkpt>
      <trkpt lat="49.62628" lon="5.6701">
        <ele>311</ele>
        <time>2022-03-25T08:58:04.000Z</time>
      </trkpt>
      <trkpt lat="49.62637" lon="5.67009">
        <ele>311.60000610352</ele>
        <time>2022-03-25T08:58:06.000Z</time>
      </trkpt>
      <trkpt lat="49.62655" lon="5.67003">
        <ele>312.60000610352</ele>
        <time>2022-03-25T08:58:11.000Z</time>
      </trkpt>
      <trkpt lat="49.62672" lon="5.67">
        <ele>313</ele>
        <time>2022-03-25T08:58:15.000Z</time>
      </trkpt>
      <trkpt lat="49.62675" lon="5.66998">
        <ele>313.20001220703</ele>
        <time>2022-03-25T08:58:16.000Z</time>
      </trkpt>
      <trkpt lat="49.62682" lon="5.66995">
        <ele>313.39999389648</ele>
        <time>2022-03-25T08:58:18.000Z</time>
      </trkpt>
      <trkpt lat="49.62686" lon="5.66995">
        <ele>313.60000610352</ele>
        <time>2022-03-25T08:58:19.000Z</time>
      </trkpt>
      <trkpt lat="49.62694" lon="5.66994">
        <ele>313.79998779297</ele>
        <time>2022-03-25T08:58:21.000Z</time>
      </trkpt>
      <trkpt lat="49.62697" lon="5.66996">
        <ele>314</ele>
        <time>2022-03-25T08:58:22.000Z</time>
      </trkpt>
      <trkpt lat="49.62701" lon="5.66998">
        <ele>314.20001220703</ele>
        <time>2022-03-25T08:58:23.000Z</time>
      </trkpt>
      <trkpt lat="49.6271" lon="5.67003">
        <ele>314.79998779297</ele>
        <time>2022-03-25T08:58:25.000Z</time>
      </trkpt>
      <trkpt lat="49.6272" lon="5.6701">
        <ele>315.79998779297</ele>
        <time>2022-03-25T08:58:28.000Z</time>
      </trkpt>
      <trkpt lat="49.62726" lon="5.67015">
        <ele>316.39999389648</ele>
        <time>2022-03-25T08:58:30.000Z</time>
      </trkpt>
      <trkpt lat="49.62735" lon="5.67021">
        <ele>317</ele>
        <time>2022-03-25T08:58:33.000Z</time>
      </trkpt>
      <trkpt lat="49.62753" lon="5.67026">
        <ele>317.79998779297</ele>
        <time>2022-03-25T08:58:38.000Z</time>
      </trkpt>
      <trkpt lat="49.62757" lon="5.67026">
        <ele>318</ele>
        <time>2022-03-25T08:58:39.000Z</time>
      </trkpt>
      <trkpt lat="49.62768" lon="5.67027">
        <ele>318.39999389648</ele>
        <time>2022-03-25T08:58:42.000Z</time>
      </trkpt>
      <trkpt lat="49.62782" lon="5.67026">
        <ele>318.79998779297</ele>
        <time>2022-03-25T08:58:46.000Z</time>
      </trkpt>
      <trkpt lat="49.62796" lon="5.67022">
        <ele>319.20001220703</ele>
        <time>2022-03-25T08:58:50.000Z</time>
      </trkpt>
      <trkpt lat="49.62803" lon="5.6702">
        <ele>319.39999389648</ele>
        <time>2022-03-25T08:58:52.000Z</time>
      </trkpt>
      <trkpt lat="49.62819" lon="5.67014">
        <ele>320</ele>
        <time>2022-03-25T08:58:56.000Z</time>
      </trkpt>
      <trkpt lat="49.62832" lon="5.67006">
        <ele>320.60000610352</ele>
        <time>2022-03-25T08:58:59.000Z</time>
      </trkpt>
      <trkpt lat="49.62838" lon="5.67">
        <ele>321.39999389648</ele>
        <time>2022-03-25T08:59:01.000Z</time>
      </trkpt>
      <trkpt lat="49.62843" lon="5.66994">
        <ele>322.39999389648</ele>
        <time>2022-03-25T08:59:03.000Z</time>
      </trkpt>
      <trkpt lat="49.62845" lon="5.66991">
        <ele>322.79998779297</ele>
        <time>2022-03-25T08:59:04.000Z</time>
      </trkpt>
      <trkpt lat="49.62848" lon="5.66986">
        <ele>323.60000610352</ele>
        <time>2022-03-25T08:59:05.000Z</time>
      </trkpt>
      <trkpt lat="49.62859" lon="5.66973">
        <ele>325.79998779297</ele>
        <time>2022-03-25T08:59:08.000Z</time>
      </trkpt>
      <trkpt lat="49.62868" lon="5.6696">
        <ele>327.39999389648</ele>
        <time>2022-03-25T08:59:11.000Z</time>
      </trkpt>
      <trkpt lat="49.6287" lon="5.66955">
        <ele>327.79998779297</ele>
        <time>2022-03-25T08:59:12.000Z</time>
      </trkpt>
      <trkpt lat="49.62873" lon="5.66952">
        <ele>328</ele>
        <time>2022-03-25T08:59:13.000Z</time>
      </trkpt>
      <trkpt lat="49.62882" lon="5.66937">
        <ele>329.39999389648</ele>
        <time>2022-03-25T08:59:17.000Z</time>
      </trkpt>
      <trkpt lat="49.62883" lon="5.66934">
        <ele>329.60000610352</ele>
        <time>2022-03-25T08:59:18.000Z</time>
      </trkpt>
      <trkpt lat="49.62889" lon="5.66924">
        <ele>330.79998779297</ele>
        <time>2022-03-25T08:59:21.000Z</time>
      </trkpt>
      <trkpt lat="49.62894" lon="5.66913">
        <ele>331.39999389648</ele>
        <time>2022-03-25T08:59:24.000Z</time>
      </trkpt>
      <trkpt lat="49.62896" lon="5.6691">
        <ele>331.60000610352</ele>
        <time>2022-03-25T08:59:25.000Z</time>
      </trkpt>
      <trkpt lat="49.62899" lon="5.66904">
        <ele>331.79998779297</ele>
        <time>2022-03-25T08:59:27.000Z</time>
      </trkpt>
      <trkpt lat="49.62904" lon="5.66891">
        <ele>332.79998779297</ele>
        <time>2022-03-25T08:59:31.000Z</time>
      </trkpt>
      <trkpt lat="49.62906" lon="5.66888">
        <ele>333.20001220703</ele>
        <time>2022-03-25T08:59:32.000Z</time>
      </trkpt>
      <trkpt lat="49.6291" lon="5.66874">
        <ele>334.20001220703</ele>
        <time>2022-03-25T08:59:36.000Z</time>
      </trkpt>
      <trkpt lat="49.62912" lon="5.66866">
        <ele>334.60000610352</ele>
        <time>2022-03-25T08:59:38.000Z</time>
      </trkpt>
      <trkpt lat="49.62917" lon="5.66853">
        <ele>334.79998779297</ele>
        <time>2022-03-25T08:59:41.000Z</time>
      </trkpt>
      <trkpt lat="49.62922" lon="5.66836">
        <ele>335</ele>
        <time>2022-03-25T08:59:45.000Z</time>
      </trkpt>
      <trkpt lat="49.62925" lon="5.66825">
        <ele>335.20001220703</ele>
        <time>2022-03-25T08:59:47.000Z</time>
      </trkpt>
      <trkpt lat="49.62928" lon="5.66811">
        <ele>335.39999389648</ele>
        <time>2022-03-25T08:59:50.000Z</time>
      </trkpt>
      <trkpt lat="49.62932" lon="5.66781">
        <ele>334.60000610352</ele>
        <time>2022-03-25T08:59:55.000Z</time>
      </trkpt>
      <trkpt lat="49.62932" lon="5.66768">
        <ele>335</ele>
        <time>2022-03-25T08:59:57.000Z</time>
      </trkpt>
      <trkpt lat="49.62934" lon="5.66734">
        <ele>335</ele>
        <time>2022-03-25T09:00:03.000Z</time>
      </trkpt>
      <trkpt lat="49.62936" lon="5.66731">
        <ele>335</ele>
        <time>2022-03-25T09:00:04.000Z</time>
      </trkpt>
      <trkpt lat="49.62938" lon="5.66727">
        <ele>335</ele>
        <time>2022-03-25T09:00:05.000Z</time>
      </trkpt>
      <trkpt lat="49.62951" lon="5.66705">
        <ele>336.20001220703</ele>
        <time>2022-03-25T09:00:10.000Z</time>
      </trkpt>
      <trkpt lat="49.62959" lon="5.66688">
        <ele>337.60000610352</ele>
        <time>2022-03-25T09:00:14.000Z</time>
      </trkpt>
      <trkpt lat="49.62961" lon="5.66685">
        <ele>337.79998779297</ele>
        <time>2022-03-25T09:00:15.000Z</time>
      </trkpt>
      <trkpt lat="49.62966" lon="5.66671">
        <ele>338.79998779297</ele>
        <time>2022-03-25T09:00:19.000Z</time>
      </trkpt>
      <trkpt lat="49.62973" lon="5.66661">
        <ele>339.79998779297</ele>
        <time>2022-03-25T09:00:22.000Z</time>
      </trkpt>
      <trkpt lat="49.62976" lon="5.66657">
        <ele>340</ele>
        <time>2022-03-25T09:00:23.000Z</time>
      </trkpt>
      <trkpt lat="49.62986" lon="5.66645">
        <ele>340.79998779297</ele>
        <time>2022-03-25T09:00:27.000Z</time>
      </trkpt>
      <trkpt lat="49.62991" lon="5.6664">
        <ele>340.79998779297</ele>
        <time>2022-03-25T09:00:29.000Z</time>
      </trkpt>
      <trkpt lat="49.62996" lon="5.66636">
        <ele>340.79998779297</ele>
        <time>2022-03-25T09:00:31.000Z</time>
      </trkpt>
      <trkpt lat="49.63011" lon="5.66627">
        <ele>341.60000610352</ele>
        <time>2022-03-25T09:00:35.000Z</time>
      </trkpt>
      <trkpt lat="49.63017" lon="5.66624">
        <ele>341.79998779297</ele>
        <time>2022-03-25T09:00:37.000Z</time>
      </trkpt>
      <trkpt lat="49.63034" lon="5.66619">
        <ele>342</ele>
        <time>2022-03-25T09:00:41.000Z</time>
      </trkpt>
      <trkpt lat="49.63042" lon="5.66618">
        <ele>341.79998779297</ele>
        <time>2022-03-25T09:00:43.000Z</time>
      </trkpt>
      <trkpt lat="49.6306" lon="5.66614">
        <ele>341</ele>
        <time>2022-03-25T09:00:47.000Z</time>
      </trkpt>
      <trkpt lat="49.63064" lon="5.66612">
        <ele>341</ele>
        <time>2022-03-25T09:00:48.000Z</time>
      </trkpt>
      <trkpt lat="49.63083" lon="5.66605">
        <ele>340.79998779297</ele>
        <time>2022-03-25T09:00:52.000Z</time>
      </trkpt>
      <trkpt lat="49.63113" lon="5.66595">
        <ele>340.20001220703</ele>
        <time>2022-03-25T09:00:58.000Z</time>
      </trkpt>
      <trkpt lat="49.63145" lon="5.66583">
        <ele>340</ele>
        <time>2022-03-25T09:01:03.000Z</time>
      </trkpt>
      <trkpt lat="49.63157" lon="5.66578">
        <ele>340</ele>
        <time>2022-03-25T09:01:05.000Z</time>
      </trkpt>
      <trkpt lat="49.63162" lon="5.66575">
        <ele>339.79998779297</ele>
        <time>2022-03-25T09:01:06.000Z</time>
      </trkpt>
      <trkpt lat="49.63166" lon="5.6657">
        <ele>339.39999389648</ele>
        <time>2022-03-25T09:01:07.000Z</time>
      </trkpt>
      <trkpt lat="49.6317" lon="5.66564">
        <ele>339.20001220703</ele>
        <time>2022-03-25T09:01:08.000Z</time>
      </trkpt>
      <trkpt lat="49.63173" lon="5.66549">
        <ele>339</ele>
        <time>2022-03-25T09:01:10.000Z</time>
      </trkpt>
      <trkpt lat="49.63174" lon="5.66541">
        <ele>339</ele>
        <time>2022-03-25T09:01:11.000Z</time>
      </trkpt>
      <trkpt lat="49.63178" lon="5.66524">
        <ele>338.39999389648</ele>
        <time>2022-03-25T09:01:13.000Z</time>
      </trkpt>
      <trkpt lat="49.6318" lon="5.66515">
        <ele>338</ele>
        <time>2022-03-25T09:01:14.000Z</time>
      </trkpt>
      <trkpt lat="49.63182" lon="5.66505">
        <ele>338</ele>
        <time>2022-03-25T09:01:15.000Z</time>
      </trkpt>
      <trkpt lat="49.63183" lon="5.66496">
        <ele>338.39999389648</ele>
        <time>2022-03-25T09:01:16.000Z</time>
      </trkpt>
      <trkpt lat="49.63182" lon="5.66474">
        <ele>338.60000610352</ele>
        <time>2022-03-25T09:01:19.000Z</time>
      </trkpt>
      <trkpt lat="49.63181" lon="5.66468">
        <ele>339</ele>
        <time>2022-03-25T09:01:20.000Z</time>
      </trkpt>
      <trkpt lat="49.63169" lon="5.66428">
        <ele>340.79998779297</ele>
        <time>2022-03-25T09:01:27.000Z</time>
      </trkpt>
      <trkpt lat="49.63162" lon="5.66408">
        <ele>342.20001220703</ele>
        <time>2022-03-25T09:01:31.000Z</time>
      </trkpt>
      <trkpt lat="49.63158" lon="5.66395">
        <ele>343.39999389648</ele>
        <time>2022-03-25T09:01:34.000Z</time>
      </trkpt>
      <trkpt lat="49.63156" lon="5.66385">
        <ele>344.20001220703</ele>
        <time>2022-03-25T09:01:36.000Z</time>
      </trkpt>
      <trkpt lat="49.63154" lon="5.66375">
        <ele>344.79998779297</ele>
        <time>2022-03-25T09:01:38.000Z</time>
      </trkpt>
      <trkpt lat="49.63151" lon="5.66365">
        <ele>345.39999389648</ele>
        <time>2022-03-25T09:01:40.000Z</time>
      </trkpt>
      <trkpt lat="49.63148" lon="5.66356">
        <ele>345.60000610352</ele>
        <time>2022-03-25T09:01:42.000Z</time>
      </trkpt>
      <trkpt lat="49.63142" lon="5.66339">
        <ele>346</ele>
        <time>2022-03-25T09:01:46.000Z</time>
      </trkpt>
      <trkpt lat="49.63136" lon="5.66321">
        <ele>346.39999389648</ele>
        <time>2022-03-25T09:01:50.000Z</time>
      </trkpt>
      <trkpt lat="49.63134" lon="5.66316">
        <ele>346.39999389648</ele>
        <time>2022-03-25T09:01:51.000Z</time>
      </trkpt>
      <trkpt lat="49.63128" lon="5.66303">
        <ele>346.39999389648</ele>
        <time>2022-03-25T09:01:54.000Z</time>
      </trkpt>
      <trkpt lat="49.63122" lon="5.66286">
        <ele>346.20001220703</ele>
        <time>2022-03-25T09:01:58.000Z</time>
      </trkpt>
      <trkpt lat="49.63115" lon="5.66271">
        <ele>346</ele>
        <time>2022-03-25T09:02:02.000Z</time>
      </trkpt>
      <trkpt lat="49.63111" lon="5.66268">
        <ele>345.79998779297</ele>
        <time>2022-03-25T09:02:04.000Z</time>
      </trkpt>
      <trkpt lat="49.63097" lon="5.66271">
        <ele>345</ele>
        <time>2022-03-25T09:02:10.000Z</time>
      </trkpt>
      <trkpt lat="49.63081" lon="5.66288">
        <ele>344.79998779297</ele>
        <time>2022-03-25T09:02:16.000Z</time>
      </trkpt>
      <trkpt lat="49.63074" lon="5.66296">
        <ele>344.60000610352</ele>
        <time>2022-03-25T09:02:18.000Z</time>
      </trkpt>
      <trkpt lat="49.63066" lon="5.66296">
        <ele>344.39999389648</ele>
        <time>2022-03-25T09:02:20.000Z</time>
      </trkpt>
      <trkpt lat="49.63061" lon="5.66287">
        <ele>344.20001220703</ele>
        <time>2022-03-25T09:02:23.000Z</time>
      </trkpt>
      <trkpt lat="49.63059" lon="5.66276">
        <ele>344</ele>
        <time>2022-03-25T09:02:25.000Z</time>
      </trkpt>
      <trkpt lat="49.63057" lon="5.66262">
        <ele>344</ele>
        <time>2022-03-25T09:02:27.000Z</time>
      </trkpt>
      <trkpt lat="49.63048" lon="5.66229">
        <ele>343.39999389648</ele>
        <time>2022-03-25T09:02:32.000Z</time>
      </trkpt>
      <trkpt lat="49.63037" lon="5.66176">
        <ele>344</ele>
        <time>2022-03-25T09:02:39.000Z</time>
      </trkpt>
      <trkpt lat="49.63031" lon="5.66134">
        <ele>345.39999389648</ele>
        <time>2022-03-25T09:02:45.000Z</time>
      </trkpt>
      <trkpt lat="49.63023" lon="5.66077">
        <ele>347.60000610352</ele>
        <time>2022-03-25T09:02:53.000Z</time>
      </trkpt>
      <trkpt lat="49.63022" lon="5.6604">
        <ele>349.39999389648</ele>
        <time>2022-03-25T09:02:59.000Z</time>
      </trkpt>
      <trkpt lat="49.63026" lon="5.66007">
        <ele>349.79998779297</ele>
        <time>2022-03-25T09:03:05.000Z</time>
      </trkpt>
      <trkpt lat="49.63028" lon="5.65977">
        <ele>349.60000610352</ele>
        <time>2022-03-25T09:03:10.000Z</time>
      </trkpt>
      <trkpt lat="49.63027" lon="5.65949">
        <ele>348.79998779297</ele>
        <time>2022-03-25T09:03:14.000Z</time>
      </trkpt>
      <trkpt lat="49.63025" lon="5.65928">
        <ele>349</ele>
        <time>2022-03-25T09:03:17.000Z</time>
      </trkpt>
      <trkpt lat="49.63025" lon="5.65913">
        <ele>349</ele>
        <time>2022-03-25T09:03:19.000Z</time>
      </trkpt>
      <trkpt lat="49.63022" lon="5.65867">
        <ele>348.39999389648</ele>
        <time>2022-03-25T09:03:25.000Z</time>
      </trkpt>
      <trkpt lat="49.6302" lon="5.65832">
        <ele>347</ele>
        <time>2022-03-25T09:03:31.000Z</time>
      </trkpt>
      <trkpt lat="49.63018" lon="5.65802">
        <ele>347</ele>
        <time>2022-03-25T09:03:36.000Z</time>
      </trkpt>
      <trkpt lat="49.63016" lon="5.65783">
        <ele>347</ele>
        <time>2022-03-25T09:03:39.000Z</time>
      </trkpt>
      <trkpt lat="49.63014" lon="5.65761">
        <ele>347.20001220703</ele>
        <time>2022-03-25T09:03:42.000Z</time>
      </trkpt>
      <trkpt lat="49.63013" lon="5.65744">
        <ele>347</ele>
        <time>2022-03-25T09:03:45.000Z</time>
      </trkpt>
      <trkpt lat="49.63012" lon="5.65729">
        <ele>346.39999389648</ele>
        <time>2022-03-25T09:03:48.000Z</time>
      </trkpt>
      <trkpt lat="49.63007" lon="5.65697">
        <ele>345.60000610352</ele>
        <time>2022-03-25T09:03:55.000Z</time>
      </trkpt>
      <trkpt lat="49.62997" lon="5.65666">
        <ele>345</ele>
        <time>2022-03-25T09:04:01.000Z</time>
      </trkpt>
      <trkpt lat="49.62984" lon="5.6564">
        <ele>344.60000610352</ele>
        <time>2022-03-25T09:04:07.000Z</time>
      </trkpt>
      <trkpt lat="49.62965" lon="5.656">
        <ele>345.39999389648</ele>
        <time>2022-03-25T09:04:14.000Z</time>
      </trkpt>
      <trkpt lat="49.62949" lon="5.65558">
        <ele>347</ele>
        <time>2022-03-25T09:04:20.000Z</time>
      </trkpt>
      <trkpt lat="49.6293" lon="5.65498">
        <ele>348.79998779297</ele>
        <time>2022-03-25T09:04:28.000Z</time>
      </trkpt>
      <trkpt lat="49.62916" lon="5.6546">
        <ele>348.20001220703</ele>
        <time>2022-03-25T09:04:33.000Z</time>
      </trkpt>
      <trkpt lat="49.62894" lon="5.65401">
        <ele>346.20001220703</ele>
        <time>2022-03-25T09:04:40.000Z</time>
      </trkpt>
      <trkpt lat="49.62889" lon="5.65382">
        <ele>345.20001220703</ele>
        <time>2022-03-25T09:04:42.000Z</time>
      </trkpt>
      <trkpt lat="49.62882" lon="5.65355">
        <ele>343.20001220703</ele>
        <time>2022-03-25T09:04:45.000Z</time>
      </trkpt>
      <trkpt lat="49.62874" lon="5.65329">
        <ele>341.60000610352</ele>
        <time>2022-03-25T09:04:48.000Z</time>
      </trkpt>
      <trkpt lat="49.62868" lon="5.65315">
        <ele>341.20001220703</ele>
        <time>2022-03-25T09:04:50.000Z</time>
      </trkpt>
      <trkpt lat="49.6286" lon="5.653">
        <ele>340.60000610352</ele>
        <time>2022-03-25T09:04:52.000Z</time>
      </trkpt>
      <trkpt lat="49.62843" lon="5.6526">
        <ele>340</ele>
        <time>2022-03-25T09:04:57.000Z</time>
      </trkpt>
      <trkpt lat="49.62835" lon="5.65233">
        <ele>340.20001220703</ele>
        <time>2022-03-25T09:05:00.000Z</time>
      </trkpt>
      <trkpt lat="49.62825" lon="5.65208">
        <ele>341.60000610352</ele>
        <time>2022-03-25T09:05:03.000Z</time>
      </trkpt>
      <trkpt lat="49.62821" lon="5.652">
        <ele>342</ele>
        <time>2022-03-25T09:05:04.000Z</time>
      </trkpt>
      <trkpt lat="49.62807" lon="5.65174">
        <ele>343.79998779297</ele>
        <time>2022-03-25T09:05:08.000Z</time>
      </trkpt>
      <trkpt lat="49.62803" lon="5.65167">
        <ele>343.79998779297</ele>
        <time>2022-03-25T09:05:09.000Z</time>
      </trkpt>
      <trkpt lat="49.62791" lon="5.65142">
        <ele>343.39999389648</ele>
        <time>2022-03-25T09:05:13.000Z</time>
      </trkpt>
      <trkpt lat="49.62788" lon="5.65135">
        <ele>343.60000610352</ele>
        <time>2022-03-25T09:05:14.000Z</time>
      </trkpt>
      <trkpt lat="49.62774" lon="5.65092">
        <ele>343.39999389648</ele>
        <time>2022-03-25T09:05:21.000Z</time>
      </trkpt>
      <trkpt lat="49.62766" lon="5.65064">
        <ele>342</ele>
        <time>2022-03-25T09:05:25.000Z</time>
      </trkpt>
      <trkpt lat="49.62766" lon="5.65052">
        <ele>341.79998779297</ele>
        <time>2022-03-25T09:05:27.000Z</time>
      </trkpt>
      <trkpt lat="49.62773" lon="5.65046">
        <ele>342.39999389648</ele>
        <time>2022-03-25T09:05:30.000Z</time>
      </trkpt>
      <trkpt lat="49.6279" lon="5.65037">
        <ele>343.79998779297</ele>
        <time>2022-03-25T09:05:35.000Z</time>
      </trkpt>
      <trkpt lat="49.62797" lon="5.65032">
        <ele>344.60000610352</ele>
        <time>2022-03-25T09:05:37.000Z</time>
      </trkpt>
      <trkpt lat="49.62809" lon="5.65021">
        <ele>346</ele>
        <time>2022-03-25T09:05:40.000Z</time>
      </trkpt>
      <trkpt lat="49.62814" lon="5.65017">
        <ele>345.60000610352</ele>
        <time>2022-03-25T09:05:41.000Z</time>
      </trkpt>
      <trkpt lat="49.62823" lon="5.65008">
        <ele>345</ele>
        <time>2022-03-25T09:05:43.000Z</time>
      </trkpt>
      <trkpt lat="49.62834" lon="5.64998">
        <ele>344.39999389648</ele>
        <time>2022-03-25T09:05:45.000Z</time>
      </trkpt>
      <trkpt lat="49.62839" lon="5.64994">
        <ele>343.39999389648</ele>
        <time>2022-03-25T09:05:46.000Z</time>
      </trkpt>
      <trkpt lat="49.62845" lon="5.6499">
        <ele>342.20001220703</ele>
        <time>2022-03-25T09:05:47.000Z</time>
      </trkpt>
      <trkpt lat="49.62851" lon="5.64988">
        <ele>341</ele>
        <time>2022-03-25T09:05:48.000Z</time>
      </trkpt>
      <trkpt lat="49.62857" lon="5.64987">
        <ele>339.60000610352</ele>
        <time>2022-03-25T09:05:49.000Z</time>
      </trkpt>
      <trkpt lat="49.62863" lon="5.64985">
        <ele>338.20001220703</ele>
        <time>2022-03-25T09:05:50.000Z</time>
      </trkpt>
      <trkpt lat="49.62872" lon="5.64988">
        <ele>337</ele>
        <time>2022-03-25T09:05:51.000Z</time>
      </trkpt>
      <trkpt lat="49.62881" lon="5.6499">
        <ele>335.60000610352</ele>
        <time>2022-03-25T09:05:52.000Z</time>
      </trkpt>
      <trkpt lat="49.6289" lon="5.64994">
        <ele>334.39999389648</ele>
        <time>2022-03-25T09:05:53.000Z</time>
      </trkpt>
      <trkpt lat="49.629" lon="5.64998">
        <ele>333.20001220703</ele>
        <time>2022-03-25T09:05:54.000Z</time>
      </trkpt>
      <trkpt lat="49.62908" lon="5.65003">
        <ele>332.20001220703</ele>
        <time>2022-03-25T09:05:55.000Z</time>
      </trkpt>
      <trkpt lat="49.62917" lon="5.65006">
        <ele>331.39999389648</ele>
        <time>2022-03-25T09:05:56.000Z</time>
      </trkpt>
      <trkpt lat="49.62925" lon="5.65008">
        <ele>331.20001220703</ele>
        <time>2022-03-25T09:05:57.000Z</time>
      </trkpt>
      <trkpt lat="49.62942" lon="5.65006">
        <ele>329.60000610352</ele>
        <time>2022-03-25T09:05:59.000Z</time>
      </trkpt>
      <trkpt lat="49.62957" lon="5.65">
        <ele>327.79998779297</ele>
        <time>2022-03-25T09:06:01.000Z</time>
      </trkpt>
      <trkpt lat="49.62964" lon="5.65001">
        <ele>327</ele>
        <time>2022-03-25T09:06:02.000Z</time>
      </trkpt>
      <trkpt lat="49.6297" lon="5.65004">
        <ele>326.60000610352</ele>
        <time>2022-03-25T09:06:03.000Z</time>
      </trkpt>
      <trkpt lat="49.62984" lon="5.65017">
        <ele>327</ele>
        <time>2022-03-25T09:06:06.000Z</time>
      </trkpt>
      <trkpt lat="49.63011" lon="5.65053">
        <ele>327.79998779297</ele>
        <time>2022-03-25T09:06:12.000Z</time>
      </trkpt>
      <trkpt lat="49.63028" lon="5.65075">
        <ele>326.20001220703</ele>
        <time>2022-03-25T09:06:15.000Z</time>
      </trkpt>
      <trkpt lat="49.63035" lon="5.65083">
        <ele>325.79998779297</ele>
        <time>2022-03-25T09:06:16.000Z</time>
      </trkpt>
      <trkpt lat="49.6305" lon="5.651">
        <ele>324.20001220703</ele>
        <time>2022-03-25T09:06:18.000Z</time>
      </trkpt>
      <trkpt lat="49.63069" lon="5.65125">
        <ele>321.60000610352</ele>
        <time>2022-03-25T09:06:21.000Z</time>
      </trkpt>
      <trkpt lat="49.63074" lon="5.65133">
        <ele>320.39999389648</ele>
        <time>2022-03-25T09:06:22.000Z</time>
      </trkpt>
      <trkpt lat="49.63078" lon="5.65142">
        <ele>319.79998779297</ele>
        <time>2022-03-25T09:06:23.000Z</time>
      </trkpt>
      <trkpt lat="49.63081" lon="5.65151">
        <ele>319.39999389648</ele>
        <time>2022-03-25T09:06:24.000Z</time>
      </trkpt>
      <trkpt lat="49.63082" lon="5.65162">
        <ele>319.20001220703</ele>
        <time>2022-03-25T09:06:25.000Z</time>
      </trkpt>
      <trkpt lat="49.63083" lon="5.65184">
        <ele>320.20001220703</ele>
        <time>2022-03-25T09:06:27.000Z</time>
      </trkpt>
      <trkpt lat="49.63083" lon="5.6521">
        <ele>321.60000610352</ele>
        <time>2022-03-25T09:06:29.000Z</time>
      </trkpt>
      <trkpt lat="49.63084" lon="5.65235">
        <ele>321.79998779297</ele>
        <time>2022-03-25T09:06:31.000Z</time>
      </trkpt>
      <trkpt lat="49.63088" lon="5.65285">
        <ele>321</ele>
        <time>2022-03-25T09:06:35.000Z</time>
      </trkpt>
      <trkpt lat="49.63089" lon="5.65296">
        <ele>321</ele>
        <time>2022-03-25T09:06:36.000Z</time>
      </trkpt>
      <trkpt lat="49.63094" lon="5.65317">
        <ele>321.20001220703</ele>
        <time>2022-03-25T09:06:38.000Z</time>
      </trkpt>
      <trkpt lat="49.63098" lon="5.65328">
        <ele>321.60000610352</ele>
        <time>2022-03-25T09:06:39.000Z</time>
      </trkpt>
      <trkpt lat="49.63108" lon="5.65346">
        <ele>321.79998779297</ele>
        <time>2022-03-25T09:06:41.000Z</time>
      </trkpt>
      <trkpt lat="49.63121" lon="5.65356">
        <ele>320.20001220703</ele>
        <time>2022-03-25T09:06:43.000Z</time>
      </trkpt>
      <trkpt lat="49.63133" lon="5.65364">
        <ele>318.20001220703</ele>
        <time>2022-03-25T09:06:45.000Z</time>
      </trkpt>
      <trkpt lat="49.63146" lon="5.65372">
        <ele>315.20001220703</ele>
        <time>2022-03-25T09:06:47.000Z</time>
      </trkpt>
      <trkpt lat="49.63151" lon="5.65375">
        <ele>314</ele>
        <time>2022-03-25T09:06:48.000Z</time>
      </trkpt>
      <trkpt lat="49.63156" lon="5.65378">
        <ele>313.20001220703</ele>
        <time>2022-03-25T09:06:49.000Z</time>
      </trkpt>
      <trkpt lat="49.63163" lon="5.65379">
        <ele>312.20001220703</ele>
        <time>2022-03-25T09:06:51.000Z</time>
      </trkpt>
      <trkpt lat="49.63164" lon="5.65376">
        <ele>312.39999389648</ele>
        <time>2022-03-25T09:06:52.000Z</time>
      </trkpt>
      <trkpt lat="49.63164" lon="5.65371">
        <ele>313</ele>
        <time>2022-03-25T09:06:53.000Z</time>
      </trkpt>
      <trkpt lat="49.63164" lon="5.65358">
        <ele>313.79998779297</ele>
        <time>2022-03-25T09:06:55.000Z</time>
      </trkpt>
      <trkpt lat="49.63163" lon="5.65351">
        <ele>314.20001220703</ele>
        <time>2022-03-25T09:06:56.000Z</time>
      </trkpt>
      <trkpt lat="49.63161" lon="5.65336">
        <ele>315.20001220703</ele>
        <time>2022-03-25T09:06:58.000Z</time>
      </trkpt>
      <trkpt lat="49.63158" lon="5.65322">
        <ele>314.60000610352</ele>
        <time>2022-03-25T09:07:00.000Z</time>
      </trkpt>
      <trkpt lat="49.63152" lon="5.65299">
        <ele>313.60000610352</ele>
        <time>2022-03-25T09:07:03.000Z</time>
      </trkpt>
      <trkpt lat="49.63148" lon="5.65263">
        <ele>310.39999389648</ele>
        <time>2022-03-25T09:07:07.000Z</time>
      </trkpt>
      <trkpt lat="49.63149" lon="5.65234">
        <ele>308.39999389648</ele>
        <time>2022-03-25T09:07:10.000Z</time>
      </trkpt>
      <trkpt lat="49.63148" lon="5.65224">
        <ele>307.79998779297</ele>
        <time>2022-03-25T09:07:11.000Z</time>
      </trkpt>
      <trkpt lat="49.63149" lon="5.65215">
        <ele>307.39999389648</ele>
        <time>2022-03-25T09:07:12.000Z</time>
      </trkpt>
      <trkpt lat="49.6315" lon="5.6515">
        <ele>302.60000610352</ele>
        <time>2022-03-25T09:07:19.000Z</time>
      </trkpt>
      <trkpt lat="49.6315" lon="5.6513">
        <ele>301.20001220703</ele>
        <time>2022-03-25T09:07:21.000Z</time>
      </trkpt>
      <trkpt lat="49.63145" lon="5.65062">
        <ele>302.79998779297</ele>
        <time>2022-03-25T09:07:28.000Z</time>
      </trkpt>
      <trkpt lat="49.63142" lon="5.65044">
        <ele>306.39999389648</ele>
        <time>2022-03-25T09:07:30.000Z</time>
      </trkpt>
      <trkpt lat="49.63139" lon="5.65036">
        <ele>307.79998779297</ele>
        <time>2022-03-25T09:07:31.000Z</time>
      </trkpt>
      <trkpt lat="49.63132" lon="5.65021">
        <ele>308.39999389648</ele>
        <time>2022-03-25T09:07:33.000Z</time>
      </trkpt>
      <trkpt lat="49.63124" lon="5.65009">
        <ele>308.20001220703</ele>
        <time>2022-03-25T09:07:35.000Z</time>
      </trkpt>
      <trkpt lat="49.6311" lon="5.6499">
        <ele>306.79998779297</ele>
        <time>2022-03-25T09:07:38.000Z</time>
      </trkpt>
      <trkpt lat="49.63106" lon="5.64983">
        <ele>306</ele>
        <time>2022-03-25T09:07:39.000Z</time>
      </trkpt>
      <trkpt lat="49.63074" lon="5.6494">
        <ele>300.79998779297</ele>
        <time>2022-03-25T09:07:45.000Z</time>
      </trkpt>
      <trkpt lat="49.63067" lon="5.64933">
        <ele>299.79998779297</ele>
        <time>2022-03-25T09:07:46.000Z</time>
      </trkpt>
      <trkpt lat="49.63042" lon="5.64891">
        <ele>296.39999389648</ele>
        <time>2022-03-25T09:07:51.000Z</time>
      </trkpt>
      <trkpt lat="49.63036" lon="5.64873">
        <ele>295.60000610352</ele>
        <time>2022-03-25T09:07:53.000Z</time>
      </trkpt>
      <trkpt lat="49.63029" lon="5.64853">
        <ele>295.79998779297</ele>
        <time>2022-03-25T09:07:55.000Z</time>
      </trkpt>
      <trkpt lat="49.63013" lon="5.64806">
        <ele>299.20001220703</ele>
        <time>2022-03-25T09:08:00.000Z</time>
      </trkpt>
      <trkpt lat="49.63011" lon="5.64797">
        <ele>299.60000610352</ele>
        <time>2022-03-25T09:08:01.000Z</time>
      </trkpt>
      <trkpt lat="49.62997" lon="5.64747">
        <ele>300</ele>
        <time>2022-03-25T09:08:07.000Z</time>
      </trkpt>
      <trkpt lat="49.62971" lon="5.64724">
        <ele>298.20001220703</ele>
        <time>2022-03-25T09:08:11.000Z</time>
      </trkpt>
      <trkpt lat="49.6297" lon="5.64715">
        <ele>298.39999389648</ele>
        <time>2022-03-25T09:08:12.000Z</time>
      </trkpt>
      <trkpt lat="49.62968" lon="5.64681">
        <ele>299.20001220703</ele>
        <time>2022-03-25T09:08:16.000Z</time>
      </trkpt>
      <trkpt lat="49.62975" lon="5.64659">
        <ele>297.20001220703</ele>
        <time>2022-03-25T09:08:19.000Z</time>
      </trkpt>
      <trkpt lat="49.62978" lon="5.64651">
        <ele>296.60000610352</ele>
        <time>2022-03-25T09:08:20.000Z</time>
      </trkpt>
      <trkpt lat="49.62994" lon="5.64611">
        <ele>295.39999389648</ele>
        <time>2022-03-25T09:08:25.000Z</time>
      </trkpt>
      <trkpt lat="49.63001" lon="5.64595">
        <ele>294.60000610352</ele>
        <time>2022-03-25T09:08:27.000Z</time>
      </trkpt>
      <trkpt lat="49.63007" lon="5.64577">
        <ele>295.39999389648</ele>
        <time>2022-03-25T09:08:29.000Z</time>
      </trkpt>
      <trkpt lat="49.63021" lon="5.64542">
        <ele>295.79998779297</ele>
        <time>2022-03-25T09:08:33.000Z</time>
      </trkpt>
      <trkpt lat="49.63025" lon="5.64533">
        <ele>295.20001220703</ele>
        <time>2022-03-25T09:08:34.000Z</time>
      </trkpt>
      <trkpt lat="49.63035" lon="5.64504">
        <ele>294</ele>
        <time>2022-03-25T09:08:37.000Z</time>
      </trkpt>
      <trkpt lat="49.63045" lon="5.64475">
        <ele>292</ele>
        <time>2022-03-25T09:08:40.000Z</time>
      </trkpt>
      <trkpt lat="49.63047" lon="5.64465">
        <ele>292</ele>
        <time>2022-03-25T09:08:41.000Z</time>
      </trkpt>
      <trkpt lat="49.63048" lon="5.64455">
        <ele>291</ele>
        <time>2022-03-25T09:08:42.000Z</time>
      </trkpt>
      <trkpt lat="49.63048" lon="5.64425">
        <ele>290.20001220703</ele>
        <time>2022-03-25T09:08:45.000Z</time>
      </trkpt>
      <trkpt lat="49.63047" lon="5.64416">
        <ele>290.60000610352</ele>
        <time>2022-03-25T09:08:46.000Z</time>
      </trkpt>
      <trkpt lat="49.63045" lon="5.64379">
        <ele>293</ele>
        <time>2022-03-25T09:08:50.000Z</time>
      </trkpt>
      <trkpt lat="49.63045" lon="5.6437">
        <ele>293.79998779297</ele>
        <time>2022-03-25T09:08:51.000Z</time>
      </trkpt>
      <trkpt lat="49.63038" lon="5.64306">
        <ele>296.60000610352</ele>
        <time>2022-03-25T09:08:58.000Z</time>
      </trkpt>
      <trkpt lat="49.63029" lon="5.64241">
        <ele>292.79998779297</ele>
        <time>2022-03-25T09:09:05.000Z</time>
      </trkpt>
      <trkpt lat="49.63009" lon="5.64174">
        <ele>291.79998779297</ele>
        <time>2022-03-25T09:09:13.000Z</time>
      </trkpt>
      <trkpt lat="49.62988" lon="5.64109">
        <ele>293.39999389648</ele>
        <time>2022-03-25T09:09:21.000Z</time>
      </trkpt>
      <trkpt lat="49.6297" lon="5.64044">
        <ele>292</ele>
        <time>2022-03-25T09:09:29.000Z</time>
      </trkpt>
      <trkpt lat="49.62958" lon="5.64005">
        <ele>291</ele>
        <time>2022-03-25T09:09:34.000Z</time>
      </trkpt>
      <trkpt lat="49.62947" lon="5.63986">
        <ele>288.60000610352</ele>
        <time>2022-03-25T09:09:37.000Z</time>
      </trkpt>
      <trkpt lat="49.62918" lon="5.63946">
        <ele>284</ele>
        <time>2022-03-25T09:09:44.000Z</time>
      </trkpt>
      <trkpt lat="49.62881" lon="5.63899">
        <ele>284.79998779297</ele>
        <time>2022-03-25T09:09:53.000Z</time>
      </trkpt>
      <trkpt lat="49.6286" lon="5.6388">
        <ele>284.39999389648</ele>
        <time>2022-03-25T09:09:59.000Z</time>
      </trkpt>
      <trkpt lat="49.62836" lon="5.63869">
        <ele>286.20001220703</ele>
        <time>2022-03-25T09:10:05.000Z</time>
      </trkpt>
      <trkpt lat="49.62832" lon="5.63868">
        <ele>286.39999389648</ele>
        <time>2022-03-25T09:10:06.000Z</time>
      </trkpt>
      <trkpt lat="49.6282" lon="5.63863">
        <ele>287</ele>
        <time>2022-03-25T09:10:09.000Z</time>
      </trkpt>
      <trkpt lat="49.62803" lon="5.6386">
        <ele>288.39999389648</ele>
        <time>2022-03-25T09:10:13.000Z</time>
      </trkpt>
      <trkpt lat="49.62799" lon="5.6386">
        <ele>288.39999389648</ele>
        <time>2022-03-25T09:10:14.000Z</time>
      </trkpt>
      <trkpt lat="49.62788" lon="5.6386">
        <ele>289</ele>
        <time>2022-03-25T09:10:17.000Z</time>
      </trkpt>
      <trkpt lat="49.62778" lon="5.6386">
        <ele>289.60000610352</ele>
        <time>2022-03-25T09:10:20.000Z</time>
      </trkpt>
      <trkpt lat="49.62774" lon="5.6386">
        <ele>290</ele>
        <time>2022-03-25T09:10:21.000Z</time>
      </trkpt>
      <trkpt lat="49.62757" lon="5.63864">
        <ele>292.39999389648</ele>
        <time>2022-03-25T09:10:26.000Z</time>
      </trkpt>
      <trkpt lat="49.62747" lon="5.63867">
        <ele>294</ele>
        <time>2022-03-25T09:10:29.000Z</time>
      </trkpt>
      <trkpt lat="49.62733" lon="5.63872">
        <ele>296.20001220703</ele>
        <time>2022-03-25T09:10:33.000Z</time>
      </trkpt>
      <trkpt lat="49.6273" lon="5.63873">
        <ele>296.79998779297</ele>
        <time>2022-03-25T09:10:34.000Z</time>
      </trkpt>
      <trkpt lat="49.6272" lon="5.63876">
        <ele>297.60000610352</ele>
        <time>2022-03-25T09:10:37.000Z</time>
      </trkpt>
      <trkpt lat="49.62706" lon="5.6388">
        <ele>298.20001220703</ele>
        <time>2022-03-25T09:10:41.000Z</time>
      </trkpt>
      <trkpt lat="49.627" lon="5.63882">
        <ele>298.39999389648</ele>
        <time>2022-03-25T09:10:43.000Z</time>
      </trkpt>
      <trkpt lat="49.62693" lon="5.63884">
        <ele>298.60000610352</ele>
        <time>2022-03-25T09:10:45.000Z</time>
      </trkpt>
      <trkpt lat="49.6268" lon="5.63887">
        <ele>298.60000610352</ele>
        <time>2022-03-25T09:10:49.000Z</time>
      </trkpt>
      <trkpt lat="49.62676" lon="5.63888">
        <ele>298.60000610352</ele>
        <time>2022-03-25T09:10:50.000Z</time>
      </trkpt>
      <trkpt lat="49.62667" lon="5.63891">
        <ele>299</ele>
        <time>2022-03-25T09:10:53.000Z</time>
      </trkpt>
      <trkpt lat="49.62651" lon="5.63895">
        <ele>300.79998779297</ele>
        <time>2022-03-25T09:10:58.000Z</time>
      </trkpt>
      <trkpt lat="49.62648" lon="5.63895">
        <ele>301</ele>
        <time>2022-03-25T09:10:59.000Z</time>
      </trkpt>
      <trkpt lat="49.62635" lon="5.63896">
        <ele>302.39999389648</ele>
        <time>2022-03-25T09:11:03.000Z</time>
      </trkpt>
      <trkpt lat="49.62626" lon="5.63898">
        <ele>303.39999389648</ele>
        <time>2022-03-25T09:11:06.000Z</time>
      </trkpt>
      <trkpt lat="49.62622" lon="5.63898">
        <ele>303.60000610352</ele>
        <time>2022-03-25T09:11:07.000Z</time>
      </trkpt>
      <trkpt lat="49.6261" lon="5.63898">
        <ele>304.39999389648</ele>
        <time>2022-03-25T09:11:11.000Z</time>
      </trkpt>
      <trkpt lat="49.62603" lon="5.63898">
        <ele>304.60000610352</ele>
        <time>2022-03-25T09:11:13.000Z</time>
      </trkpt>
      <trkpt lat="49.62596" lon="5.63898">
        <ele>304.79998779297</ele>
        <time>2022-03-25T09:11:15.000Z</time>
      </trkpt>
      <trkpt lat="49.62586" lon="5.63898">
        <ele>305</ele>
        <time>2022-03-25T09:11:18.000Z</time>
      </trkpt>
      <trkpt lat="49.62573" lon="5.63897">
        <ele>305.79998779297</ele>
        <time>2022-03-25T09:11:22.000Z</time>
      </trkpt>
      <trkpt lat="49.6257" lon="5.63897">
        <ele>306</ele>
        <time>2022-03-25T09:11:23.000Z</time>
      </trkpt>
      <trkpt lat="49.62554" lon="5.63894">
        <ele>306.79998779297</ele>
        <time>2022-03-25T09:11:28.000Z</time>
      </trkpt>
      <trkpt lat="49.62547" lon="5.63892">
        <ele>307.60000610352</ele>
        <time>2022-03-25T09:11:30.000Z</time>
      </trkpt>
      <trkpt lat="49.62541" lon="5.63889">
        <ele>308.39999389648</ele>
        <time>2022-03-25T09:11:32.000Z</time>
      </trkpt>
      <trkpt lat="49.62526" lon="5.63883">
        <ele>310.20001220703</ele>
        <time>2022-03-25T09:11:36.000Z</time>
      </trkpt>
      <trkpt lat="49.62519" lon="5.6388">
        <ele>311.79998779297</ele>
        <time>2022-03-25T09:11:38.000Z</time>
      </trkpt>
      <trkpt lat="49.62511" lon="5.63878">
        <ele>313.39999389648</ele>
        <time>2022-03-25T09:11:40.000Z</time>
      </trkpt>
      <trkpt lat="49.62502" lon="5.63873">
        <ele>315.20001220703</ele>
        <time>2022-03-25T09:11:43.000Z</time>
      </trkpt>
      <trkpt lat="49.62499" lon="5.63872">
        <ele>315.39999389648</ele>
        <time>2022-03-25T09:11:44.000Z</time>
      </trkpt>
      <trkpt lat="49.62487" lon="5.63866">
        <ele>317</ele>
        <time>2022-03-25T09:11:48.000Z</time>
      </trkpt>
      <trkpt lat="49.6248" lon="5.63863">
        <ele>318</ele>
        <time>2022-03-25T09:11:50.000Z</time>
      </trkpt>
      <trkpt lat="49.62473" lon="5.6386">
        <ele>318.79998779297</ele>
        <time>2022-03-25T09:11:52.000Z</time>
      </trkpt>
      <trkpt lat="49.6246" lon="5.63854">
        <ele>320</ele>
        <time>2022-03-25T09:11:56.000Z</time>
      </trkpt>
      <trkpt lat="49.62453" lon="5.6385">
        <ele>320.60000610352</ele>
        <time>2022-03-25T09:11:58.000Z</time>
      </trkpt>
      <trkpt lat="49.62442" lon="5.63845">
        <ele>321.39999389648</ele>
        <time>2022-03-25T09:12:01.000Z</time>
      </trkpt>
      <trkpt lat="49.62433" lon="5.63838">
        <ele>321.79998779297</ele>
        <time>2022-03-25T09:12:04.000Z</time>
      </trkpt>
      <trkpt lat="49.62428" lon="5.63832">
        <ele>321.60000610352</ele>
        <time>2022-03-25T09:12:06.000Z</time>
      </trkpt>
      <trkpt lat="49.62422" lon="5.6382">
        <ele>321</ele>
        <time>2022-03-25T09:12:09.000Z</time>
      </trkpt>
      <trkpt lat="49.62413" lon="5.63798">
        <ele>320.20001220703</ele>
        <time>2022-03-25T09:12:14.000Z</time>
      </trkpt>
      <trkpt lat="49.62401" lon="5.63777">
        <ele>320.79998779297</ele>
        <time>2022-03-25T09:12:19.000Z</time>
      </trkpt>
      <trkpt lat="49.62395" lon="5.63769">
        <ele>321.60000610352</ele>
        <time>2022-03-25T09:12:21.000Z</time>
      </trkpt>
      <trkpt lat="49.62389" lon="5.63762">
        <ele>322.39999389648</ele>
        <time>2022-03-25T09:12:23.000Z</time>
      </trkpt>
      <trkpt lat="49.62382" lon="5.63752">
        <ele>323.39999389648</ele>
        <time>2022-03-25T09:12:26.000Z</time>
      </trkpt>
      <trkpt lat="49.62379" lon="5.63749">
        <ele>323.79998779297</ele>
        <time>2022-03-25T09:12:27.000Z</time>
      </trkpt>
      <trkpt lat="49.62373" lon="5.63743">
        <ele>324.39999389648</ele>
        <time>2022-03-25T09:12:29.000Z</time>
      </trkpt>
      <trkpt lat="49.62362" lon="5.63734">
        <ele>325.79998779297</ele>
        <time>2022-03-25T09:12:33.000Z</time>
      </trkpt>
      <trkpt lat="49.62359" lon="5.63732">
        <ele>326.20001220703</ele>
        <time>2022-03-25T09:12:34.000Z</time>
      </trkpt>
      <trkpt lat="49.62349" lon="5.63726">
        <ele>327.79998779297</ele>
        <time>2022-03-25T09:12:38.000Z</time>
      </trkpt>
      <trkpt lat="49.62341" lon="5.63723">
        <ele>329</ele>
        <time>2022-03-25T09:12:41.000Z</time>
      </trkpt>
      <trkpt lat="49.62339" lon="5.63723">
        <ele>329.39999389648</ele>
        <time>2022-03-25T09:12:42.000Z</time>
      </trkpt>
      <trkpt lat="49.62324" lon="5.63725">
        <ele>330.79998779297</ele>
        <time>2022-03-25T09:12:46.000Z</time>
      </trkpt>
      <trkpt lat="49.62321" lon="5.63727">
        <ele>331.20001220703</ele>
        <time>2022-03-25T09:12:47.000Z</time>
      </trkpt>
      <trkpt lat="49.62308" lon="5.63735">
        <ele>332.60000610352</ele>
        <time>2022-03-25T09:12:51.000Z</time>
      </trkpt>
      <trkpt lat="49.62302" lon="5.63741">
        <ele>333</ele>
        <time>2022-03-25T09:12:53.000Z</time>
      </trkpt>
      <trkpt lat="49.62297" lon="5.63747">
        <ele>333.39999389648</ele>
        <time>2022-03-25T09:12:55.000Z</time>
      </trkpt>
      <trkpt lat="49.62286" lon="5.63767">
        <ele>333.39999389648</ele>
        <time>2022-03-25T09:13:00.000Z</time>
      </trkpt>
      <trkpt lat="49.62274" lon="5.63785">
        <ele>332.79998779297</ele>
        <time>2022-03-25T09:13:05.000Z</time>
      </trkpt>
      <trkpt lat="49.62271" lon="5.63786">
        <ele>332.79998779297</ele>
        <time>2022-03-25T09:13:06.000Z</time>
      </trkpt>
      <trkpt lat="49.62264" lon="5.63785">
        <ele>332.39999389648</ele>
        <time>2022-03-25T09:13:09.000Z</time>
      </trkpt>
      <trkpt lat="49.62262" lon="5.63783">
        <ele>332.39999389648</ele>
        <time>2022-03-25T09:13:10.000Z</time>
      </trkpt>
      <trkpt lat="49.6226" lon="5.63775">
        <ele>332.20001220703</ele>
        <time>2022-03-25T09:13:11.000Z</time>
      </trkpt>
      <trkpt lat="49.62255" lon="5.63761">
        <ele>332</ele>
        <time>2022-03-25T09:13:13.000Z</time>
      </trkpt>
      <trkpt lat="49.62234" lon="5.6371">
        <ele>333.20001220703</ele>
        <time>2022-03-25T09:13:20.000Z</time>
      </trkpt>
      <trkpt lat="49.62217" lon="5.63671">
        <ele>334</ele>
        <time>2022-03-25T09:13:26.000Z</time>
      </trkpt>
      <trkpt lat="49.62197" lon="5.63621">
        <ele>334.79998779297</ele>
        <time>2022-03-25T09:13:33.000Z</time>
      </trkpt>
      <trkpt lat="49.62183" lon="5.63586">
        <ele>335</ele>
        <time>2022-03-25T09:13:38.000Z</time>
      </trkpt>
      <trkpt lat="49.62175" lon="5.63564">
        <ele>335.79998779297</ele>
        <time>2022-03-25T09:13:41.000Z</time>
      </trkpt>
      <trkpt lat="49.62148" lon="5.63498">
        <ele>335.20001220703</ele>
        <time>2022-03-25T09:13:50.000Z</time>
      </trkpt>
      <trkpt lat="49.6214" lon="5.63476">
        <ele>336</ele>
        <time>2022-03-25T09:13:53.000Z</time>
      </trkpt>
      <trkpt lat="49.6213" lon="5.63447">
        <ele>337</ele>
        <time>2022-03-25T09:13:57.000Z</time>
      </trkpt>
      <trkpt lat="49.62112" lon="5.63406">
        <ele>340</ele>
        <time>2022-03-25T09:14:03.000Z</time>
      </trkpt>
      <trkpt lat="49.62108" lon="5.634">
        <ele>340.20001220703</ele>
        <time>2022-03-25T09:14:04.000Z</time>
      </trkpt>
      <trkpt lat="49.62083" lon="5.63366">
        <ele>341.60000610352</ele>
        <time>2022-03-25T09:14:10.000Z</time>
      </trkpt>
      <trkpt lat="49.62052" lon="5.63344">
        <ele>341.20001220703</ele>
        <time>2022-03-25T09:14:16.000Z</time>
      </trkpt>
      <trkpt lat="49.62046" lon="5.63342">
        <ele>341.20001220703</ele>
        <time>2022-03-25T09:14:17.000Z</time>
      </trkpt>
      <trkpt lat="49.62025" lon="5.63335">
        <ele>341</ele>
        <time>2022-03-25T09:14:21.000Z</time>
      </trkpt>
      <trkpt lat="49.62015" lon="5.63334">
        <ele>341.20001220703</ele>
        <time>2022-03-25T09:14:23.000Z</time>
      </trkpt>
      <trkpt lat="49.62007" lon="5.63339">
        <ele>341</ele>
        <time>2022-03-25T09:14:25.000Z</time>
      </trkpt>
      <trkpt lat="49.62004" lon="5.63343">
        <ele>341</ele>
        <time>2022-03-25T09:14:26.000Z</time>
      </trkpt>
      <trkpt lat="49.61995" lon="5.63364">
        <ele>340.79998779297</ele>
        <time>2022-03-25T09:14:30.000Z</time>
      </trkpt>
      <trkpt lat="49.61993" lon="5.63371">
        <ele>340.20001220703</ele>
        <time>2022-03-25T09:14:31.000Z</time>
      </trkpt>
      <trkpt lat="49.61984" lon="5.63396">
        <ele>338.79998779297</ele>
        <time>2022-03-25T09:14:35.000Z</time>
      </trkpt>
      <trkpt lat="49.61966" lon="5.63449">
        <ele>335</ele>
        <time>2022-03-25T09:14:42.000Z</time>
      </trkpt>
      <trkpt lat="49.61951" lon="5.63503">
        <ele>336.60000610352</ele>
        <time>2022-03-25T09:14:48.000Z</time>
      </trkpt>
      <trkpt lat="49.61939" lon="5.63531">
        <ele>336.60000610352</ele>
        <time>2022-03-25T09:14:51.000Z</time>
      </trkpt>
      <trkpt lat="49.61936" lon="5.6354">
        <ele>336.60000610352</ele>
        <time>2022-03-25T09:14:52.000Z</time>
      </trkpt>
      <trkpt lat="49.61931" lon="5.63548">
        <ele>336.60000610352</ele>
        <time>2022-03-25T09:14:53.000Z</time>
      </trkpt>
      <trkpt lat="49.61926" lon="5.63558">
        <ele>336.60000610352</ele>
        <time>2022-03-25T09:14:54.000Z</time>
      </trkpt>
      <trkpt lat="49.61911" lon="5.6359">
        <ele>334.20001220703</ele>
        <time>2022-03-25T09:14:57.000Z</time>
      </trkpt>
      <trkpt lat="49.61901" lon="5.63609">
        <ele>332.60000610352</ele>
        <time>2022-03-25T09:14:59.000Z</time>
      </trkpt>
      <trkpt lat="49.6189" lon="5.63628">
        <ele>331.39999389648</ele>
        <time>2022-03-25T09:15:01.000Z</time>
      </trkpt>
      <trkpt lat="49.61878" lon="5.63648">
        <ele>329.39999389648</ele>
        <time>2022-03-25T09:15:03.000Z</time>
      </trkpt>
      <trkpt lat="49.61871" lon="5.63659">
        <ele>328.79998779297</ele>
        <time>2022-03-25T09:15:04.000Z</time>
      </trkpt>
      <trkpt lat="49.61865" lon="5.6367">
        <ele>328</ele>
        <time>2022-03-25T09:15:05.000Z</time>
      </trkpt>
      <trkpt lat="49.61858" lon="5.6368">
        <ele>327.60000610352</ele>
        <time>2022-03-25T09:15:06.000Z</time>
      </trkpt>
      <trkpt lat="49.61844" lon="5.63702">
        <ele>325.20001220703</ele>
        <time>2022-03-25T09:15:08.000Z</time>
      </trkpt>
      <trkpt lat="49.61829" lon="5.63724">
        <ele>322.60000610352</ele>
        <time>2022-03-25T09:15:10.000Z</time>
      </trkpt>
      <trkpt lat="49.61815" lon="5.63749">
        <ele>320.79998779297</ele>
        <time>2022-03-25T09:15:12.000Z</time>
      </trkpt>
      <trkpt lat="49.61808" lon="5.63762">
        <ele>319.79998779297</ele>
        <time>2022-03-25T09:15:13.000Z</time>
      </trkpt>
      <trkpt lat="49.61801" lon="5.63775">
        <ele>319</ele>
        <time>2022-03-25T09:15:14.000Z</time>
      </trkpt>
      <trkpt lat="49.61786" lon="5.63799">
        <ele>316.20001220703</ele>
        <time>2022-03-25T09:15:16.000Z</time>
      </trkpt>
      <trkpt lat="49.61772" lon="5.63824">
        <ele>314.20001220703</ele>
        <time>2022-03-25T09:15:18.000Z</time>
      </trkpt>
      <trkpt lat="49.61758" lon="5.63847">
        <ele>312.60000610352</ele>
        <time>2022-03-25T09:15:20.000Z</time>
      </trkpt>
      <trkpt lat="49.61753" lon="5.63858">
        <ele>311.60000610352</ele>
        <time>2022-03-25T09:15:21.000Z</time>
      </trkpt>
      <trkpt lat="49.61749" lon="5.63871">
        <ele>311.20001220703</ele>
        <time>2022-03-25T09:15:22.000Z</time>
      </trkpt>
      <trkpt lat="49.61738" lon="5.63908">
        <ele>311</ele>
        <time>2022-03-25T09:15:25.000Z</time>
      </trkpt>
      <trkpt lat="49.61727" lon="5.63943">
        <ele>310</ele>
        <time>2022-03-25T09:15:29.000Z</time>
      </trkpt>
      <trkpt lat="49.6172" lon="5.63963">
        <ele>309.79998779297</ele>
        <time>2022-03-25T09:15:32.000Z</time>
      </trkpt>
      <trkpt lat="49.61716" lon="5.63976">
        <ele>309.60000610352</ele>
        <time>2022-03-25T09:15:34.000Z</time>
      </trkpt>
      <trkpt lat="49.61714" lon="5.63983">
        <ele>309.60000610352</ele>
        <time>2022-03-25T09:15:35.000Z</time>
      </trkpt>
      <trkpt lat="49.61707" lon="5.64012">
        <ele>309</ele>
        <time>2022-03-25T09:15:39.000Z</time>
      </trkpt>
      <trkpt lat="49.61703" lon="5.64026">
        <ele>309.20001220703</ele>
        <time>2022-03-25T09:15:41.000Z</time>
      </trkpt>
      <trkpt lat="49.61696" lon="5.64057">
        <ele>309.20001220703</ele>
        <time>2022-03-25T09:15:45.000Z</time>
      </trkpt>
      <trkpt lat="49.6169" lon="5.6408">
        <ele>310.79998779297</ele>
        <time>2022-03-25T09:15:48.000Z</time>
      </trkpt>
      <trkpt lat="49.61672" lon="5.64133">
        <ele>314.60000610352</ele>
        <time>2022-03-25T09:15:55.000Z</time>
      </trkpt>
      <trkpt lat="49.61668" lon="5.64143">
        <ele>315</ele>
        <time>2022-03-25T09:15:56.000Z</time>
      </trkpt>
      <trkpt lat="49.61659" lon="5.64161">
        <ele>315.60000610352</ele>
        <time>2022-03-25T09:15:58.000Z</time>
      </trkpt>
      <trkpt lat="49.61653" lon="5.6417">
        <ele>315.39999389648</ele>
        <time>2022-03-25T09:15:59.000Z</time>
      </trkpt>
      <trkpt lat="49.61647" lon="5.64177">
        <ele>315.39999389648</ele>
        <time>2022-03-25T09:16:00.000Z</time>
      </trkpt>
      <trkpt lat="49.6164" lon="5.64184">
        <ele>315</ele>
        <time>2022-03-25T09:16:01.000Z</time>
      </trkpt>
      <trkpt lat="49.61627" lon="5.64195">
        <ele>314</ele>
        <time>2022-03-25T09:16:03.000Z</time>
      </trkpt>
      <trkpt lat="49.6162" lon="5.642">
        <ele>313.39999389648</ele>
        <time>2022-03-25T09:16:04.000Z</time>
      </trkpt>
      <trkpt lat="49.61613" lon="5.64204">
        <ele>312.79998779297</ele>
        <time>2022-03-25T09:16:05.000Z</time>
      </trkpt>
      <trkpt lat="49.61581" lon="5.64227">
        <ele>313.39999389648</ele>
        <time>2022-03-25T09:16:10.000Z</time>
      </trkpt>
      <trkpt lat="49.61559" lon="5.64248">
        <ele>314.20001220703</ele>
        <time>2022-03-25T09:16:15.000Z</time>
      </trkpt>
      <trkpt lat="49.61544" lon="5.64266">
        <ele>312.20001220703</ele>
        <time>2022-03-25T09:16:20.000Z</time>
      </trkpt>
      <trkpt lat="49.61541" lon="5.6427">
        <ele>312</ele>
        <time>2022-03-25T09:16:21.000Z</time>
      </trkpt>
      <trkpt lat="49.61535" lon="5.64279">
        <ele>311.20001220703</ele>
        <time>2022-03-25T09:16:23.000Z</time>
      </trkpt>
      <trkpt lat="49.61526" lon="5.64292">
        <ele>310.20001220703</ele>
        <time>2022-03-25T09:16:26.000Z</time>
      </trkpt>
      <trkpt lat="49.61517" lon="5.64305">
        <ele>309.60000610352</ele>
        <time>2022-03-25T09:16:29.000Z</time>
      </trkpt>
      <trkpt lat="49.61503" lon="5.64324">
        <ele>309.60000610352</ele>
        <time>2022-03-25T09:16:33.000Z</time>
      </trkpt>
      <trkpt lat="49.61492" lon="5.64337">
        <ele>310.60000610352</ele>
        <time>2022-03-25T09:16:36.000Z</time>
      </trkpt>
      <trkpt lat="49.61484" lon="5.64344">
        <ele>311.79998779297</ele>
        <time>2022-03-25T09:16:38.000Z</time>
      </trkpt>
      <trkpt lat="49.61459" lon="5.64364">
        <ele>312.79998779297</ele>
        <time>2022-03-25T09:16:43.000Z</time>
      </trkpt>
      <trkpt lat="49.6142" lon="5.64397">
        <ele>310.60000610352</ele>
        <time>2022-03-25T09:16:50.000Z</time>
      </trkpt>
      <trkpt lat="49.61406" lon="5.64409">
        <ele>308.79998779297</ele>
        <time>2022-03-25T09:16:52.000Z</time>
      </trkpt>
      <trkpt lat="49.61392" lon="5.64421">
        <ele>307</ele>
        <time>2022-03-25T09:16:54.000Z</time>
      </trkpt>
      <trkpt lat="49.61386" lon="5.64429">
        <ele>305.79998779297</ele>
        <time>2022-03-25T09:16:55.000Z</time>
      </trkpt>
      <trkpt lat="49.6138" lon="5.64437">
        <ele>304.39999389648</ele>
        <time>2022-03-25T09:16:56.000Z</time>
      </trkpt>
      <trkpt lat="49.61369" lon="5.64456">
        <ele>303</ele>
        <time>2022-03-25T09:16:58.000Z</time>
      </trkpt>
      <trkpt lat="49.61358" lon="5.64472">
        <ele>301.20001220703</ele>
        <time>2022-03-25T09:17:00.000Z</time>
      </trkpt>
      <trkpt lat="49.61353" lon="5.64479">
        <ele>301</ele>
        <time>2022-03-25T09:17:01.000Z</time>
      </trkpt>
      <trkpt lat="49.61349" lon="5.64486">
        <ele>300.20001220703</ele>
        <time>2022-03-25T09:17:02.000Z</time>
      </trkpt>
      <trkpt lat="49.6134" lon="5.64495">
        <ele>299.20001220703</ele>
        <time>2022-03-25T09:17:04.000Z</time>
      </trkpt>
      <trkpt lat="49.61335" lon="5.64496">
        <ele>299</ele>
        <time>2022-03-25T09:17:05.000Z</time>
      </trkpt>
      <trkpt lat="49.61328" lon="5.64491">
        <ele>299.20001220703</ele>
        <time>2022-03-25T09:17:07.000Z</time>
      </trkpt>
      <trkpt lat="49.61325" lon="5.64486">
        <ele>299.79998779297</ele>
        <time>2022-03-25T09:17:08.000Z</time>
      </trkpt>
      <trkpt lat="49.61322" lon="5.64482">
        <ele>300.20001220703</ele>
        <time>2022-03-25T09:17:09.000Z</time>
      </trkpt>
      <trkpt lat="49.61306" lon="5.64453">
        <ele>301.20001220703</ele>
        <time>2022-03-25T09:17:14.000Z</time>
      </trkpt>
      <trkpt lat="49.6128" lon="5.64395">
        <ele>300.79998779297</ele>
        <time>2022-03-25T09:17:22.000Z</time>
      </trkpt>
      <trkpt lat="49.61254" lon="5.64334">
        <ele>301</ele>
        <time>2022-03-25T09:17:30.000Z</time>
      </trkpt>
      <trkpt lat="49.61243" lon="5.64313">
        <ele>301</ele>
        <time>2022-03-25T09:17:33.000Z</time>
      </trkpt>
      <trkpt lat="49.61231" lon="5.64297">
        <ele>300.60000610352</ele>
        <time>2022-03-25T09:17:36.000Z</time>
      </trkpt>
      <trkpt lat="49.61202" lon="5.64263">
        <ele>299.20001220703</ele>
        <time>2022-03-25T09:17:43.000Z</time>
      </trkpt>
      <trkpt lat="49.61178" lon="5.64236">
        <ele>297.60000610352</ele>
        <time>2022-03-25T09:17:49.000Z</time>
      </trkpt>
      <trkpt lat="49.61174" lon="5.64233">
        <ele>297.20001220703</ele>
        <time>2022-03-25T09:17:50.000Z</time>
      </trkpt>
      <trkpt lat="49.61165" lon="5.64224">
        <ele>296.39999389648</ele>
        <time>2022-03-25T09:17:52.000Z</time>
      </trkpt>
      <trkpt lat="49.61153" lon="5.64209">
        <ele>295.20001220703</ele>
        <time>2022-03-25T09:17:55.000Z</time>
      </trkpt>
      <trkpt lat="49.6115" lon="5.64203">
        <ele>295</ele>
        <time>2022-03-25T09:17:56.000Z</time>
      </trkpt>
      <trkpt lat="49.61144" lon="5.64186">
        <ele>295.20001220703</ele>
        <time>2022-03-25T09:17:59.000Z</time>
      </trkpt>
      <trkpt lat="49.61136" lon="5.64171">
        <ele>295.60000610352</ele>
        <time>2022-03-25T09:18:02.000Z</time>
      </trkpt>
      <trkpt lat="49.61126" lon="5.64157">
        <ele>296.39999389648</ele>
        <time>2022-03-25T09:18:05.000Z</time>
      </trkpt>
      <trkpt lat="49.6112" lon="5.64145">
        <ele>297</ele>
        <time>2022-03-25T09:18:07.000Z</time>
      </trkpt>
      <trkpt lat="49.61108" lon="5.64123">
        <ele>297.60000610352</ele>
        <time>2022-03-25T09:18:11.000Z</time>
      </trkpt>
      <trkpt lat="49.61104" lon="5.64118">
        <ele>297.39999389648</ele>
        <time>2022-03-25T09:18:12.000Z</time>
      </trkpt>
      <trkpt lat="49.611" lon="5.64112">
        <ele>297.20001220703</ele>
        <time>2022-03-25T09:18:13.000Z</time>
      </trkpt>
      <trkpt lat="49.61093" lon="5.64098">
        <ele>296.60000610352</ele>
        <time>2022-03-25T09:18:16.000Z</time>
      </trkpt>
      <trkpt lat="49.61081" lon="5.64061">
        <ele>296.20001220703</ele>
        <time>2022-03-25T09:18:22.000Z</time>
      </trkpt>
      <trkpt lat="49.61064" lon="5.64017">
        <ele>293.79998779297</ele>
        <time>2022-03-25T09:18:29.000Z</time>
      </trkpt>
      <trkpt lat="49.61056" lon="5.63998">
        <ele>292.60000610352</ele>
        <time>2022-03-25T09:18:32.000Z</time>
      </trkpt>
      <trkpt lat="49.61051" lon="5.63984">
        <ele>292</ele>
        <time>2022-03-25T09:18:34.000Z</time>
      </trkpt>
      <trkpt lat="49.6105" lon="5.63979">
        <ele>291.79998779297</ele>
        <time>2022-03-25T09:18:35.000Z</time>
      </trkpt>
      <trkpt lat="49.61048" lon="5.63974">
        <ele>291.60000610352</ele>
        <time>2022-03-25T09:18:36.000Z</time>
      </trkpt>
      <trkpt lat="49.61045" lon="5.63959">
        <ele>291.60000610352</ele>
        <time>2022-03-25T09:18:38.000Z</time>
      </trkpt>
      <trkpt lat="49.61043" lon="5.63953">
        <ele>291.39999389648</ele>
        <time>2022-03-25T09:18:39.000Z</time>
      </trkpt>
      <trkpt lat="49.61038" lon="5.63936">
        <ele>292</ele>
        <time>2022-03-25T09:18:41.000Z</time>
      </trkpt>
      <trkpt lat="49.61035" lon="5.63927">
        <ele>292.79998779297</ele>
        <time>2022-03-25T09:18:42.000Z</time>
      </trkpt>
      <trkpt lat="49.61032" lon="5.6392">
        <ele>293.20001220703</ele>
        <time>2022-03-25T09:18:43.000Z</time>
      </trkpt>
      <trkpt lat="49.61029" lon="5.63914">
        <ele>293.79998779297</ele>
        <time>2022-03-25T09:18:44.000Z</time>
      </trkpt>
      <trkpt lat="49.61026" lon="5.63911">
        <ele>294.20001220703</ele>
        <time>2022-03-25T09:18:45.000Z</time>
      </trkpt>
      <trkpt lat="49.61023" lon="5.63909">
        <ele>294.39999389648</ele>
        <time>2022-03-25T09:18:46.000Z</time>
      </trkpt>
      <trkpt lat="49.61014" lon="5.63907">
        <ele>295</ele>
        <time>2022-03-25T09:18:49.000Z</time>
      </trkpt>
      <trkpt lat="49.60989" lon="5.63913">
        <ele>293</ele>
        <time>2022-03-25T09:18:54.000Z</time>
      </trkpt>
      <trkpt lat="49.60974" lon="5.63916">
        <ele>291.39999389648</ele>
        <time>2022-03-25T09:18:56.000Z</time>
      </trkpt>
      <trkpt lat="49.60951" lon="5.63915">
        <ele>288.79998779297</ele>
        <time>2022-03-25T09:19:00.000Z</time>
      </trkpt>
      <trkpt lat="49.60943" lon="5.63906">
        <ele>288</ele>
        <time>2022-03-25T09:19:03.000Z</time>
      </trkpt>
      <trkpt lat="49.6094" lon="5.63902">
        <ele>287.60000610352</ele>
        <time>2022-03-25T09:19:04.000Z</time>
      </trkpt>
      <trkpt lat="49.60936" lon="5.63877">
        <ele>287.39999389648</ele>
        <time>2022-03-25T09:19:08.000Z</time>
      </trkpt>
      <trkpt lat="49.60936" lon="5.63863">
        <ele>287.60000610352</ele>
        <time>2022-03-25T09:19:10.000Z</time>
      </trkpt>
      <trkpt lat="49.6094" lon="5.63834">
        <ele>288.39999389648</ele>
        <time>2022-03-25T09:19:14.000Z</time>
      </trkpt>
      <trkpt lat="49.60945" lon="5.63799">
        <ele>288.60000610352</ele>
        <time>2022-03-25T09:19:19.000Z</time>
      </trkpt>
      <trkpt lat="49.60949" lon="5.63786">
        <ele>289.39999389648</ele>
        <time>2022-03-25T09:19:21.000Z</time>
      </trkpt>
      <trkpt lat="49.60956" lon="5.6375">
        <ele>289.79998779297</ele>
        <time>2022-03-25T09:19:27.000Z</time>
      </trkpt>
      <trkpt lat="49.60959" lon="5.63732">
        <ele>290.20001220703</ele>
        <time>2022-03-25T09:19:30.000Z</time>
      </trkpt>
      <trkpt lat="49.6096" lon="5.63714">
        <ele>290.20001220703</ele>
        <time>2022-03-25T09:19:33.000Z</time>
      </trkpt>
      <trkpt lat="49.6096" lon="5.63702">
        <ele>290</ele>
        <time>2022-03-25T09:19:35.000Z</time>
      </trkpt>
      <trkpt lat="49.60962" lon="5.63683">
        <ele>290</ele>
        <time>2022-03-25T09:19:38.000Z</time>
      </trkpt>
      <trkpt lat="49.60962" lon="5.63652">
        <ele>289.39999389648</ele>
        <time>2022-03-25T09:19:43.000Z</time>
      </trkpt>
      <trkpt lat="49.60963" lon="5.63629">
        <ele>289.60000610352</ele>
        <time>2022-03-25T09:19:47.000Z</time>
      </trkpt>
      <trkpt lat="49.60967" lon="5.63621">
        <ele>289.79998779297</ele>
        <time>2022-03-25T09:19:49.000Z</time>
      </trkpt>
      <trkpt lat="49.60969" lon="5.63619">
        <ele>289.79998779297</ele>
        <time>2022-03-25T09:19:50.000Z</time>
      </trkpt>
      <trkpt lat="49.60974" lon="5.63609">
        <ele>290.20001220703</ele>
        <time>2022-03-25T09:19:53.000Z</time>
      </trkpt>
      <trkpt lat="49.60979" lon="5.63598">
        <ele>290.79998779297</ele>
        <time>2022-03-25T09:19:56.000Z</time>
      </trkpt>
      <trkpt lat="49.60983" lon="5.63591">
        <ele>291.20001220703</ele>
        <time>2022-03-25T09:19:58.000Z</time>
      </trkpt>
      <trkpt lat="49.60988" lon="5.63584">
        <ele>291.79998779297</ele>
        <time>2022-03-25T09:20:00.000Z</time>
      </trkpt>
      <trkpt lat="49.60999" lon="5.63564">
        <ele>293</ele>
        <time>2022-03-25T09:20:06.000Z</time>
      </trkpt>
      <trkpt lat="49.61002" lon="5.63558">
        <ele>293.20001220703</ele>
        <time>2022-03-25T09:20:08.000Z</time>
      </trkpt>
      <trkpt lat="49.61007" lon="5.63545">
        <ele>294.39999389648</ele>
        <time>2022-03-25T09:20:12.000Z</time>
      </trkpt>
      <trkpt lat="49.61013" lon="5.63535">
        <ele>295.20001220703</ele>
        <time>2022-03-25T09:20:15.000Z</time>
      </trkpt>
      <trkpt lat="49.6102" lon="5.63526">
        <ele>296</ele>
        <time>2022-03-25T09:20:18.000Z</time>
      </trkpt>
      <trkpt lat="49.61023" lon="5.63521">
        <ele>296.20001220703</ele>
        <time>2022-03-25T09:20:20.000Z</time>
      </trkpt>
      <trkpt lat="49.61029" lon="5.63513">
        <ele>296</ele>
        <time>2022-03-25T09:20:23.000Z</time>
      </trkpt>
      <trkpt lat="49.61032" lon="5.6351">
        <ele>296</ele>
        <time>2022-03-25T09:20:25.000Z</time>
      </trkpt>
      <trkpt lat="49.61041" lon="5.63501">
        <ele>296.39999389648</ele>
        <time>2022-03-25T09:20:29.000Z</time>
      </trkpt>
      <trkpt lat="49.61043" lon="5.63499">
        <ele>296.60000610352</ele>
        <time>2022-03-25T09:20:30.000Z</time>
      </trkpt>
      <trkpt lat="49.61047" lon="5.63496">
        <ele>296.79998779297</ele>
        <time>2022-03-25T09:20:32.000Z</time>
      </trkpt>
      <trkpt lat="49.61053" lon="5.63489">
        <ele>297</ele>
        <time>2022-03-25T09:20:36.000Z</time>
      </trkpt>
      <trkpt lat="49.61055" lon="5.63487">
        <ele>297</ele>
        <time>2022-03-25T09:20:37.000Z</time>
      </trkpt>
      <trkpt lat="49.61056" lon="5.63487">
        <ele>297</ele>
        <time>2022-03-25T09:20:38.000Z</time>
      </trkpt>
      <trkpt lat="49.61059" lon="5.63487">
        <ele>297</ele>
        <time>2022-03-25T09:20:40.000Z</time>
      </trkpt>
      <trkpt lat="49.61067" lon="5.63486">
        <ele>297.60000610352</ele>
        <time>2022-03-25T09:20:43.000Z</time>
      </trkpt>
      <trkpt lat="49.6107" lon="5.63487">
        <ele>297.79998779297</ele>
        <time>2022-03-25T09:20:44.000Z</time>
      </trkpt>
      <trkpt lat="49.61085" lon="5.63496">
        <ele>298.39999389648</ele>
        <time>2022-03-25T09:20:49.000Z</time>
      </trkpt>
      <trkpt lat="49.61101" lon="5.63505">
        <ele>300.79998779297</ele>
        <time>2022-03-25T09:20:53.000Z</time>
      </trkpt>
      <trkpt lat="49.61105" lon="5.63508">
        <ele>301.20001220703</ele>
        <time>2022-03-25T09:20:54.000Z</time>
      </trkpt>
      <trkpt lat="49.61115" lon="5.63513">
        <ele>302.79998779297</ele>
        <time>2022-03-25T09:20:57.000Z</time>
      </trkpt>
      <trkpt lat="49.61127" lon="5.63516">
        <ele>303.79998779297</ele>
        <time>2022-03-25T09:21:00.000Z</time>
      </trkpt>
      <trkpt lat="49.61139" lon="5.63517">
        <ele>304.79998779297</ele>
        <time>2022-03-25T09:21:03.000Z</time>
      </trkpt>
      <trkpt lat="49.61148" lon="5.63514">
        <ele>305</ele>
        <time>2022-03-25T09:21:06.000Z</time>
      </trkpt>
      <trkpt lat="49.61157" lon="5.63509">
        <ele>305</ele>
        <time>2022-03-25T09:21:09.000Z</time>
      </trkpt>
      <trkpt lat="49.61165" lon="5.63501">
        <ele>304.60000610352</ele>
        <time>2022-03-25T09:21:12.000Z</time>
      </trkpt>
      <trkpt lat="49.6117" lon="5.63496">
        <ele>304.79998779297</ele>
        <time>2022-03-25T09:21:14.000Z</time>
      </trkpt>
      <trkpt lat="49.61175" lon="5.63491">
        <ele>305.20001220703</ele>
        <time>2022-03-25T09:21:16.000Z</time>
      </trkpt>
      <trkpt lat="49.61177" lon="5.63489">
        <ele>305.39999389648</ele>
        <time>2022-03-25T09:21:17.000Z</time>
      </trkpt>
      <trkpt lat="49.61179" lon="5.63486">
        <ele>305.79998779297</ele>
        <time>2022-03-25T09:21:18.000Z</time>
      </trkpt>
      <trkpt lat="49.61183" lon="5.63481">
        <ele>306.20001220703</ele>
        <time>2022-03-25T09:21:20.000Z</time>
      </trkpt>
      <trkpt lat="49.6119" lon="5.63473">
        <ele>307</ele>
        <time>2022-03-25T09:21:23.000Z</time>
      </trkpt>
      <trkpt lat="49.61193" lon="5.6347">
        <ele>307.39999389648</ele>
        <time>2022-03-25T09:21:24.000Z</time>
      </trkpt>
      <trkpt lat="49.61198" lon="5.63466">
        <ele>308.20001220703</ele>
        <time>2022-03-25T09:21:26.000Z</time>
      </trkpt>
      <trkpt lat="49.61206" lon="5.63459">
        <ele>309.79998779297</ele>
        <time>2022-03-25T09:21:29.000Z</time>
      </trkpt>
      <trkpt lat="49.61209" lon="5.63454">
        <ele>310.39999389648</ele>
        <time>2022-03-25T09:21:31.000Z</time>
      </trkpt>
      <trkpt lat="49.61212" lon="5.63452">
        <ele>310.79998779297</ele>
        <time>2022-03-25T09:21:32.000Z</time>
      </trkpt>
      <trkpt lat="49.6122" lon="5.63449">
        <ele>312</ele>
        <time>2022-03-25T09:21:35.000Z</time>
      </trkpt>
      <trkpt lat="49.61221" lon="5.63448">
        <ele>312.39999389648</ele>
        <time>2022-03-25T09:21:36.000Z</time>
      </trkpt>
      <trkpt lat="49.61229" lon="5.63443">
        <ele>313.79998779297</ele>
        <time>2022-03-25T09:21:39.000Z</time>
      </trkpt>
      <trkpt lat="49.61237" lon="5.63437">
        <ele>315.60000610352</ele>
        <time>2022-03-25T09:21:42.000Z</time>
      </trkpt>
      <trkpt lat="49.61241" lon="5.63434">
        <ele>316.39999389648</ele>
        <time>2022-03-25T09:21:43.000Z</time>
      </trkpt>
      <trkpt lat="49.61249" lon="5.63428">
        <ele>318.20001220703</ele>
        <time>2022-03-25T09:21:46.000Z</time>
      </trkpt>
      <trkpt lat="49.61276" lon="5.63414">
        <ele>321.39999389648</ele>
        <time>2022-03-25T09:21:51.000Z</time>
      </trkpt>
      <trkpt lat="49.61291" lon="5.63407">
        <ele>322.79998779297</ele>
        <time>2022-03-25T09:21:55.000Z</time>
      </trkpt>
      <trkpt lat="49.61298" lon="5.63402">
        <ele>323.60000610352</ele>
        <time>2022-03-25T09:21:58.000Z</time>
      </trkpt>
      <trkpt lat="49.61307" lon="5.63391">
        <ele>324.79998779297</ele>
        <time>2022-03-25T09:22:25.000Z</time>
      </trkpt>
      <trkpt lat="49.61311" lon="5.63378">
        <ele>325.79998779297</ele>
        <time>2022-03-25T09:22:27.000Z</time>
      </trkpt>
      <trkpt lat="49.61315" lon="5.63345">
        <ele>326.39999389648</ele>
        <time>2022-03-25T09:22:31.000Z</time>
      </trkpt>
      <trkpt lat="49.61316" lon="5.63336">
        <ele>326.60000610352</ele>
        <time>2022-03-25T09:22:32.000Z</time>
      </trkpt>
      <trkpt lat="49.61318" lon="5.6332">
        <ele>326</ele>
        <time>2022-03-25T09:22:34.000Z</time>
      </trkpt>
      <trkpt lat="49.61319" lon="5.63313">
        <ele>325.79998779297</ele>
        <time>2022-03-25T09:22:35.000Z</time>
      </trkpt>
      <trkpt lat="49.61321" lon="5.63306">
        <ele>325.60000610352</ele>
        <time>2022-03-25T09:22:36.000Z</time>
      </trkpt>
      <trkpt lat="49.61329" lon="5.63277">
        <ele>324.20001220703</ele>
        <time>2022-03-25T09:22:40.000Z</time>
      </trkpt>
      <trkpt lat="49.61333" lon="5.63245">
        <ele>322.39999389648</ele>
        <time>2022-03-25T09:22:44.000Z</time>
      </trkpt>
      <trkpt lat="49.61332" lon="5.63234">
        <ele>322</ele>
        <time>2022-03-25T09:22:45.000Z</time>
      </trkpt>
      <trkpt lat="49.61333" lon="5.63225">
        <ele>321.79998779297</ele>
        <time>2022-03-25T09:22:46.000Z</time>
      </trkpt>
      <trkpt lat="49.61335" lon="5.63205">
        <ele>322.60000610352</ele>
        <time>2022-03-25T09:22:48.000Z</time>
      </trkpt>
      <trkpt lat="49.61336" lon="5.6318">
        <ele>322.39999389648</ele>
        <time>2022-03-25T09:22:50.000Z</time>
      </trkpt>
      <trkpt lat="49.61337" lon="5.63167">
        <ele>321.79998779297</ele>
        <time>2022-03-25T09:22:51.000Z</time>
      </trkpt>
      <trkpt lat="49.61337" lon="5.6314">
        <ele>321</ele>
        <time>2022-03-25T09:22:53.000Z</time>
      </trkpt>
      <trkpt lat="49.61334" lon="5.63112">
        <ele>319.60000610352</ele>
        <time>2022-03-25T09:22:55.000Z</time>
      </trkpt>
      <trkpt lat="49.61329" lon="5.63087">
        <ele>317.79998779297</ele>
        <time>2022-03-25T09:22:57.000Z</time>
      </trkpt>
      <trkpt lat="49.61324" lon="5.63064">
        <ele>316.79998779297</ele>
        <time>2022-03-25T09:22:59.000Z</time>
      </trkpt>
      <trkpt lat="49.61318" lon="5.63042">
        <ele>316</ele>
        <time>2022-03-25T09:23:01.000Z</time>
      </trkpt>
      <trkpt lat="49.61317" lon="5.6303">
        <ele>316.20001220703</ele>
        <time>2022-03-25T09:23:02.000Z</time>
      </trkpt>
      <trkpt lat="49.61312" lon="5.63011">
        <ele>316.20001220703</ele>
        <time>2022-03-25T09:23:04.000Z</time>
      </trkpt>
      <trkpt lat="49.61308" lon="5.63002">
        <ele>315.79998779297</ele>
        <time>2022-03-25T09:23:05.000Z</time>
      </trkpt>
      <trkpt lat="49.61294" lon="5.62978">
        <ele>314</ele>
        <time>2022-03-25T09:23:08.000Z</time>
      </trkpt>
      <trkpt lat="49.61288" lon="5.62969">
        <ele>313.60000610352</ele>
        <time>2022-03-25T09:23:09.000Z</time>
      </trkpt>
      <trkpt lat="49.61273" lon="5.62945">
        <ele>312.79998779297</ele>
        <time>2022-03-25T09:23:12.000Z</time>
      </trkpt>
      <trkpt lat="49.61257" lon="5.62924">
        <ele>312.20001220703</ele>
        <time>2022-03-25T09:23:15.000Z</time>
      </trkpt>
      <trkpt lat="49.61253" lon="5.62918">
        <ele>312.20001220703</ele>
        <time>2022-03-25T09:23:16.000Z</time>
      </trkpt>
      <trkpt lat="49.61237" lon="5.62903">
        <ele>312.20001220703</ele>
        <time>2022-03-25T09:23:19.000Z</time>
      </trkpt>
      <trkpt lat="49.61227" lon="5.62897">
        <ele>311.79998779297</ele>
        <time>2022-03-25T09:23:21.000Z</time>
      </trkpt>
      <trkpt lat="49.61208" lon="5.62902">
        <ele>310.79998779297</ele>
        <time>2022-03-25T09:23:24.000Z</time>
      </trkpt>
      <trkpt lat="49.61189" lon="5.62913">
        <ele>309</ele>
        <time>2022-03-25T09:23:27.000Z</time>
      </trkpt>
      <trkpt lat="49.61178" lon="5.62916">
        <ele>308.39999389648</ele>
        <time>2022-03-25T09:23:29.000Z</time>
      </trkpt>
      <trkpt lat="49.61159" lon="5.6292">
        <ele>307.20001220703</ele>
        <time>2022-03-25T09:23:32.000Z</time>
      </trkpt>
      <trkpt lat="49.61153" lon="5.6292">
        <ele>306.79998779297</ele>
        <time>2022-03-25T09:23:33.000Z</time>
      </trkpt>
      <trkpt lat="49.6114" lon="5.62914">
        <ele>306</ele>
        <time>2022-03-25T09:23:35.000Z</time>
      </trkpt>
      <trkpt lat="49.61133" lon="5.62911">
        <ele>305.39999389648</ele>
        <time>2022-03-25T09:23:36.000Z</time>
      </trkpt>
      <trkpt lat="49.61119" lon="5.62903">
        <ele>304.39999389648</ele>
        <time>2022-03-25T09:23:38.000Z</time>
      </trkpt>
      <trkpt lat="49.61113" lon="5.62898">
        <ele>304</ele>
        <time>2022-03-25T09:23:39.000Z</time>
      </trkpt>
      <trkpt lat="49.611" lon="5.62888">
        <ele>303.79998779297</ele>
        <time>2022-03-25T09:23:41.000Z</time>
      </trkpt>
      <trkpt lat="49.61092" lon="5.62885">
        <ele>303.79998779297</ele>
        <time>2022-03-25T09:23:42.000Z</time>
      </trkpt>
      <trkpt lat="49.61076" lon="5.62879">
        <ele>304.39999389648</ele>
        <time>2022-03-25T09:23:44.000Z</time>
      </trkpt>
      <trkpt lat="49.61069" lon="5.62873">
        <ele>305</ele>
        <time>2022-03-25T09:23:45.000Z</time>
      </trkpt>
      <trkpt lat="49.61055" lon="5.62867">
        <ele>305.60000610352</ele>
        <time>2022-03-25T09:23:47.000Z</time>
      </trkpt>
      <trkpt lat="49.61049" lon="5.62861">
        <ele>305.39999389648</ele>
        <time>2022-03-25T09:23:48.000Z</time>
      </trkpt>
      <trkpt lat="49.61029" lon="5.62841">
        <ele>304</ele>
        <time>2022-03-25T09:23:51.000Z</time>
      </trkpt>
      <trkpt lat="49.61015" lon="5.6283">
        <ele>304</ele>
        <time>2022-03-25T09:23:53.000Z</time>
      </trkpt>
      <trkpt lat="49.61009" lon="5.62823">
        <ele>304</ele>
        <time>2022-03-25T09:23:54.000Z</time>
      </trkpt>
      <trkpt lat="49.6099" lon="5.62807">
        <ele>304</ele>
        <time>2022-03-25T09:23:57.000Z</time>
      </trkpt>
      <trkpt lat="49.60984" lon="5.62801">
        <ele>303.79998779297</ele>
        <time>2022-03-25T09:23:58.000Z</time>
      </trkpt>
      <trkpt lat="49.60957" lon="5.6278">
        <ele>301.60000610352</ele>
        <time>2022-03-25T09:24:02.000Z</time>
      </trkpt>
      <trkpt lat="49.6095" lon="5.62777">
        <ele>301</ele>
        <time>2022-03-25T09:24:03.000Z</time>
      </trkpt>
      <trkpt lat="49.60944" lon="5.62774">
        <ele>300.79998779297</ele>
        <time>2022-03-25T09:24:04.000Z</time>
      </trkpt>
      <trkpt lat="49.60909" lon="5.62755">
        <ele>300</ele>
        <time>2022-03-25T09:24:10.000Z</time>
      </trkpt>
      <trkpt lat="49.60905" lon="5.6275">
        <ele>299.79998779297</ele>
        <time>2022-03-25T09:24:11.000Z</time>
      </trkpt>
      <trkpt lat="49.60888" lon="5.62729">
        <ele>299</ele>
        <time>2022-03-25T09:24:15.000Z</time>
      </trkpt>
      <trkpt lat="49.60884" lon="5.62723">
        <ele>298.79998779297</ele>
        <time>2022-03-25T09:24:16.000Z</time>
      </trkpt>
      <trkpt lat="49.6087" lon="5.62706">
        <ele>298.20001220703</ele>
        <time>2022-03-25T09:24:19.000Z</time>
      </trkpt>
      <trkpt lat="49.60868" lon="5.62699">
        <ele>298</ele>
        <time>2022-03-25T09:24:20.000Z</time>
      </trkpt>
      <trkpt lat="49.60863" lon="5.62663">
        <ele>297.20001220703</ele>
        <time>2022-03-25T09:24:24.000Z</time>
      </trkpt>
      <trkpt lat="49.60859" lon="5.62634">
        <ele>298</ele>
        <time>2022-03-25T09:24:27.000Z</time>
      </trkpt>
      <trkpt lat="49.60854" lon="5.62619">
        <ele>298</ele>
        <time>2022-03-25T09:24:29.000Z</time>
      </trkpt>
      <trkpt lat="49.60849" lon="5.62601">
        <ele>297.39999389648</ele>
        <time>2022-03-25T09:24:31.000Z</time>
      </trkpt>
      <trkpt lat="49.60839" lon="5.62565">
        <ele>297</ele>
        <time>2022-03-25T09:24:35.000Z</time>
      </trkpt>
      <trkpt lat="49.60831" lon="5.62539">
        <ele>296</ele>
        <time>2022-03-25T09:24:38.000Z</time>
      </trkpt>
      <trkpt lat="49.6082" lon="5.62508">
        <ele>294.79998779297</ele>
        <time>2022-03-25T09:24:42.000Z</time>
      </trkpt>
      <trkpt lat="49.60817" lon="5.62503">
        <ele>294.60000610352</ele>
        <time>2022-03-25T09:24:43.000Z</time>
      </trkpt>
      <trkpt lat="49.60813" lon="5.62501">
        <ele>294.39999389648</ele>
        <time>2022-03-25T09:24:44.000Z</time>
      </trkpt>
      <trkpt lat="49.60809" lon="5.62501">
        <ele>294</ele>
        <time>2022-03-25T09:24:45.000Z</time>
      </trkpt>
      <trkpt lat="49.60797" lon="5.62501">
        <ele>294.39999389648</ele>
        <time>2022-03-25T09:24:48.000Z</time>
      </trkpt>
      <trkpt lat="49.60793" lon="5.625">
        <ele>294.39999389648</ele>
        <time>2022-03-25T09:24:49.000Z</time>
      </trkpt>
      <trkpt lat="49.6079" lon="5.62497">
        <ele>294.39999389648</ele>
        <time>2022-03-25T09:24:50.000Z</time>
      </trkpt>
      <trkpt lat="49.60785" lon="5.62489">
        <ele>294.39999389648</ele>
        <time>2022-03-25T09:24:53.000Z</time>
      </trkpt>
      <trkpt lat="49.60784" lon="5.62484">
        <ele>294.20001220703</ele>
        <time>2022-03-25T09:24:54.000Z</time>
      </trkpt>
      <trkpt lat="49.60782" lon="5.62466">
        <ele>293.60000610352</ele>
        <time>2022-03-25T09:24:57.000Z</time>
      </trkpt>
      <trkpt lat="49.6078" lon="5.6246">
        <ele>293.39999389648</ele>
        <time>2022-03-25T09:24:58.000Z</time>
      </trkpt>
      <trkpt lat="49.60775" lon="5.62443">
        <ele>293</ele>
        <time>2022-03-25T09:25:01.000Z</time>
      </trkpt>
      <trkpt lat="49.60772" lon="5.62431">
        <ele>292.60000610352</ele>
        <time>2022-03-25T09:25:03.000Z</time>
      </trkpt>
      <trkpt lat="49.60761" lon="5.62408">
        <ele>292.20001220703</ele>
        <time>2022-03-25T09:25:08.000Z</time>
      </trkpt>
      <trkpt lat="49.60747" lon="5.62402">
        <ele>293</ele>
        <time>2022-03-25T09:25:11.000Z</time>
      </trkpt>
      <trkpt lat="49.60741" lon="5.62402">
        <ele>293.60000610352</ele>
        <time>2022-03-25T09:25:12.000Z</time>
      </trkpt>
      <trkpt lat="49.607" lon="5.62413">
        <ele>297.20001220703</ele>
        <time>2022-03-25T09:25:19.000Z</time>
      </trkpt>
      <trkpt lat="49.60676" lon="5.6243">
        <ele>299.39999389648</ele>
        <time>2022-03-25T09:25:23.000Z</time>
      </trkpt>
      <trkpt lat="49.6067" lon="5.62437">
        <ele>300.60000610352</ele>
        <time>2022-03-25T09:25:24.000Z</time>
      </trkpt>
      <trkpt lat="49.60657" lon="5.62463">
        <ele>301.79998779297</ele>
        <time>2022-03-25T09:25:28.000Z</time>
      </trkpt>
      <trkpt lat="49.60652" lon="5.6248">
        <ele>303.60000610352</ele>
        <time>2022-03-25T09:25:31.000Z</time>
      </trkpt>
      <trkpt lat="49.60651" lon="5.6249">
        <ele>304</ele>
        <time>2022-03-25T09:25:33.000Z</time>
      </trkpt>
      <trkpt lat="49.6065" lon="5.62508">
        <ele>304.39999389648</ele>
        <time>2022-03-25T09:25:36.000Z</time>
      </trkpt>
      <trkpt lat="49.60648" lon="5.62522">
        <ele>305</ele>
        <time>2022-03-25T09:25:38.000Z</time>
      </trkpt>
      <trkpt lat="49.60646" lon="5.62536">
        <ele>305.60000610352</ele>
        <time>2022-03-25T09:25:40.000Z</time>
      </trkpt>
      <trkpt lat="49.60644" lon="5.62558">
        <ele>305.79998779297</ele>
        <time>2022-03-25T09:25:43.000Z</time>
      </trkpt>
      <trkpt lat="49.60638" lon="5.62577">
        <ele>307</ele>
        <time>2022-03-25T09:25:46.000Z</time>
      </trkpt>
      <trkpt lat="49.60636" lon="5.62582">
        <ele>307.39999389648</ele>
        <time>2022-03-25T09:25:47.000Z</time>
      </trkpt>
      <trkpt lat="49.60626" lon="5.62613">
        <ele>309.60000610352</ele>
        <time>2022-03-25T09:25:52.000Z</time>
      </trkpt>
      <trkpt lat="49.60623" lon="5.6262">
        <ele>309.60000610352</ele>
        <time>2022-03-25T09:25:53.000Z</time>
      </trkpt>
      <trkpt lat="49.60611" lon="5.62637">
        <ele>311</ele>
        <time>2022-03-25T09:25:56.000Z</time>
      </trkpt>
      <trkpt lat="49.60607" lon="5.62641">
        <ele>311.39999389648</ele>
        <time>2022-03-25T09:25:57.000Z</time>
      </trkpt>
      <trkpt lat="49.60601" lon="5.62646">
        <ele>312</ele>
        <time>2022-03-25T09:25:59.000Z</time>
      </trkpt>
      <trkpt lat="49.60599" lon="5.62646">
        <ele>312.20001220703</ele>
        <time>2022-03-25T09:26:00.000Z</time>
      </trkpt>
      <trkpt lat="49.60596" lon="5.62647">
        <ele>312.20001220703</ele>
        <time>2022-03-25T09:26:01.000Z</time>
      </trkpt>
      <trkpt lat="49.60594" lon="5.62645">
        <ele>312.39999389648</ele>
        <time>2022-03-25T09:26:02.000Z</time>
      </trkpt>
      <trkpt lat="49.60591" lon="5.62636">
        <ele>312.39999389648</ele>
        <time>2022-03-25T09:26:04.000Z</time>
      </trkpt>
      <trkpt lat="49.60586" lon="5.62624">
        <ele>312.39999389648</ele>
        <time>2022-03-25T09:26:06.000Z</time>
      </trkpt>
      <trkpt lat="49.60577" lon="5.62601">
        <ele>312.20001220703</ele>
        <time>2022-03-25T09:26:10.000Z</time>
      </trkpt>
      <trkpt lat="49.60564" lon="5.62581">
        <ele>312.39999389648</ele>
        <time>2022-03-25T09:26:14.000Z</time>
      </trkpt>
      <trkpt lat="49.60561" lon="5.62576">
        <ele>312.39999389648</ele>
        <time>2022-03-25T09:26:15.000Z</time>
      </trkpt>
      <trkpt lat="49.60549" lon="5.62562">
        <ele>312.79998779297</ele>
        <time>2022-03-25T09:26:19.000Z</time>
      </trkpt>
      <trkpt lat="49.60546" lon="5.62557">
        <ele>312.79998779297</ele>
        <time>2022-03-25T09:26:20.000Z</time>
      </trkpt>
      <trkpt lat="49.6054" lon="5.62548">
        <ele>312.60000610352</ele>
        <time>2022-03-25T09:26:22.000Z</time>
      </trkpt>
      <trkpt lat="49.60531" lon="5.62539">
        <ele>312.60000610352</ele>
        <time>2022-03-25T09:26:24.000Z</time>
      </trkpt>
      <trkpt lat="49.60527" lon="5.62533">
        <ele>312.79998779297</ele>
        <time>2022-03-25T09:26:25.000Z</time>
      </trkpt>
      <trkpt lat="49.6051" lon="5.6252">
        <ele>315</ele>
        <time>2022-03-25T09:26:28.000Z</time>
      </trkpt>
      <trkpt lat="49.60506" lon="5.62517">
        <ele>315.60000610352</ele>
        <time>2022-03-25T09:26:29.000Z</time>
      </trkpt>
      <trkpt lat="49.60502" lon="5.62514">
        <ele>316.20001220703</ele>
        <time>2022-03-25T09:26:30.000Z</time>
      </trkpt>
      <trkpt lat="49.60497" lon="5.62509">
        <ele>317.20001220703</ele>
        <time>2022-03-25T09:26:32.000Z</time>
      </trkpt>
      <trkpt lat="49.60488" lon="5.62502">
        <ele>318.60000610352</ele>
        <time>2022-03-25T09:26:34.000Z</time>
      </trkpt>
      <trkpt lat="49.60485" lon="5.625">
        <ele>319.20001220703</ele>
        <time>2022-03-25T09:26:35.000Z</time>
      </trkpt>
      <trkpt lat="49.60481" lon="5.62498">
        <ele>319.79998779297</ele>
        <time>2022-03-25T09:26:36.000Z</time>
      </trkpt>
      <trkpt lat="49.6047" lon="5.62489">
        <ele>321.39999389648</ele>
        <time>2022-03-25T09:26:39.000Z</time>
      </trkpt>
      <trkpt lat="49.60462" lon="5.62482">
        <ele>322</ele>
        <time>2022-03-25T09:26:41.000Z</time>
      </trkpt>
      <trkpt lat="49.60454" lon="5.62477">
        <ele>322.60000610352</ele>
        <time>2022-03-25T09:26:42.000Z</time>
      </trkpt>
      <trkpt lat="49.60449" lon="5.62473">
        <ele>322.79998779297</ele>
        <time>2022-03-25T09:26:43.000Z</time>
      </trkpt>
      <trkpt lat="49.6044" lon="5.62461">
        <ele>322.39999389648</ele>
        <time>2022-03-25T09:26:45.000Z</time>
      </trkpt>
      <trkpt lat="49.60424" lon="5.6243">
        <ele>322.60000610352</ele>
        <time>2022-03-25T09:26:49.000Z</time>
      </trkpt>
      <trkpt lat="49.60421" lon="5.62422">
        <ele>323</ele>
        <time>2022-03-25T09:26:50.000Z</time>
      </trkpt>
      <trkpt lat="49.60416" lon="5.62409">
        <ele>323.20001220703</ele>
        <time>2022-03-25T09:26:52.000Z</time>
      </trkpt>
      <trkpt lat="49.60414" lon="5.62402">
        <ele>323.39999389648</ele>
        <time>2022-03-25T09:26:53.000Z</time>
      </trkpt>
      <trkpt lat="49.60399" lon="5.6236">
        <ele>325.20001220703</ele>
        <time>2022-03-25T09:26:58.000Z</time>
      </trkpt>
      <trkpt lat="49.60387" lon="5.62324">
        <ele>327.20001220703</ele>
        <time>2022-03-25T09:27:03.000Z</time>
      </trkpt>
      <trkpt lat="49.60383" lon="5.62308">
        <ele>327.60000610352</ele>
        <time>2022-03-25T09:27:05.000Z</time>
      </trkpt>
      <trkpt lat="49.60382" lon="5.62284">
        <ele>327.60000610352</ele>
        <time>2022-03-25T09:27:08.000Z</time>
      </trkpt>
      <trkpt lat="49.60381" lon="5.62235">
        <ele>327</ele>
        <time>2022-03-25T09:27:14.000Z</time>
      </trkpt>
      <trkpt lat="49.60376" lon="5.62186">
        <ele>327</ele>
        <time>2022-03-25T09:27:20.000Z</time>
      </trkpt>
      <trkpt lat="49.60374" lon="5.62179">
        <ele>327</ele>
        <time>2022-03-25T09:27:21.000Z</time>
      </trkpt>
      <trkpt lat="49.6037" lon="5.62154">
        <ele>327.79998779297</ele>
        <time>2022-03-25T09:27:24.000Z</time>
      </trkpt>
      <trkpt lat="49.60369" lon="5.62146">
        <ele>328</ele>
        <time>2022-03-25T09:27:25.000Z</time>
      </trkpt>
      <trkpt lat="49.60359" lon="5.62099">
        <ele>326.20001220703</ele>
        <time>2022-03-25T09:27:31.000Z</time>
      </trkpt>
      <trkpt lat="49.60347" lon="5.62042">
        <ele>324.20001220703</ele>
        <time>2022-03-25T09:27:38.000Z</time>
      </trkpt>
      <trkpt lat="49.6034" lon="5.6201">
        <ele>323.60000610352</ele>
        <time>2022-03-25T09:27:42.000Z</time>
      </trkpt>
      <trkpt lat="49.60337" lon="5.61994">
        <ele>323.39999389648</ele>
        <time>2022-03-25T09:27:44.000Z</time>
      </trkpt>
      <trkpt lat="49.60323" lon="5.61936">
        <ele>323</ele>
        <time>2022-03-25T09:27:51.000Z</time>
      </trkpt>
      <trkpt lat="49.60301" lon="5.61866">
        <ele>325.60000610352</ele>
        <time>2022-03-25T09:27:59.000Z</time>
      </trkpt>
      <trkpt lat="49.60286" lon="5.61821">
        <ele>327.60000610352</ele>
        <time>2022-03-25T09:28:05.000Z</time>
      </trkpt>
      <trkpt lat="49.60277" lon="5.61796">
        <ele>328.20001220703</ele>
        <time>2022-03-25T09:28:08.000Z</time>
      </trkpt>
      <trkpt lat="49.60268" lon="5.61771">
        <ele>328.39999389648</ele>
        <time>2022-03-25T09:28:11.000Z</time>
      </trkpt>
      <trkpt lat="49.60248" lon="5.61721">
        <ele>328.39999389648</ele>
        <time>2022-03-25T09:28:17.000Z</time>
      </trkpt>
      <trkpt lat="49.60238" lon="5.61696">
        <ele>327.79998779297</ele>
        <time>2022-03-25T09:28:20.000Z</time>
      </trkpt>
      <trkpt lat="49.60231" lon="5.61679">
        <ele>327.60000610352</ele>
        <time>2022-03-25T09:28:22.000Z</time>
      </trkpt>
      <trkpt lat="49.60209" lon="5.6162">
        <ele>327</ele>
        <time>2022-03-25T09:28:29.000Z</time>
      </trkpt>
      <trkpt lat="49.60198" lon="5.61581">
        <ele>328</ele>
        <time>2022-03-25T09:28:34.000Z</time>
      </trkpt>
      <trkpt lat="49.60183" lon="5.6154">
        <ele>326.79998779297</ele>
        <time>2022-03-25T09:28:39.000Z</time>
      </trkpt>
      <trkpt lat="49.60159" lon="5.61478">
        <ele>324.79998779297</ele>
        <time>2022-03-25T09:28:46.000Z</time>
      </trkpt>
      <trkpt lat="49.60155" lon="5.61469">
        <ele>324.79998779297</ele>
        <time>2022-03-25T09:28:47.000Z</time>
      </trkpt>
      <trkpt lat="49.60136" lon="5.61417">
        <ele>323.79998779297</ele>
        <time>2022-03-25T09:28:53.000Z</time>
      </trkpt>
      <trkpt lat="49.60116" lon="5.61363">
        <ele>323</ele>
        <time>2022-03-25T09:28:59.000Z</time>
      </trkpt>
      <trkpt lat="49.60112" lon="5.61355">
        <ele>322.79998779297</ele>
        <time>2022-03-25T09:29:00.000Z</time>
      </trkpt>
      <trkpt lat="49.60094" lon="5.61311">
        <ele>323.20001220703</ele>
        <time>2022-03-25T09:29:05.000Z</time>
      </trkpt>
      <trkpt lat="49.6009" lon="5.61302">
        <ele>323.39999389648</ele>
        <time>2022-03-25T09:29:06.000Z</time>
      </trkpt>
      <trkpt lat="49.60075" lon="5.61266">
        <ele>322</ele>
        <time>2022-03-25T09:29:10.000Z</time>
      </trkpt>
      <trkpt lat="49.60062" lon="5.61239">
        <ele>319.60000610352</ele>
        <time>2022-03-25T09:29:13.000Z</time>
      </trkpt>
      <trkpt lat="49.60057" lon="5.61229">
        <ele>318.39999389648</ele>
        <time>2022-03-25T09:29:14.000Z</time>
      </trkpt>
      <trkpt lat="49.60037" lon="5.61192">
        <ele>316.39999389648</ele>
        <time>2022-03-25T09:29:18.000Z</time>
      </trkpt>
      <trkpt lat="49.60027" lon="5.61173">
        <ele>317</ele>
        <time>2022-03-25T09:29:20.000Z</time>
      </trkpt>
      <trkpt lat="49.60016" lon="5.61153">
        <ele>317.39999389648</ele>
        <time>2022-03-25T09:29:22.000Z</time>
      </trkpt>
      <trkpt lat="49.60001" lon="5.61122">
        <ele>317.39999389648</ele>
        <time>2022-03-25T09:29:25.000Z</time>
      </trkpt>
      <trkpt lat="49.59978" lon="5.61082">
        <ele>316.79998779297</ele>
        <time>2022-03-25T09:29:29.000Z</time>
      </trkpt>
      <trkpt lat="49.59973" lon="5.61073">
        <ele>316.20001220703</ele>
        <time>2022-03-25T09:29:30.000Z</time>
      </trkpt>
      <trkpt lat="49.59961" lon="5.61054">
        <ele>314.39999389648</ele>
        <time>2022-03-25T09:29:32.000Z</time>
      </trkpt>
      <trkpt lat="49.59945" lon="5.6102">
        <ele>311</ele>
        <time>2022-03-25T09:29:35.000Z</time>
      </trkpt>
      <trkpt lat="49.5994" lon="5.61009">
        <ele>309.39999389648</ele>
        <time>2022-03-25T09:29:36.000Z</time>
      </trkpt>
      <trkpt lat="49.59931" lon="5.60984">
        <ele>306.20001220703</ele>
        <time>2022-03-25T09:29:38.000Z</time>
      </trkpt>
      <trkpt lat="49.59924" lon="5.60957">
        <ele>302.60000610352</ele>
        <time>2022-03-25T09:29:40.000Z</time>
      </trkpt>
      <trkpt lat="49.59922" lon="5.60943">
        <ele>300.79998779297</ele>
        <time>2022-03-25T09:29:41.000Z</time>
      </trkpt>
      <trkpt lat="49.59919" lon="5.60928">
        <ele>299</ele>
        <time>2022-03-25T09:29:42.000Z</time>
      </trkpt>
      <trkpt lat="49.59918" lon="5.60914">
        <ele>297.79998779297</ele>
        <time>2022-03-25T09:29:43.000Z</time>
      </trkpt>
      <trkpt lat="49.59917" lon="5.60901">
        <ele>297.39999389648</ele>
        <time>2022-03-25T09:29:44.000Z</time>
      </trkpt>
      <trkpt lat="49.59915" lon="5.6089">
        <ele>297</ele>
        <time>2022-03-25T09:29:45.000Z</time>
      </trkpt>
      <trkpt lat="49.59912" lon="5.60877">
        <ele>296.79998779297</ele>
        <time>2022-03-25T09:29:46.000Z</time>
      </trkpt>
      <trkpt lat="49.59909" lon="5.60855">
        <ele>295.60000610352</ele>
        <time>2022-03-25T09:29:48.000Z</time>
      </trkpt>
      <trkpt lat="49.59907" lon="5.60831">
        <ele>294.79998779297</ele>
        <time>2022-03-25T09:29:50.000Z</time>
      </trkpt>
      <trkpt lat="49.59908" lon="5.60819">
        <ele>294.20001220703</ele>
        <time>2022-03-25T09:29:51.000Z</time>
      </trkpt>
      <trkpt lat="49.5991" lon="5.60807">
        <ele>293.20001220703</ele>
        <time>2022-03-25T09:29:52.000Z</time>
      </trkpt>
      <trkpt lat="49.59913" lon="5.60796">
        <ele>292</ele>
        <time>2022-03-25T09:29:53.000Z</time>
      </trkpt>
      <trkpt lat="49.59917" lon="5.60785">
        <ele>291.20001220703</ele>
        <time>2022-03-25T09:29:54.000Z</time>
      </trkpt>
      <trkpt lat="49.59921" lon="5.60773">
        <ele>290.20001220703</ele>
        <time>2022-03-25T09:29:55.000Z</time>
      </trkpt>
      <trkpt lat="49.59924" lon="5.60761">
        <ele>289</ele>
        <time>2022-03-25T09:29:56.000Z</time>
      </trkpt>
      <trkpt lat="49.59927" lon="5.60748">
        <ele>287.79998779297</ele>
        <time>2022-03-25T09:29:57.000Z</time>
      </trkpt>
      <trkpt lat="49.5993" lon="5.60735">
        <ele>286.60000610352</ele>
        <time>2022-03-25T09:29:58.000Z</time>
      </trkpt>
      <trkpt lat="49.59932" lon="5.60721">
        <ele>285.39999389648</ele>
        <time>2022-03-25T09:29:59.000Z</time>
      </trkpt>
      <trkpt lat="49.59932" lon="5.60707">
        <ele>284.39999389648</ele>
        <time>2022-03-25T09:30:00.000Z</time>
      </trkpt>
      <trkpt lat="49.59932" lon="5.60692">
        <ele>284</ele>
        <time>2022-03-25T09:30:01.000Z</time>
      </trkpt>
      <trkpt lat="49.59932" lon="5.60676">
        <ele>283.39999389648</ele>
        <time>2022-03-25T09:30:02.000Z</time>
      </trkpt>
      <trkpt lat="49.59931" lon="5.6066">
        <ele>282.39999389648</ele>
        <time>2022-03-25T09:30:03.000Z</time>
      </trkpt>
      <trkpt lat="49.59926" lon="5.60644">
        <ele>281.60000610352</ele>
        <time>2022-03-25T09:30:04.000Z</time>
      </trkpt>
      <trkpt lat="49.59922" lon="5.6063">
        <ele>281</ele>
        <time>2022-03-25T09:30:05.000Z</time>
      </trkpt>
      <trkpt lat="49.59917" lon="5.60617">
        <ele>280.39999389648</ele>
        <time>2022-03-25T09:30:06.000Z</time>
      </trkpt>
      <trkpt lat="49.59909" lon="5.60593">
        <ele>278</ele>
        <time>2022-03-25T09:30:08.000Z</time>
      </trkpt>
      <trkpt lat="49.59903" lon="5.60565">
        <ele>274.60000610352</ele>
        <time>2022-03-25T09:30:10.000Z</time>
      </trkpt>
      <trkpt lat="49.599" lon="5.60551">
        <ele>273</ele>
        <time>2022-03-25T09:30:11.000Z</time>
      </trkpt>
      <trkpt lat="49.59895" lon="5.60537">
        <ele>271.60000610352</ele>
        <time>2022-03-25T09:30:12.000Z</time>
      </trkpt>
      <trkpt lat="49.59888" lon="5.60508">
        <ele>269.39999389648</ele>
        <time>2022-03-25T09:30:14.000Z</time>
      </trkpt>
      <trkpt lat="49.59886" lon="5.60494">
        <ele>268.39999389648</ele>
        <time>2022-03-25T09:30:15.000Z</time>
      </trkpt>
      <trkpt lat="49.59883" lon="5.6048">
        <ele>267.39999389648</ele>
        <time>2022-03-25T09:30:16.000Z</time>
      </trkpt>
      <trkpt lat="49.59878" lon="5.60451">
        <ele>265.20001220703</ele>
        <time>2022-03-25T09:30:18.000Z</time>
      </trkpt>
      <trkpt lat="49.59874" lon="5.60441">
        <ele>264.60000610352</ele>
        <time>2022-03-25T09:30:19.000Z</time>
      </trkpt>
      <trkpt lat="49.5987" lon="5.6043">
        <ele>263.79998779297</ele>
        <time>2022-03-25T09:30:20.000Z</time>
      </trkpt>
      <trkpt lat="49.59861" lon="5.60408">
        <ele>262.39999389648</ele>
        <time>2022-03-25T09:30:22.000Z</time>
      </trkpt>
      <trkpt lat="49.59856" lon="5.60388">
        <ele>261.60000610352</ele>
        <time>2022-03-25T09:30:24.000Z</time>
      </trkpt>
      <trkpt lat="49.59854" lon="5.60378">
        <ele>261.20001220703</ele>
        <time>2022-03-25T09:30:25.000Z</time>
      </trkpt>
      <trkpt lat="49.59851" lon="5.60369">
        <ele>261</ele>
        <time>2022-03-25T09:30:26.000Z</time>
      </trkpt>
      <trkpt lat="49.59844" lon="5.60351">
        <ele>260</ele>
        <time>2022-03-25T09:30:28.000Z</time>
      </trkpt>
      <trkpt lat="49.59839" lon="5.60342">
        <ele>259.39999389648</ele>
        <time>2022-03-25T09:30:29.000Z</time>
      </trkpt>
      <trkpt lat="49.59833" lon="5.60333">
        <ele>258.79998779297</ele>
        <time>2022-03-25T09:30:30.000Z</time>
      </trkpt>
      <trkpt lat="49.5982" lon="5.60317">
        <ele>257.79998779297</ele>
        <time>2022-03-25T09:30:32.000Z</time>
      </trkpt>
      <trkpt lat="49.59813" lon="5.60308">
        <ele>257.39999389648</ele>
        <time>2022-03-25T09:30:33.000Z</time>
      </trkpt>
      <trkpt lat="49.59807" lon="5.60296">
        <ele>256.60000610352</ele>
        <time>2022-03-25T09:30:34.000Z</time>
      </trkpt>
      <trkpt lat="49.59793" lon="5.60274">
        <ele>255.60000610352</ele>
        <time>2022-03-25T09:30:36.000Z</time>
      </trkpt>
      <trkpt lat="49.59787" lon="5.60264">
        <ele>254.80000305176</ele>
        <time>2022-03-25T09:30:37.000Z</time>
      </trkpt>
      <trkpt lat="49.5978" lon="5.60255">
        <ele>254.19999694824</ele>
        <time>2022-03-25T09:30:38.000Z</time>
      </trkpt>
      <trkpt lat="49.59754" lon="5.6022">
        <ele>254.19999694824</ele>
        <time>2022-03-25T09:30:42.000Z</time>
      </trkpt>
      <trkpt lat="49.59748" lon="5.60211">
        <ele>254.60000610352</ele>
        <time>2022-03-25T09:30:43.000Z</time>
      </trkpt>
      <trkpt lat="49.59729" lon="5.60177">
        <ele>255.19999694824</ele>
        <time>2022-03-25T09:30:46.000Z</time>
      </trkpt>
      <trkpt lat="49.59716" lon="5.60157">
        <ele>254.60000610352</ele>
        <time>2022-03-25T09:30:48.000Z</time>
      </trkpt>
      <trkpt lat="49.59697" lon="5.60131">
        <ele>253.60000610352</ele>
        <time>2022-03-25T09:30:51.000Z</time>
      </trkpt>
      <trkpt lat="49.59687" lon="5.60118">
        <ele>253.19999694824</ele>
        <time>2022-03-25T09:30:53.000Z</time>
      </trkpt>
      <trkpt lat="49.59666" lon="5.60093">
        <ele>251.60000610352</ele>
        <time>2022-03-25T09:30:57.000Z</time>
      </trkpt>
      <trkpt lat="49.59642" lon="5.60069">
        <ele>249.60000610352</ele>
        <time>2022-03-25T09:31:01.000Z</time>
      </trkpt>
      <trkpt lat="49.59631" lon="5.60058">
        <ele>248</ele>
        <time>2022-03-25T09:31:03.000Z</time>
      </trkpt>
      <trkpt lat="49.59615" lon="5.60046">
        <ele>246.19999694824</ele>
        <time>2022-03-25T09:31:05.000Z</time>
      </trkpt>
      <trkpt lat="49.59608" lon="5.60041">
        <ele>245</ele>
        <time>2022-03-25T09:31:06.000Z</time>
      </trkpt>
      <trkpt lat="49.59592" lon="5.60033">
        <ele>242.80000305176</ele>
        <time>2022-03-25T09:31:08.000Z</time>
      </trkpt>
      <trkpt lat="49.59575" lon="5.60027">
        <ele>240.39999389648</ele>
        <time>2022-03-25T09:31:10.000Z</time>
      </trkpt>
      <trkpt lat="49.59565" lon="5.60025">
        <ele>239</ele>
        <time>2022-03-25T09:31:11.000Z</time>
      </trkpt>
      <trkpt lat="49.59556" lon="5.60023">
        <ele>238</ele>
        <time>2022-03-25T09:31:12.000Z</time>
      </trkpt>
      <trkpt lat="49.59538" lon="5.60024">
        <ele>237.19999694824</ele>
        <time>2022-03-25T09:31:14.000Z</time>
      </trkpt>
      <trkpt lat="49.59523" lon="5.6002">
        <ele>235.80000305176</ele>
        <time>2022-03-25T09:31:16.000Z</time>
      </trkpt>
      <trkpt lat="49.59515" lon="5.60005">
        <ele>232.60000610352</ele>
        <time>2022-03-25T09:31:18.000Z</time>
      </trkpt>
      <trkpt lat="49.59511" lon="5.59989">
        <ele>230.39999389648</ele>
        <time>2022-03-25T09:31:20.000Z</time>
      </trkpt>
      <trkpt lat="49.5951" lon="5.5998">
        <ele>229.39999389648</ele>
        <time>2022-03-25T09:31:21.000Z</time>
      </trkpt>
      <trkpt lat="49.59503" lon="5.59936">
        <ele>227.39999389648</ele>
        <time>2022-03-25T09:31:26.000Z</time>
      </trkpt>
      <trkpt lat="49.59502" lon="5.59927">
        <ele>227.60000610352</ele>
        <time>2022-03-25T09:31:27.000Z</time>
      </trkpt>
      <trkpt lat="49.59497" lon="5.59873">
        <ele>231.19999694824</ele>
        <time>2022-03-25T09:31:33.000Z</time>
      </trkpt>
      <trkpt lat="49.59495" lon="5.59856">
        <ele>232.60000610352</ele>
        <time>2022-03-25T09:31:35.000Z</time>
      </trkpt>
      <trkpt lat="49.5949" lon="5.59842">
        <ele>233.60000610352</ele>
        <time>2022-03-25T09:31:37.000Z</time>
      </trkpt>
      <trkpt lat="49.59487" lon="5.59836">
        <ele>234</ele>
        <time>2022-03-25T09:31:38.000Z</time>
      </trkpt>
      <trkpt lat="49.59479" lon="5.59817">
        <ele>238.80000305176</ele>
        <time>2022-03-25T09:31:41.000Z</time>
      </trkpt>
      <trkpt lat="49.59493" lon="5.59817">
        <ele>238.39999389648</ele>
        <time>2022-03-25T09:33:27.000Z</time>
      </trkpt>
      <trkpt lat="49.59504" lon="5.59816">
        <ele>238.39999389648</ele>
        <time>2022-03-25T09:33:30.000Z</time>
      </trkpt>
      <trkpt lat="49.59526" lon="5.59803">
        <ele>241.80000305176</ele>
        <time>2022-03-25T09:33:37.000Z</time>
      </trkpt>
      <trkpt lat="49.59538" lon="5.59794">
        <ele>243</ele>
        <time>2022-03-25T09:33:40.000Z</time>
      </trkpt>
      <trkpt lat="49.59546" lon="5.59789">
        <ele>242.80000305176</ele>
        <time>2022-03-25T09:33:42.000Z</time>
      </trkpt>
      <trkpt lat="49.59556" lon="5.59784">
        <ele>241.80000305176</ele>
        <time>2022-03-25T09:33:44.000Z</time>
      </trkpt>
      <trkpt lat="49.59561" lon="5.59781">
        <ele>242</ele>
        <time>2022-03-25T09:33:45.000Z</time>
      </trkpt>
      <trkpt lat="49.59573" lon="5.59775">
        <ele>243.80000305176</ele>
        <time>2022-03-25T09:33:47.000Z</time>
      </trkpt>
      <trkpt lat="49.59605" lon="5.59757">
        <ele>247.19999694824</ele>
        <time>2022-03-25T09:33:53.000Z</time>
      </trkpt>
      <trkpt lat="49.59616" lon="5.59751">
        <ele>248.19999694824</ele>
        <time>2022-03-25T09:33:55.000Z</time>
      </trkpt>
      <trkpt lat="49.59658" lon="5.59729">
        <ele>250</ele>
        <time>2022-03-25T09:34:03.000Z</time>
      </trkpt>
      <trkpt lat="49.59669" lon="5.59724">
        <ele>250.19999694824</ele>
        <time>2022-03-25T09:34:05.000Z</time>
      </trkpt>
      <trkpt lat="49.59707" lon="5.59707">
        <ele>248.60000610352</ele>
        <time>2022-03-25T09:34:12.000Z</time>
      </trkpt>
      <trkpt lat="49.59759" lon="5.59684">
        <ele>246</ele>
        <time>2022-03-25T09:34:22.000Z</time>
      </trkpt>
      <trkpt lat="49.59786" lon="5.59674">
        <ele>245.60000610352</ele>
        <time>2022-03-25T09:34:27.000Z</time>
      </trkpt>
      <trkpt lat="49.59796" lon="5.5967">
        <ele>245.19999694824</ele>
        <time>2022-03-25T09:34:29.000Z</time>
      </trkpt>
      <trkpt lat="49.59828" lon="5.59658">
        <ele>244.60000610352</ele>
        <time>2022-03-25T09:34:35.000Z</time>
      </trkpt>
      <trkpt lat="49.59878" lon="5.59639">
        <ele>247.19999694824</ele>
        <time>2022-03-25T09:34:44.000Z</time>
      </trkpt>
      <trkpt lat="49.59915" lon="5.59625">
        <ele>248</ele>
        <time>2022-03-25T09:34:51.000Z</time>
      </trkpt>
      <trkpt lat="49.59941" lon="5.59618">
        <ele>249.39999389648</ele>
        <time>2022-03-25T09:34:56.000Z</time>
      </trkpt>
      <trkpt lat="49.59952" lon="5.59617">
        <ele>249.80000305176</ele>
        <time>2022-03-25T09:34:58.000Z</time>
      </trkpt>
      <trkpt lat="49.59996" lon="5.59617">
        <ele>253</ele>
        <time>2022-03-25T09:35:06.000Z</time>
      </trkpt>
      <trkpt lat="49.60032" lon="5.59607">
        <ele>253.80000305176</ele>
        <time>2022-03-25T09:35:13.000Z</time>
      </trkpt>
      <trkpt lat="49.60051" lon="5.596">
        <ele>254</ele>
        <time>2022-03-25T09:35:18.000Z</time>
      </trkpt>
      <trkpt lat="49.60059" lon="5.59595">
        <ele>254</ele>
        <time>2022-03-25T09:35:21.000Z</time>
      </trkpt>
      <trkpt lat="49.60061" lon="5.59592">
        <ele>254.19999694824</ele>
        <time>2022-03-25T09:35:22.000Z</time>
      </trkpt>
      <trkpt lat="49.60063" lon="5.59589">
        <ele>254.60000610352</ele>
        <time>2022-03-25T09:35:23.000Z</time>
      </trkpt>
      <trkpt lat="49.60064" lon="5.59581">
        <ele>255.39999389648</ele>
        <time>2022-03-25T09:35:25.000Z</time>
      </trkpt>
      <trkpt lat="49.60064" lon="5.59578">
        <ele>255.60000610352</ele>
        <time>2022-03-25T09:35:26.000Z</time>
      </trkpt>
      <trkpt lat="49.60064" lon="5.59575">
        <ele>256</ele>
        <time>2022-03-25T09:35:27.000Z</time>
      </trkpt>
      <trkpt lat="49.60064" lon="5.59571">
        <ele>256.39999389648</ele>
        <time>2022-03-25T09:35:28.000Z</time>
      </trkpt>
      <trkpt lat="49.60063" lon="5.59537">
        <ele>260</ele>
        <time>2022-03-25T09:36:54.000Z</time>
      </trkpt>
      <trkpt lat="49.6006" lon="5.59527">
        <ele>261.39999389648</ele>
        <time>2022-03-25T09:36:57.000Z</time>
      </trkpt>
      <trkpt lat="49.60059" lon="5.59521">
        <ele>262</ele>
        <time>2022-03-25T09:36:59.000Z</time>
      </trkpt>
      <trkpt lat="49.60054" lon="5.59511">
        <ele>263.39999389648</ele>
        <time>2022-03-25T09:37:03.000Z</time>
      </trkpt>
      <trkpt lat="49.60052" lon="5.59507">
        <ele>264</ele>
        <time>2022-03-25T09:37:05.000Z</time>
      </trkpt>
      <trkpt lat="49.6005" lon="5.59505">
        <ele>264.39999389648</ele>
        <time>2022-03-25T09:37:06.000Z</time>
      </trkpt>
      <trkpt lat="49.60044" lon="5.59499">
        <ele>265.39999389648</ele>
        <time>2022-03-25T09:37:09.000Z</time>
      </trkpt>
      <trkpt lat="49.60039" lon="5.59495">
        <ele>266.20001220703</ele>
        <time>2022-03-25T09:37:12.000Z</time>
      </trkpt>
      <trkpt lat="49.60033" lon="5.59491">
        <ele>267</ele>
        <time>2022-03-25T09:37:18.000Z</time>
      </trkpt>
      <trkpt lat="49.60029" lon="5.59489">
        <ele>267.60000610352</ele>
        <time>2022-03-25T09:37:20.000Z</time>
      </trkpt>
      <trkpt lat="49.6002" lon="5.59488">
        <ele>268.79998779297</ele>
        <time>2022-03-25T09:37:28.000Z</time>
      </trkpt>
      <trkpt lat="49.60018" lon="5.59487">
        <ele>269</ele>
        <time>2022-03-25T09:37:29.000Z</time>
      </trkpt>
      <trkpt lat="49.60014" lon="5.59487">
        <ele>269.60000610352</ele>
        <time>2022-03-25T09:37:31.000Z</time>
      </trkpt>
      <trkpt lat="49.60007" lon="5.59485">
        <ele>270.39999389648</ele>
        <time>2022-03-25T09:37:34.000Z</time>
      </trkpt>
      <trkpt lat="49.6" lon="5.5948">
        <ele>271.60000610352</ele>
        <time>2022-03-25T09:37:37.000Z</time>
      </trkpt>
      <trkpt lat="49.59996" lon="5.59473">
        <ele>272.79998779297</ele>
        <time>2022-03-25T09:37:40.000Z</time>
      </trkpt>
      <trkpt lat="49.59995" lon="5.59468">
        <ele>273.79998779297</ele>
        <time>2022-03-25T09:37:42.000Z</time>
      </trkpt>
      <trkpt lat="49.59995" lon="5.59466">
        <ele>274.20001220703</ele>
        <time>2022-03-25T09:37:43.000Z</time>
      </trkpt>
      <trkpt lat="49.59994" lon="5.59463">
        <ele>274.39999389648</ele>
        <time>2022-03-25T09:37:44.000Z</time>
      </trkpt>
      <trkpt lat="49.59996" lon="5.59457">
        <ele>274.79998779297</ele>
        <time>2022-03-25T09:37:47.000Z</time>
      </trkpt>
      <trkpt lat="49.59997" lon="5.59456">
        <ele>274.79998779297</ele>
        <time>2022-03-25T09:37:48.000Z</time>
      </trkpt>
      <trkpt lat="49.60008" lon="5.59449">
        <ele>274</ele>
        <time>2022-03-25T09:37:53.000Z</time>
      </trkpt>
      <trkpt lat="49.60019" lon="5.59444">
        <ele>272.79998779297</ele>
        <time>2022-03-25T09:37:58.000Z</time>
      </trkpt>
      <trkpt lat="49.60036" lon="5.59441">
        <ele>270.60000610352</ele>
        <time>2022-03-25T09:38:04.000Z</time>
      </trkpt>
      <trkpt lat="49.60048" lon="5.59441">
        <ele>269.39999389648</ele>
        <time>2022-03-25T09:38:08.000Z</time>
      </trkpt>
      <trkpt lat="49.60052" lon="5.5944">
        <ele>268.79998779297</ele>
        <time>2022-03-25T09:38:09.000Z</time>
      </trkpt>
      <trkpt lat="49.60075" lon="5.59435">
        <ele>267.79998779297</ele>
        <time>2022-03-25T09:38:15.000Z</time>
      </trkpt>
      <trkpt lat="49.60102" lon="5.59434">
        <ele>269.60000610352</ele>
        <time>2022-03-25T09:38:21.000Z</time>
      </trkpt>
      <trkpt lat="49.60111" lon="5.59434">
        <ele>270.20001220703</ele>
        <time>2022-03-25T09:38:23.000Z</time>
      </trkpt>
      <trkpt lat="49.60128" lon="5.59436">
        <ele>272.39999389648</ele>
        <time>2022-03-25T09:38:28.000Z</time>
      </trkpt>
      <trkpt lat="49.60149" lon="5.59441">
        <ele>275.79998779297</ele>
        <time>2022-03-25T09:38:35.000Z</time>
      </trkpt>
      <trkpt lat="49.60175" lon="5.59446">
        <ele>279</ele>
        <time>2022-03-25T09:38:42.000Z</time>
      </trkpt>
      <trkpt lat="49.60196" lon="5.59449">
        <ele>281.60000610352</ele>
        <time>2022-03-25T09:38:48.000Z</time>
      </trkpt>
      <trkpt lat="49.6022" lon="5.59458">
        <ele>283.79998779297</ele>
        <time>2022-03-25T09:38:55.000Z</time>
      </trkpt>
      <trkpt lat="49.60224" lon="5.59459">
        <ele>284</ele>
        <time>2022-03-25T09:38:56.000Z</time>
      </trkpt>
      <trkpt lat="49.60252" lon="5.59465">
        <ele>283</ele>
        <time>2022-03-25T09:39:03.000Z</time>
      </trkpt>
      <trkpt lat="49.60279" lon="5.59467">
        <ele>281.20001220703</ele>
        <time>2022-03-25T09:39:09.000Z</time>
      </trkpt>
      <trkpt lat="49.60298" lon="5.5946">
        <ele>281</ele>
        <time>2022-03-25T09:39:13.000Z</time>
      </trkpt>
      <trkpt lat="49.60305" lon="5.59453">
        <ele>282</ele>
        <time>2022-03-25T09:39:15.000Z</time>
      </trkpt>
      <trkpt lat="49.60318" lon="5.59426">
        <ele>284</ele>
        <time>2022-03-25T09:39:21.000Z</time>
      </trkpt>
      <trkpt lat="49.60334" lon="5.59413">
        <ele>284</ele>
        <time>2022-03-25T09:39:26.000Z</time>
      </trkpt>
      <trkpt lat="49.60354" lon="5.59409">
        <ele>281.60000610352</ele>
        <time>2022-03-25T09:39:31.000Z</time>
      </trkpt>
      <trkpt lat="49.60369" lon="5.59387">
        <ele>281.20001220703</ele>
        <time>2022-03-25T09:39:36.000Z</time>
      </trkpt>
      <trkpt lat="49.6037" lon="5.59375">
        <ele>282.39999389648</ele>
        <time>2022-03-25T09:39:38.000Z</time>
      </trkpt>
      <trkpt lat="49.60371" lon="5.59348">
        <ele>284.20001220703</ele>
        <time>2022-03-25T09:39:42.000Z</time>
      </trkpt>
      <trkpt lat="49.60375" lon="5.59309">
        <ele>285.39999389648</ele>
        <time>2022-03-25T09:39:46.000Z</time>
      </trkpt>
      <trkpt lat="49.60375" lon="5.59298">
        <ele>285.39999389648</ele>
        <time>2022-03-25T09:39:47.000Z</time>
      </trkpt>
      <trkpt lat="49.60377" lon="5.59273">
        <ele>285.20001220703</ele>
        <time>2022-03-25T09:39:50.000Z</time>
      </trkpt>
      <trkpt lat="49.60376" lon="5.59264">
        <ele>285.20001220703</ele>
        <time>2022-03-25T09:39:51.000Z</time>
      </trkpt>
      <trkpt lat="49.60376" lon="5.59256">
        <ele>285.39999389648</ele>
        <time>2022-03-25T09:39:52.000Z</time>
      </trkpt>
      <trkpt lat="49.60375" lon="5.59226">
        <ele>284.79998779297</ele>
        <time>2022-03-25T09:39:57.000Z</time>
      </trkpt>
      <trkpt lat="49.60375" lon="5.5921">
        <ele>284.79998779297</ele>
        <time>2022-03-25T09:40:00.000Z</time>
      </trkpt>
      <trkpt lat="49.60374" lon="5.59196">
        <ele>285</ele>
        <time>2022-03-25T09:40:02.000Z</time>
      </trkpt>
      <trkpt lat="49.60369" lon="5.59177">
        <ele>285.39999389648</ele>
        <time>2022-03-25T09:40:05.000Z</time>
      </trkpt>
      <trkpt lat="49.60365" lon="5.59165">
        <ele>286</ele>
        <time>2022-03-25T09:40:07.000Z</time>
      </trkpt>
      <trkpt lat="49.60361" lon="5.59153">
        <ele>286.60000610352</ele>
        <time>2022-03-25T09:40:09.000Z</time>
      </trkpt>
      <trkpt lat="49.60356" lon="5.59128">
        <ele>286.79998779297</ele>
        <time>2022-03-25T09:40:13.000Z</time>
      </trkpt>
      <trkpt lat="49.60353" lon="5.5911">
        <ele>287.39999389648</ele>
        <time>2022-03-25T09:40:16.000Z</time>
      </trkpt>
      <trkpt lat="49.6035" lon="5.59099">
        <ele>288</ele>
        <time>2022-03-25T09:40:18.000Z</time>
      </trkpt>
      <trkpt lat="49.60346" lon="5.59083">
        <ele>288.60000610352</ele>
        <time>2022-03-25T09:40:21.000Z</time>
      </trkpt>
      <trkpt lat="49.6034" lon="5.59068">
        <ele>289.39999389648</ele>
        <time>2022-03-25T09:40:24.000Z</time>
      </trkpt>
      <trkpt lat="49.60339" lon="5.59063">
        <ele>289.60000610352</ele>
        <time>2022-03-25T09:40:25.000Z</time>
      </trkpt>
      <trkpt lat="49.60334" lon="5.59041">
        <ele>291</ele>
        <time>2022-03-25T09:40:29.000Z</time>
      </trkpt>
      <trkpt lat="49.60333" lon="5.59026">
        <ele>291.60000610352</ele>
        <time>2022-03-25T09:40:32.000Z</time>
      </trkpt>
      <trkpt lat="49.6033" lon="5.5901">
        <ele>293</ele>
        <time>2022-03-25T09:40:35.000Z</time>
      </trkpt>
      <trkpt lat="49.60329" lon="5.58998">
        <ele>293.60000610352</ele>
        <time>2022-03-25T09:40:37.000Z</time>
      </trkpt>
      <trkpt lat="49.60327" lon="5.58974">
        <ele>295</ele>
        <time>2022-03-25T09:40:41.000Z</time>
      </trkpt>
      <trkpt lat="49.60324" lon="5.58945">
        <ele>295.60000610352</ele>
        <time>2022-03-25T09:40:46.000Z</time>
      </trkpt>
      <trkpt lat="49.60325" lon="5.58924">
        <ele>296.39999389648</ele>
        <time>2022-03-25T09:40:50.000Z</time>
      </trkpt>
      <trkpt lat="49.60325" lon="5.58912">
        <ele>296.79998779297</ele>
        <time>2022-03-25T09:40:52.000Z</time>
      </trkpt>
      <trkpt lat="49.60326" lon="5.58899">
        <ele>297.39999389648</ele>
        <time>2022-03-25T09:40:54.000Z</time>
      </trkpt>
      <trkpt lat="49.60328" lon="5.58887">
        <ele>297.79998779297</ele>
        <time>2022-03-25T09:40:56.000Z</time>
      </trkpt>
      <trkpt lat="49.60327" lon="5.58874">
        <ele>298.60000610352</ele>
        <time>2022-03-25T09:40:58.000Z</time>
      </trkpt>
      <trkpt lat="49.60326" lon="5.58868">
        <ele>299</ele>
        <time>2022-03-25T09:40:59.000Z</time>
      </trkpt>
      <trkpt lat="49.60323" lon="5.58851">
        <ele>300.39999389648</ele>
        <time>2022-03-25T09:41:02.000Z</time>
      </trkpt>
      <trkpt lat="49.60324" lon="5.58841">
        <ele>301.60000610352</ele>
        <time>2022-03-25T09:41:04.000Z</time>
      </trkpt>
      <trkpt lat="49.60324" lon="5.58836">
        <ele>302</ele>
        <time>2022-03-25T09:41:05.000Z</time>
      </trkpt>
      <trkpt lat="49.60324" lon="5.58824">
        <ele>303.39999389648</ele>
        <time>2022-03-25T09:41:08.000Z</time>
      </trkpt>
      <trkpt lat="49.60323" lon="5.58812">
        <ele>304.60000610352</ele>
        <time>2022-03-25T09:41:11.000Z</time>
      </trkpt>
      <trkpt lat="49.60319" lon="5.58794">
        <ele>305.79998779297</ele>
        <time>2022-03-25T09:41:15.000Z</time>
      </trkpt>
      <trkpt lat="49.60317" lon="5.58785">
        <ele>306.39999389648</ele>
        <time>2022-03-25T09:41:17.000Z</time>
      </trkpt>
      <trkpt lat="49.60315" lon="5.58777">
        <ele>307.20001220703</ele>
        <time>2022-03-25T09:41:19.000Z</time>
      </trkpt>
      <trkpt lat="49.60311" lon="5.58765">
        <ele>308.39999389648</ele>
        <time>2022-03-25T09:41:22.000Z</time>
      </trkpt>
      <trkpt lat="49.60306" lon="5.58755">
        <ele>309.60000610352</ele>
        <time>2022-03-25T09:41:25.000Z</time>
      </trkpt>
      <trkpt lat="49.60304" lon="5.58751">
        <ele>310.20001220703</ele>
        <time>2022-03-25T09:41:26.000Z</time>
      </trkpt>
      <trkpt lat="49.60302" lon="5.58748">
        <ele>310.39999389648</ele>
        <time>2022-03-25T09:41:27.000Z</time>
      </trkpt>
      <trkpt lat="49.603" lon="5.58745">
        <ele>310.79998779297</ele>
        <time>2022-03-25T09:41:28.000Z</time>
      </trkpt>
      <trkpt lat="49.60298" lon="5.58742">
        <ele>311.20001220703</ele>
        <time>2022-03-25T09:41:29.000Z</time>
      </trkpt>
      <trkpt lat="49.60293" lon="5.58733">
        <ele>312.60000610352</ele>
        <time>2022-03-25T09:41:32.000Z</time>
      </trkpt>
      <trkpt lat="49.6029" lon="5.58727">
        <ele>313.39999389648</ele>
        <time>2022-03-25T09:41:34.000Z</time>
      </trkpt>
      <trkpt lat="49.60286" lon="5.58721">
        <ele>314.20001220703</ele>
        <time>2022-03-25T09:41:36.000Z</time>
      </trkpt>
      <trkpt lat="49.60282" lon="5.58715">
        <ele>314.79998779297</ele>
        <time>2022-03-25T09:41:38.000Z</time>
      </trkpt>
      <trkpt lat="49.60277" lon="5.5871">
        <ele>315.39999389648</ele>
        <time>2022-03-25T09:41:40.000Z</time>
      </trkpt>
      <trkpt lat="49.60272" lon="5.58705">
        <ele>315.79998779297</ele>
        <time>2022-03-25T09:41:42.000Z</time>
      </trkpt>
      <trkpt lat="49.6027" lon="5.58703">
        <ele>315.79998779297</ele>
        <time>2022-03-25T09:41:43.000Z</time>
      </trkpt>
      <trkpt lat="49.60268" lon="5.587">
        <ele>316</ele>
        <time>2022-03-25T09:41:44.000Z</time>
      </trkpt>
      <trkpt lat="49.60267" lon="5.58698">
        <ele>316.39999389648</ele>
        <time>2022-03-25T09:41:45.000Z</time>
      </trkpt>
      <trkpt lat="49.60261" lon="5.58686">
        <ele>316.20001220703</ele>
        <time>2022-03-25T09:41:48.000Z</time>
      </trkpt>
      <trkpt lat="49.60259" lon="5.58682">
        <ele>316.20001220703</ele>
        <time>2022-03-25T09:41:49.000Z</time>
      </trkpt>
      <trkpt lat="49.60253" lon="5.58671">
        <ele>316</ele>
        <time>2022-03-25T09:41:52.000Z</time>
      </trkpt>
      <trkpt lat="49.60248" lon="5.58663">
        <ele>316</ele>
        <time>2022-03-25T09:41:54.000Z</time>
      </trkpt>
      <trkpt lat="49.60232" lon="5.58633">
        <ele>316</ele>
        <time>2022-03-25T09:42:02.000Z</time>
      </trkpt>
      <trkpt lat="49.6023" lon="5.58631">
        <ele>316</ele>
        <time>2022-03-25T09:42:03.000Z</time>
      </trkpt>
      <trkpt lat="49.60223" lon="5.58629">
        <ele>316</ele>
        <time>2022-03-25T09:42:06.000Z</time>
      </trkpt>
      <trkpt lat="49.60196" lon="5.58623">
        <ele>316</ele>
        <time>2022-03-25T09:42:12.000Z</time>
      </trkpt>
      <trkpt lat="49.60192" lon="5.58622">
        <ele>315.60000610352</ele>
        <time>2022-03-25T09:42:13.000Z</time>
      </trkpt>
      <trkpt lat="49.60184" lon="5.58616">
        <ele>315</ele>
        <time>2022-03-25T09:42:15.000Z</time>
      </trkpt>
      <trkpt lat="49.60181" lon="5.58611">
        <ele>314.79998779297</ele>
        <time>2022-03-25T09:42:16.000Z</time>
      </trkpt>
      <trkpt lat="49.6017" lon="5.58575">
        <ele>313.60000610352</ele>
        <time>2022-03-25T09:42:21.000Z</time>
      </trkpt>
      <trkpt lat="49.60171" lon="5.58569">
        <ele>313.39999389648</ele>
        <time>2022-03-25T09:42:22.000Z</time>
      </trkpt>
      <trkpt lat="49.60176" lon="5.58561">
        <ele>313.60000610352</ele>
        <time>2022-03-25T09:42:24.000Z</time>
      </trkpt>
      <trkpt lat="49.60179" lon="5.58559">
        <ele>314</ele>
        <time>2022-03-25T09:42:25.000Z</time>
      </trkpt>
      <trkpt lat="49.60182" lon="5.58557">
        <ele>314.39999389648</ele>
        <time>2022-03-25T09:42:26.000Z</time>
      </trkpt>
      <trkpt lat="49.60198" lon="5.58543">
        <ele>315.39999389648</ele>
        <time>2022-03-25T09:42:30.000Z</time>
      </trkpt>
      <trkpt lat="49.6023" lon="5.58504">
        <ele>317</ele>
        <time>2022-03-25T09:42:38.000Z</time>
      </trkpt>
      <trkpt lat="49.60236" lon="5.58493">
        <ele>316.60000610352</ele>
        <time>2022-03-25T09:42:40.000Z</time>
      </trkpt>
      <trkpt lat="49.60249" lon="5.58467">
        <ele>317.60000610352</ele>
        <time>2022-03-25T09:42:44.000Z</time>
      </trkpt>
      <trkpt lat="49.60252" lon="5.5846">
        <ele>318</ele>
        <time>2022-03-25T09:42:45.000Z</time>
      </trkpt>
      <trkpt lat="49.60262" lon="5.58441">
        <ele>318.60000610352</ele>
        <time>2022-03-25T09:42:48.000Z</time>
      </trkpt>
      <trkpt lat="49.60278" lon="5.5841">
        <ele>319.60000610352</ele>
        <time>2022-03-25T09:42:53.000Z</time>
      </trkpt>
      <trkpt lat="49.60288" lon="5.58392">
        <ele>319.60000610352</ele>
        <time>2022-03-25T09:42:56.000Z</time>
      </trkpt>
      <trkpt lat="49.60299" lon="5.58372">
        <ele>319</ele>
        <time>2022-03-25T09:43:00.000Z</time>
      </trkpt>
      <trkpt lat="49.60307" lon="5.58356">
        <ele>318.20001220703</ele>
        <time>2022-03-25T09:43:02.000Z</time>
      </trkpt>
      <trkpt lat="49.60309" lon="5.58344">
        <ele>317.60000610352</ele>
        <time>2022-03-25T09:43:04.000Z</time>
      </trkpt>
      <trkpt lat="49.60312" lon="5.58314">
        <ele>316</ele>
        <time>2022-03-25T09:43:09.000Z</time>
      </trkpt>
      <trkpt lat="49.60313" lon="5.58301">
        <ele>315.39999389648</ele>
        <time>2022-03-25T09:43:11.000Z</time>
      </trkpt>
      <trkpt lat="49.60312" lon="5.58287">
        <ele>314.79998779297</ele>
        <time>2022-03-25T09:43:13.000Z</time>
      </trkpt>
      <trkpt lat="49.60309" lon="5.58255">
        <ele>313.20001220703</ele>
        <time>2022-03-25T09:43:18.000Z</time>
      </trkpt>
      <trkpt lat="49.603" lon="5.58228">
        <ele>314.20001220703</ele>
        <time>2022-03-25T09:43:23.000Z</time>
      </trkpt>
      <trkpt lat="49.60284" lon="5.58196">
        <ele>315.20001220703</ele>
        <time>2022-03-25T09:43:28.000Z</time>
      </trkpt>
      <trkpt lat="49.60279" lon="5.58169">
        <ele>315.79998779297</ele>
        <time>2022-03-25T09:43:32.000Z</time>
      </trkpt>
      <trkpt lat="49.60278" lon="5.58163">
        <ele>315.60000610352</ele>
        <time>2022-03-25T09:43:33.000Z</time>
      </trkpt>
      <trkpt lat="49.60275" lon="5.58144">
        <ele>314.79998779297</ele>
        <time>2022-03-25T09:43:37.000Z</time>
      </trkpt>
      <trkpt lat="49.6027" lon="5.58137">
        <ele>314.20001220703</ele>
        <time>2022-03-25T09:43:41.000Z</time>
      </trkpt>
      <trkpt lat="49.6027" lon="5.58134">
        <ele>314.20001220703</ele>
        <time>2022-03-25T09:43:42.000Z</time>
      </trkpt>
      <trkpt lat="49.60268" lon="5.58121">
        <ele>313.79998779297</ele>
        <time>2022-03-25T09:43:45.000Z</time>
      </trkpt>
      <trkpt lat="49.6026" lon="5.58113">
        <ele>313.20001220703</ele>
        <time>2022-03-25T09:43:48.000Z</time>
      </trkpt>
      <trkpt lat="49.60256" lon="5.58111">
        <ele>313</ele>
        <time>2022-03-25T09:43:50.000Z</time>
      </trkpt>
      <trkpt lat="49.60254" lon="5.5811">
        <ele>313</ele>
        <time>2022-03-25T09:43:51.000Z</time>
      </trkpt>
      <trkpt lat="49.60252" lon="5.58107">
        <ele>312.79998779297</ele>
        <time>2022-03-25T09:43:52.000Z</time>
      </trkpt>
      <trkpt lat="49.6025" lon="5.58103">
        <ele>312.60000610352</ele>
        <time>2022-03-25T09:43:54.000Z</time>
      </trkpt>
      <trkpt lat="49.60241" lon="5.58095">
        <ele>312</ele>
        <time>2022-03-25T09:43:57.000Z</time>
      </trkpt>
      <trkpt lat="49.60237" lon="5.58091">
        <ele>311.60000610352</ele>
        <time>2022-03-25T09:43:58.000Z</time>
      </trkpt>
      <trkpt lat="49.60229" lon="5.5808">
        <ele>311</ele>
        <time>2022-03-25T09:44:00.000Z</time>
      </trkpt>
      <trkpt lat="49.60225" lon="5.58075">
        <ele>310.60000610352</ele>
        <time>2022-03-25T09:44:01.000Z</time>
      </trkpt>
      <trkpt lat="49.60218" lon="5.58064">
        <ele>309.79998779297</ele>
        <time>2022-03-25T09:44:03.000Z</time>
      </trkpt>
      <trkpt lat="49.60214" lon="5.58059">
        <ele>309.20001220703</ele>
        <time>2022-03-25T09:44:04.000Z</time>
      </trkpt>
      <trkpt lat="49.6021" lon="5.58053">
        <ele>308.79998779297</ele>
        <time>2022-03-25T09:44:05.000Z</time>
      </trkpt>
      <trkpt lat="49.60202" lon="5.58043">
        <ele>307.79998779297</ele>
        <time>2022-03-25T09:44:07.000Z</time>
      </trkpt>
      <trkpt lat="49.60199" lon="5.58037">
        <ele>307.39999389648</ele>
        <time>2022-03-25T09:44:08.000Z</time>
      </trkpt>
      <trkpt lat="49.60196" lon="5.5803">
        <ele>306.79998779297</ele>
        <time>2022-03-25T09:44:09.000Z</time>
      </trkpt>
      <trkpt lat="49.60194" lon="5.58024">
        <ele>306.60000610352</ele>
        <time>2022-03-25T09:44:10.000Z</time>
      </trkpt>
      <trkpt lat="49.60193" lon="5.58018">
        <ele>306.60000610352</ele>
        <time>2022-03-25T09:44:11.000Z</time>
      </trkpt>
      <trkpt lat="49.60192" lon="5.58008">
        <ele>306.39999389648</ele>
        <time>2022-03-25T09:44:13.000Z</time>
      </trkpt>
      <trkpt lat="49.60191" lon="5.58003">
        <ele>306.39999389648</ele>
        <time>2022-03-25T09:44:14.000Z</time>
      </trkpt>
      <trkpt lat="49.60189" lon="5.58">
        <ele>306.20001220703</ele>
        <time>2022-03-25T09:44:15.000Z</time>
      </trkpt>
      <trkpt lat="49.60183" lon="5.57985">
        <ele>305.20001220703</ele>
        <time>2022-03-25T09:44:19.000Z</time>
      </trkpt>
      <trkpt lat="49.60182" lon="5.57982">
        <ele>305</ele>
        <time>2022-03-25T09:44:20.000Z</time>
      </trkpt>
      <trkpt lat="49.60182" lon="5.57979">
        <ele>304.79998779297</ele>
        <time>2022-03-25T09:44:21.000Z</time>
      </trkpt>
      <trkpt lat="49.60182" lon="5.57967">
        <ele>304.20001220703</ele>
        <time>2022-03-25T09:44:24.000Z</time>
      </trkpt>
      <trkpt lat="49.60182" lon="5.57962">
        <ele>304</ele>
        <time>2022-03-25T09:44:25.000Z</time>
      </trkpt>
      <trkpt lat="49.60182" lon="5.57956">
        <ele>303.60000610352</ele>
        <time>2022-03-25T09:44:26.000Z</time>
      </trkpt>
      <trkpt lat="49.60185" lon="5.57937">
        <ele>302.60000610352</ele>
        <time>2022-03-25T09:44:29.000Z</time>
      </trkpt>
      <trkpt lat="49.60188" lon="5.57923">
        <ele>302.20001220703</ele>
        <time>2022-03-25T09:44:31.000Z</time>
      </trkpt>
      <trkpt lat="49.60188" lon="5.57918">
        <ele>302</ele>
        <time>2022-03-25T09:44:32.000Z</time>
      </trkpt>
      <trkpt lat="49.60189" lon="5.57915">
        <ele>301.79998779297</ele>
        <time>2022-03-25T09:44:33.000Z</time>
      </trkpt>
      <trkpt lat="49.60192" lon="5.57911">
        <ele>301.79998779297</ele>
        <time>2022-03-25T09:44:35.000Z</time>
      </trkpt>
      <trkpt lat="49.60193" lon="5.57909">
        <ele>301.60000610352</ele>
        <time>2022-03-25T09:44:36.000Z</time>
      </trkpt>
      <trkpt lat="49.60196" lon="5.57907">
        <ele>301.60000610352</ele>
        <time>2022-03-25T09:44:37.000Z</time>
      </trkpt>
      <trkpt lat="49.60206" lon="5.57904">
        <ele>301.39999389648</ele>
        <time>2022-03-25T09:44:41.000Z</time>
      </trkpt>
      <trkpt lat="49.60217" lon="5.57898">
        <ele>300.79998779297</ele>
        <time>2022-03-25T09:44:45.000Z</time>
      </trkpt>
      <trkpt lat="49.60227" lon="5.57891">
        <ele>299.79998779297</ele>
        <time>2022-03-25T09:44:49.000Z</time>
      </trkpt>
      <trkpt lat="49.60238" lon="5.57871">
        <ele>297</ele>
        <time>2022-03-25T09:44:54.000Z</time>
      </trkpt>
      <trkpt lat="49.6024" lon="5.57865">
        <ele>296</ele>
        <time>2022-03-25T09:44:55.000Z</time>
      </trkpt>
      <trkpt lat="49.60241" lon="5.57852">
        <ele>293.60000610352</ele>
        <time>2022-03-25T09:44:57.000Z</time>
      </trkpt>
      <trkpt lat="49.60239" lon="5.57845">
        <ele>293</ele>
        <time>2022-03-25T09:44:58.000Z</time>
      </trkpt>
      <trkpt lat="49.60237" lon="5.57839">
        <ele>292.60000610352</ele>
        <time>2022-03-25T09:44:59.000Z</time>
      </trkpt>
      <trkpt lat="49.60231" lon="5.5783">
        <ele>291.39999389648</ele>
        <time>2022-03-25T09:45:01.000Z</time>
      </trkpt>
      <trkpt lat="49.60227" lon="5.57827">
        <ele>291</ele>
        <time>2022-03-25T09:45:02.000Z</time>
      </trkpt>
      <trkpt lat="49.60224" lon="5.57824">
        <ele>290.39999389648</ele>
        <time>2022-03-25T09:45:03.000Z</time>
      </trkpt>
      <trkpt lat="49.60215" lon="5.5782">
        <ele>289.39999389648</ele>
        <time>2022-03-25T09:45:05.000Z</time>
      </trkpt>
      <trkpt lat="49.60206" lon="5.57819">
        <ele>288.79998779297</ele>
        <time>2022-03-25T09:45:07.000Z</time>
      </trkpt>
      <trkpt lat="49.60195" lon="5.57819">
        <ele>287.79998779297</ele>
        <time>2022-03-25T09:45:09.000Z</time>
      </trkpt>
      <trkpt lat="49.60186" lon="5.57819">
        <ele>286.79998779297</ele>
        <time>2022-03-25T09:45:11.000Z</time>
      </trkpt>
      <trkpt lat="49.60176" lon="5.57819">
        <ele>285.79998779297</ele>
        <time>2022-03-25T09:45:13.000Z</time>
      </trkpt>
      <trkpt lat="49.60165" lon="5.57814">
        <ele>284.20001220703</ele>
        <time>2022-03-25T09:45:15.000Z</time>
      </trkpt>
      <trkpt lat="49.60158" lon="5.57812">
        <ele>283.20001220703</ele>
        <time>2022-03-25T09:45:16.000Z</time>
      </trkpt>
      <trkpt lat="49.60151" lon="5.5781">
        <ele>282.20001220703</ele>
        <time>2022-03-25T09:45:17.000Z</time>
      </trkpt>
      <trkpt lat="49.60144" lon="5.57807">
        <ele>281.20001220703</ele>
        <time>2022-03-25T09:45:18.000Z</time>
      </trkpt>
      <trkpt lat="49.60137" lon="5.57805">
        <ele>280.39999389648</ele>
        <time>2022-03-25T09:45:19.000Z</time>
      </trkpt>
      <trkpt lat="49.60123" lon="5.57801">
        <ele>278.79998779297</ele>
        <time>2022-03-25T09:45:21.000Z</time>
      </trkpt>
      <trkpt lat="49.60109" lon="5.57796">
        <ele>277.20001220703</ele>
        <time>2022-03-25T09:45:23.000Z</time>
      </trkpt>
      <trkpt lat="49.60094" lon="5.57791">
        <ele>275</ele>
        <time>2022-03-25T09:45:25.000Z</time>
      </trkpt>
      <trkpt lat="49.60081" lon="5.57787">
        <ele>272.60000610352</ele>
        <time>2022-03-25T09:45:27.000Z</time>
      </trkpt>
      <trkpt lat="49.60075" lon="5.57784">
        <ele>271.39999389648</ele>
        <time>2022-03-25T09:45:28.000Z</time>
      </trkpt>
      <trkpt lat="49.60068" lon="5.57781">
        <ele>269.79998779297</ele>
        <time>2022-03-25T09:45:29.000Z</time>
      </trkpt>
      <trkpt lat="49.60055" lon="5.57776">
        <ele>267.20001220703</ele>
        <time>2022-03-25T09:45:31.000Z</time>
      </trkpt>
      <trkpt lat="49.60044" lon="5.57771">
        <ele>265.39999389648</ele>
        <time>2022-03-25T09:45:33.000Z</time>
      </trkpt>
      <trkpt lat="49.60034" lon="5.57766">
        <ele>263.39999389648</ele>
        <time>2022-03-25T09:45:35.000Z</time>
      </trkpt>
      <trkpt lat="49.60027" lon="5.57757">
        <ele>262.39999389648</ele>
        <time>2022-03-25T09:45:37.000Z</time>
      </trkpt>
      <trkpt lat="49.60026" lon="5.57753">
        <ele>262</ele>
        <time>2022-03-25T09:45:38.000Z</time>
      </trkpt>
      <trkpt lat="49.60024" lon="5.57743">
        <ele>262.60000610352</ele>
        <time>2022-03-25T09:45:40.000Z</time>
      </trkpt>
      <trkpt lat="49.60016" lon="5.57731">
        <ele>263.20001220703</ele>
        <time>2022-03-25T09:45:43.000Z</time>
      </trkpt>
      <trkpt lat="49.60003" lon="5.57724">
        <ele>264.20001220703</ele>
        <time>2022-03-25T09:45:46.000Z</time>
      </trkpt>
      <trkpt lat="49.59993" lon="5.5772">
        <ele>265.20001220703</ele>
        <time>2022-03-25T09:45:48.000Z</time>
      </trkpt>
      <trkpt lat="49.59961" lon="5.57711">
        <ele>267.39999389648</ele>
        <time>2022-03-25T09:45:54.000Z</time>
      </trkpt>
      <trkpt lat="49.59956" lon="5.57709">
        <ele>267.60000610352</ele>
        <time>2022-03-25T09:45:55.000Z</time>
      </trkpt>
      <trkpt lat="49.59919" lon="5.577">
        <ele>267.79998779297</ele>
        <time>2022-03-25T09:46:02.000Z</time>
      </trkpt>
      <trkpt lat="49.59914" lon="5.57699">
        <ele>267.60000610352</ele>
        <time>2022-03-25T09:46:03.000Z</time>
      </trkpt>
      <trkpt lat="49.59881" lon="5.57687">
        <ele>267.60000610352</ele>
        <time>2022-03-25T09:46:09.000Z</time>
      </trkpt>
      <trkpt lat="49.59857" lon="5.57669">
        <ele>267.79998779297</ele>
        <time>2022-03-25T09:46:13.000Z</time>
      </trkpt>
      <trkpt lat="49.5985" lon="5.57664">
        <ele>267</ele>
        <time>2022-03-25T09:46:14.000Z</time>
      </trkpt>
      <trkpt lat="49.59822" lon="5.57644">
        <ele>264.20001220703</ele>
        <time>2022-03-25T09:46:18.000Z</time>
      </trkpt>
      <trkpt lat="49.59809" lon="5.57634">
        <ele>263.39999389648</ele>
        <time>2022-03-25T09:46:20.000Z</time>
      </trkpt>
      <trkpt lat="49.59796" lon="5.57624">
        <ele>262.60000610352</ele>
        <time>2022-03-25T09:46:22.000Z</time>
      </trkpt>
      <trkpt lat="49.59773" lon="5.57606">
        <ele>262</ele>
        <time>2022-03-25T09:46:25.000Z</time>
      </trkpt>
      <trkpt lat="49.59741" lon="5.57584">
        <ele>262.39999389648</ele>
        <time>2022-03-25T09:46:29.000Z</time>
      </trkpt>
      <trkpt lat="49.59726" lon="5.57573">
        <ele>262.60000610352</ele>
        <time>2022-03-25T09:46:31.000Z</time>
      </trkpt>
      <trkpt lat="49.5972" lon="5.57568">
        <ele>262.60000610352</ele>
        <time>2022-03-25T09:46:32.000Z</time>
      </trkpt>
      <trkpt lat="49.5969" lon="5.57545">
        <ele>263</ele>
        <time>2022-03-25T09:46:37.000Z</time>
      </trkpt>
      <trkpt lat="49.5966" lon="5.57522">
        <ele>261.60000610352</ele>
        <time>2022-03-25T09:46:42.000Z</time>
      </trkpt>
      <trkpt lat="49.59654" lon="5.57515">
        <ele>261.39999389648</ele>
        <time>2022-03-25T09:46:43.000Z</time>
      </trkpt>
      <trkpt lat="49.5961" lon="5.57471">
        <ele>259.20001220703</ele>
        <time>2022-03-25T09:46:49.000Z</time>
      </trkpt>
      <trkpt lat="49.59603" lon="5.57463">
        <ele>259.39999389648</ele>
        <time>2022-03-25T09:46:50.000Z</time>
      </trkpt>
      <trkpt lat="49.59581" lon="5.57438">
        <ele>259.79998779297</ele>
        <time>2022-03-25T09:46:54.000Z</time>
      </trkpt>
      <trkpt lat="49.59579" lon="5.57432">
        <ele>259.79998779297</ele>
        <time>2022-03-25T09:46:55.000Z</time>
      </trkpt>
      <trkpt lat="49.59583" lon="5.5742">
        <ele>259.79998779297</ele>
        <time>2022-03-25T09:46:58.000Z</time>
      </trkpt>
      <trkpt lat="49.59592" lon="5.57416">
        <ele>260.39999389648</ele>
        <time>2022-03-25T09:47:02.000Z</time>
      </trkpt>
      <trkpt lat="49.59605" lon="5.57412">
        <ele>261.39999389648</ele>
        <time>2022-03-25T09:47:08.000Z</time>
      </trkpt>
      <trkpt lat="49.59613" lon="5.57409">
        <ele>261.79998779297</ele>
        <time>2022-03-25T09:47:12.000Z</time>
      </trkpt>
      <trkpt lat="49.59622" lon="5.57399">
        <ele>263.39999389648</ele>
        <time>2022-03-25T09:47:16.000Z</time>
      </trkpt>
      <trkpt lat="49.59631" lon="5.57387">
        <ele>264.60000610352</ele>
        <time>2022-03-25T09:47:19.000Z</time>
      </trkpt>
      <trkpt lat="49.59637" lon="5.5738">
        <ele>265.20001220703</ele>
        <time>2022-03-25T09:47:21.000Z</time>
      </trkpt>
      <trkpt lat="49.59644" lon="5.57376">
        <ele>265</ele>
        <time>2022-03-25T09:47:24.000Z</time>
      </trkpt>
      <trkpt lat="49.59646" lon="5.57374">
        <ele>265.20001220703</ele>
        <time>2022-03-25T09:47:25.000Z</time>
      </trkpt>
      <trkpt lat="49.5965" lon="5.57373">
        <ele>265.39999389648</ele>
        <time>2022-03-25T09:47:27.000Z</time>
      </trkpt>
      <trkpt lat="49.59658" lon="5.57372">
        <ele>265.39999389648</ele>
        <time>2022-03-25T09:47:30.000Z</time>
      </trkpt>
      <trkpt lat="49.59661" lon="5.57371">
        <ele>265.20001220703</ele>
        <time>2022-03-25T09:47:32.000Z</time>
      </trkpt>
      <trkpt lat="49.59665" lon="5.5737">
        <ele>265.20001220703</ele>
        <time>2022-03-25T09:47:34.000Z</time>
      </trkpt>
      <trkpt lat="49.59668" lon="5.57368">
        <ele>265.20001220703</ele>
        <time>2022-03-25T09:47:39.000Z</time>
      </trkpt>
      <trkpt lat="49.59674" lon="5.57364">
        <ele>265.60000610352</ele>
        <time>2022-03-25T09:47:41.000Z</time>
      </trkpt>
      <trkpt lat="49.59681" lon="5.57359">
        <ele>266.60000610352</ele>
        <time>2022-03-25T09:47:44.000Z</time>
      </trkpt>
      <trkpt lat="49.59691" lon="5.57352">
        <ele>267.60000610352</ele>
        <time>2022-03-25T09:47:51.000Z</time>
      </trkpt>
      <trkpt lat="49.59701" lon="5.57349">
        <ele>269</ele>
        <time>2022-03-25T09:47:54.000Z</time>
      </trkpt>
      <trkpt lat="49.59712" lon="5.57348">
        <ele>271.60000610352</ele>
        <time>2022-03-25T09:47:57.000Z</time>
      </trkpt>
      <trkpt lat="49.59715" lon="5.57349">
        <ele>272.39999389648</ele>
        <time>2022-03-25T09:47:58.000Z</time>
      </trkpt>
      <trkpt lat="49.59718" lon="5.57349">
        <ele>273.39999389648</ele>
        <time>2022-03-25T09:47:59.000Z</time>
      </trkpt>
      <trkpt lat="49.59725" lon="5.57349">
        <ele>275</ele>
        <time>2022-03-25T09:48:01.000Z</time>
      </trkpt>
      <trkpt lat="49.5973" lon="5.57349">
        <ele>276.20001220703</ele>
        <time>2022-03-25T09:48:03.000Z</time>
      </trkpt>
      <trkpt lat="49.59735" lon="5.57349">
        <ele>277.20001220703</ele>
        <time>2022-03-25T09:48:05.000Z</time>
      </trkpt>
      <trkpt lat="49.59738" lon="5.57349">
        <ele>277.79998779297</ele>
        <time>2022-03-25T09:48:06.000Z</time>
      </trkpt>
      <trkpt lat="49.59743" lon="5.5735">
        <ele>278.79998779297</ele>
        <time>2022-03-25T09:48:08.000Z</time>
      </trkpt>
      <trkpt lat="49.5975" lon="5.57353">
        <ele>280.39999389648</ele>
        <time>2022-03-25T09:48:11.000Z</time>
      </trkpt>
      <trkpt lat="49.59758" lon="5.57357">
        <ele>281.60000610352</ele>
        <time>2022-03-25T09:48:14.000Z</time>
      </trkpt>
      <trkpt lat="49.59766" lon="5.57363">
        <ele>282.79998779297</ele>
        <time>2022-03-25T09:48:17.000Z</time>
      </trkpt>
      <trkpt lat="49.59772" lon="5.57368">
        <ele>283.60000610352</ele>
        <time>2022-03-25T09:48:20.000Z</time>
      </trkpt>
      <trkpt lat="49.59781" lon="5.57377">
        <ele>284.60000610352</ele>
        <time>2022-03-25T09:48:24.000Z</time>
      </trkpt>
      <trkpt lat="49.5979" lon="5.57389">
        <ele>285.60000610352</ele>
        <time>2022-03-25T09:48:28.000Z</time>
      </trkpt>
      <trkpt lat="49.59795" lon="5.57393">
        <ele>286</ele>
        <time>2022-03-25T09:48:30.000Z</time>
      </trkpt>
      <trkpt lat="49.59802" lon="5.57398">
        <ele>286.60000610352</ele>
        <time>2022-03-25T09:48:33.000Z</time>
      </trkpt>
      <trkpt lat="49.59804" lon="5.57399">
        <ele>286.79998779297</ele>
        <time>2022-03-25T09:48:34.000Z</time>
      </trkpt>
      <trkpt lat="49.5981" lon="5.57403">
        <ele>287.20001220703</ele>
        <time>2022-03-25T09:48:37.000Z</time>
      </trkpt>
      <trkpt lat="49.59822" lon="5.57408">
        <ele>289.39999389648</ele>
        <time>2022-03-25T09:48:42.000Z</time>
      </trkpt>
      <trkpt lat="49.5983" lon="5.57412">
        <ele>291</ele>
        <time>2022-03-25T09:48:46.000Z</time>
      </trkpt>
      <trkpt lat="49.59834" lon="5.57414">
        <ele>291.60000610352</ele>
        <time>2022-03-25T09:48:48.000Z</time>
      </trkpt>
      <trkpt lat="49.59836" lon="5.57415">
        <ele>291.79998779297</ele>
        <time>2022-03-25T09:48:49.000Z</time>
      </trkpt>
      <trkpt lat="49.5985" lon="5.57424">
        <ele>293.79998779297</ele>
        <time>2022-03-25T09:48:54.000Z</time>
      </trkpt>
      <trkpt lat="49.59863" lon="5.57428">
        <ele>295.60000610352</ele>
        <time>2022-03-25T09:48:59.000Z</time>
      </trkpt>
      <trkpt lat="49.59866" lon="5.57429">
        <ele>295.79998779297</ele>
        <time>2022-03-25T09:49:00.000Z</time>
      </trkpt>
      <trkpt lat="49.59877" lon="5.57431">
        <ele>296.39999389648</ele>
        <time>2022-03-25T09:49:04.000Z</time>
      </trkpt>
      <trkpt lat="49.59887" lon="5.57432">
        <ele>297.20001220703</ele>
        <time>2022-03-25T09:49:08.000Z</time>
      </trkpt>
      <trkpt lat="49.59892" lon="5.57432">
        <ele>297.60000610352</ele>
        <time>2022-03-25T09:49:10.000Z</time>
      </trkpt>
      <trkpt lat="49.59902" lon="5.57434">
        <ele>298.20001220703</ele>
        <time>2022-03-25T09:49:14.000Z</time>
      </trkpt>
      <trkpt lat="49.5991" lon="5.57433">
        <ele>298.79998779297</ele>
        <time>2022-03-25T09:49:17.000Z</time>
      </trkpt>
      <trkpt lat="49.59912" lon="5.57433">
        <ele>299</ele>
        <time>2022-03-25T09:49:18.000Z</time>
      </trkpt>
      <trkpt lat="49.5992" lon="5.57433">
        <ele>299.60000610352</ele>
        <time>2022-03-25T09:49:21.000Z</time>
      </trkpt>
      <trkpt lat="49.59928" lon="5.5743">
        <ele>300.20001220703</ele>
        <time>2022-03-25T09:49:24.000Z</time>
      </trkpt>
      <trkpt lat="49.59934" lon="5.57428">
        <ele>300.60000610352</ele>
        <time>2022-03-25T09:49:26.000Z</time>
      </trkpt>
      <trkpt lat="49.59945" lon="5.57426">
        <ele>301.60000610352</ele>
        <time>2022-03-25T09:49:30.000Z</time>
      </trkpt>
      <trkpt lat="49.59948" lon="5.57425">
        <ele>301.79998779297</ele>
        <time>2022-03-25T09:49:31.000Z</time>
      </trkpt>
      <trkpt lat="49.59965" lon="5.57412">
        <ele>304</ele>
        <time>2022-03-25T09:49:36.000Z</time>
      </trkpt>
      <trkpt lat="49.59977" lon="5.57401">
        <ele>305</ele>
        <time>2022-03-25T09:49:40.000Z</time>
      </trkpt>
      <trkpt lat="49.5998" lon="5.57399">
        <ele>305.20001220703</ele>
        <time>2022-03-25T09:49:41.000Z</time>
      </trkpt>
      <trkpt lat="49.59989" lon="5.57391">
        <ele>305.39999389648</ele>
        <time>2022-03-25T09:49:44.000Z</time>
      </trkpt>
      <trkpt lat="49.59997" lon="5.57382">
        <ele>305.20001220703</ele>
        <time>2022-03-25T09:49:47.000Z</time>
      </trkpt>
      <trkpt lat="49.6" lon="5.57379">
        <ele>305.39999389648</ele>
        <time>2022-03-25T09:49:48.000Z</time>
      </trkpt>
      <trkpt lat="49.60004" lon="5.57373">
        <ele>305.39999389648</ele>
        <time>2022-03-25T09:49:50.000Z</time>
      </trkpt>
      <trkpt lat="49.60016" lon="5.5736">
        <ele>305.79998779297</ele>
        <time>2022-03-25T09:49:54.000Z</time>
      </trkpt>
      <trkpt lat="49.60031" lon="5.5735">
        <ele>306.60000610352</ele>
        <time>2022-03-25T09:49:58.000Z</time>
      </trkpt>
      <trkpt lat="49.60035" lon="5.57346">
        <ele>306.79998779297</ele>
        <time>2022-03-25T09:49:59.000Z</time>
      </trkpt>
      <trkpt lat="49.60042" lon="5.57336">
        <ele>307.60000610352</ele>
        <time>2022-03-25T09:50:01.000Z</time>
      </trkpt>
      <trkpt lat="49.60051" lon="5.57322">
        <ele>309.39999389648</ele>
        <time>2022-03-25T09:50:04.000Z</time>
      </trkpt>
      <trkpt lat="49.60056" lon="5.57315">
        <ele>310.39999389648</ele>
        <time>2022-03-25T09:50:06.000Z</time>
      </trkpt>
      <trkpt lat="49.60058" lon="5.57311">
        <ele>310.79998779297</ele>
        <time>2022-03-25T09:50:07.000Z</time>
      </trkpt>
      <trkpt lat="49.60065" lon="5.57293">
        <ele>312.39999389648</ele>
        <time>2022-03-25T09:50:11.000Z</time>
      </trkpt>
      <trkpt lat="49.60067" lon="5.57289">
        <ele>312.79998779297</ele>
        <time>2022-03-25T09:50:12.000Z</time>
      </trkpt>
      <trkpt lat="49.60074" lon="5.57268">
        <ele>315.20001220703</ele>
        <time>2022-03-25T09:50:16.000Z</time>
      </trkpt>
      <trkpt lat="49.60083" lon="5.57241">
        <ele>316.60000610352</ele>
        <time>2022-03-25T09:50:21.000Z</time>
      </trkpt>
      <trkpt lat="49.60084" lon="5.57236">
        <ele>316.60000610352</ele>
        <time>2022-03-25T09:50:22.000Z</time>
      </trkpt>
      <trkpt lat="49.60091" lon="5.57214">
        <ele>317</ele>
        <time>2022-03-25T09:50:27.000Z</time>
      </trkpt>
      <trkpt lat="49.60097" lon="5.57197">
        <ele>316.79998779297</ele>
        <time>2022-03-25T09:50:31.000Z</time>
      </trkpt>
      <trkpt lat="49.60101" lon="5.57185">
        <ele>316.60000610352</ele>
        <time>2022-03-25T09:50:34.000Z</time>
      </trkpt>
      <trkpt lat="49.60104" lon="5.57176">
        <ele>317</ele>
        <time>2022-03-25T09:50:36.000Z</time>
      </trkpt>
      <trkpt lat="49.6011" lon="5.57163">
        <ele>317.60000610352</ele>
        <time>2022-03-25T09:50:39.000Z</time>
      </trkpt>
      <trkpt lat="49.60112" lon="5.57159">
        <ele>317.79998779297</ele>
        <time>2022-03-25T09:50:40.000Z</time>
      </trkpt>
      <trkpt lat="49.60117" lon="5.5715">
        <ele>318.20001220703</ele>
        <time>2022-03-25T09:50:42.000Z</time>
      </trkpt>
      <trkpt lat="49.60126" lon="5.57131">
        <ele>319</ele>
        <time>2022-03-25T09:50:46.000Z</time>
      </trkpt>
      <trkpt lat="49.60129" lon="5.57126">
        <ele>319.20001220703</ele>
        <time>2022-03-25T09:50:47.000Z</time>
      </trkpt>
      <trkpt lat="49.60139" lon="5.57105">
        <ele>320.60000610352</ele>
        <time>2022-03-25T09:50:51.000Z</time>
      </trkpt>
      <trkpt lat="49.60145" lon="5.57082">
        <ele>321.20001220703</ele>
        <time>2022-03-25T09:50:55.000Z</time>
      </trkpt>
      <trkpt lat="49.60148" lon="5.5707">
        <ele>321.20001220703</ele>
        <time>2022-03-25T09:50:57.000Z</time>
      </trkpt>
      <trkpt lat="49.60153" lon="5.57046">
        <ele>321.20001220703</ele>
        <time>2022-03-25T09:51:01.000Z</time>
      </trkpt>
      <trkpt lat="49.60156" lon="5.57031">
        <ele>321</ele>
        <time>2022-03-25T09:51:04.000Z</time>
      </trkpt>
      <trkpt lat="49.60156" lon="5.57022">
        <ele>321</ele>
        <time>2022-03-25T09:51:06.000Z</time>
      </trkpt>
      <trkpt lat="49.60157" lon="5.56994">
        <ele>321.20001220703</ele>
        <time>2022-03-25T09:51:11.000Z</time>
      </trkpt>
      <trkpt lat="49.60159" lon="5.5696">
        <ele>320.39999389648</ele>
        <time>2022-03-25T09:51:16.000Z</time>
      </trkpt>
      <trkpt lat="49.60158" lon="5.56951">
        <ele>320</ele>
        <time>2022-03-25T09:51:17.000Z</time>
      </trkpt>
      <trkpt lat="49.60158" lon="5.56924">
        <ele>319</ele>
        <time>2022-03-25T09:51:20.000Z</time>
      </trkpt>
      <trkpt lat="49.60159" lon="5.56901">
        <ele>318.79998779297</ele>
        <time>2022-03-25T09:51:23.000Z</time>
      </trkpt>
      <trkpt lat="49.6016" lon="5.56885">
        <ele>318.79998779297</ele>
        <time>2022-03-25T09:51:26.000Z</time>
      </trkpt>
      <trkpt lat="49.6016" lon="5.56871">
        <ele>318.60000610352</ele>
        <time>2022-03-25T09:53:48.000Z</time>
      </trkpt>
      <trkpt lat="49.60161" lon="5.5685">
        <ele>318.60000610352</ele>
        <time>2022-03-25T09:53:52.000Z</time>
      </trkpt>
      <trkpt lat="49.60161" lon="5.56843">
        <ele>318.39999389648</ele>
        <time>2022-03-25T09:53:53.000Z</time>
      </trkpt>
      <trkpt lat="49.60163" lon="5.56829">
        <ele>318.20001220703</ele>
        <time>2022-03-25T09:53:55.000Z</time>
      </trkpt>
      <trkpt lat="49.60162" lon="5.56808">
        <ele>318.20001220703</ele>
        <time>2022-03-25T09:53:59.000Z</time>
      </trkpt>
      <trkpt lat="49.60162" lon="5.56802">
        <ele>318</ele>
        <time>2022-03-25T09:54:00.000Z</time>
      </trkpt>
      <trkpt lat="49.60158" lon="5.56762">
        <ele>317.60000610352</ele>
        <time>2022-03-25T09:54:07.000Z</time>
      </trkpt>
      <trkpt lat="49.60158" lon="5.56757">
        <ele>317.60000610352</ele>
        <time>2022-03-25T09:54:08.000Z</time>
      </trkpt>
      <trkpt lat="49.60153" lon="5.56725">
        <ele>317</ele>
        <time>2022-03-25T09:54:13.000Z</time>
      </trkpt>
      <trkpt lat="49.60148" lon="5.56706">
        <ele>317.39999389648</ele>
        <time>2022-03-25T09:54:18.000Z</time>
      </trkpt>
      <trkpt lat="49.60146" lon="5.56697">
        <ele>317.39999389648</ele>
        <time>2022-03-25T09:54:51.000Z</time>
      </trkpt>
      <trkpt lat="49.60145" lon="5.56693">
        <ele>317.60000610352</ele>
        <time>2022-03-25T09:54:52.000Z</time>
      </trkpt>
      <trkpt lat="49.60145" lon="5.56677">
        <ele>318.79998779297</ele>
        <time>2022-03-25T09:55:00.000Z</time>
      </trkpt>
      <trkpt lat="49.60145" lon="5.56674">
        <ele>319</ele>
        <time>2022-03-25T09:55:01.000Z</time>
      </trkpt>
      <trkpt lat="49.60144" lon="5.56652">
        <ele>319.79998779297</ele>
        <time>2022-03-25T09:55:05.000Z</time>
      </trkpt>
      <trkpt lat="49.60138" lon="5.56624">
        <ele>320.39999389648</ele>
        <time>2022-03-25T09:55:10.000Z</time>
      </trkpt>
      <trkpt lat="49.60137" lon="5.56603">
        <ele>320.79998779297</ele>
        <time>2022-03-25T09:55:14.000Z</time>
      </trkpt>
      <trkpt lat="49.60137" lon="5.56597">
        <ele>320.60000610352</ele>
        <time>2022-03-25T09:55:15.000Z</time>
      </trkpt>
      <trkpt lat="49.60135" lon="5.56572">
        <ele>319</ele>
        <time>2022-03-25T09:55:19.000Z</time>
      </trkpt>
      <trkpt lat="49.60132" lon="5.56553">
        <ele>317.79998779297</ele>
        <time>2022-03-25T09:55:22.000Z</time>
      </trkpt>
      <trkpt lat="49.60127" lon="5.56535">
        <ele>316.60000610352</ele>
        <time>2022-03-25T09:55:25.000Z</time>
      </trkpt>
      <trkpt lat="49.60121" lon="5.56515">
        <ele>314.79998779297</ele>
        <time>2022-03-25T09:55:28.000Z</time>
      </trkpt>
      <trkpt lat="49.60121" lon="5.56509">
        <ele>314.60000610352</ele>
        <time>2022-03-25T09:55:29.000Z</time>
      </trkpt>
      <trkpt lat="49.60121" lon="5.56482">
        <ele>312.79998779297</ele>
        <time>2022-03-25T09:55:33.000Z</time>
      </trkpt>
      <trkpt lat="49.60121" lon="5.56469">
        <ele>312.20001220703</ele>
        <time>2022-03-25T09:55:35.000Z</time>
      </trkpt>
      <trkpt lat="49.60119" lon="5.56443">
        <ele>310</ele>
        <time>2022-03-25T09:55:39.000Z</time>
      </trkpt>
      <trkpt lat="49.60116" lon="5.56426">
        <ele>308.60000610352</ele>
        <time>2022-03-25T09:55:41.000Z</time>
      </trkpt>
      <trkpt lat="49.60111" lon="5.56406">
        <ele>306.60000610352</ele>
        <time>2022-03-25T09:55:43.000Z</time>
      </trkpt>
      <trkpt lat="49.60104" lon="5.56375">
        <ele>302.79998779297</ele>
        <time>2022-03-25T09:55:46.000Z</time>
      </trkpt>
      <trkpt lat="49.60099" lon="5.56355">
        <ele>300.20001220703</ele>
        <time>2022-03-25T09:55:48.000Z</time>
      </trkpt>
      <trkpt lat="49.60096" lon="5.56345">
        <ele>299.20001220703</ele>
        <time>2022-03-25T09:55:49.000Z</time>
      </trkpt>
      <trkpt lat="49.60093" lon="5.56335">
        <ele>297.60000610352</ele>
        <time>2022-03-25T09:55:50.000Z</time>
      </trkpt>
      <trkpt lat="49.60087" lon="5.56315">
        <ele>297</ele>
        <time>2022-03-25T09:55:52.000Z</time>
      </trkpt>
      <trkpt lat="49.60081" lon="5.56298">
        <ele>296.79998779297</ele>
        <time>2022-03-25T09:55:54.000Z</time>
      </trkpt>
      <trkpt lat="49.60079" lon="5.56291">
        <ele>296.79998779297</ele>
        <time>2022-03-25T09:55:55.000Z</time>
      </trkpt>
      <trkpt lat="49.60078" lon="5.56285">
        <ele>296.79998779297</ele>
        <time>2022-03-25T09:55:56.000Z</time>
      </trkpt>
      <trkpt lat="49.6008" lon="5.56277">
        <ele>296.79998779297</ele>
        <time>2022-03-25T09:55:57.000Z</time>
      </trkpt>
      <trkpt lat="49.60082" lon="5.56271">
        <ele>296.60000610352</ele>
        <time>2022-03-25T09:55:58.000Z</time>
      </trkpt>
      <trkpt lat="49.6009" lon="5.56256">
        <ele>295.79998779297</ele>
        <time>2022-03-25T09:56:01.000Z</time>
      </trkpt>
      <trkpt lat="49.60097" lon="5.56247">
        <ele>294.79998779297</ele>
        <time>2022-03-25T09:56:04.000Z</time>
      </trkpt>
      <trkpt lat="49.60101" lon="5.56239">
        <ele>294.39999389648</ele>
        <time>2022-03-25T09:56:06.000Z</time>
      </trkpt>
      <trkpt lat="49.60106" lon="5.56231">
        <ele>293.39999389648</ele>
        <time>2022-03-25T09:56:08.000Z</time>
      </trkpt>
      <trkpt lat="49.60111" lon="5.56228">
        <ele>292.60000610352</ele>
        <time>2022-03-25T09:56:09.000Z</time>
      </trkpt>
      <trkpt lat="49.60115" lon="5.56226">
        <ele>291.79998779297</ele>
        <time>2022-03-25T09:56:10.000Z</time>
      </trkpt>
      <trkpt lat="49.6012" lon="5.56224">
        <ele>291.20001220703</ele>
        <time>2022-03-25T09:56:11.000Z</time>
      </trkpt>
      <trkpt lat="49.60125" lon="5.56224">
        <ele>290.39999389648</ele>
        <time>2022-03-25T09:56:12.000Z</time>
      </trkpt>
      <trkpt lat="49.60131" lon="5.56223">
        <ele>289.60000610352</ele>
        <time>2022-03-25T09:56:13.000Z</time>
      </trkpt>
      <trkpt lat="49.60141" lon="5.56221">
        <ele>288</ele>
        <time>2022-03-25T09:56:15.000Z</time>
      </trkpt>
      <trkpt lat="49.60147" lon="5.56219">
        <ele>287.20001220703</ele>
        <time>2022-03-25T09:56:16.000Z</time>
      </trkpt>
      <trkpt lat="49.60153" lon="5.56216">
        <ele>286.39999389648</ele>
        <time>2022-03-25T09:56:17.000Z</time>
      </trkpt>
      <trkpt lat="49.60159" lon="5.56213">
        <ele>285.79998779297</ele>
        <time>2022-03-25T09:56:18.000Z</time>
      </trkpt>
      <trkpt lat="49.60166" lon="5.5621">
        <ele>285.20001220703</ele>
        <time>2022-03-25T09:56:19.000Z</time>
      </trkpt>
      <trkpt lat="49.60173" lon="5.56209">
        <ele>284.79998779297</ele>
        <time>2022-03-25T09:56:20.000Z</time>
      </trkpt>
      <trkpt lat="49.6019" lon="5.56207">
        <ele>283.60000610352</ele>
        <time>2022-03-25T09:56:22.000Z</time>
      </trkpt>
      <trkpt lat="49.60198" lon="5.56204">
        <ele>282.60000610352</ele>
        <time>2022-03-25T09:56:23.000Z</time>
      </trkpt>
      <trkpt lat="49.60204" lon="5.562">
        <ele>282.39999389648</ele>
        <time>2022-03-25T09:56:24.000Z</time>
      </trkpt>
      <trkpt lat="49.60211" lon="5.56196">
        <ele>282</ele>
        <time>2022-03-25T09:56:25.000Z</time>
      </trkpt>
      <trkpt lat="49.60218" lon="5.5619">
        <ele>281.79998779297</ele>
        <time>2022-03-25T09:56:26.000Z</time>
      </trkpt>
      <trkpt lat="49.60231" lon="5.5618">
        <ele>281.20001220703</ele>
        <time>2022-03-25T09:56:28.000Z</time>
      </trkpt>
      <trkpt lat="49.60245" lon="5.56169">
        <ele>281.39999389648</ele>
        <time>2022-03-25T09:56:33.000Z</time>
      </trkpt>
      <trkpt lat="49.60247" lon="5.56166">
        <ele>281.39999389648</ele>
        <time>2022-03-25T09:56:34.000Z</time>
      </trkpt>
      <trkpt lat="49.60248" lon="5.56164">
        <ele>281.39999389648</ele>
        <time>2022-03-25T09:56:35.000Z</time>
      </trkpt>
      <trkpt lat="49.60253" lon="5.56151">
        <ele>281.39999389648</ele>
        <time>2022-03-25T09:56:39.000Z</time>
      </trkpt>
      <trkpt lat="49.60254" lon="5.56147">
        <ele>281.39999389648</ele>
        <time>2022-03-25T09:56:40.000Z</time>
      </trkpt>
      <trkpt lat="49.60251" lon="5.56129">
        <ele>280.39999389648</ele>
        <time>2022-03-25T09:56:43.000Z</time>
      </trkpt>
      <trkpt lat="49.60246" lon="5.56116">
        <ele>279.60000610352</ele>
        <time>2022-03-25T09:56:45.000Z</time>
      </trkpt>
      <trkpt lat="49.60234" lon="5.56084">
        <ele>278.60000610352</ele>
        <time>2022-03-25T09:56:51.000Z</time>
      </trkpt>
      <trkpt lat="49.60216" lon="5.56053">
        <ele>278.39999389648</ele>
        <time>2022-03-25T09:56:54.000Z</time>
      </trkpt>
      <trkpt lat="49.60208" lon="5.56034">
        <ele>278.20001220703</ele>
        <time>2022-03-25T09:56:56.000Z</time>
      </trkpt>
      <trkpt lat="49.60139" lon="5.55935">
        <ele>273</ele>
        <time>2022-03-25T09:56:57.000Z</time>
      </trkpt>
      <trkpt lat="49.60135" lon="5.55922">
        <ele>272.79998779297</ele>
        <time>2022-03-25T09:56:59.000Z</time>
      </trkpt>
      <trkpt lat="49.60132" lon="5.55915">
        <ele>272.79998779297</ele>
        <time>2022-03-25T09:57:00.000Z</time>
      </trkpt>
      <trkpt lat="49.6013" lon="5.55908">
        <ele>272.79998779297</ele>
        <time>2022-03-25T09:57:01.000Z</time>
      </trkpt>
      <trkpt lat="49.60122" lon="5.55885">
        <ele>271.79998779297</ele>
        <time>2022-03-25T09:57:04.000Z</time>
      </trkpt>
      <trkpt lat="49.60107" lon="5.55858">
        <ele>270.20001220703</ele>
        <time>2022-03-25T09:57:07.000Z</time>
      </trkpt>
      <trkpt lat="49.60089" lon="5.5583">
        <ele>268.39999389648</ele>
        <time>2022-03-25T09:57:10.000Z</time>
      </trkpt>
      <trkpt lat="49.60081" lon="5.55817">
        <ele>267.39999389648</ele>
        <time>2022-03-25T09:57:12.000Z</time>
      </trkpt>
      <trkpt lat="49.60077" lon="5.55811">
        <ele>267</ele>
        <time>2022-03-25T09:57:13.000Z</time>
      </trkpt>
      <trkpt lat="49.60071" lon="5.55805">
        <ele>266.39999389648</ele>
        <time>2022-03-25T09:57:14.000Z</time>
      </trkpt>
      <trkpt lat="49.6006" lon="5.55795">
        <ele>264.79998779297</ele>
        <time>2022-03-25T09:57:16.000Z</time>
      </trkpt>
      <trkpt lat="49.60055" lon="5.55792">
        <ele>264.39999389648</ele>
        <time>2022-03-25T09:57:17.000Z</time>
      </trkpt>
      <trkpt lat="49.60039" lon="5.55779">
        <ele>264</ele>
        <time>2022-03-25T09:57:20.000Z</time>
      </trkpt>
      <trkpt lat="49.60035" lon="5.55775">
        <ele>263.60000610352</ele>
        <time>2022-03-25T09:57:21.000Z</time>
      </trkpt>
      <trkpt lat="49.60031" lon="5.55771">
        <ele>263.39999389648</ele>
        <time>2022-03-25T09:57:22.000Z</time>
      </trkpt>
      <trkpt lat="49.60021" lon="5.55764">
        <ele>262.79998779297</ele>
        <time>2022-03-25T09:57:24.000Z</time>
      </trkpt>
      <trkpt lat="49.60012" lon="5.55757">
        <ele>262.39999389648</ele>
        <time>2022-03-25T09:57:26.000Z</time>
      </trkpt>
      <trkpt lat="49.60007" lon="5.55754">
        <ele>262.20001220703</ele>
        <time>2022-03-25T09:57:27.000Z</time>
      </trkpt>
      <trkpt lat="49.60003" lon="5.55751">
        <ele>262</ele>
        <time>2022-03-25T09:57:28.000Z</time>
      </trkpt>
      <trkpt lat="49.59997" lon="5.55746">
        <ele>260.20001220703</ele>
        <time>2022-03-25T09:57:30.000Z</time>
      </trkpt>
      <trkpt lat="49.59995" lon="5.55742">
        <ele>259.39999389648</ele>
        <time>2022-03-25T09:57:31.000Z</time>
      </trkpt>
      <trkpt lat="49.59994" lon="5.55735">
        <ele>258.39999389648</ele>
        <time>2022-03-25T09:57:33.000Z</time>
      </trkpt>
      <trkpt lat="49.59995" lon="5.55733">
        <ele>258.20001220703</ele>
        <time>2022-03-25T09:57:35.000Z</time>
      </trkpt>
      <trkpt lat="49.59996" lon="5.55731">
        <ele>258.20001220703</ele>
        <time>2022-03-25T09:57:36.000Z</time>
      </trkpt>
      <trkpt lat="49.59998" lon="5.5573">
        <ele>258.20001220703</ele>
        <time>2022-03-25T09:57:37.000Z</time>
      </trkpt>
      <trkpt lat="49.60001" lon="5.5573">
        <ele>258.60000610352</ele>
        <time>2022-03-25T09:57:39.000Z</time>
      </trkpt>
      <trkpt lat="49.60007" lon="5.55731">
        <ele>259</ele>
        <time>2022-03-25T09:57:42.000Z</time>
      </trkpt>
      <trkpt lat="49.60015" lon="5.55732">
        <ele>259.39999389648</ele>
        <time>2022-03-25T09:57:46.000Z</time>
      </trkpt>
      <trkpt lat="49.60019" lon="5.55732">
        <ele>259.79998779297</ele>
        <time>2022-03-25T09:57:48.000Z</time>
      </trkpt>
      <trkpt lat="49.60026" lon="5.55733">
        <ele>260.39999389648</ele>
        <time>2022-03-25T09:57:51.000Z</time>
      </trkpt>
      <trkpt lat="49.60032" lon="5.55733">
        <ele>260.60000610352</ele>
        <time>2022-03-25T09:57:54.000Z</time>
      </trkpt>
      <trkpt lat="49.60038" lon="5.55734">
        <ele>260.79998779297</ele>
        <time>2022-03-25T09:57:57.000Z</time>
      </trkpt>
      <trkpt lat="49.60045" lon="5.55736">
        <ele>261</ele>
        <time>2022-03-25T09:58:00.000Z</time>
      </trkpt>
      <trkpt lat="49.60048" lon="5.55737">
        <ele>261</ele>
        <time>2022-03-25T09:58:01.000Z</time>
      </trkpt>
      <trkpt lat="49.60053" lon="5.55737">
        <ele>261.20001220703</ele>
        <time>2022-03-25T09:58:03.000Z</time>
      </trkpt>
      <trkpt lat="49.6006" lon="5.55736">
        <ele>261.60000610352</ele>
        <time>2022-03-25T09:58:05.000Z</time>
      </trkpt>
      <trkpt lat="49.60066" lon="5.55736">
        <ele>262.20001220703</ele>
        <time>2022-03-25T09:58:07.000Z</time>
      </trkpt>
      <trkpt lat="49.6007" lon="5.55738">
        <ele>262.79998779297</ele>
        <time>2022-03-25T09:58:08.000Z</time>
      </trkpt>
      <trkpt lat="49.60077" lon="5.55741">
        <ele>263.60000610352</ele>
        <time>2022-03-25T09:58:10.000Z</time>
      </trkpt>
      <trkpt lat="49.60082" lon="5.55744">
        <ele>264.39999389648</ele>
        <time>2022-03-25T09:58:12.000Z</time>
      </trkpt>
      <trkpt lat="49.60092" lon="5.55749">
        <ele>265.60000610352</ele>
        <time>2022-03-25T09:58:15.000Z</time>
      </trkpt>
      <trkpt lat="49.60103" lon="5.55758">
        <ele>267.60000610352</ele>
        <time>2022-03-25T09:58:19.000Z</time>
      </trkpt>
      <trkpt lat="49.60112" lon="5.55762">
        <ele>269</ele>
        <time>2022-03-25T09:58:22.000Z</time>
      </trkpt>
      <trkpt lat="49.6012" lon="5.55765">
        <ele>270</ele>
        <time>2022-03-25T09:58:25.000Z</time>
      </trkpt>
      <trkpt lat="49.60124" lon="5.55767">
        <ele>270.20001220703</ele>
        <time>2022-03-25T09:58:26.000Z</time>
      </trkpt>
      <trkpt lat="49.60143" lon="5.55779">
        <ele>272</ele>
        <time>2022-03-25T09:58:32.000Z</time>
      </trkpt>
      <trkpt lat="49.60151" lon="5.55786">
        <ele>272.79998779297</ele>
        <time>2022-03-25T09:58:35.000Z</time>
      </trkpt>
      <trkpt lat="49.60158" lon="5.55796">
        <ele>273.79998779297</ele>
        <time>2022-03-25T09:58:38.000Z</time>
      </trkpt>
      <trkpt lat="49.6016" lon="5.55799">
        <ele>274</ele>
        <time>2022-03-25T09:58:39.000Z</time>
      </trkpt>
      <trkpt lat="49.60169" lon="5.55808">
        <ele>275</ele>
        <time>2022-03-25T09:58:43.000Z</time>
      </trkpt>
      <trkpt lat="49.60175" lon="5.55814">
        <ele>275.60000610352</ele>
        <time>2022-03-25T09:58:46.000Z</time>
      </trkpt>
      <trkpt lat="49.60179" lon="5.55817">
        <ele>276</ele>
        <time>2022-03-25T09:58:48.000Z</time>
      </trkpt>
      <trkpt lat="49.6019" lon="5.55823">
        <ele>276.79998779297</ele>
        <time>2022-03-25T09:58:52.000Z</time>
      </trkpt>
      <trkpt lat="49.60195" lon="5.55825">
        <ele>277.20001220703</ele>
        <time>2022-03-25T09:58:54.000Z</time>
      </trkpt>
      <trkpt lat="49.60203" lon="5.55826">
        <ele>277.79998779297</ele>
        <time>2022-03-25T09:58:57.000Z</time>
      </trkpt>
      <trkpt lat="49.60215" lon="5.55828">
        <ele>278.79998779297</ele>
        <time>2022-03-25T09:59:01.000Z</time>
      </trkpt>
      <trkpt lat="49.60229" lon="5.55832">
        <ele>279.60000610352</ele>
        <time>2022-03-25T09:59:05.000Z</time>
      </trkpt>
      <trkpt lat="49.60233" lon="5.55834">
        <ele>279.79998779297</ele>
        <time>2022-03-25T09:59:06.000Z</time>
      </trkpt>
      <trkpt lat="49.60252" lon="5.55849">
        <ele>281.60000610352</ele>
        <time>2022-03-25T09:59:12.000Z</time>
      </trkpt>
      <trkpt lat="49.60264" lon="5.55873">
        <ele>283.39999389648</ele>
        <time>2022-03-25T09:59:17.000Z</time>
      </trkpt>
      <trkpt lat="49.60267" lon="5.55879">
        <ele>283.60000610352</ele>
        <time>2022-03-25T09:59:18.000Z</time>
      </trkpt>
      <trkpt lat="49.6027" lon="5.55886">
        <ele>283.79998779297</ele>
        <time>2022-03-25T09:59:20.000Z</time>
      </trkpt>
      <trkpt lat="49.60274" lon="5.55894">
        <ele>284.20001220703</ele>
        <time>2022-03-25T09:59:22.000Z</time>
      </trkpt>
      <trkpt lat="49.60278" lon="5.55899">
        <ele>284.39999389648</ele>
        <time>2022-03-25T09:59:23.000Z</time>
      </trkpt>
      <trkpt lat="49.60281" lon="5.55904">
        <ele>284.60000610352</ele>
        <time>2022-03-25T09:59:24.000Z</time>
      </trkpt>
      <trkpt lat="49.60297" lon="5.55921">
        <ele>286.39999389648</ele>
        <time>2022-03-25T09:59:28.000Z</time>
      </trkpt>
      <trkpt lat="49.60309" lon="5.55929">
        <ele>288.20001220703</ele>
        <time>2022-03-25T09:59:31.000Z</time>
      </trkpt>
      <trkpt lat="49.60315" lon="5.55933">
        <ele>289.39999389648</ele>
        <time>2022-03-25T09:59:33.000Z</time>
      </trkpt>
      <trkpt lat="49.60318" lon="5.55934">
        <ele>289.79998779297</ele>
        <time>2022-03-25T09:59:34.000Z</time>
      </trkpt>
      <trkpt lat="49.60327" lon="5.5594">
        <ele>291.39999389648</ele>
        <time>2022-03-25T09:59:37.000Z</time>
      </trkpt>
      <trkpt lat="49.60334" lon="5.55944">
        <ele>292.60000610352</ele>
        <time>2022-03-25T09:59:39.000Z</time>
      </trkpt>
      <trkpt lat="49.60352" lon="5.55959">
        <ele>294.39999389648</ele>
        <time>2022-03-25T09:59:44.000Z</time>
      </trkpt>
      <trkpt lat="49.60362" lon="5.55967">
        <ele>295.20001220703</ele>
        <time>2022-03-25T09:59:47.000Z</time>
      </trkpt>
      <trkpt lat="49.60371" lon="5.55977">
        <ele>296</ele>
        <time>2022-03-25T09:59:50.000Z</time>
      </trkpt>
      <trkpt lat="49.60385" lon="5.55991">
        <ele>296.39999389648</ele>
        <time>2022-03-25T09:59:54.000Z</time>
      </trkpt>
      <trkpt lat="49.60391" lon="5.55996">
        <ele>296.60000610352</ele>
        <time>2022-03-25T09:59:56.000Z</time>
      </trkpt>
      <trkpt lat="49.60394" lon="5.55997">
        <ele>296.79998779297</ele>
        <time>2022-03-25T09:59:57.000Z</time>
      </trkpt>
      <trkpt lat="49.6041" lon="5.55999">
        <ele>297.39999389648</ele>
        <time>2022-03-25T10:00:01.000Z</time>
      </trkpt>
      <trkpt lat="49.60415" lon="5.56001">
        <ele>297.79998779297</ele>
        <time>2022-03-25T10:00:02.000Z</time>
      </trkpt>
      <trkpt lat="49.60434" lon="5.56">
        <ele>295.60000610352</ele>
        <time>2022-03-25T10:00:05.000Z</time>
      </trkpt>
      <trkpt lat="49.60441" lon="5.56">
        <ele>294.60000610352</ele>
        <time>2022-03-25T10:00:06.000Z</time>
      </trkpt>
      <trkpt lat="49.60454" lon="5.56001">
        <ele>293.79998779297</ele>
        <time>2022-03-25T10:00:08.000Z</time>
      </trkpt>
      <trkpt lat="49.60461" lon="5.56003">
        <ele>293.60000610352</ele>
        <time>2022-03-25T10:00:09.000Z</time>
      </trkpt>
      <trkpt lat="49.60469" lon="5.56004">
        <ele>293.79998779297</ele>
        <time>2022-03-25T10:00:10.000Z</time>
      </trkpt>
      <trkpt lat="49.60496" lon="5.56008">
        <ele>294.20001220703</ele>
        <time>2022-03-25T10:00:14.000Z</time>
      </trkpt>
      <trkpt lat="49.60502" lon="5.5601">
        <ele>294.39999389648</ele>
        <time>2022-03-25T10:00:15.000Z</time>
      </trkpt>
      <trkpt lat="49.60521" lon="5.56013">
        <ele>293.79998779297</ele>
        <time>2022-03-25T10:00:18.000Z</time>
      </trkpt>
      <trkpt lat="49.60527" lon="5.56017">
        <ele>294</ele>
        <time>2022-03-25T10:00:19.000Z</time>
      </trkpt>
      <trkpt lat="49.60534" lon="5.56019">
        <ele>293.79998779297</ele>
        <time>2022-03-25T10:00:20.000Z</time>
      </trkpt>
      <trkpt lat="49.60559" lon="5.56029">
        <ele>291.79998779297</ele>
        <time>2022-03-25T10:00:24.000Z</time>
      </trkpt>
      <trkpt lat="49.60565" lon="5.56033">
        <ele>291.20001220703</ele>
        <time>2022-03-25T10:00:25.000Z</time>
      </trkpt>
      <trkpt lat="49.60574" lon="5.56043">
        <ele>290.60000610352</ele>
        <time>2022-03-25T10:00:27.000Z</time>
      </trkpt>
      <trkpt lat="49.60578" lon="5.56046">
        <ele>290.39999389648</ele>
        <time>2022-03-25T10:00:28.000Z</time>
      </trkpt>
      <trkpt lat="49.60581" lon="5.5605">
        <ele>290.20001220703</ele>
        <time>2022-03-25T10:00:29.000Z</time>
      </trkpt>
      <trkpt lat="49.60602" lon="5.56075">
        <ele>290.79998779297</ele>
        <time>2022-03-25T10:00:35.000Z</time>
      </trkpt>
      <trkpt lat="49.60617" lon="5.56091">
        <ele>291.20001220703</ele>
        <time>2022-03-25T10:00:38.000Z</time>
      </trkpt>
      <trkpt lat="49.60621" lon="5.56097">
        <ele>291.20001220703</ele>
        <time>2022-03-25T10:00:39.000Z</time>
      </trkpt>
      <trkpt lat="49.60635" lon="5.56116">
        <ele>291</ele>
        <time>2022-03-25T10:00:42.000Z</time>
      </trkpt>
      <trkpt lat="49.60641" lon="5.5612">
        <ele>290</ele>
        <time>2022-03-25T10:00:43.000Z</time>
      </trkpt>
      <trkpt lat="49.60648" lon="5.56121">
        <ele>289.20001220703</ele>
        <time>2022-03-25T10:00:44.000Z</time>
      </trkpt>
      <trkpt lat="49.60654" lon="5.5612">
        <ele>288.39999389648</ele>
        <time>2022-03-25T10:00:45.000Z</time>
      </trkpt>
      <trkpt lat="49.60665" lon="5.56117">
        <ele>287</ele>
        <time>2022-03-25T10:00:47.000Z</time>
      </trkpt>
      <trkpt lat="49.60672" lon="5.56119">
        <ele>286.60000610352</ele>
        <time>2022-03-25T10:00:49.000Z</time>
      </trkpt>
      <trkpt lat="49.60677" lon="5.56122">
        <ele>286.79998779297</ele>
        <time>2022-03-25T10:00:51.000Z</time>
      </trkpt>
      <trkpt lat="49.60693" lon="5.56136">
        <ele>287.79998779297</ele>
        <time>2022-03-25T10:00:56.000Z</time>
      </trkpt>
      <trkpt lat="49.60704" lon="5.56147">
        <ele>288.39999389648</ele>
        <time>2022-03-25T10:00:59.000Z</time>
      </trkpt>
      <trkpt lat="49.60714" lon="5.56153">
        <ele>289</ele>
        <time>2022-03-25T10:01:02.000Z</time>
      </trkpt>
      <trkpt lat="49.6072" lon="5.56156">
        <ele>289.39999389648</ele>
        <time>2022-03-25T10:01:04.000Z</time>
      </trkpt>
      <trkpt lat="49.60726" lon="5.56156">
        <ele>289.60000610352</ele>
        <time>2022-03-25T10:01:07.000Z</time>
      </trkpt>
      <trkpt lat="49.60729" lon="5.56155">
        <ele>289.60000610352</ele>
        <time>2022-03-25T10:01:08.000Z</time>
      </trkpt>
      <trkpt lat="49.60731" lon="5.56154">
        <ele>289.79998779297</ele>
        <time>2022-03-25T10:01:09.000Z</time>
      </trkpt>
      <trkpt lat="49.60736" lon="5.56152">
        <ele>289.79998779297</ele>
        <time>2022-03-25T10:01:11.000Z</time>
      </trkpt>
      <trkpt lat="49.60743" lon="5.56149">
        <ele>290.39999389648</ele>
        <time>2022-03-25T10:01:14.000Z</time>
      </trkpt>
      <trkpt lat="49.60747" lon="5.56147">
        <ele>290.60000610352</ele>
        <time>2022-03-25T10:01:15.000Z</time>
      </trkpt>
      <trkpt lat="49.60752" lon="5.56144">
        <ele>291</ele>
        <time>2022-03-25T10:01:17.000Z</time>
      </trkpt>
      <trkpt lat="49.60756" lon="5.56142">
        <ele>291.39999389648</ele>
        <time>2022-03-25T10:01:19.000Z</time>
      </trkpt>
      <trkpt lat="49.6076" lon="5.5614">
        <ele>292</ele>
        <time>2022-03-25T10:01:21.000Z</time>
      </trkpt>
      <trkpt lat="49.60763" lon="5.56139">
        <ele>292.39999389648</ele>
        <time>2022-03-25T10:01:22.000Z</time>
      </trkpt>
      <trkpt lat="49.60769" lon="5.56138">
        <ele>293.20001220703</ele>
        <time>2022-03-25T10:01:24.000Z</time>
      </trkpt>
      <trkpt lat="49.60772" lon="5.56138">
        <ele>293.79998779297</ele>
        <time>2022-03-25T10:01:25.000Z</time>
      </trkpt>
      <trkpt lat="49.60774" lon="5.56138">
        <ele>294</ele>
        <time>2022-03-25T10:01:26.000Z</time>
      </trkpt>
      <trkpt lat="49.60783" lon="5.56137">
        <ele>295.60000610352</ele>
        <time>2022-03-25T10:01:29.000Z</time>
      </trkpt>
      <trkpt lat="49.60788" lon="5.56135">
        <ele>296.79998779297</ele>
        <time>2022-03-25T10:01:31.000Z</time>
      </trkpt>
      <trkpt lat="49.60793" lon="5.56133">
        <ele>298</ele>
        <time>2022-03-25T10:01:33.000Z</time>
      </trkpt>
      <trkpt lat="49.60798" lon="5.56131">
        <ele>299.20001220703</ele>
        <time>2022-03-25T10:01:35.000Z</time>
      </trkpt>
      <trkpt lat="49.60803" lon="5.5613">
        <ele>300</ele>
        <time>2022-03-25T10:01:37.000Z</time>
      </trkpt>
      <trkpt lat="49.6081" lon="5.56129">
        <ele>301.20001220703</ele>
        <time>2022-03-25T10:01:40.000Z</time>
      </trkpt>
      <trkpt lat="49.60817" lon="5.56127">
        <ele>302.20001220703</ele>
        <time>2022-03-25T10:01:43.000Z</time>
      </trkpt>
      <trkpt lat="49.6082" lon="5.56127">
        <ele>302.60000610352</ele>
        <time>2022-03-25T10:01:44.000Z</time>
      </trkpt>
      <trkpt lat="49.60828" lon="5.56123">
        <ele>303.79998779297</ele>
        <time>2022-03-25T10:01:47.000Z</time>
      </trkpt>
      <trkpt lat="49.60834" lon="5.56123">
        <ele>304.60000610352</ele>
        <time>2022-03-25T10:01:49.000Z</time>
      </trkpt>
      <trkpt lat="49.60843" lon="5.56121">
        <ele>306</ele>
        <time>2022-03-25T10:01:52.000Z</time>
      </trkpt>
      <trkpt lat="49.60861" lon="5.56119">
        <ele>307.20001220703</ele>
        <time>2022-03-25T10:01:56.000Z</time>
      </trkpt>
      <trkpt lat="49.60868" lon="5.56122">
        <ele>308</ele>
        <time>2022-03-25T10:01:58.000Z</time>
      </trkpt>
      <trkpt lat="49.60875" lon="5.56131">
        <ele>309.39999389648</ele>
        <time>2022-03-25T10:02:01.000Z</time>
      </trkpt>
      <trkpt lat="49.60876" lon="5.56133">
        <ele>309.79998779297</ele>
        <time>2022-03-25T10:02:02.000Z</time>
      </trkpt>
      <trkpt lat="49.60881" lon="5.56144">
        <ele>311</ele>
        <time>2022-03-25T10:02:05.000Z</time>
      </trkpt>
      <trkpt lat="49.60883" lon="5.56154">
        <ele>311.60000610352</ele>
        <time>2022-03-25T10:02:08.000Z</time>
      </trkpt>
      <trkpt lat="49.60884" lon="5.56156">
        <ele>311.60000610352</ele>
        <time>2022-03-25T10:02:09.000Z</time>
      </trkpt>
      <trkpt lat="49.60885" lon="5.56163">
        <ele>312.20001220703</ele>
        <time>2022-03-25T10:02:11.000Z</time>
      </trkpt>
      <trkpt lat="49.60886" lon="5.56169">
        <ele>312.79998779297</ele>
        <time>2022-03-25T10:02:13.000Z</time>
      </trkpt>
      <trkpt lat="49.60887" lon="5.56174">
        <ele>313.20001220703</ele>
        <time>2022-03-25T10:02:15.000Z</time>
      </trkpt>
      <trkpt lat="49.60887" lon="5.56181">
        <ele>313.79998779297</ele>
        <time>2022-03-25T10:02:17.000Z</time>
      </trkpt>
      <trkpt lat="49.60889" lon="5.56191">
        <ele>314.60000610352</ele>
        <time>2022-03-25T10:02:20.000Z</time>
      </trkpt>
      <trkpt lat="49.60888" lon="5.56194">
        <ele>314.60000610352</ele>
        <time>2022-03-25T10:02:21.000Z</time>
      </trkpt>
      <trkpt lat="49.6089" lon="5.56201">
        <ele>315</ele>
        <time>2022-03-25T10:02:23.000Z</time>
      </trkpt>
      <trkpt lat="49.60893" lon="5.56208">
        <ele>315.60000610352</ele>
        <time>2022-03-25T10:02:25.000Z</time>
      </trkpt>
      <trkpt lat="49.60896" lon="5.56216">
        <ele>316</ele>
        <time>2022-03-25T10:02:27.000Z</time>
      </trkpt>
      <trkpt lat="49.60899" lon="5.56222">
        <ele>316.39999389648</ele>
        <time>2022-03-25T10:02:29.000Z</time>
      </trkpt>
      <trkpt lat="49.609" lon="5.56234">
        <ele>317.20001220703</ele>
        <time>2022-03-25T10:02:32.000Z</time>
      </trkpt>
      <trkpt lat="49.60901" lon="5.56237">
        <ele>317.39999389648</ele>
        <time>2022-03-25T10:02:33.000Z</time>
      </trkpt>
      <trkpt lat="49.60904" lon="5.56246">
        <ele>318.20001220703</ele>
        <time>2022-03-25T10:02:36.000Z</time>
      </trkpt>
      <trkpt lat="49.60909" lon="5.56248">
        <ele>318.79998779297</ele>
        <time>2022-03-25T10:02:38.000Z</time>
      </trkpt>
      <trkpt lat="49.6091" lon="5.56246">
        <ele>318.79998779297</ele>
        <time>2022-03-25T10:02:39.000Z</time>
      </trkpt>
      <trkpt lat="49.60914" lon="5.56236">
        <ele>318.39999389648</ele>
        <time>2022-03-25T10:02:43.000Z</time>
      </trkpt>
      <trkpt lat="49.60917" lon="5.56215">
        <ele>317.20001220703</ele>
        <time>2022-03-25T10:02:47.000Z</time>
      </trkpt>
      <trkpt lat="49.60917" lon="5.56207">
        <ele>316.60000610352</ele>
        <time>2022-03-25T10:02:48.000Z</time>
      </trkpt>
      <trkpt lat="49.60916" lon="5.56197">
        <ele>316</ele>
        <time>2022-03-25T10:02:49.000Z</time>
      </trkpt>
      <trkpt lat="49.60915" lon="5.56187">
        <ele>315.20001220703</ele>
        <time>2022-03-25T10:02:50.000Z</time>
      </trkpt>
      <trkpt lat="49.60913" lon="5.5618">
        <ele>314.60000610352</ele>
        <time>2022-03-25T10:02:51.000Z</time>
      </trkpt>
      <trkpt lat="49.60911" lon="5.56172">
        <ele>314</ele>
        <time>2022-03-25T10:02:52.000Z</time>
      </trkpt>
      <trkpt lat="49.60906" lon="5.56159">
        <ele>313.20001220703</ele>
        <time>2022-03-25T10:02:54.000Z</time>
      </trkpt>
      <trkpt lat="49.60904" lon="5.56146">
        <ele>312.39999389648</ele>
        <time>2022-03-25T10:02:56.000Z</time>
      </trkpt>
      <trkpt lat="49.60904" lon="5.56133">
        <ele>311.20001220703</ele>
        <time>2022-03-25T10:02:58.000Z</time>
      </trkpt>
      <trkpt lat="49.60908" lon="5.56128">
        <ele>310.60000610352</ele>
        <time>2022-03-25T10:02:59.000Z</time>
      </trkpt>
      <trkpt lat="49.60911" lon="5.56124">
        <ele>310.79998779297</ele>
        <time>2022-03-25T10:03:00.000Z</time>
      </trkpt>
      <trkpt lat="49.60918" lon="5.56117">
        <ele>311</ele>
        <time>2022-03-25T10:03:02.000Z</time>
      </trkpt>
      <trkpt lat="49.6093" lon="5.56106">
        <ele>311</ele>
        <time>2022-03-25T10:03:05.000Z</time>
      </trkpt>
      <trkpt lat="49.60939" lon="5.56099">
        <ele>310.60000610352</ele>
        <time>2022-03-25T10:03:07.000Z</time>
      </trkpt>
      <trkpt lat="49.60947" lon="5.56092">
        <ele>310.60000610352</ele>
        <time>2022-03-25T10:03:09.000Z</time>
      </trkpt>
      <trkpt lat="49.60952" lon="5.56088">
        <ele>310.20001220703</ele>
        <time>2022-03-25T10:03:10.000Z</time>
      </trkpt>
      <trkpt lat="49.6096" lon="5.56077">
        <ele>308.79998779297</ele>
        <time>2022-03-25T10:03:12.000Z</time>
      </trkpt>
      <trkpt lat="49.60967" lon="5.56059">
        <ele>306.39999389648</ele>
        <time>2022-03-25T10:03:14.000Z</time>
      </trkpt>
      <trkpt lat="49.6097" lon="5.5605">
        <ele>305.39999389648</ele>
        <time>2022-03-25T10:03:15.000Z</time>
      </trkpt>
      <trkpt lat="49.60971" lon="5.56041">
        <ele>304</ele>
        <time>2022-03-25T10:03:16.000Z</time>
      </trkpt>
      <trkpt lat="49.60972" lon="5.56032">
        <ele>302.60000610352</ele>
        <time>2022-03-25T10:03:17.000Z</time>
      </trkpt>
      <trkpt lat="49.60972" lon="5.56025">
        <ele>301.79998779297</ele>
        <time>2022-03-25T10:03:18.000Z</time>
      </trkpt>
      <trkpt lat="49.60974" lon="5.5601">
        <ele>300</ele>
        <time>2022-03-25T10:03:20.000Z</time>
      </trkpt>
      <trkpt lat="49.60974" lon="5.55998">
        <ele>298.79998779297</ele>
        <time>2022-03-25T10:03:22.000Z</time>
      </trkpt>
      <trkpt lat="49.60975" lon="5.55992">
        <ele>298.39999389648</ele>
        <time>2022-03-25T10:03:23.000Z</time>
      </trkpt>
      <trkpt lat="49.60977" lon="5.55988">
        <ele>298</ele>
        <time>2022-03-25T10:03:24.000Z</time>
      </trkpt>
      <trkpt lat="49.60979" lon="5.55979">
        <ele>297.20001220703</ele>
        <time>2022-03-25T10:03:26.000Z</time>
      </trkpt>
      <trkpt lat="49.60982" lon="5.55973">
        <ele>296.39999389648</ele>
        <time>2022-03-25T10:03:27.000Z</time>
      </trkpt>
      <trkpt lat="49.60985" lon="5.55966">
        <ele>295.79998779297</ele>
        <time>2022-03-25T10:03:28.000Z</time>
      </trkpt>
      <trkpt lat="49.60989" lon="5.55946">
        <ele>294</ele>
        <time>2022-03-25T10:03:30.000Z</time>
      </trkpt>
      <trkpt lat="49.6099" lon="5.55936">
        <ele>293.20001220703</ele>
        <time>2022-03-25T10:03:31.000Z</time>
      </trkpt>
      <trkpt lat="49.60991" lon="5.55927">
        <ele>292.79998779297</ele>
        <time>2022-03-25T10:03:32.000Z</time>
      </trkpt>
      <trkpt lat="49.60992" lon="5.55921">
        <ele>292.39999389648</ele>
        <time>2022-03-25T10:03:33.000Z</time>
      </trkpt>
      <trkpt lat="49.60992" lon="5.55914">
        <ele>292.20001220703</ele>
        <time>2022-03-25T10:03:34.000Z</time>
      </trkpt>
      <trkpt lat="49.60994" lon="5.55911">
        <ele>291.79998779297</ele>
        <time>2022-03-25T10:03:36.000Z</time>
      </trkpt>
      <trkpt lat="49.60995" lon="5.55909">
        <ele>291.60000610352</ele>
        <time>2022-03-25T10:03:37.000Z</time>
      </trkpt>
      <trkpt lat="49.61002" lon="5.55896">
        <ele>291.20001220703</ele>
        <time>2022-03-25T10:03:43.000Z</time>
      </trkpt>
      <trkpt lat="49.61" lon="5.55889">
        <ele>291</ele>
        <time>2022-03-25T10:03:45.000Z</time>
      </trkpt>
      <trkpt lat="49.60991" lon="5.55867">
        <ele>290.20001220703</ele>
        <time>2022-03-25T10:03:50.000Z</time>
      </trkpt>
      <trkpt lat="49.60979" lon="5.5585">
        <ele>289.60000610352</ele>
        <time>2022-03-25T10:03:53.000Z</time>
      </trkpt>
      <trkpt lat="49.60969" lon="5.55842">
        <ele>289</ele>
        <time>2022-03-25T10:03:55.000Z</time>
      </trkpt>
      <trkpt lat="49.60958" lon="5.55837">
        <ele>288.39999389648</ele>
        <time>2022-03-25T10:03:57.000Z</time>
      </trkpt>
      <trkpt lat="49.60952" lon="5.55835">
        <ele>288.20001220703</ele>
        <time>2022-03-25T10:03:58.000Z</time>
      </trkpt>
      <trkpt lat="49.60939" lon="5.55831">
        <ele>286.79998779297</ele>
        <time>2022-03-25T10:04:00.000Z</time>
      </trkpt>
      <trkpt lat="49.60933" lon="5.55827">
        <ele>285.79998779297</ele>
        <time>2022-03-25T10:04:01.000Z</time>
      </trkpt>
      <trkpt lat="49.60923" lon="5.5581">
        <ele>283.60000610352</ele>
        <time>2022-03-25T10:04:03.000Z</time>
      </trkpt>
      <trkpt lat="49.60914" lon="5.55786">
        <ele>280.60000610352</ele>
        <time>2022-03-25T10:04:05.000Z</time>
      </trkpt>
      <trkpt lat="49.60904" lon="5.55765">
        <ele>278.79998779297</ele>
        <time>2022-03-25T10:04:07.000Z</time>
      </trkpt>
      <trkpt lat="49.60901" lon="5.55756">
        <ele>278.20001220703</ele>
        <time>2022-03-25T10:04:08.000Z</time>
      </trkpt>
      <trkpt lat="49.60891" lon="5.55739">
        <ele>277</ele>
        <time>2022-03-25T10:04:10.000Z</time>
      </trkpt>
      <trkpt lat="49.60878" lon="5.55731">
        <ele>276.39999389648</ele>
        <time>2022-03-25T10:04:12.000Z</time>
      </trkpt>
      <trkpt lat="49.60857" lon="5.55734">
        <ele>276</ele>
        <time>2022-03-25T10:04:15.000Z</time>
      </trkpt>
      <trkpt lat="49.60844" lon="5.55738">
        <ele>277.20001220703</ele>
        <time>2022-03-25T10:04:17.000Z</time>
      </trkpt>
      <trkpt lat="49.60838" lon="5.5574">
        <ele>277.60000610352</ele>
        <time>2022-03-25T10:04:18.000Z</time>
      </trkpt>
      <trkpt lat="49.60825" lon="5.55743">
        <ele>280</ele>
        <time>2022-03-25T10:04:20.000Z</time>
      </trkpt>
      <trkpt lat="49.60819" lon="5.55744">
        <ele>281</ele>
        <time>2022-03-25T10:04:21.000Z</time>
      </trkpt>
      <trkpt lat="49.60814" lon="5.55743">
        <ele>282</ele>
        <time>2022-03-25T10:04:22.000Z</time>
      </trkpt>
      <trkpt lat="49.60802" lon="5.5574">
        <ele>283.79998779297</ele>
        <time>2022-03-25T10:04:25.000Z</time>
      </trkpt>
      <trkpt lat="49.60787" lon="5.55734">
        <ele>285.39999389648</ele>
        <time>2022-03-25T10:04:30.000Z</time>
      </trkpt>
      <trkpt lat="49.60781" lon="5.5573">
        <ele>286</ele>
        <time>2022-03-25T10:04:32.000Z</time>
      </trkpt>
      <trkpt lat="49.60776" lon="5.55725">
        <ele>286.20001220703</ele>
        <time>2022-03-25T10:04:34.000Z</time>
      </trkpt>
      <trkpt lat="49.60771" lon="5.55721">
        <ele>286.20001220703</ele>
        <time>2022-03-25T10:04:36.000Z</time>
      </trkpt>
      <trkpt lat="49.60766" lon="5.55714">
        <ele>286.60000610352</ele>
        <time>2022-03-25T10:04:38.000Z</time>
      </trkpt>
      <trkpt lat="49.60762" lon="5.55699">
        <ele>287.60000610352</ele>
        <time>2022-03-25T10:04:41.000Z</time>
      </trkpt>
      <trkpt lat="49.60747" lon="5.55676">
        <ele>287.60000610352</ele>
        <time>2022-03-25T10:04:46.000Z</time>
      </trkpt>
      <trkpt lat="49.60744" lon="5.55671">
        <ele>287.39999389648</ele>
        <time>2022-03-25T10:04:47.000Z</time>
      </trkpt>
      <trkpt lat="49.60731" lon="5.55653">
        <ele>287.39999389648</ele>
        <time>2022-03-25T10:04:51.000Z</time>
      </trkpt>
      <trkpt lat="49.60718" lon="5.55629">
        <ele>289.39999389648</ele>
        <time>2022-03-25T10:04:56.000Z</time>
      </trkpt>
      <trkpt lat="49.60716" lon="5.55625">
        <ele>289.79998779297</ele>
        <time>2022-03-25T10:04:57.000Z</time>
      </trkpt>
      <trkpt lat="49.60711" lon="5.55617">
        <ele>291</ele>
        <time>2022-03-25T10:04:59.000Z</time>
      </trkpt>
      <trkpt lat="49.607" lon="5.55594">
        <ele>293.20001220703</ele>
        <time>2022-03-25T10:05:03.000Z</time>
      </trkpt>
      <trkpt lat="49.60689" lon="5.55576">
        <ele>294.79998779297</ele>
        <time>2022-03-25T10:05:08.000Z</time>
      </trkpt>
      <trkpt lat="49.60686" lon="5.55573">
        <ele>294.79998779297</ele>
        <time>2022-03-25T10:05:09.000Z</time>
      </trkpt>
      <trkpt lat="49.60681" lon="5.55568">
        <ele>295.20001220703</ele>
        <time>2022-03-25T10:05:11.000Z</time>
      </trkpt>
      <trkpt lat="49.60674" lon="5.55562">
        <ele>295.60000610352</ele>
        <time>2022-03-25T10:05:14.000Z</time>
      </trkpt>
      <trkpt lat="49.60672" lon="5.5556">
        <ele>295.79998779297</ele>
        <time>2022-03-25T10:05:15.000Z</time>
      </trkpt>
      <trkpt lat="49.60668" lon="5.55556">
        <ele>296</ele>
        <time>2022-03-25T10:05:17.000Z</time>
      </trkpt>
      <trkpt lat="49.60661" lon="5.55552">
        <ele>295.79998779297</ele>
        <time>2022-03-25T10:05:20.000Z</time>
      </trkpt>
      <trkpt lat="49.60656" lon="5.55549">
        <ele>295.79998779297</ele>
        <time>2022-03-25T10:05:22.000Z</time>
      </trkpt>
      <trkpt lat="49.60647" lon="5.55546">
        <ele>295.60000610352</ele>
        <time>2022-03-25T10:05:25.000Z</time>
      </trkpt>
      <trkpt lat="49.60641" lon="5.55543">
        <ele>295.39999389648</ele>
        <time>2022-03-25T10:05:27.000Z</time>
      </trkpt>
      <trkpt lat="49.60639" lon="5.55541">
        <ele>295.39999389648</ele>
        <time>2022-03-25T10:05:28.000Z</time>
      </trkpt>
      <trkpt lat="49.60625" lon="5.5553">
        <ele>295.39999389648</ele>
        <time>2022-03-25T10:05:33.000Z</time>
      </trkpt>
      <trkpt lat="49.60611" lon="5.55515">
        <ele>294.79998779297</ele>
        <time>2022-03-25T10:05:38.000Z</time>
      </trkpt>
      <trkpt lat="49.60595" lon="5.55493">
        <ele>294.39999389648</ele>
        <time>2022-03-25T10:05:43.000Z</time>
      </trkpt>
      <trkpt lat="49.6059" lon="5.55486">
        <ele>294.20001220703</ele>
        <time>2022-03-25T10:05:44.000Z</time>
      </trkpt>
      <trkpt lat="49.6058" lon="5.55463">
        <ele>294</ele>
        <time>2022-03-25T10:05:46.000Z</time>
      </trkpt>
      <trkpt lat="49.60573" lon="5.55442">
        <ele>294.60000610352</ele>
        <time>2022-03-25T10:05:48.000Z</time>
      </trkpt>
      <trkpt lat="49.60565" lon="5.55418">
        <ele>295.20001220703</ele>
        <time>2022-03-25T10:05:50.000Z</time>
      </trkpt>
      <trkpt lat="49.60555" lon="5.55398">
        <ele>295.20001220703</ele>
        <time>2022-03-25T10:05:52.000Z</time>
      </trkpt>
      <trkpt lat="49.60549" lon="5.5539">
        <ele>295</ele>
        <time>2022-03-25T10:05:53.000Z</time>
      </trkpt>
      <trkpt lat="49.60543" lon="5.55383">
        <ele>295.39999389648</ele>
        <time>2022-03-25T10:05:54.000Z</time>
      </trkpt>
      <trkpt lat="49.6053" lon="5.55377">
        <ele>294.79998779297</ele>
        <time>2022-03-25T10:05:56.000Z</time>
      </trkpt>
      <trkpt lat="49.60518" lon="5.55366">
        <ele>294.60000610352</ele>
        <time>2022-03-25T10:05:59.000Z</time>
      </trkpt>
      <trkpt lat="49.60514" lon="5.55362">
        <ele>294.60000610352</ele>
        <time>2022-03-25T10:06:00.000Z</time>
      </trkpt>
      <trkpt lat="49.60502" lon="5.55346">
        <ele>294.60000610352</ele>
        <time>2022-03-25T10:06:04.000Z</time>
      </trkpt>
      <trkpt lat="49.60499" lon="5.55341">
        <ele>294.60000610352</ele>
        <time>2022-03-25T10:06:05.000Z</time>
      </trkpt>
      <trkpt lat="49.60488" lon="5.55324">
        <ele>294.20001220703</ele>
        <time>2022-03-25T10:06:08.000Z</time>
      </trkpt>
      <trkpt lat="49.60484" lon="5.55314">
        <ele>294.20001220703</ele>
        <time>2022-03-25T10:06:10.000Z</time>
      </trkpt>
      <trkpt lat="49.6048" lon="5.55307">
        <ele>294.20001220703</ele>
        <time>2022-03-25T10:06:11.000Z</time>
      </trkpt>
      <trkpt lat="49.60473" lon="5.55291">
        <ele>294.60000610352</ele>
        <time>2022-03-25T10:06:13.000Z</time>
      </trkpt>
      <trkpt lat="49.60469" lon="5.55282">
        <ele>295</ele>
        <time>2022-03-25T10:06:14.000Z</time>
      </trkpt>
      <trkpt lat="49.6046" lon="5.55256">
        <ele>295.79998779297</ele>
        <time>2022-03-25T10:06:17.000Z</time>
      </trkpt>
      <trkpt lat="49.60457" lon="5.55249">
        <ele>296</ele>
        <time>2022-03-25T10:06:18.000Z</time>
      </trkpt>
      <trkpt lat="49.60448" lon="5.55235">
        <ele>296</ele>
        <time>2022-03-25T10:06:20.000Z</time>
      </trkpt>
      <trkpt lat="49.60436" lon="5.55215">
        <ele>295.79998779297</ele>
        <time>2022-03-25T10:06:23.000Z</time>
      </trkpt>
      <trkpt lat="49.60426" lon="5.55203">
        <ele>294.79998779297</ele>
        <time>2022-03-25T10:06:25.000Z</time>
      </trkpt>
      <trkpt lat="49.60418" lon="5.55191">
        <ele>293.79998779297</ele>
        <time>2022-03-25T10:06:27.000Z</time>
      </trkpt>
      <trkpt lat="49.60414" lon="5.55187">
        <ele>293.20001220703</ele>
        <time>2022-03-25T10:06:28.000Z</time>
      </trkpt>
      <trkpt lat="49.60404" lon="5.55177">
        <ele>292.20001220703</ele>
        <time>2022-03-25T10:06:30.000Z</time>
      </trkpt>
      <trkpt lat="49.60399" lon="5.5517">
        <ele>291.60000610352</ele>
        <time>2022-03-25T10:06:31.000Z</time>
      </trkpt>
      <trkpt lat="49.6039" lon="5.55154">
        <ele>290</ele>
        <time>2022-03-25T10:06:33.000Z</time>
      </trkpt>
      <trkpt lat="49.60385" lon="5.55146">
        <ele>289.39999389648</ele>
        <time>2022-03-25T10:06:34.000Z</time>
      </trkpt>
      <trkpt lat="49.6038" lon="5.55138">
        <ele>289</ele>
        <time>2022-03-25T10:06:35.000Z</time>
      </trkpt>
      <trkpt lat="49.60371" lon="5.55125">
        <ele>288.39999389648</ele>
        <time>2022-03-25T10:06:37.000Z</time>
      </trkpt>
      <trkpt lat="49.60367" lon="5.55119">
        <ele>288.20001220703</ele>
        <time>2022-03-25T10:06:38.000Z</time>
      </trkpt>
      <trkpt lat="49.60363" lon="5.55113">
        <ele>288</ele>
        <time>2022-03-25T10:06:39.000Z</time>
      </trkpt>
      <trkpt lat="49.60356" lon="5.551">
        <ele>287</ele>
        <time>2022-03-25T10:06:41.000Z</time>
      </trkpt>
      <trkpt lat="49.60353" lon="5.55092">
        <ele>286.39999389648</ele>
        <time>2022-03-25T10:06:42.000Z</time>
      </trkpt>
      <trkpt lat="49.60351" lon="5.55084">
        <ele>286</ele>
        <time>2022-03-25T10:06:43.000Z</time>
      </trkpt>
      <trkpt lat="49.60349" lon="5.55077">
        <ele>285.60000610352</ele>
        <time>2022-03-25T10:06:44.000Z</time>
      </trkpt>
      <trkpt lat="49.60346" lon="5.5507">
        <ele>285.20001220703</ele>
        <time>2022-03-25T10:06:45.000Z</time>
      </trkpt>
      <trkpt lat="49.60345" lon="5.55062">
        <ele>284.79998779297</ele>
        <time>2022-03-25T10:06:46.000Z</time>
      </trkpt>
      <trkpt lat="49.60343" lon="5.55055">
        <ele>284.39999389648</ele>
        <time>2022-03-25T10:06:47.000Z</time>
      </trkpt>
      <trkpt lat="49.60343" lon="5.55045">
        <ele>284</ele>
        <time>2022-03-25T10:06:48.000Z</time>
      </trkpt>
      <trkpt lat="49.60343" lon="5.55036">
        <ele>283.79998779297</ele>
        <time>2022-03-25T10:06:49.000Z</time>
      </trkpt>
      <trkpt lat="49.60343" lon="5.55016">
        <ele>283</ele>
        <time>2022-03-25T10:06:51.000Z</time>
      </trkpt>
      <trkpt lat="49.60342" lon="5.54991">
        <ele>282</ele>
        <time>2022-03-25T10:06:53.000Z</time>
      </trkpt>
      <trkpt lat="49.60341" lon="5.5498">
        <ele>281.60000610352</ele>
        <time>2022-03-25T10:06:54.000Z</time>
      </trkpt>
      <trkpt lat="49.60338" lon="5.54968">
        <ele>281</ele>
        <time>2022-03-25T10:06:55.000Z</time>
      </trkpt>
      <trkpt lat="49.60335" lon="5.54958">
        <ele>280.20001220703</ele>
        <time>2022-03-25T10:06:56.000Z</time>
      </trkpt>
      <trkpt lat="49.60331" lon="5.54948">
        <ele>279</ele>
        <time>2022-03-25T10:06:57.000Z</time>
      </trkpt>
      <trkpt lat="49.60328" lon="5.54938">
        <ele>277.79998779297</ele>
        <time>2022-03-25T10:06:58.000Z</time>
      </trkpt>
      <trkpt lat="49.60324" lon="5.54928">
        <ele>276.60000610352</ele>
        <time>2022-03-25T10:06:59.000Z</time>
      </trkpt>
      <trkpt lat="49.60318" lon="5.54904">
        <ele>273.60000610352</ele>
        <time>2022-03-25T10:07:02.000Z</time>
      </trkpt>
      <trkpt lat="49.60315" lon="5.54888">
        <ele>272</ele>
        <time>2022-03-25T10:07:06.000Z</time>
      </trkpt>
      <trkpt lat="49.60344" lon="5.54888">
        <ele>276.60000610352</ele>
        <time>2022-03-25T10:08:02.000Z</time>
      </trkpt>
      <trkpt lat="49.60346" lon="5.54889">
        <ele>277</ele>
        <time>2022-03-25T10:08:03.000Z</time>
      </trkpt>
      <trkpt lat="49.60352" lon="5.54894">
        <ele>278</ele>
        <time>2022-03-25T10:08:07.000Z</time>
      </trkpt>
      <trkpt lat="49.60359" lon="5.54898">
        <ele>279</ele>
        <time>2022-03-25T10:08:11.000Z</time>
      </trkpt>
      <trkpt lat="49.60361" lon="5.54899">
        <ele>279.20001220703</ele>
        <time>2022-03-25T10:08:12.000Z</time>
      </trkpt>
      <trkpt lat="49.6037" lon="5.54903">
        <ele>280.39999389648</ele>
        <time>2022-03-25T10:08:17.000Z</time>
      </trkpt>
      <trkpt lat="49.60373" lon="5.54903">
        <ele>280.60000610352</ele>
        <time>2022-03-25T10:08:18.000Z</time>
      </trkpt>
      <trkpt lat="49.60378" lon="5.54904">
        <ele>281</ele>
        <time>2022-03-25T10:08:20.000Z</time>
      </trkpt>
      <trkpt lat="49.60383" lon="5.54905">
        <ele>281.60000610352</ele>
        <time>2022-03-25T10:08:24.000Z</time>
      </trkpt>
      <trkpt lat="49.60389" lon="5.54906">
        <ele>282.39999389648</ele>
        <time>2022-03-25T10:08:27.000Z</time>
      </trkpt>
      <trkpt lat="49.60398" lon="5.54907">
        <ele>283</ele>
        <time>2022-03-25T10:08:31.000Z</time>
      </trkpt>
      <trkpt lat="49.604" lon="5.54907">
        <ele>283.20001220703</ele>
        <time>2022-03-25T10:08:32.000Z</time>
      </trkpt>
      <trkpt lat="49.60407" lon="5.54909">
        <ele>283.79998779297</ele>
        <time>2022-03-25T10:08:35.000Z</time>
      </trkpt>
      <trkpt lat="49.60417" lon="5.54909">
        <ele>284.79998779297</ele>
        <time>2022-03-25T10:08:39.000Z</time>
      </trkpt>
      <trkpt lat="49.60429" lon="5.54911">
        <ele>286</ele>
        <time>2022-03-25T10:08:44.000Z</time>
      </trkpt>
      <trkpt lat="49.60434" lon="5.54914">
        <ele>286.60000610352</ele>
        <time>2022-03-25T10:08:46.000Z</time>
      </trkpt>
      <trkpt lat="49.6044" lon="5.54917">
        <ele>287.20001220703</ele>
        <time>2022-03-25T10:08:49.000Z</time>
      </trkpt>
      <trkpt lat="49.60447" lon="5.5492">
        <ele>288</ele>
        <time>2022-03-25T10:08:53.000Z</time>
      </trkpt>
      <trkpt lat="49.60457" lon="5.54926">
        <ele>289.60000610352</ele>
        <time>2022-03-25T10:08:58.000Z</time>
      </trkpt>
      <trkpt lat="49.60459" lon="5.54926">
        <ele>289.79998779297</ele>
        <time>2022-03-25T10:08:59.000Z</time>
      </trkpt>
      <trkpt lat="49.60467" lon="5.54931">
        <ele>291.20001220703</ele>
        <time>2022-03-25T10:09:03.000Z</time>
      </trkpt>
      <trkpt lat="49.60472" lon="5.54933">
        <ele>292</ele>
        <time>2022-03-25T10:09:06.000Z</time>
      </trkpt>
      <trkpt lat="49.60474" lon="5.54934">
        <ele>292.20001220703</ele>
        <time>2022-03-25T10:09:07.000Z</time>
      </trkpt>
      <trkpt lat="49.60477" lon="5.54935">
        <ele>293</ele>
        <time>2022-03-25T10:09:10.000Z</time>
      </trkpt>
      <trkpt lat="49.60481" lon="5.54936">
        <ele>294</ele>
        <time>2022-03-25T10:09:13.000Z</time>
      </trkpt>
      <trkpt lat="49.60489" lon="5.54936">
        <ele>295.79998779297</ele>
        <time>2022-03-25T10:09:17.000Z</time>
      </trkpt>
      <trkpt lat="49.60495" lon="5.54936">
        <ele>297.20001220703</ele>
        <time>2022-03-25T10:09:20.000Z</time>
      </trkpt>
      <trkpt lat="49.60497" lon="5.54936">
        <ele>297.79998779297</ele>
        <time>2022-03-25T10:09:21.000Z</time>
      </trkpt>
      <trkpt lat="49.60504" lon="5.54936">
        <ele>299.39999389648</ele>
        <time>2022-03-25T10:09:23.000Z</time>
      </trkpt>
      <trkpt lat="49.60515" lon="5.54936">
        <ele>302.39999389648</ele>
        <time>2022-03-25T10:09:26.000Z</time>
      </trkpt>
      <trkpt lat="49.60517" lon="5.54936">
        <ele>303</ele>
        <time>2022-03-25T10:09:27.000Z</time>
      </trkpt>
      <trkpt lat="49.60518" lon="5.54937">
        <ele>303.39999389648</ele>
        <time>2022-03-25T10:09:28.000Z</time>
      </trkpt>
      <trkpt lat="49.60523" lon="5.54938">
        <ele>304.79998779297</ele>
        <time>2022-03-25T10:09:30.000Z</time>
      </trkpt>
      <trkpt lat="49.60527" lon="5.54937">
        <ele>305.79998779297</ele>
        <time>2022-03-25T10:09:32.000Z</time>
      </trkpt>
      <trkpt lat="49.60529" lon="5.54938">
        <ele>306.20001220703</ele>
        <time>2022-03-25T10:09:33.000Z</time>
      </trkpt>
      <trkpt lat="49.60532" lon="5.54938">
        <ele>306.79998779297</ele>
        <time>2022-03-25T10:09:34.000Z</time>
      </trkpt>
      <trkpt lat="49.60536" lon="5.5494">
        <ele>307.79998779297</ele>
        <time>2022-03-25T10:09:36.000Z</time>
      </trkpt>
      <trkpt lat="49.60541" lon="5.5494">
        <ele>308.79998779297</ele>
        <time>2022-03-25T10:09:38.000Z</time>
      </trkpt>
      <trkpt lat="49.60547" lon="5.54942">
        <ele>309.79998779297</ele>
        <time>2022-03-25T10:09:40.000Z</time>
      </trkpt>
      <trkpt lat="49.60554" lon="5.54943">
        <ele>311</ele>
        <time>2022-03-25T10:09:42.000Z</time>
      </trkpt>
      <trkpt lat="49.60559" lon="5.54946">
        <ele>312</ele>
        <time>2022-03-25T10:09:44.000Z</time>
      </trkpt>
      <trkpt lat="49.60563" lon="5.54948">
        <ele>312.79998779297</ele>
        <time>2022-03-25T10:09:46.000Z</time>
      </trkpt>
      <trkpt lat="49.60565" lon="5.54949">
        <ele>313.20001220703</ele>
        <time>2022-03-25T10:09:47.000Z</time>
      </trkpt>
      <trkpt lat="49.6057" lon="5.54953">
        <ele>314.39999389648</ele>
        <time>2022-03-25T10:09:50.000Z</time>
      </trkpt>
      <trkpt lat="49.60572" lon="5.54955">
        <ele>314.79998779297</ele>
        <time>2022-03-25T10:09:51.000Z</time>
      </trkpt>
      <trkpt lat="49.60576" lon="5.54957">
        <ele>315.60000610352</ele>
        <time>2022-03-25T10:09:53.000Z</time>
      </trkpt>
      <trkpt lat="49.6058" lon="5.54962">
        <ele>316.60000610352</ele>
        <time>2022-03-25T10:09:57.000Z</time>
      </trkpt>
      <trkpt lat="49.60585" lon="5.5497">
        <ele>317.60000610352</ele>
        <time>2022-03-25T10:10:01.000Z</time>
      </trkpt>
      <trkpt lat="49.60592" lon="5.54982">
        <ele>318.60000610352</ele>
        <time>2022-03-25T10:10:05.000Z</time>
      </trkpt>
      <trkpt lat="49.60598" lon="5.54997">
        <ele>319</ele>
        <time>2022-03-25T10:10:10.000Z</time>
      </trkpt>
      <trkpt lat="49.60602" lon="5.55004">
        <ele>319.20001220703</ele>
        <time>2022-03-25T10:10:12.000Z</time>
      </trkpt>
      <trkpt lat="49.60604" lon="5.55009">
        <ele>319.60000610352</ele>
        <time>2022-03-25T10:10:14.000Z</time>
      </trkpt>
      <trkpt lat="49.6061" lon="5.55016">
        <ele>320.60000610352</ele>
        <time>2022-03-25T10:10:18.000Z</time>
      </trkpt>
      <trkpt lat="49.60621" lon="5.55026">
        <ele>322.60000610352</ele>
        <time>2022-03-25T10:10:22.000Z</time>
      </trkpt>
      <trkpt lat="49.60625" lon="5.55029">
        <ele>323.39999389648</ele>
        <time>2022-03-25T10:10:24.000Z</time>
      </trkpt>
      <trkpt lat="49.60638" lon="5.55039">
        <ele>326.39999389648</ele>
        <time>2022-03-25T10:10:28.000Z</time>
      </trkpt>
      <trkpt lat="49.60644" lon="5.55044">
        <ele>327.60000610352</ele>
        <time>2022-03-25T10:10:30.000Z</time>
      </trkpt>
      <trkpt lat="49.60655" lon="5.55052">
        <ele>328.79998779297</ele>
        <time>2022-03-25T10:10:35.000Z</time>
      </trkpt>
      <trkpt lat="49.60657" lon="5.55053">
        <ele>329</ele>
        <time>2022-03-25T10:10:36.000Z</time>
      </trkpt>
      <trkpt lat="49.60662" lon="5.55059">
        <ele>329.39999389648</ele>
        <time>2022-03-25T10:10:39.000Z</time>
      </trkpt>
      <trkpt lat="49.6067" lon="5.55063">
        <ele>330</ele>
        <time>2022-03-25T10:10:42.000Z</time>
      </trkpt>
      <trkpt lat="49.60673" lon="5.55065">
        <ele>330.39999389648</ele>
        <time>2022-03-25T10:10:43.000Z</time>
      </trkpt>
      <trkpt lat="49.60683" lon="5.5507">
        <ele>331.39999389648</ele>
        <time>2022-03-25T10:10:47.000Z</time>
      </trkpt>
      <trkpt lat="49.60687" lon="5.55072">
        <ele>331.79998779297</ele>
        <time>2022-03-25T10:10:49.000Z</time>
      </trkpt>
      <trkpt lat="49.60691" lon="5.55075">
        <ele>332.20001220703</ele>
        <time>2022-03-25T10:10:51.000Z</time>
      </trkpt>
      <trkpt lat="49.60701" lon="5.55079">
        <ele>333</ele>
        <time>2022-03-25T10:10:55.000Z</time>
      </trkpt>
      <trkpt lat="49.60712" lon="5.55084">
        <ele>334</ele>
        <time>2022-03-25T10:10:59.000Z</time>
      </trkpt>
      <trkpt lat="49.60718" lon="5.55086">
        <ele>334.60000610352</ele>
        <time>2022-03-25T10:11:01.000Z</time>
      </trkpt>
      <trkpt lat="49.60724" lon="5.55087">
        <ele>335</ele>
        <time>2022-03-25T10:11:03.000Z</time>
      </trkpt>
      <trkpt lat="49.60742" lon="5.55094">
        <ele>336.60000610352</ele>
        <time>2022-03-25T10:11:08.000Z</time>
      </trkpt>
      <trkpt lat="49.60745" lon="5.55095">
        <ele>336.79998779297</ele>
        <time>2022-03-25T10:11:09.000Z</time>
      </trkpt>
      <trkpt lat="49.60757" lon="5.55096">
        <ele>337.60000610352</ele>
        <time>2022-03-25T10:11:14.000Z</time>
      </trkpt>
      <trkpt lat="49.60767" lon="5.55099">
        <ele>338.60000610352</ele>
        <time>2022-03-25T10:11:18.000Z</time>
      </trkpt>
      <trkpt lat="49.60774" lon="5.55103">
        <ele>339.20001220703</ele>
        <time>2022-03-25T10:11:20.000Z</time>
      </trkpt>
      <trkpt lat="49.60786" lon="5.55106">
        <ele>340</ele>
        <time>2022-03-25T10:11:23.000Z</time>
      </trkpt>
      <trkpt lat="49.60798" lon="5.5511">
        <ele>340.60000610352</ele>
        <time>2022-03-25T10:11:26.000Z</time>
      </trkpt>
      <trkpt lat="49.60819" lon="5.55111">
        <ele>341.39999389648</ele>
        <time>2022-03-25T10:11:32.000Z</time>
      </trkpt>
      <trkpt lat="49.60831" lon="5.55105">
        <ele>341.60000610352</ele>
        <time>2022-03-25T10:11:35.000Z</time>
      </trkpt>
      <trkpt lat="49.60849" lon="5.55099">
        <ele>343</ele>
        <time>2022-03-25T10:11:39.000Z</time>
      </trkpt>
      <trkpt lat="49.60871" lon="5.55094">
        <ele>343.20001220703</ele>
        <time>2022-03-25T10:11:45.000Z</time>
      </trkpt>
      <trkpt lat="49.60903" lon="5.5509">
        <ele>342.79998779297</ele>
        <time>2022-03-25T10:11:51.000Z</time>
      </trkpt>
      <trkpt lat="49.60935" lon="5.55093">
        <ele>341.20001220703</ele>
        <time>2022-03-25T10:11:57.000Z</time>
      </trkpt>
      <trkpt lat="49.60965" lon="5.5509">
        <ele>339.60000610352</ele>
        <time>2022-03-25T10:12:03.000Z</time>
      </trkpt>
      <trkpt lat="49.60969" lon="5.55089">
        <ele>339.39999389648</ele>
        <time>2022-03-25T10:12:04.000Z</time>
      </trkpt>
      <trkpt lat="49.60988" lon="5.55091">
        <ele>340</ele>
        <time>2022-03-25T10:12:08.000Z</time>
      </trkpt>
      <trkpt lat="49.60999" lon="5.55092">
        <ele>340.79998779297</ele>
        <time>2022-03-25T10:12:10.000Z</time>
      </trkpt>
      <trkpt lat="49.61019" lon="5.55097">
        <ele>341.60000610352</ele>
        <time>2022-03-25T10:12:14.000Z</time>
      </trkpt>
      <trkpt lat="49.61031" lon="5.55098">
        <ele>342</ele>
        <time>2022-03-25T10:12:16.000Z</time>
      </trkpt>
      <trkpt lat="49.61036" lon="5.55098">
        <ele>342.60000610352</ele>
        <time>2022-03-25T10:12:17.000Z</time>
      </trkpt>
      <trkpt lat="49.61051" lon="5.55094">
        <ele>344.20001220703</ele>
        <time>2022-03-25T10:12:20.000Z</time>
      </trkpt>
      <trkpt lat="49.61061" lon="5.55092">
        <ele>345.20001220703</ele>
        <time>2022-03-25T10:12:22.000Z</time>
      </trkpt>
      <trkpt lat="49.61086" lon="5.55089">
        <ele>347.79998779297</ele>
        <time>2022-03-25T10:12:27.000Z</time>
      </trkpt>
      <trkpt lat="49.61097" lon="5.5509">
        <ele>348.60000610352</ele>
        <time>2022-03-25T10:12:29.000Z</time>
      </trkpt>
      <trkpt lat="49.61107" lon="5.55092">
        <ele>349.20001220703</ele>
        <time>2022-03-25T10:12:31.000Z</time>
      </trkpt>
      <trkpt lat="49.61112" lon="5.55094">
        <ele>349.39999389648</ele>
        <time>2022-03-25T10:12:32.000Z</time>
      </trkpt>
      <trkpt lat="49.61125" lon="5.55096">
        <ele>348.79998779297</ele>
        <time>2022-03-25T10:12:35.000Z</time>
      </trkpt>
      <trkpt lat="49.61141" lon="5.55097">
        <ele>347.60000610352</ele>
        <time>2022-03-25T10:12:38.000Z</time>
      </trkpt>
      <trkpt lat="49.61176" lon="5.55096">
        <ele>347.79998779297</ele>
        <time>2022-03-25T10:12:45.000Z</time>
      </trkpt>
      <trkpt lat="49.6121" lon="5.55094">
        <ele>348.20001220703</ele>
        <time>2022-03-25T10:12:51.000Z</time>
      </trkpt>
      <trkpt lat="49.61239" lon="5.55088">
        <ele>348.20001220703</ele>
        <time>2022-03-25T10:12:57.000Z</time>
      </trkpt>
      <trkpt lat="49.61267" lon="5.5508">
        <ele>347.79998779297</ele>
        <time>2022-03-25T10:13:03.000Z</time>
      </trkpt>
      <trkpt lat="49.61272" lon="5.5508">
        <ele>347.79998779297</ele>
        <time>2022-03-25T10:13:04.000Z</time>
      </trkpt>
      <trkpt lat="49.61276" lon="5.5508">
        <ele>347.79998779297</ele>
        <time>2022-03-25T10:13:05.000Z</time>
      </trkpt>
      <trkpt lat="49.61291" lon="5.55081">
        <ele>349</ele>
        <time>2022-03-25T10:13:08.000Z</time>
      </trkpt>
      <trkpt lat="49.61296" lon="5.55082">
        <ele>349.60000610352</ele>
        <time>2022-03-25T10:13:09.000Z</time>
      </trkpt>
      <trkpt lat="49.61324" lon="5.55086">
        <ele>352</ele>
        <time>2022-03-25T10:13:14.000Z</time>
      </trkpt>
      <trkpt lat="49.61329" lon="5.55086">
        <ele>352.39999389648</ele>
        <time>2022-03-25T10:13:15.000Z</time>
      </trkpt>
      <trkpt lat="49.61344" lon="5.55084">
        <ele>353.60000610352</ele>
        <time>2022-03-25T10:13:19.000Z</time>
      </trkpt>
      <trkpt lat="49.61357" lon="5.55081">
        <ele>354.60000610352</ele>
        <time>2022-03-25T10:13:22.000Z</time>
      </trkpt>
      <trkpt lat="49.61365" lon="5.55078">
        <ele>355</ele>
        <time>2022-03-25T10:13:24.000Z</time>
      </trkpt>
      <trkpt lat="49.61369" lon="5.55077">
        <ele>355</ele>
        <time>2022-03-25T10:13:25.000Z</time>
      </trkpt>
      <trkpt lat="49.61392" lon="5.55073">
        <ele>355</ele>
        <time>2022-03-25T10:13:30.000Z</time>
      </trkpt>
      <trkpt lat="49.61401" lon="5.55071">
        <ele>355.39999389648</ele>
        <time>2022-03-25T10:13:32.000Z</time>
      </trkpt>
      <trkpt lat="49.61417" lon="5.55067">
        <ele>355.79998779297</ele>
        <time>2022-03-25T10:13:35.000Z</time>
      </trkpt>
      <trkpt lat="49.61437" lon="5.55064">
        <ele>356.79998779297</ele>
        <time>2022-03-25T10:13:39.000Z</time>
      </trkpt>
      <trkpt lat="49.6145" lon="5.55063">
        <ele>357.20001220703</ele>
        <time>2022-03-25T10:13:42.000Z</time>
      </trkpt>
      <trkpt lat="49.61455" lon="5.55062">
        <ele>357.60000610352</ele>
        <time>2022-03-25T10:13:43.000Z</time>
      </trkpt>
      <trkpt lat="49.6147" lon="5.55059">
        <ele>358.60000610352</ele>
        <time>2022-03-25T10:13:46.000Z</time>
      </trkpt>
      <trkpt lat="49.61484" lon="5.55054">
        <ele>360</ele>
        <time>2022-03-25T10:13:49.000Z</time>
      </trkpt>
      <trkpt lat="49.6149" lon="5.55051">
        <ele>360.79998779297</ele>
        <time>2022-03-25T10:13:50.000Z</time>
      </trkpt>
      <trkpt lat="49.61512" lon="5.55038">
        <ele>364.60000610352</ele>
        <time>2022-03-25T10:13:54.000Z</time>
      </trkpt>
      <trkpt lat="49.61524" lon="5.55035">
        <ele>365.39999389648</ele>
        <time>2022-03-25T10:13:56.000Z</time>
      </trkpt>
      <trkpt lat="49.61545" lon="5.55031">
        <ele>366.39999389648</ele>
        <time>2022-03-25T10:14:00.000Z</time>
      </trkpt>
      <trkpt lat="49.61556" lon="5.55027">
        <ele>367</ele>
        <time>2022-03-25T10:14:03.000Z</time>
      </trkpt>
      <trkpt lat="49.61559" lon="5.55027">
        <ele>367</ele>
        <time>2022-03-25T10:14:04.000Z</time>
      </trkpt>
      <trkpt lat="49.61571" lon="5.55023">
        <ele>367.39999389648</ele>
        <time>2022-03-25T10:14:07.000Z</time>
      </trkpt>
      <trkpt lat="49.61587" lon="5.55015">
        <ele>368</ele>
        <time>2022-03-25T10:14:10.000Z</time>
      </trkpt>
      <trkpt lat="49.61609" lon="5.54998">
        <ele>370.39999389648</ele>
        <time>2022-03-25T10:14:15.000Z</time>
      </trkpt>
      <trkpt lat="49.61613" lon="5.54995">
        <ele>370.60000610352</ele>
        <time>2022-03-25T10:14:16.000Z</time>
      </trkpt>
      <trkpt lat="49.61624" lon="5.54992">
        <ele>371</ele>
        <time>2022-03-25T10:14:18.000Z</time>
      </trkpt>
      <trkpt lat="49.61639" lon="5.54983">
        <ele>371.79998779297</ele>
        <time>2022-03-25T10:14:21.000Z</time>
      </trkpt>
      <trkpt lat="49.61662" lon="5.54964">
        <ele>371.79998779297</ele>
        <time>2022-03-25T10:14:27.000Z</time>
      </trkpt>
      <trkpt lat="49.61676" lon="5.54952">
        <ele>372.20001220703</ele>
        <time>2022-03-25T10:14:31.000Z</time>
      </trkpt>
      <trkpt lat="49.6169" lon="5.54943">
        <ele>372.79998779297</ele>
        <time>2022-03-25T10:14:34.000Z</time>
      </trkpt>
      <trkpt lat="49.61695" lon="5.5494">
        <ele>373</ele>
        <time>2022-03-25T10:14:35.000Z</time>
      </trkpt>
      <trkpt lat="49.61713" lon="5.5493">
        <ele>374.20001220703</ele>
        <time>2022-03-25T10:14:39.000Z</time>
      </trkpt>
      <trkpt lat="49.6172" lon="5.54923">
        <ele>374.60000610352</ele>
        <time>2022-03-25T10:14:41.000Z</time>
      </trkpt>
      <trkpt lat="49.61739" lon="5.54899">
        <ele>375.20001220703</ele>
        <time>2022-03-25T10:14:46.000Z</time>
      </trkpt>
      <trkpt lat="49.61762" lon="5.5487">
        <ele>374.79998779297</ele>
        <time>2022-03-25T10:14:51.000Z</time>
      </trkpt>
      <trkpt lat="49.61776" lon="5.54847">
        <ele>373.60000610352</ele>
        <time>2022-03-25T10:14:56.000Z</time>
      </trkpt>
      <trkpt lat="49.61776" lon="5.54839">
        <ele>373.20001220703</ele>
        <time>2022-03-25T10:14:58.000Z</time>
      </trkpt>
      <trkpt lat="49.61773" lon="5.54837">
        <ele>373</ele>
        <time>2022-03-25T10:14:59.000Z</time>
      </trkpt>
      <trkpt lat="49.61756" lon="5.54827">
        <ele>371.79998779297</ele>
        <time>2022-03-25T10:15:03.000Z</time>
      </trkpt>
      <trkpt lat="49.61743" lon="5.54822">
        <ele>370.20001220703</ele>
        <time>2022-03-25T10:15:05.000Z</time>
      </trkpt>
      <trkpt lat="49.61736" lon="5.5482">
        <ele>369.20001220703</ele>
        <time>2022-03-25T10:15:06.000Z</time>
      </trkpt>
      <trkpt lat="49.61728" lon="5.54819">
        <ele>368.20001220703</ele>
        <time>2022-03-25T10:15:07.000Z</time>
      </trkpt>
      <trkpt lat="49.6172" lon="5.54817">
        <ele>367.20001220703</ele>
        <time>2022-03-25T10:15:08.000Z</time>
      </trkpt>
      <trkpt lat="49.61709" lon="5.54814">
        <ele>366.39999389648</ele>
        <time>2022-03-25T10:15:09.000Z</time>
      </trkpt>
      <trkpt lat="49.61699" lon="5.54811">
        <ele>365.39999389648</ele>
        <time>2022-03-25T10:15:10.000Z</time>
      </trkpt>
      <trkpt lat="49.6169" lon="5.54809">
        <ele>364.60000610352</ele>
        <time>2022-03-25T10:15:11.000Z</time>
      </trkpt>
      <trkpt lat="49.6168" lon="5.54805">
        <ele>363.39999389648</ele>
        <time>2022-03-25T10:15:12.000Z</time>
      </trkpt>
      <trkpt lat="49.61671" lon="5.54801">
        <ele>362</ele>
        <time>2022-03-25T10:15:13.000Z</time>
      </trkpt>
      <trkpt lat="49.61662" lon="5.54797">
        <ele>361.20001220703</ele>
        <time>2022-03-25T10:15:14.000Z</time>
      </trkpt>
      <trkpt lat="49.61653" lon="5.54792">
        <ele>360.20001220703</ele>
        <time>2022-03-25T10:15:15.000Z</time>
      </trkpt>
      <trkpt lat="49.61645" lon="5.54787">
        <ele>359.20001220703</ele>
        <time>2022-03-25T10:15:16.000Z</time>
      </trkpt>
      <trkpt lat="49.61637" lon="5.54781">
        <ele>358.20001220703</ele>
        <time>2022-03-25T10:15:17.000Z</time>
      </trkpt>
      <trkpt lat="49.6163" lon="5.54775">
        <ele>357.20001220703</ele>
        <time>2022-03-25T10:15:18.000Z</time>
      </trkpt>
      <trkpt lat="49.61622" lon="5.5477">
        <ele>356.20001220703</ele>
        <time>2022-03-25T10:15:19.000Z</time>
      </trkpt>
      <trkpt lat="49.61616" lon="5.54767">
        <ele>355.79998779297</ele>
        <time>2022-03-25T10:15:20.000Z</time>
      </trkpt>
      <trkpt lat="49.61608" lon="5.54765">
        <ele>355</ele>
        <time>2022-03-25T10:15:21.000Z</time>
      </trkpt>
      <trkpt lat="49.61599" lon="5.54763">
        <ele>354.20001220703</ele>
        <time>2022-03-25T10:15:22.000Z</time>
      </trkpt>
      <trkpt lat="49.61592" lon="5.54761">
        <ele>353.39999389648</ele>
        <time>2022-03-25T10:15:23.000Z</time>
      </trkpt>
      <trkpt lat="49.61585" lon="5.54759">
        <ele>352.60000610352</ele>
        <time>2022-03-25T10:15:24.000Z</time>
      </trkpt>
      <trkpt lat="49.6158" lon="5.54756">
        <ele>351.79998779297</ele>
        <time>2022-03-25T10:15:25.000Z</time>
      </trkpt>
      <trkpt lat="49.61575" lon="5.54751">
        <ele>350.79998779297</ele>
        <time>2022-03-25T10:15:26.000Z</time>
      </trkpt>
      <trkpt lat="49.6157" lon="5.54745">
        <ele>350.39999389648</ele>
        <time>2022-03-25T10:15:27.000Z</time>
      </trkpt>
      <trkpt lat="49.61565" lon="5.54741">
        <ele>350</ele>
        <time>2022-03-25T10:15:28.000Z</time>
      </trkpt>
      <trkpt lat="49.61559" lon="5.54741">
        <ele>349.39999389648</ele>
        <time>2022-03-25T10:15:29.000Z</time>
      </trkpt>
      <trkpt lat="49.61553" lon="5.54741">
        <ele>348.60000610352</ele>
        <time>2022-03-25T10:15:30.000Z</time>
      </trkpt>
      <trkpt lat="49.61546" lon="5.5474">
        <ele>347.60000610352</ele>
        <time>2022-03-25T10:15:31.000Z</time>
      </trkpt>
      <trkpt lat="49.6154" lon="5.5474">
        <ele>347</ele>
        <time>2022-03-25T10:15:32.000Z</time>
      </trkpt>
      <trkpt lat="49.61532" lon="5.54738">
        <ele>346.20001220703</ele>
        <time>2022-03-25T10:15:33.000Z</time>
      </trkpt>
      <trkpt lat="49.61523" lon="5.54736">
        <ele>344.60000610352</ele>
        <time>2022-03-25T10:15:34.000Z</time>
      </trkpt>
      <trkpt lat="49.61514" lon="5.54736">
        <ele>343</ele>
        <time>2022-03-25T10:15:35.000Z</time>
      </trkpt>
      <trkpt lat="49.61502" lon="5.54735">
        <ele>341.20001220703</ele>
        <time>2022-03-25T10:15:36.000Z</time>
      </trkpt>
      <trkpt lat="49.6149" lon="5.54732">
        <ele>338.60000610352</ele>
        <time>2022-03-25T10:15:37.000Z</time>
      </trkpt>
      <trkpt lat="49.61477" lon="5.5473">
        <ele>335.79998779297</ele>
        <time>2022-03-25T10:15:38.000Z</time>
      </trkpt>
      <trkpt lat="49.61464" lon="5.54729">
        <ele>332.20001220703</ele>
        <time>2022-03-25T10:15:39.000Z</time>
      </trkpt>
      <trkpt lat="49.6145" lon="5.54728">
        <ele>328.20001220703</ele>
        <time>2022-03-25T10:15:40.000Z</time>
      </trkpt>
      <trkpt lat="49.61436" lon="5.54727">
        <ele>325.60000610352</ele>
        <time>2022-03-25T10:15:41.000Z</time>
      </trkpt>
      <trkpt lat="49.61423" lon="5.54727">
        <ele>323.20001220703</ele>
        <time>2022-03-25T10:15:42.000Z</time>
      </trkpt>
      <trkpt lat="49.6141" lon="5.54729">
        <ele>321.20001220703</ele>
        <time>2022-03-25T10:15:43.000Z</time>
      </trkpt>
      <trkpt lat="49.61396" lon="5.54729">
        <ele>319.39999389648</ele>
        <time>2022-03-25T10:15:44.000Z</time>
      </trkpt>
      <trkpt lat="49.61383" lon="5.5473">
        <ele>316.79998779297</ele>
        <time>2022-03-25T10:15:45.000Z</time>
      </trkpt>
      <trkpt lat="49.61369" lon="5.5473">
        <ele>314.20001220703</ele>
        <time>2022-03-25T10:15:46.000Z</time>
      </trkpt>
      <trkpt lat="49.61356" lon="5.5473">
        <ele>313.20001220703</ele>
        <time>2022-03-25T10:15:47.000Z</time>
      </trkpt>
      <trkpt lat="49.61343" lon="5.54731">
        <ele>312.60000610352</ele>
        <time>2022-03-25T10:15:48.000Z</time>
      </trkpt>
      <trkpt lat="49.6133" lon="5.54732">
        <ele>311.60000610352</ele>
        <time>2022-03-25T10:15:49.000Z</time>
      </trkpt>
      <trkpt lat="49.61317" lon="5.54734">
        <ele>310.60000610352</ele>
        <time>2022-03-25T10:15:50.000Z</time>
      </trkpt>
      <trkpt lat="49.61304" lon="5.54734">
        <ele>309.60000610352</ele>
        <time>2022-03-25T10:15:51.000Z</time>
      </trkpt>
      <trkpt lat="49.61292" lon="5.54733">
        <ele>308.20001220703</ele>
        <time>2022-03-25T10:15:52.000Z</time>
      </trkpt>
      <trkpt lat="49.61279" lon="5.54731">
        <ele>307.20001220703</ele>
        <time>2022-03-25T10:15:53.000Z</time>
      </trkpt>
      <trkpt lat="49.61268" lon="5.54728">
        <ele>306.60000610352</ele>
        <time>2022-03-25T10:15:54.000Z</time>
      </trkpt>
      <trkpt lat="49.61259" lon="5.54724">
        <ele>306.20001220703</ele>
        <time>2022-03-25T10:15:55.000Z</time>
      </trkpt>
      <trkpt lat="49.61234" lon="5.54723">
        <ele>306.79998779297</ele>
        <time>2022-03-25T10:15:58.000Z</time>
      </trkpt>
      <trkpt lat="49.61207" lon="5.54723">
        <ele>306.39999389648</ele>
        <time>2022-03-25T10:16:01.000Z</time>
      </trkpt>
      <trkpt lat="49.6119" lon="5.54721">
        <ele>305</ele>
        <time>2022-03-25T10:16:03.000Z</time>
      </trkpt>
      <trkpt lat="49.61181" lon="5.54718">
        <ele>303.79998779297</ele>
        <time>2022-03-25T10:16:04.000Z</time>
      </trkpt>
      <trkpt lat="49.6117" lon="5.54716">
        <ele>302.39999389648</ele>
        <time>2022-03-25T10:16:05.000Z</time>
      </trkpt>
      <trkpt lat="49.61148" lon="5.54707">
        <ele>300.20001220703</ele>
        <time>2022-03-25T10:16:07.000Z</time>
      </trkpt>
      <trkpt lat="49.61137" lon="5.54703">
        <ele>299.39999389648</ele>
        <time>2022-03-25T10:16:08.000Z</time>
      </trkpt>
      <trkpt lat="49.61128" lon="5.54698">
        <ele>299</ele>
        <time>2022-03-25T10:16:09.000Z</time>
      </trkpt>
      <trkpt lat="49.61108" lon="5.5469">
        <ele>298</ele>
        <time>2022-03-25T10:16:11.000Z</time>
      </trkpt>
      <trkpt lat="49.61099" lon="5.54687">
        <ele>298</ele>
        <time>2022-03-25T10:16:12.000Z</time>
      </trkpt>
      <trkpt lat="49.61079" lon="5.54681">
        <ele>297.79998779297</ele>
        <time>2022-03-25T10:16:14.000Z</time>
      </trkpt>
      <trkpt lat="49.61052" lon="5.54668">
        <ele>296.79998779297</ele>
        <time>2022-03-25T10:16:17.000Z</time>
      </trkpt>
      <trkpt lat="49.61034" lon="5.5466">
        <ele>295.79998779297</ele>
        <time>2022-03-25T10:16:19.000Z</time>
      </trkpt>
      <trkpt lat="49.61017" lon="5.5465">
        <ele>294.79998779297</ele>
        <time>2022-03-25T10:16:21.000Z</time>
      </trkpt>
      <trkpt lat="49.60992" lon="5.54634">
        <ele>293</ele>
        <time>2022-03-25T10:16:24.000Z</time>
      </trkpt>
      <trkpt lat="49.60984" lon="5.5463">
        <ele>292.20001220703</ele>
        <time>2022-03-25T10:16:25.000Z</time>
      </trkpt>
      <trkpt lat="49.60959" lon="5.54616">
        <ele>291.20001220703</ele>
        <time>2022-03-25T10:16:28.000Z</time>
      </trkpt>
      <trkpt lat="49.60935" lon="5.54601">
        <ele>291.39999389648</ele>
        <time>2022-03-25T10:16:31.000Z</time>
      </trkpt>
      <trkpt lat="49.6092" lon="5.54592">
        <ele>291.79998779297</ele>
        <time>2022-03-25T10:16:33.000Z</time>
      </trkpt>
      <trkpt lat="49.60905" lon="5.54584">
        <ele>290.39999389648</ele>
        <time>2022-03-25T10:16:35.000Z</time>
      </trkpt>
      <trkpt lat="49.60874" lon="5.54569">
        <ele>287.60000610352</ele>
        <time>2022-03-25T10:16:39.000Z</time>
      </trkpt>
      <trkpt lat="49.60867" lon="5.54567">
        <ele>287</ele>
        <time>2022-03-25T10:16:40.000Z</time>
      </trkpt>
      <trkpt lat="49.60851" lon="5.5456">
        <ele>286</ele>
        <time>2022-03-25T10:16:42.000Z</time>
      </trkpt>
      <trkpt lat="49.60819" lon="5.5455">
        <ele>284.39999389648</ele>
        <time>2022-03-25T10:16:46.000Z</time>
      </trkpt>
      <trkpt lat="49.60786" lon="5.54543">
        <ele>282.39999389648</ele>
        <time>2022-03-25T10:16:50.000Z</time>
      </trkpt>
      <trkpt lat="49.60762" lon="5.54543">
        <ele>280</ele>
        <time>2022-03-25T10:16:53.000Z</time>
      </trkpt>
      <trkpt lat="49.60738" lon="5.54547">
        <ele>278.39999389648</ele>
        <time>2022-03-25T10:16:56.000Z</time>
      </trkpt>
      <trkpt lat="49.60715" lon="5.54554">
        <ele>277</ele>
        <time>2022-03-25T10:16:59.000Z</time>
      </trkpt>
      <trkpt lat="49.60708" lon="5.54556">
        <ele>276.39999389648</ele>
        <time>2022-03-25T10:17:00.000Z</time>
      </trkpt>
      <trkpt lat="49.6068" lon="5.54564">
        <ele>276.20001220703</ele>
        <time>2022-03-25T10:17:04.000Z</time>
      </trkpt>
      <trkpt lat="49.60666" lon="5.54567">
        <ele>276</ele>
        <time>2022-03-25T10:17:06.000Z</time>
      </trkpt>
      <trkpt lat="49.60625" lon="5.5458">
        <ele>275.60000610352</ele>
        <time>2022-03-25T10:17:12.000Z</time>
      </trkpt>
      <trkpt lat="49.60619" lon="5.54583">
        <ele>275.79998779297</ele>
        <time>2022-03-25T10:17:13.000Z</time>
      </trkpt>
      <trkpt lat="49.60575" lon="5.54597">
        <ele>274.60000610352</ele>
        <time>2022-03-25T10:17:20.000Z</time>
      </trkpt>
      <trkpt lat="49.60533" lon="5.54616">
        <ele>274.79998779297</ele>
        <time>2022-03-25T10:17:27.000Z</time>
      </trkpt>
      <trkpt lat="49.60522" lon="5.54622">
        <ele>275</ele>
        <time>2022-03-25T10:17:29.000Z</time>
      </trkpt>
      <trkpt lat="49.6051" lon="5.54628">
        <ele>275</ele>
        <time>2022-03-25T10:17:31.000Z</time>
      </trkpt>
      <trkpt lat="49.60505" lon="5.5463">
        <ele>274.79998779297</ele>
        <time>2022-03-25T10:17:32.000Z</time>
      </trkpt>
      <trkpt lat="49.60499" lon="5.54633">
        <ele>274.39999389648</ele>
        <time>2022-03-25T10:17:33.000Z</time>
      </trkpt>
      <trkpt lat="49.60466" lon="5.54652">
        <ele>273.39999389648</ele>
        <time>2022-03-25T10:17:39.000Z</time>
      </trkpt>
      <trkpt lat="49.60461" lon="5.54656">
        <ele>273.20001220703</ele>
        <time>2022-03-25T10:17:40.000Z</time>
      </trkpt>
      <trkpt lat="49.60434" lon="5.54667">
        <ele>271</ele>
        <time>2022-03-25T10:17:45.000Z</time>
      </trkpt>
      <trkpt lat="49.60397" lon="5.54687">
        <ele>268.60000610352</ele>
        <time>2022-03-25T10:17:51.000Z</time>
      </trkpt>
      <trkpt lat="49.60386" lon="5.54693">
        <ele>267.79998779297</ele>
        <time>2022-03-25T10:17:53.000Z</time>
      </trkpt>
      <trkpt lat="49.60369" lon="5.54702">
        <ele>267.39999389648</ele>
        <time>2022-03-25T10:17:56.000Z</time>
      </trkpt>
      <trkpt lat="49.60365" lon="5.54704">
        <ele>267.39999389648</ele>
        <time>2022-03-25T10:17:57.000Z</time>
      </trkpt>
      <trkpt lat="49.6035" lon="5.54712">
        <ele>267</ele>
        <time>2022-03-25T10:18:00.000Z</time>
      </trkpt>
      <trkpt lat="49.60339" lon="5.54717">
        <ele>266.79998779297</ele>
        <time>2022-03-25T10:18:02.000Z</time>
      </trkpt>
      <trkpt lat="49.60309" lon="5.54737">
        <ele>267.60000610352</ele>
        <time>2022-03-25T10:18:08.000Z</time>
      </trkpt>
      <trkpt lat="49.60303" lon="5.5474">
        <ele>268</ele>
        <time>2022-03-25T10:18:10.000Z</time>
      </trkpt>
      <trkpt lat="49.60301" lon="5.54741">
        <ele>268.20001220703</ele>
        <time>2022-03-25T10:18:11.000Z</time>
      </trkpt>
      <trkpt lat="49.60295" lon="5.5473">
        <ele>268.20001220703</ele>
        <time>2022-03-25T10:18:15.000Z</time>
      </trkpt>
      <trkpt lat="49.60287" lon="5.54707">
        <ele>269.20001220703</ele>
        <time>2022-03-25T10:18:21.000Z</time>
      </trkpt>
      <trkpt lat="49.60286" lon="5.54705">
        <ele>269.20001220703</ele>
        <time>2022-03-25T10:18:22.000Z</time>
      </trkpt>
      <trkpt lat="49.60283" lon="5.54694">
        <ele>270</ele>
        <time>2022-03-25T10:18:25.000Z</time>
      </trkpt>
      <trkpt lat="49.60282" lon="5.54691">
        <ele>270</ele>
        <time>2022-03-25T10:18:26.000Z</time>
      </trkpt>
      <trkpt lat="49.60277" lon="5.54682">
        <ele>271</ele>
        <time>2022-03-25T10:18:29.000Z</time>
      </trkpt>
      <trkpt lat="49.60275" lon="5.5468">
        <ele>271.39999389648</ele>
        <time>2022-03-25T10:18:30.000Z</time>
      </trkpt>
      <trkpt lat="49.60273" lon="5.54676">
        <ele>271.79998779297</ele>
        <time>2022-03-25T10:18:32.000Z</time>
      </trkpt>
      <trkpt lat="49.60268" lon="5.54667">
        <ele>272.79998779297</ele>
        <time>2022-03-25T10:18:35.000Z</time>
      </trkpt>
      <trkpt lat="49.60263" lon="5.54659">
        <ele>274.20001220703</ele>
        <time>2022-03-25T10:18:38.000Z</time>
      </trkpt>
      <trkpt lat="49.60257" lon="5.54651">
        <ele>275.60000610352</ele>
        <time>2022-03-25T10:18:41.000Z</time>
      </trkpt>
      <trkpt lat="49.60255" lon="5.54648">
        <ele>276.20001220703</ele>
        <time>2022-03-25T10:18:42.000Z</time>
      </trkpt>
      <trkpt lat="49.60249" lon="5.54637">
        <ele>277.79998779297</ele>
        <time>2022-03-25T10:18:46.000Z</time>
      </trkpt>
      <trkpt lat="49.60245" lon="5.54627">
        <ele>279.60000610352</ele>
        <time>2022-03-25T10:18:49.000Z</time>
      </trkpt>
      <trkpt lat="49.60244" lon="5.54621">
        <ele>280.39999389648</ele>
        <time>2022-03-25T10:18:51.000Z</time>
      </trkpt>
      <trkpt lat="49.60243" lon="5.54618">
        <ele>280.79998779297</ele>
        <time>2022-03-25T10:18:52.000Z</time>
      </trkpt>
      <trkpt lat="49.60241" lon="5.54611">
        <ele>281.79998779297</ele>
        <time>2022-03-25T10:18:54.000Z</time>
      </trkpt>
      <trkpt lat="49.60238" lon="5.54599">
        <ele>284</ele>
        <time>2022-03-25T10:18:57.000Z</time>
      </trkpt>
      <trkpt lat="49.60237" lon="5.54593">
        <ele>284.79998779297</ele>
        <time>2022-03-25T10:18:59.000Z</time>
      </trkpt>
      <trkpt lat="49.60236" lon="5.5459">
        <ele>285.20001220703</ele>
        <time>2022-03-25T10:19:00.000Z</time>
      </trkpt>
      <trkpt lat="49.60235" lon="5.54584">
        <ele>285.79998779297</ele>
        <time>2022-03-25T10:19:02.000Z</time>
      </trkpt>
      <trkpt lat="49.60235" lon="5.54579">
        <ele>286.60000610352</ele>
        <time>2022-03-25T10:19:04.000Z</time>
      </trkpt>
      <trkpt lat="49.60234" lon="5.54573">
        <ele>287.39999389648</ele>
        <time>2022-03-25T10:19:06.000Z</time>
      </trkpt>
      <trkpt lat="49.60233" lon="5.54571">
        <ele>287.79998779297</ele>
        <time>2022-03-25T10:19:07.000Z</time>
      </trkpt>
      <trkpt lat="49.60232" lon="5.54565">
        <ele>288.79998779297</ele>
        <time>2022-03-25T10:19:09.000Z</time>
      </trkpt>
      <trkpt lat="49.60228" lon="5.54555">
        <ele>290.39999389648</ele>
        <time>2022-03-25T10:19:12.000Z</time>
      </trkpt>
      <trkpt lat="49.60225" lon="5.54546">
        <ele>292</ele>
        <time>2022-03-25T10:19:14.000Z</time>
      </trkpt>
      <trkpt lat="49.60224" lon="5.54543">
        <ele>292.39999389648</ele>
        <time>2022-03-25T10:19:15.000Z</time>
      </trkpt>
      <trkpt lat="49.60219" lon="5.54532">
        <ele>294.20001220703</ele>
        <time>2022-03-25T10:19:18.000Z</time>
      </trkpt>
      <trkpt lat="49.60212" lon="5.54513">
        <ele>297</ele>
        <time>2022-03-25T10:19:23.000Z</time>
      </trkpt>
      <trkpt lat="49.60207" lon="5.545">
        <ele>298.79998779297</ele>
        <time>2022-03-25T10:19:27.000Z</time>
      </trkpt>
      <trkpt lat="49.60204" lon="5.54494">
        <ele>299.60000610352</ele>
        <time>2022-03-25T10:19:29.000Z</time>
      </trkpt>
      <trkpt lat="49.60199" lon="5.54486">
        <ele>300.79998779297</ele>
        <time>2022-03-25T10:19:32.000Z</time>
      </trkpt>
      <trkpt lat="49.60191" lon="5.54476">
        <ele>302.60000610352</ele>
        <time>2022-03-25T10:19:36.000Z</time>
      </trkpt>
      <trkpt lat="49.6019" lon="5.54472">
        <ele>303</ele>
        <time>2022-03-25T10:19:37.000Z</time>
      </trkpt>
      <trkpt lat="49.60182" lon="5.54451">
        <ele>304.60000610352</ele>
        <time>2022-03-25T10:19:41.000Z</time>
      </trkpt>
      <trkpt lat="49.60179" lon="5.54441">
        <ele>304.79998779297</ele>
        <time>2022-03-25T10:19:45.000Z</time>
      </trkpt>
      <trkpt lat="49.60175" lon="5.54437">
        <ele>305.39999389648</ele>
        <time>2022-03-25T10:19:48.000Z</time>
      </trkpt>
      <trkpt lat="49.60173" lon="5.54431">
        <ele>305.39999389648</ele>
        <time>2022-03-25T10:19:50.000Z</time>
      </trkpt>
      <trkpt lat="49.60173" lon="5.54424">
        <ele>304.60000610352</ele>
        <time>2022-03-25T10:19:52.000Z</time>
      </trkpt>
      <trkpt lat="49.60185" lon="5.54417">
        <ele>300.20001220703</ele>
        <time>2022-03-25T10:19:56.000Z</time>
      </trkpt>
      <trkpt lat="49.60189" lon="5.54416">
        <ele>299</ele>
        <time>2022-03-25T10:19:57.000Z</time>
      </trkpt>
      <trkpt lat="49.60194" lon="5.54414">
        <ele>297.20001220703</ele>
        <time>2022-03-25T10:19:58.000Z</time>
      </trkpt>
      <trkpt lat="49.60199" lon="5.54411">
        <ele>295.20001220703</ele>
        <time>2022-03-25T10:19:59.000Z</time>
      </trkpt>
      <trkpt lat="49.60204" lon="5.54408">
        <ele>292.79998779297</ele>
        <time>2022-03-25T10:20:00.000Z</time>
      </trkpt>
      <trkpt lat="49.60209" lon="5.54405">
        <ele>290.60000610352</ele>
        <time>2022-03-25T10:20:01.000Z</time>
      </trkpt>
      <trkpt lat="49.60213" lon="5.54402">
        <ele>289</ele>
        <time>2022-03-25T10:20:02.000Z</time>
      </trkpt>
      <trkpt lat="49.60216" lon="5.54399">
        <ele>288</ele>
        <time>2022-03-25T10:20:03.000Z</time>
      </trkpt>
      <trkpt lat="49.60219" lon="5.54396">
        <ele>287</ele>
        <time>2022-03-25T10:20:04.000Z</time>
      </trkpt>
      <trkpt lat="49.60222" lon="5.54393">
        <ele>286</ele>
        <time>2022-03-25T10:20:05.000Z</time>
      </trkpt>
      <trkpt lat="49.60229" lon="5.54386">
        <ele>284</ele>
        <time>2022-03-25T10:20:07.000Z</time>
      </trkpt>
      <trkpt lat="49.60237" lon="5.54379">
        <ele>282</ele>
        <time>2022-03-25T10:20:09.000Z</time>
      </trkpt>
      <trkpt lat="49.60243" lon="5.54371">
        <ele>280.60000610352</ele>
        <time>2022-03-25T10:20:11.000Z</time>
      </trkpt>
      <trkpt lat="49.60246" lon="5.54367">
        <ele>280.20001220703</ele>
        <time>2022-03-25T10:20:12.000Z</time>
      </trkpt>
      <trkpt lat="49.60251" lon="5.54362">
        <ele>279.39999389648</ele>
        <time>2022-03-25T10:20:14.000Z</time>
      </trkpt>
      <trkpt lat="49.60264" lon="5.54352">
        <ele>277.39999389648</ele>
        <time>2022-03-25T10:20:20.000Z</time>
      </trkpt>
      <trkpt lat="49.60275" lon="5.54339">
        <ele>276.39999389648</ele>
        <time>2022-03-25T10:20:24.000Z</time>
      </trkpt>
      <trkpt lat="49.60279" lon="5.54335">
        <ele>276</ele>
        <time>2022-03-25T10:20:25.000Z</time>
      </trkpt>
      <trkpt lat="49.60297" lon="5.54321">
        <ele>277</ele>
        <time>2022-03-25T10:20:30.000Z</time>
      </trkpt>
      <trkpt lat="49.60313" lon="5.54312">
        <ele>277.60000610352</ele>
        <time>2022-03-25T10:20:35.000Z</time>
      </trkpt>
      <trkpt lat="49.60315" lon="5.5431">
        <ele>277.79998779297</ele>
        <time>2022-03-25T10:20:36.000Z</time>
      </trkpt>
      <trkpt lat="49.60326" lon="5.54302">
        <ele>279</ele>
        <time>2022-03-25T10:20:40.000Z</time>
      </trkpt>
      <trkpt lat="49.60346" lon="5.54284">
        <ele>280.20001220703</ele>
        <time>2022-03-25T10:20:46.000Z</time>
      </trkpt>
      <trkpt lat="49.60352" lon="5.54275">
        <ele>280.79998779297</ele>
        <time>2022-03-25T10:20:48.000Z</time>
      </trkpt>
      <trkpt lat="49.60358" lon="5.54271">
        <ele>281</ele>
        <time>2022-03-25T10:20:50.000Z</time>
      </trkpt>
      <trkpt lat="49.6037" lon="5.54273">
        <ele>281</ele>
        <time>2022-03-25T10:20:55.000Z</time>
      </trkpt>
      <trkpt lat="49.60371" lon="5.54274">
        <ele>281</ele>
        <time>2022-03-25T10:20:56.000Z</time>
      </trkpt>
      <trkpt lat="49.60373" lon="5.54275">
        <ele>281</ele>
        <time>2022-03-25T10:20:57.000Z</time>
      </trkpt>
      <trkpt lat="49.6038" lon="5.54279">
        <ele>281</ele>
        <time>2022-03-25T10:21:00.000Z</time>
      </trkpt>
      <trkpt lat="49.60389" lon="5.54286">
        <ele>281.20001220703</ele>
        <time>2022-03-25T10:21:04.000Z</time>
      </trkpt>
      <trkpt lat="49.60393" lon="5.5429">
        <ele>281.60000610352</ele>
        <time>2022-03-25T10:21:07.000Z</time>
      </trkpt>
      <trkpt lat="49.60397" lon="5.54292">
        <ele>282</ele>
        <time>2022-03-25T10:21:09.000Z</time>
      </trkpt>
      <trkpt lat="49.60401" lon="5.54296">
        <ele>282.60000610352</ele>
        <time>2022-03-25T10:21:11.000Z</time>
      </trkpt>
      <trkpt lat="49.60406" lon="5.543">
        <ele>283.20001220703</ele>
        <time>2022-03-25T10:21:13.000Z</time>
      </trkpt>
      <trkpt lat="49.60408" lon="5.54302">
        <ele>283.60000610352</ele>
        <time>2022-03-25T10:21:14.000Z</time>
      </trkpt>
      <trkpt lat="49.6041" lon="5.54304">
        <ele>283.79998779297</ele>
        <time>2022-03-25T10:21:15.000Z</time>
      </trkpt>
      <trkpt lat="49.60416" lon="5.5431">
        <ele>284.60000610352</ele>
        <time>2022-03-25T10:21:18.000Z</time>
      </trkpt>
      <trkpt lat="49.60419" lon="5.54314">
        <ele>285</ele>
        <time>2022-03-25T10:21:20.000Z</time>
      </trkpt>
      <trkpt lat="49.60421" lon="5.54316">
        <ele>285.20001220703</ele>
        <time>2022-03-25T10:21:21.000Z</time>
      </trkpt>
      <trkpt lat="49.60426" lon="5.54319">
        <ele>286</ele>
        <time>2022-03-25T10:21:24.000Z</time>
      </trkpt>
      <trkpt lat="49.6043" lon="5.54321">
        <ele>286.60000610352</ele>
        <time>2022-03-25T10:21:26.000Z</time>
      </trkpt>
      <trkpt lat="49.60433" lon="5.54322">
        <ele>286.79998779297</ele>
        <time>2022-03-25T10:21:27.000Z</time>
      </trkpt>
      <trkpt lat="49.60441" lon="5.54325">
        <ele>288.20001220703</ele>
        <time>2022-03-25T10:21:30.000Z</time>
      </trkpt>
      <trkpt lat="49.60447" lon="5.54323">
        <ele>289.39999389648</ele>
        <time>2022-03-25T10:21:33.000Z</time>
      </trkpt>
      <trkpt lat="49.60451" lon="5.5432">
        <ele>290</ele>
        <time>2022-03-25T10:21:35.000Z</time>
      </trkpt>
      <trkpt lat="49.60457" lon="5.54314">
        <ele>291.20001220703</ele>
        <time>2022-03-25T10:21:39.000Z</time>
      </trkpt>
      <trkpt lat="49.6046" lon="5.5431">
        <ele>292.20001220703</ele>
        <time>2022-03-25T10:21:41.000Z</time>
      </trkpt>
      <trkpt lat="49.60469" lon="5.543">
        <ele>293.79998779297</ele>
        <time>2022-03-25T10:21:46.000Z</time>
      </trkpt>
      <trkpt lat="49.60471" lon="5.54298">
        <ele>294.39999389648</ele>
        <time>2022-03-25T10:21:47.000Z</time>
      </trkpt>
      <trkpt lat="49.60481" lon="5.54287">
        <ele>296.60000610352</ele>
        <time>2022-03-25T10:21:51.000Z</time>
      </trkpt>
      <trkpt lat="49.60485" lon="5.54282">
        <ele>297.39999389648</ele>
        <time>2022-03-25T10:21:53.000Z</time>
      </trkpt>
      <trkpt lat="49.60493" lon="5.54273">
        <ele>298.39999389648</ele>
        <time>2022-03-25T10:21:57.000Z</time>
      </trkpt>
      <trkpt lat="49.60497" lon="5.54268">
        <ele>298.79998779297</ele>
        <time>2022-03-25T10:21:59.000Z</time>
      </trkpt>
      <trkpt lat="49.60525" lon="5.54246">
        <ele>302</ele>
        <time>2022-03-25T10:22:17.000Z</time>
      </trkpt>
      <trkpt lat="49.60529" lon="5.54243">
        <ele>302.39999389648</ele>
        <time>2022-03-25T10:22:19.000Z</time>
      </trkpt>
      <trkpt lat="49.60531" lon="5.54242">
        <ele>302.79998779297</ele>
        <time>2022-03-25T10:22:20.000Z</time>
      </trkpt>
      <trkpt lat="49.60538" lon="5.5424">
        <ele>303.79998779297</ele>
        <time>2022-03-25T10:22:23.000Z</time>
      </trkpt>
      <trkpt lat="49.60543" lon="5.54239">
        <ele>304.79998779297</ele>
        <time>2022-03-25T10:22:26.000Z</time>
      </trkpt>
      <trkpt lat="49.60552" lon="5.54236">
        <ele>306.39999389648</ele>
        <time>2022-03-25T10:22:29.000Z</time>
      </trkpt>
      <trkpt lat="49.60561" lon="5.54234">
        <ele>307.60000610352</ele>
        <time>2022-03-25T10:22:32.000Z</time>
      </trkpt>
      <trkpt lat="49.60571" lon="5.54232">
        <ele>308.79998779297</ele>
        <time>2022-03-25T10:22:35.000Z</time>
      </trkpt>
      <trkpt lat="49.60576" lon="5.54231">
        <ele>309.60000610352</ele>
        <time>2022-03-25T10:22:37.000Z</time>
      </trkpt>
      <trkpt lat="49.60579" lon="5.5423">
        <ele>310</ele>
        <time>2022-03-25T10:22:38.000Z</time>
      </trkpt>
      <trkpt lat="49.60587" lon="5.54228">
        <ele>311</ele>
        <time>2022-03-25T10:22:41.000Z</time>
      </trkpt>
      <trkpt lat="49.60595" lon="5.54226">
        <ele>311.60000610352</ele>
        <time>2022-03-25T10:22:44.000Z</time>
      </trkpt>
      <trkpt lat="49.60598" lon="5.54226">
        <ele>311.79998779297</ele>
        <time>2022-03-25T10:22:45.000Z</time>
      </trkpt>
      <trkpt lat="49.60607" lon="5.54223">
        <ele>312.39999389648</ele>
        <time>2022-03-25T10:22:48.000Z</time>
      </trkpt>
      <trkpt lat="49.60612" lon="5.54223">
        <ele>312.79998779297</ele>
        <time>2022-03-25T10:22:50.000Z</time>
      </trkpt>
      <trkpt lat="49.60614" lon="5.54223">
        <ele>313</ele>
        <time>2022-03-25T10:22:51.000Z</time>
      </trkpt>
      <trkpt lat="49.60617" lon="5.54223">
        <ele>313</ele>
        <time>2022-03-25T10:22:52.000Z</time>
      </trkpt>
      <trkpt lat="49.60631" lon="5.54219">
        <ele>313.60000610352</ele>
        <time>2022-03-25T10:22:58.000Z</time>
      </trkpt>
      <trkpt lat="49.60642" lon="5.54215">
        <ele>314</ele>
        <time>2022-03-25T10:23:02.000Z</time>
      </trkpt>
      <trkpt lat="49.60647" lon="5.54213">
        <ele>314</ele>
        <time>2022-03-25T10:23:04.000Z</time>
      </trkpt>
      <trkpt lat="49.60663" lon="5.54198">
        <ele>314.60000610352</ele>
        <time>2022-03-25T10:23:10.000Z</time>
      </trkpt>
      <trkpt lat="49.60673" lon="5.54183">
        <ele>314.20001220703</ele>
        <time>2022-03-25T10:23:14.000Z</time>
      </trkpt>
      <trkpt lat="49.60676" lon="5.5418">
        <ele>314</ele>
        <time>2022-03-25T10:23:15.000Z</time>
      </trkpt>
      <trkpt lat="49.60696" lon="5.54149">
        <ele>313.79998779297</ele>
        <time>2022-03-25T10:23:21.000Z</time>
      </trkpt>
      <trkpt lat="49.60713" lon="5.54121">
        <ele>314.20001220703</ele>
        <time>2022-03-25T10:23:26.000Z</time>
      </trkpt>
      <trkpt lat="49.60716" lon="5.54117">
        <ele>314.39999389648</ele>
        <time>2022-03-25T10:23:27.000Z</time>
      </trkpt>
      <trkpt lat="49.60737" lon="5.54094">
        <ele>315</ele>
        <time>2022-03-25T10:23:34.000Z</time>
      </trkpt>
      <trkpt lat="49.60764" lon="5.54071">
        <ele>315.60000610352</ele>
        <time>2022-03-25T10:23:40.000Z</time>
      </trkpt>
      <trkpt lat="49.60789" lon="5.54049">
        <ele>317.60000610352</ele>
        <time>2022-03-25T10:23:44.000Z</time>
      </trkpt>
      <trkpt lat="49.60794" lon="5.54045">
        <ele>318</ele>
        <time>2022-03-25T10:23:45.000Z</time>
      </trkpt>
      <trkpt lat="49.6082" lon="5.54021">
        <ele>320.79998779297</ele>
        <time>2022-03-25T10:23:50.000Z</time>
      </trkpt>
      <trkpt lat="49.60825" lon="5.54017">
        <ele>321.79998779297</ele>
        <time>2022-03-25T10:23:51.000Z</time>
      </trkpt>
      <trkpt lat="49.60835" lon="5.54008">
        <ele>322.79998779297</ele>
        <time>2022-03-25T10:23:53.000Z</time>
      </trkpt>
      <trkpt lat="49.60845" lon="5.54002">
        <ele>324.79998779297</ele>
        <time>2022-03-25T10:23:55.000Z</time>
      </trkpt>
      <trkpt lat="49.60858" lon="5.53992">
        <ele>327.79998779297</ele>
        <time>2022-03-25T10:23:58.000Z</time>
      </trkpt>
      <trkpt lat="49.60875" lon="5.53981">
        <ele>329.20001220703</ele>
        <time>2022-03-25T10:24:02.000Z</time>
      </trkpt>
      <trkpt lat="49.60879" lon="5.53978">
        <ele>329.39999389648</ele>
        <time>2022-03-25T10:24:03.000Z</time>
      </trkpt>
      <trkpt lat="49.60883" lon="5.53977">
        <ele>329.60000610352</ele>
        <time>2022-03-25T10:24:04.000Z</time>
      </trkpt>
      <trkpt lat="49.60887" lon="5.53974">
        <ele>329.79998779297</ele>
        <time>2022-03-25T10:24:05.000Z</time>
      </trkpt>
      <trkpt lat="49.60901" lon="5.53966">
        <ele>329.39999389648</ele>
        <time>2022-03-25T10:24:09.000Z</time>
      </trkpt>
      <trkpt lat="49.60912" lon="5.5396">
        <ele>328.79998779297</ele>
        <time>2022-03-25T10:24:12.000Z</time>
      </trkpt>
      <trkpt lat="49.60922" lon="5.53954">
        <ele>328.79998779297</ele>
        <time>2022-03-25T10:24:15.000Z</time>
      </trkpt>
      <trkpt lat="49.60926" lon="5.53952">
        <ele>329</ele>
        <time>2022-03-25T10:24:16.000Z</time>
      </trkpt>
      <trkpt lat="49.60936" lon="5.53945">
        <ele>329.60000610352</ele>
        <time>2022-03-25T10:24:19.000Z</time>
      </trkpt>
      <trkpt lat="49.60939" lon="5.53942">
        <ele>329.79998779297</ele>
        <time>2022-03-25T10:24:20.000Z</time>
      </trkpt>
      <trkpt lat="49.60944" lon="5.53936">
        <ele>330.39999389648</ele>
        <time>2022-03-25T10:24:22.000Z</time>
      </trkpt>
      <trkpt lat="49.60951" lon="5.53929">
        <ele>331.79998779297</ele>
        <time>2022-03-25T10:24:25.000Z</time>
      </trkpt>
      <trkpt lat="49.60954" lon="5.53927">
        <ele>332.20001220703</ele>
        <time>2022-03-25T10:24:26.000Z</time>
      </trkpt>
      <trkpt lat="49.6096" lon="5.53922">
        <ele>333.39999389648</ele>
        <time>2022-03-25T10:24:28.000Z</time>
      </trkpt>
      <trkpt lat="49.60964" lon="5.5392">
        <ele>334.20001220703</ele>
        <time>2022-03-25T10:24:29.000Z</time>
      </trkpt>
      <trkpt lat="49.60972" lon="5.5391">
        <ele>335.79998779297</ele>
        <time>2022-03-25T10:24:31.000Z</time>
      </trkpt>
      <trkpt lat="49.60979" lon="5.53898">
        <ele>337</ele>
        <time>2022-03-25T10:24:33.000Z</time>
      </trkpt>
      <trkpt lat="49.60985" lon="5.53888">
        <ele>337.60000610352</ele>
        <time>2022-03-25T10:24:35.000Z</time>
      </trkpt>
      <trkpt lat="49.60987" lon="5.53884">
        <ele>337.79998779297</ele>
        <time>2022-03-25T10:24:36.000Z</time>
      </trkpt>
      <trkpt lat="49.6099" lon="5.53882">
        <ele>338</ele>
        <time>2022-03-25T10:24:37.000Z</time>
      </trkpt>
      <trkpt lat="49.61001" lon="5.53875">
        <ele>339.39999389648</ele>
        <time>2022-03-25T10:24:41.000Z</time>
      </trkpt>
      <trkpt lat="49.6101" lon="5.5387">
        <ele>340.20001220703</ele>
        <time>2022-03-25T10:24:44.000Z</time>
      </trkpt>
      <trkpt lat="49.61016" lon="5.53867">
        <ele>340.79998779297</ele>
        <time>2022-03-25T10:24:46.000Z</time>
      </trkpt>
      <trkpt lat="49.61024" lon="5.53865">
        <ele>341.39999389648</ele>
        <time>2022-03-25T10:28:04.000Z</time>
      </trkpt>
      <trkpt lat="49.61028" lon="5.53872">
        <ele>341.39999389648</ele>
        <time>2022-03-25T10:28:06.000Z</time>
      </trkpt>
      <trkpt lat="49.61041" lon="5.53892">
        <ele>341.60000610352</ele>
        <time>2022-03-25T10:28:10.000Z</time>
      </trkpt>
      <trkpt lat="49.61052" lon="5.53902">
        <ele>341.20001220703</ele>
        <time>2022-03-25T10:28:12.000Z</time>
      </trkpt>
      <trkpt lat="49.61058" lon="5.53906">
        <ele>341.20001220703</ele>
        <time>2022-03-25T10:28:13.000Z</time>
      </trkpt>
      <trkpt lat="49.61064" lon="5.53907">
        <ele>341.20001220703</ele>
        <time>2022-03-25T10:28:14.000Z</time>
      </trkpt>
      <trkpt lat="49.61069" lon="5.53908">
        <ele>341</ele>
        <time>2022-03-25T10:28:15.000Z</time>
      </trkpt>
      <trkpt lat="49.61086" lon="5.5391">
        <ele>341.20001220703</ele>
        <time>2022-03-25T10:28:18.000Z</time>
      </trkpt>
      <trkpt lat="49.61096" lon="5.53911">
        <ele>340</ele>
        <time>2022-03-25T10:28:20.000Z</time>
      </trkpt>
      <trkpt lat="49.61125" lon="5.53914">
        <ele>338.39999389648</ele>
        <time>2022-03-25T10:28:26.000Z</time>
      </trkpt>
      <trkpt lat="49.6114" lon="5.53915">
        <ele>339.39999389648</ele>
        <time>2022-03-25T10:28:30.000Z</time>
      </trkpt>
      <trkpt lat="49.61144" lon="5.53915">
        <ele>340.20001220703</ele>
        <time>2022-03-25T10:28:31.000Z</time>
      </trkpt>
      <trkpt lat="49.61169" lon="5.53914">
        <ele>345.60000610352</ele>
        <time>2022-03-25T10:28:37.000Z</time>
      </trkpt>
      <trkpt lat="49.61173" lon="5.53915">
        <ele>345.79998779297</ele>
        <time>2022-03-25T10:28:38.000Z</time>
      </trkpt>
      <trkpt lat="49.61189" lon="5.53919">
        <ele>346.20001220703</ele>
        <time>2022-03-25T10:28:42.000Z</time>
      </trkpt>
      <trkpt lat="49.61193" lon="5.53922">
        <ele>346</ele>
        <time>2022-03-25T10:28:43.000Z</time>
      </trkpt>
      <trkpt lat="49.61215" lon="5.53935">
        <ele>343.79998779297</ele>
        <time>2022-03-25T10:28:49.000Z</time>
      </trkpt>
      <trkpt lat="49.61229" lon="5.53949">
        <ele>341.39999389648</ele>
        <time>2022-03-25T10:28:54.000Z</time>
      </trkpt>
      <trkpt lat="49.61241" lon="5.53964">
        <ele>339</ele>
        <time>2022-03-25T10:28:59.000Z</time>
      </trkpt>
      <trkpt lat="49.61249" lon="5.53965">
        <ele>338.20001220703</ele>
        <time>2022-03-25T10:29:02.000Z</time>
      </trkpt>
      <trkpt lat="49.61252" lon="5.53964">
        <ele>338</ele>
        <time>2022-03-25T10:29:04.000Z</time>
      </trkpt>
      <trkpt lat="49.6126" lon="5.53961">
        <ele>339</ele>
        <time>2022-03-25T10:29:08.000Z</time>
      </trkpt>
      <trkpt lat="49.61314" lon="5.53934">
        <ele>349.60000610352</ele>
        <time>2022-03-25T10:29:40.000Z</time>
      </trkpt>
      <trkpt lat="49.61325" lon="5.53925">
        <ele>351.79998779297</ele>
        <time>2022-03-25T10:29:43.000Z</time>
      </trkpt>
      <trkpt lat="49.61333" lon="5.53921">
        <ele>353.20001220703</ele>
        <time>2022-03-25T10:29:45.000Z</time>
      </trkpt>
      <trkpt lat="49.61336" lon="5.53919">
        <ele>353.79998779297</ele>
        <time>2022-03-25T10:29:46.000Z</time>
      </trkpt>
      <trkpt lat="49.61343" lon="5.53911">
        <ele>355.39999389648</ele>
        <time>2022-03-25T10:29:49.000Z</time>
      </trkpt>
      <trkpt lat="49.61351" lon="5.53903">
        <ele>357.20001220703</ele>
        <time>2022-03-25T10:29:52.000Z</time>
      </trkpt>
      <trkpt lat="49.61357" lon="5.53896">
        <ele>358</ele>
        <time>2022-03-25T10:29:55.000Z</time>
      </trkpt>
      <trkpt lat="49.61361" lon="5.53892">
        <ele>358.60000610352</ele>
        <time>2022-03-25T10:29:58.000Z</time>
      </trkpt>
      <trkpt lat="49.61365" lon="5.53888">
        <ele>359.39999389648</ele>
        <time>2022-03-25T10:30:00.000Z</time>
      </trkpt>
      <trkpt lat="49.6137" lon="5.53883">
        <ele>360.39999389648</ele>
        <time>2022-03-25T10:30:02.000Z</time>
      </trkpt>
      <trkpt lat="49.61377" lon="5.53871">
        <ele>362.60000610352</ele>
        <time>2022-03-25T10:30:06.000Z</time>
      </trkpt>
      <trkpt lat="49.61386" lon="5.5386">
        <ele>364.20001220703</ele>
        <time>2022-03-25T10:30:10.000Z</time>
      </trkpt>
      <trkpt lat="49.61389" lon="5.53856">
        <ele>365</ele>
        <time>2022-03-25T10:30:13.000Z</time>
      </trkpt>
      <trkpt lat="49.61396" lon="5.53855">
        <ele>365.60000610352</ele>
        <time>2022-03-25T10:30:17.000Z</time>
      </trkpt>
      <trkpt lat="49.61398" lon="5.53856">
        <ele>365.79998779297</ele>
        <time>2022-03-25T10:30:18.000Z</time>
      </trkpt>
      <trkpt lat="49.61409" lon="5.53873">
        <ele>366.79998779297</ele>
        <time>2022-03-25T10:30:23.000Z</time>
      </trkpt>
      <trkpt lat="49.61426" lon="5.53901">
        <ele>367.60000610352</ele>
        <time>2022-03-25T10:30:30.000Z</time>
      </trkpt>
      <trkpt lat="49.61437" lon="5.53931">
        <ele>367.79998779297</ele>
        <time>2022-03-25T10:30:36.000Z</time>
      </trkpt>
      <trkpt lat="49.6144" lon="5.53937">
        <ele>368.20001220703</ele>
        <time>2022-03-25T10:30:37.000Z</time>
      </trkpt>
      <trkpt lat="49.61442" lon="5.53943">
        <ele>368.39999389648</ele>
        <time>2022-03-25T10:30:38.000Z</time>
      </trkpt>
      <trkpt lat="49.61446" lon="5.53949">
        <ele>368.79998779297</ele>
        <time>2022-03-25T10:30:39.000Z</time>
      </trkpt>
      <trkpt lat="49.61449" lon="5.53954">
        <ele>369</ele>
        <time>2022-03-25T10:30:40.000Z</time>
      </trkpt>
      <trkpt lat="49.61461" lon="5.5397">
        <ele>369.39999389648</ele>
        <time>2022-03-25T10:30:43.000Z</time>
      </trkpt>
      <trkpt lat="49.61468" lon="5.53982">
        <ele>370</ele>
        <time>2022-03-25T10:30:45.000Z</time>
      </trkpt>
      <trkpt lat="49.61472" lon="5.53989">
        <ele>370.39999389648</ele>
        <time>2022-03-25T10:30:46.000Z</time>
      </trkpt>
      <trkpt lat="49.61481" lon="5.54017">
        <ele>370.20001220703</ele>
        <time>2022-03-25T10:30:50.000Z</time>
      </trkpt>
      <trkpt lat="49.61488" lon="5.5404">
        <ele>370.39999389648</ele>
        <time>2022-03-25T10:30:54.000Z</time>
      </trkpt>
      <trkpt lat="49.61489" lon="5.54044">
        <ele>370.60000610352</ele>
        <time>2022-03-25T10:30:55.000Z</time>
      </trkpt>
      <trkpt lat="49.615" lon="5.54072">
        <ele>372.60000610352</ele>
        <time>2022-03-25T10:31:00.000Z</time>
      </trkpt>
      <trkpt lat="49.61503" lon="5.54077">
        <ele>373.20001220703</ele>
        <time>2022-03-25T10:31:01.000Z</time>
      </trkpt>
      <trkpt lat="49.61522" lon="5.54115">
        <ele>375.20001220703</ele>
        <time>2022-03-25T10:31:08.000Z</time>
      </trkpt>
      <trkpt lat="49.61538" lon="5.54145">
        <ele>375.60000610352</ele>
        <time>2022-03-25T10:31:13.000Z</time>
      </trkpt>
      <trkpt lat="49.6156" lon="5.54184">
        <ele>374.39999389648</ele>
        <time>2022-03-25T10:31:20.000Z</time>
      </trkpt>
      <trkpt lat="49.6157" lon="5.54204">
        <ele>373.79998779297</ele>
        <time>2022-03-25T10:31:24.000Z</time>
      </trkpt>
      <trkpt lat="49.61578" lon="5.54217">
        <ele>373.20001220703</ele>
        <time>2022-03-25T10:31:27.000Z</time>
      </trkpt>
      <trkpt lat="49.61587" lon="5.54232">
        <ele>373</ele>
        <time>2022-03-25T10:31:30.000Z</time>
      </trkpt>
      <trkpt lat="49.61592" lon="5.54242">
        <ele>373.39999389648</ele>
        <time>2022-03-25T10:31:32.000Z</time>
      </trkpt>
      <trkpt lat="49.6161" lon="5.54277">
        <ele>374.60000610352</ele>
        <time>2022-03-25T10:31:38.000Z</time>
      </trkpt>
      <trkpt lat="49.6162" lon="5.54307">
        <ele>374.79998779297</ele>
        <time>2022-03-25T10:31:43.000Z</time>
      </trkpt>
      <trkpt lat="49.61625" lon="5.54327">
        <ele>374.60000610352</ele>
        <time>2022-03-25T10:31:46.000Z</time>
      </trkpt>
      <trkpt lat="49.61633" lon="5.54353">
        <ele>374.39999389648</ele>
        <time>2022-03-25T10:31:50.000Z</time>
      </trkpt>
      <trkpt lat="49.61645" lon="5.54388">
        <ele>373.79998779297</ele>
        <time>2022-03-25T10:31:55.000Z</time>
      </trkpt>
      <trkpt lat="49.61649" lon="5.54395">
        <ele>373.60000610352</ele>
        <time>2022-03-25T10:31:56.000Z</time>
      </trkpt>
      <trkpt lat="49.61658" lon="5.54412">
        <ele>373.39999389648</ele>
        <time>2022-03-25T10:31:58.000Z</time>
      </trkpt>
      <trkpt lat="49.61667" lon="5.54435">
        <ele>373.20001220703</ele>
        <time>2022-03-25T10:32:01.000Z</time>
      </trkpt>
      <trkpt lat="49.61679" lon="5.54482">
        <ele>374</ele>
        <time>2022-03-25T10:32:07.000Z</time>
      </trkpt>
      <trkpt lat="49.61692" lon="5.54527">
        <ele>374.60000610352</ele>
        <time>2022-03-25T10:32:13.000Z</time>
      </trkpt>
      <trkpt lat="49.61709" lon="5.54569">
        <ele>375.39999389648</ele>
        <time>2022-03-25T10:32:19.000Z</time>
      </trkpt>
      <trkpt lat="49.61728" lon="5.5461">
        <ele>375.20001220703</ele>
        <time>2022-03-25T10:32:26.000Z</time>
      </trkpt>
      <trkpt lat="49.61737" lon="5.54627">
        <ele>375.79998779297</ele>
        <time>2022-03-25T10:32:29.000Z</time>
      </trkpt>
      <trkpt lat="49.61743" lon="5.54639">
        <ele>376.20001220703</ele>
        <time>2022-03-25T10:32:31.000Z</time>
      </trkpt>
      <trkpt lat="49.61762" lon="5.54675">
        <ele>376.60000610352</ele>
        <time>2022-03-25T10:32:37.000Z</time>
      </trkpt>
      <trkpt lat="49.61781" lon="5.54712">
        <ele>376.60000610352</ele>
        <time>2022-03-25T10:32:43.000Z</time>
      </trkpt>
      <trkpt lat="49.61783" lon="5.54719">
        <ele>376.79998779297</ele>
        <time>2022-03-25T10:32:44.000Z</time>
      </trkpt>
      <trkpt lat="49.61791" lon="5.54747">
        <ele>376.39999389648</ele>
        <time>2022-03-25T10:32:48.000Z</time>
      </trkpt>
      <trkpt lat="49.61792" lon="5.54754">
        <ele>376.20001220703</ele>
        <time>2022-03-25T10:32:49.000Z</time>
      </trkpt>
      <trkpt lat="49.61793" lon="5.54778">
        <ele>375</ele>
        <time>2022-03-25T10:32:53.000Z</time>
      </trkpt>
      <trkpt lat="49.61792" lon="5.54801">
        <ele>374</ele>
        <time>2022-03-25T10:32:56.000Z</time>
      </trkpt>
      <trkpt lat="49.61791" lon="5.54818">
        <ele>373.79998779297</ele>
        <time>2022-03-25T10:32:58.000Z</time>
      </trkpt>
      <trkpt lat="49.6179" lon="5.54834">
        <ele>373.60000610352</ele>
        <time>2022-03-25T10:33:00.000Z</time>
      </trkpt>
      <trkpt lat="49.6179" lon="5.54855">
        <ele>374.39999389648</ele>
        <time>2022-03-25T10:33:03.000Z</time>
      </trkpt>
      <trkpt lat="49.61794" lon="5.54913">
        <ele>378.20001220703</ele>
        <time>2022-03-25T10:33:11.000Z</time>
      </trkpt>
      <trkpt lat="49.61795" lon="5.54935">
        <ele>379</ele>
        <time>2022-03-25T10:33:14.000Z</time>
      </trkpt>
      <trkpt lat="49.61792" lon="5.54954">
        <ele>379.39999389648</ele>
        <time>2022-03-25T10:33:17.000Z</time>
      </trkpt>
      <trkpt lat="49.61785" lon="5.54986">
        <ele>378.60000610352</ele>
        <time>2022-03-25T10:33:22.000Z</time>
      </trkpt>
      <trkpt lat="49.61784" lon="5.54993">
        <ele>378.39999389648</ele>
        <time>2022-03-25T10:33:23.000Z</time>
      </trkpt>
      <trkpt lat="49.61778" lon="5.55037">
        <ele>377.79998779297</ele>
        <time>2022-03-25T10:33:30.000Z</time>
      </trkpt>
      <trkpt lat="49.61774" lon="5.55072">
        <ele>378.20001220703</ele>
        <time>2022-03-25T10:33:36.000Z</time>
      </trkpt>
      <trkpt lat="49.61776" lon="5.55098">
        <ele>378.79998779297</ele>
        <time>2022-03-25T10:33:41.000Z</time>
      </trkpt>
      <trkpt lat="49.61781" lon="5.55128">
        <ele>379.60000610352</ele>
        <time>2022-03-25T10:33:46.000Z</time>
      </trkpt>
      <trkpt lat="49.61784" lon="5.55173">
        <ele>380.20001220703</ele>
        <time>2022-03-25T10:33:52.000Z</time>
      </trkpt>
      <trkpt lat="49.61785" lon="5.55227">
        <ele>381</ele>
        <time>2022-03-25T10:33:58.000Z</time>
      </trkpt>
      <trkpt lat="49.61784" lon="5.55235">
        <ele>381</ele>
        <time>2022-03-25T10:33:59.000Z</time>
      </trkpt>
      <trkpt lat="49.61782" lon="5.55285">
        <ele>380.79998779297</ele>
        <time>2022-03-25T10:34:05.000Z</time>
      </trkpt>
      <trkpt lat="49.61781" lon="5.55301">
        <ele>380.20001220703</ele>
        <time>2022-03-25T10:34:07.000Z</time>
      </trkpt>
      <trkpt lat="49.61782" lon="5.55338">
        <ele>379</ele>
        <time>2022-03-25T10:34:11.000Z</time>
      </trkpt>
      <trkpt lat="49.61783" lon="5.55411">
        <ele>378</ele>
        <time>2022-03-25T10:34:19.000Z</time>
      </trkpt>
      <trkpt lat="49.61785" lon="5.55438">
        <ele>377.20001220703</ele>
        <time>2022-03-25T10:34:22.000Z</time>
      </trkpt>
      <trkpt lat="49.61786" lon="5.55457">
        <ele>376.79998779297</ele>
        <time>2022-03-25T10:34:24.000Z</time>
      </trkpt>
      <trkpt lat="49.61789" lon="5.5552">
        <ele>377.79998779297</ele>
        <time>2022-03-25T10:34:31.000Z</time>
      </trkpt>
      <trkpt lat="49.61791" lon="5.55545">
        <ele>377.79998779297</ele>
        <time>2022-03-25T10:34:34.000Z</time>
      </trkpt>
      <trkpt lat="49.61795" lon="5.5557">
        <ele>378</ele>
        <time>2022-03-25T10:34:37.000Z</time>
      </trkpt>
      <trkpt lat="49.61798" lon="5.55578">
        <ele>377.60000610352</ele>
        <time>2022-03-25T10:34:38.000Z</time>
      </trkpt>
      <trkpt lat="49.61808" lon="5.55611">
        <ele>377</ele>
        <time>2022-03-25T10:34:42.000Z</time>
      </trkpt>
      <trkpt lat="49.61814" lon="5.55628">
        <ele>377.39999389648</ele>
        <time>2022-03-25T10:34:44.000Z</time>
      </trkpt>
      <trkpt lat="49.61825" lon="5.5566">
        <ele>379.20001220703</ele>
        <time>2022-03-25T10:34:48.000Z</time>
      </trkpt>
      <trkpt lat="49.61832" lon="5.5568">
        <ele>380.20001220703</ele>
        <time>2022-03-25T10:34:51.000Z</time>
      </trkpt>
      <trkpt lat="49.61846" lon="5.55686">
        <ele>380</ele>
        <time>2022-03-25T10:34:54.000Z</time>
      </trkpt>
      <trkpt lat="49.61851" lon="5.55687">
        <ele>379.79998779297</ele>
        <time>2022-03-25T10:34:55.000Z</time>
      </trkpt>
      <trkpt lat="49.61881" lon="5.5569">
        <ele>379.39999389648</ele>
        <time>2022-03-25T10:35:00.000Z</time>
      </trkpt>
      <trkpt lat="49.61894" lon="5.5569">
        <ele>379.60000610352</ele>
        <time>2022-03-25T10:35:02.000Z</time>
      </trkpt>
      <trkpt lat="49.61914" lon="5.55689">
        <ele>379.60000610352</ele>
        <time>2022-03-25T10:35:05.000Z</time>
      </trkpt>
      <trkpt lat="49.61926" lon="5.55689">
        <ele>379.79998779297</ele>
        <time>2022-03-25T10:35:07.000Z</time>
      </trkpt>
      <trkpt lat="49.61942" lon="5.55691">
        <ele>379.79998779297</ele>
        <time>2022-03-25T10:35:10.000Z</time>
      </trkpt>
      <trkpt lat="49.61971" lon="5.55692">
        <ele>379.79998779297</ele>
        <time>2022-03-25T10:35:15.000Z</time>
      </trkpt>
      <trkpt lat="49.61976" lon="5.55691">
        <ele>379.79998779297</ele>
        <time>2022-03-25T10:35:16.000Z</time>
      </trkpt>
      <trkpt lat="49.61992" lon="5.55686">
        <ele>380.20001220703</ele>
        <time>2022-03-25T10:35:19.000Z</time>
      </trkpt>
      <trkpt lat="49.62003" lon="5.55683">
        <ele>381</ele>
        <time>2022-03-25T10:35:21.000Z</time>
      </trkpt>
      <trkpt lat="49.62033" lon="5.55668">
        <ele>383</ele>
        <time>2022-03-25T10:35:27.000Z</time>
      </trkpt>
      <trkpt lat="49.62037" lon="5.55666">
        <ele>383</ele>
        <time>2022-03-25T10:35:28.000Z</time>
      </trkpt>
      <trkpt lat="49.62054" lon="5.55658">
        <ele>382.60000610352</ele>
        <time>2022-03-25T10:35:33.000Z</time>
      </trkpt>
      <trkpt lat="49.62069" lon="5.55646">
        <ele>382</ele>
        <time>2022-03-25T10:35:38.000Z</time>
      </trkpt>
      <trkpt lat="49.62094" lon="5.55627">
        <ele>381.60000610352</ele>
        <time>2022-03-25T10:35:45.000Z</time>
      </trkpt>
      <trkpt lat="49.62099" lon="5.55625">
        <ele>381.39999389648</ele>
        <time>2022-03-25T10:35:46.000Z</time>
      </trkpt>
      <trkpt lat="49.62108" lon="5.55621">
        <ele>381.79998779297</ele>
        <time>2022-03-25T10:35:48.000Z</time>
      </trkpt>
      <trkpt lat="49.62121" lon="5.55612">
        <ele>381.79998779297</ele>
        <time>2022-03-25T10:35:51.000Z</time>
      </trkpt>
      <trkpt lat="49.62134" lon="5.556">
        <ele>381.39999389648</ele>
        <time>2022-03-25T10:35:54.000Z</time>
      </trkpt>
      <trkpt lat="49.62139" lon="5.55595">
        <ele>381.20001220703</ele>
        <time>2022-03-25T10:35:55.000Z</time>
      </trkpt>
      <trkpt lat="49.62144" lon="5.55592">
        <ele>380.79998779297</ele>
        <time>2022-03-25T10:35:56.000Z</time>
      </trkpt>
      <trkpt lat="49.62154" lon="5.55589">
        <ele>379.79998779297</ele>
        <time>2022-03-25T10:35:58.000Z</time>
      </trkpt>
      <trkpt lat="49.6216" lon="5.55588">
        <ele>379.20001220703</ele>
        <time>2022-03-25T10:35:59.000Z</time>
      </trkpt>
      <trkpt lat="49.62166" lon="5.55588">
        <ele>378.39999389648</ele>
        <time>2022-03-25T10:36:00.000Z</time>
      </trkpt>
      <trkpt lat="49.62173" lon="5.55588">
        <ele>377.60000610352</ele>
        <time>2022-03-25T10:36:01.000Z</time>
      </trkpt>
      <trkpt lat="49.62179" lon="5.55587">
        <ele>376.39999389648</ele>
        <time>2022-03-25T10:36:02.000Z</time>
      </trkpt>
      <trkpt lat="49.62186" lon="5.55586">
        <ele>375.20001220703</ele>
        <time>2022-03-25T10:36:03.000Z</time>
      </trkpt>
      <trkpt lat="49.62193" lon="5.55584">
        <ele>374</ele>
        <time>2022-03-25T10:36:04.000Z</time>
      </trkpt>
      <trkpt lat="49.62199" lon="5.55582">
        <ele>372.39999389648</ele>
        <time>2022-03-25T10:36:05.000Z</time>
      </trkpt>
      <trkpt lat="49.62207" lon="5.55579">
        <ele>370.20001220703</ele>
        <time>2022-03-25T10:36:06.000Z</time>
      </trkpt>
      <trkpt lat="49.62214" lon="5.55576">
        <ele>368</ele>
        <time>2022-03-25T10:36:07.000Z</time>
      </trkpt>
      <trkpt lat="49.62222" lon="5.55574">
        <ele>366.20001220703</ele>
        <time>2022-03-25T10:36:08.000Z</time>
      </trkpt>
      <trkpt lat="49.62229" lon="5.55572">
        <ele>364.79998779297</ele>
        <time>2022-03-25T10:36:09.000Z</time>
      </trkpt>
      <trkpt lat="49.62236" lon="5.55571">
        <ele>363.20001220703</ele>
        <time>2022-03-25T10:36:10.000Z</time>
      </trkpt>
      <trkpt lat="49.62243" lon="5.5557">
        <ele>362</ele>
        <time>2022-03-25T10:36:11.000Z</time>
      </trkpt>
      <trkpt lat="49.6225" lon="5.55569">
        <ele>360.79998779297</ele>
        <time>2022-03-25T10:36:12.000Z</time>
      </trkpt>
      <trkpt lat="49.62257" lon="5.55567">
        <ele>359.39999389648</ele>
        <time>2022-03-25T10:36:13.000Z</time>
      </trkpt>
      <trkpt lat="49.62265" lon="5.55566">
        <ele>358</ele>
        <time>2022-03-25T10:36:14.000Z</time>
      </trkpt>
      <trkpt lat="49.62272" lon="5.55564">
        <ele>356.39999389648</ele>
        <time>2022-03-25T10:36:15.000Z</time>
      </trkpt>
      <trkpt lat="49.62281" lon="5.55563">
        <ele>354.79998779297</ele>
        <time>2022-03-25T10:36:16.000Z</time>
      </trkpt>
      <trkpt lat="49.62289" lon="5.55562">
        <ele>353</ele>
        <time>2022-03-25T10:36:17.000Z</time>
      </trkpt>
      <trkpt lat="49.62297" lon="5.55561">
        <ele>351</ele>
        <time>2022-03-25T10:36:18.000Z</time>
      </trkpt>
      <trkpt lat="49.62304" lon="5.55559">
        <ele>349.20001220703</ele>
        <time>2022-03-25T10:36:19.000Z</time>
      </trkpt>
      <trkpt lat="49.62313" lon="5.55555">
        <ele>347.20001220703</ele>
        <time>2022-03-25T10:36:20.000Z</time>
      </trkpt>
      <trkpt lat="49.62321" lon="5.5555">
        <ele>345.60000610352</ele>
        <time>2022-03-25T10:36:21.000Z</time>
      </trkpt>
      <trkpt lat="49.62329" lon="5.55545">
        <ele>343.79998779297</ele>
        <time>2022-03-25T10:36:22.000Z</time>
      </trkpt>
      <trkpt lat="49.62337" lon="5.55539">
        <ele>342</ele>
        <time>2022-03-25T10:36:23.000Z</time>
      </trkpt>
      <trkpt lat="49.62345" lon="5.55533">
        <ele>341.39999389648</ele>
        <time>2022-03-25T10:36:24.000Z</time>
      </trkpt>
      <trkpt lat="49.62353" lon="5.55527">
        <ele>340.79998779297</ele>
        <time>2022-03-25T10:36:25.000Z</time>
      </trkpt>
      <trkpt lat="49.6236" lon="5.55521">
        <ele>340.39999389648</ele>
        <time>2022-03-25T10:36:26.000Z</time>
      </trkpt>
      <trkpt lat="49.62373" lon="5.55509">
        <ele>339.79998779297</ele>
        <time>2022-03-25T10:36:28.000Z</time>
      </trkpt>
      <trkpt lat="49.62381" lon="5.555">
        <ele>340</ele>
        <time>2022-03-25T10:36:30.000Z</time>
      </trkpt>
      <trkpt lat="49.62383" lon="5.55495">
        <ele>340</ele>
        <time>2022-03-25T10:36:31.000Z</time>
      </trkpt>
      <trkpt lat="49.62386" lon="5.55482">
        <ele>340.39999389648</ele>
        <time>2022-03-25T10:36:33.000Z</time>
      </trkpt>
      <trkpt lat="49.62397" lon="5.55467">
        <ele>340.79998779297</ele>
        <time>2022-03-25T10:36:37.000Z</time>
      </trkpt>
      <trkpt lat="49.62408" lon="5.55474">
        <ele>340.39999389648</ele>
        <time>2022-03-25T10:36:40.000Z</time>
      </trkpt>
      <trkpt lat="49.62411" lon="5.55479">
        <ele>340.39999389648</ele>
        <time>2022-03-25T10:36:41.000Z</time>
      </trkpt>
      <trkpt lat="49.62414" lon="5.55483">
        <ele>340.20001220703</ele>
        <time>2022-03-25T10:36:42.000Z</time>
      </trkpt>
      <trkpt lat="49.62418" lon="5.55486">
        <ele>340</ele>
        <time>2022-03-25T10:36:43.000Z</time>
      </trkpt>
      <trkpt lat="49.62426" lon="5.55492">
        <ele>340.39999389648</ele>
        <time>2022-03-25T10:36:45.000Z</time>
      </trkpt>
      <trkpt lat="49.62432" lon="5.55499">
        <ele>340.79998779297</ele>
        <time>2022-03-25T10:36:47.000Z</time>
      </trkpt>
      <trkpt lat="49.62437" lon="5.55515">
        <ele>341.20001220703</ele>
        <time>2022-03-25T10:36:50.000Z</time>
      </trkpt>
      <trkpt lat="49.62439" lon="5.55537">
        <ele>341.39999389648</ele>
        <time>2022-03-25T10:36:54.000Z</time>
      </trkpt>
      <trkpt lat="49.62437" lon="5.55566">
        <ele>341.20001220703</ele>
        <time>2022-03-25T10:36:59.000Z</time>
      </trkpt>
      <trkpt lat="49.62436" lon="5.55595">
        <ele>340.79998779297</ele>
        <time>2022-03-25T10:37:04.000Z</time>
      </trkpt>
      <trkpt lat="49.62439" lon="5.5563">
        <ele>340.39999389648</ele>
        <time>2022-03-25T10:37:10.000Z</time>
      </trkpt>
      <trkpt lat="49.6244" lon="5.55641">
        <ele>340.39999389648</ele>
        <time>2022-03-25T10:37:13.000Z</time>
      </trkpt>
      <trkpt lat="49.62441" lon="5.55649">
        <ele>340.20001220703</ele>
        <time>2022-03-25T10:37:15.000Z</time>
      </trkpt>
      <trkpt lat="49.6244" lon="5.55657">
        <ele>339.79998779297</ele>
        <time>2022-03-25T10:37:17.000Z</time>
      </trkpt>
      <trkpt lat="49.62435" lon="5.55677">
        <ele>338.39999389648</ele>
        <time>2022-03-25T10:37:21.000Z</time>
      </trkpt>
      <trkpt lat="49.62434" lon="5.55703">
        <ele>337.79998779297</ele>
        <time>2022-03-25T10:37:26.000Z</time>
      </trkpt>
      <trkpt lat="49.62434" lon="5.55708">
        <ele>337.60000610352</ele>
        <time>2022-03-25T10:37:27.000Z</time>
      </trkpt>
      <trkpt lat="49.62433" lon="5.55718">
        <ele>337.20001220703</ele>
        <time>2022-03-25T10:37:30.000Z</time>
      </trkpt>
      <trkpt lat="49.62437" lon="5.55738">
        <ele>337</ele>
        <time>2022-03-25T10:37:34.000Z</time>
      </trkpt>
      <trkpt lat="49.62436" lon="5.55759">
        <ele>337.20001220703</ele>
        <time>2022-03-25T10:37:38.000Z</time>
      </trkpt>
      <trkpt lat="49.62435" lon="5.55785">
        <ele>338.39999389648</ele>
        <time>2022-03-25T10:37:43.000Z</time>
      </trkpt>
      <trkpt lat="49.62433" lon="5.55807">
        <ele>339.39999389648</ele>
        <time>2022-03-25T10:37:47.000Z</time>
      </trkpt>
      <trkpt lat="49.62426" lon="5.5582">
        <ele>340</ele>
        <time>2022-03-25T10:37:50.000Z</time>
      </trkpt>
      <trkpt lat="49.62419" lon="5.55833">
        <ele>340.79998779297</ele>
        <time>2022-03-25T10:37:54.000Z</time>
      </trkpt>
      <trkpt lat="49.62418" lon="5.55836">
        <ele>341</ele>
        <time>2022-03-25T10:37:55.000Z</time>
      </trkpt>
      <trkpt lat="49.62417" lon="5.55846">
        <ele>341.20001220703</ele>
        <time>2022-03-25T10:37:58.000Z</time>
      </trkpt>
      <trkpt lat="49.62415" lon="5.55848">
        <ele>341.20001220703</ele>
        <time>2022-03-25T10:37:59.000Z</time>
      </trkpt>
      <trkpt lat="49.62407" lon="5.55856">
        <ele>341</ele>
        <time>2022-03-25T10:38:02.000Z</time>
      </trkpt>
      <trkpt lat="49.62404" lon="5.55862">
        <ele>340.79998779297</ele>
        <time>2022-03-25T10:38:04.000Z</time>
      </trkpt>
      <trkpt lat="49.62401" lon="5.55879">
        <ele>340.39999389648</ele>
        <time>2022-03-25T10:38:08.000Z</time>
      </trkpt>
      <trkpt lat="49.624" lon="5.55883">
        <ele>340.20001220703</ele>
        <time>2022-03-25T10:38:09.000Z</time>
      </trkpt>
      <trkpt lat="49.62399" lon="5.55901">
        <ele>340.20001220703</ele>
        <time>2022-03-25T10:38:13.000Z</time>
      </trkpt>
      <trkpt lat="49.62397" lon="5.55913">
        <ele>340.20001220703</ele>
        <time>2022-03-25T10:38:16.000Z</time>
      </trkpt>
      <trkpt lat="49.62395" lon="5.55915">
        <ele>340</ele>
        <time>2022-03-25T10:38:17.000Z</time>
      </trkpt>
      <trkpt lat="49.62393" lon="5.55916">
        <ele>340</ele>
        <time>2022-03-25T10:38:18.000Z</time>
      </trkpt>
      <trkpt lat="49.62387" lon="5.5592">
        <ele>340.20001220703</ele>
        <time>2022-03-25T10:38:21.000Z</time>
      </trkpt>
      <trkpt lat="49.62385" lon="5.55927">
        <ele>340.60000610352</ele>
        <time>2022-03-25T10:38:23.000Z</time>
      </trkpt>
      <trkpt lat="49.62384" lon="5.55954">
        <ele>341.60000610352</ele>
        <time>2022-03-25T10:38:31.000Z</time>
      </trkpt>
      <trkpt lat="49.62384" lon="5.55958">
        <ele>341.79998779297</ele>
        <time>2022-03-25T10:38:32.000Z</time>
      </trkpt>
      <trkpt lat="49.62381" lon="5.55992">
        <ele>343</ele>
        <time>2022-03-25T10:38:39.000Z</time>
      </trkpt>
      <trkpt lat="49.6238" lon="5.56003">
        <ele>343.60000610352</ele>
        <time>2022-03-25T10:38:41.000Z</time>
      </trkpt>
      <trkpt lat="49.62377" lon="5.56025">
        <ele>344.39999389648</ele>
        <time>2022-03-25T10:38:45.000Z</time>
      </trkpt>
      <trkpt lat="49.62372" lon="5.56045">
        <ele>344.79998779297</ele>
        <time>2022-03-25T10:38:49.000Z</time>
      </trkpt>
      <trkpt lat="49.62371" lon="5.56049">
        <ele>344.79998779297</ele>
        <time>2022-03-25T10:38:50.000Z</time>
      </trkpt>
      <trkpt lat="49.62366" lon="5.56064">
        <ele>345</ele>
        <time>2022-03-25T10:38:53.000Z</time>
      </trkpt>
      <trkpt lat="49.62361" lon="5.56082">
        <ele>345.20001220703</ele>
        <time>2022-03-25T10:38:56.000Z</time>
      </trkpt>
      <trkpt lat="49.62359" lon="5.5609">
        <ele>345.39999389648</ele>
        <time>2022-03-25T10:38:57.000Z</time>
      </trkpt>
      <trkpt lat="49.62356" lon="5.5612">
        <ele>346</ele>
        <time>2022-03-25T10:39:00.000Z</time>
      </trkpt>
      <trkpt lat="49.62355" lon="5.56131">
        <ele>346</ele>
        <time>2022-03-25T10:39:01.000Z</time>
      </trkpt>
      <trkpt lat="49.62355" lon="5.56141">
        <ele>346.39999389648</ele>
        <time>2022-03-25T10:39:02.000Z</time>
      </trkpt>
      <trkpt lat="49.62354" lon="5.56162">
        <ele>346.20001220703</ele>
        <time>2022-03-25T10:39:04.000Z</time>
      </trkpt>
      <trkpt lat="49.62354" lon="5.56172">
        <ele>345.79998779297</ele>
        <time>2022-03-25T10:39:05.000Z</time>
      </trkpt>
      <trkpt lat="49.62352" lon="5.56181">
        <ele>345</ele>
        <time>2022-03-25T10:39:06.000Z</time>
      </trkpt>
      <trkpt lat="49.6235" lon="5.5619">
        <ele>345</ele>
        <time>2022-03-25T10:39:07.000Z</time>
      </trkpt>
      <trkpt lat="49.62346" lon="5.56206">
        <ele>344.60000610352</ele>
        <time>2022-03-25T10:39:09.000Z</time>
      </trkpt>
      <trkpt lat="49.62334" lon="5.5625">
        <ele>344.39999389648</ele>
        <time>2022-03-25T10:39:15.000Z</time>
      </trkpt>
      <trkpt lat="49.6232" lon="5.56291">
        <ele>345</ele>
        <time>2022-03-25T10:39:21.000Z</time>
      </trkpt>
      <trkpt lat="49.62316" lon="5.56304">
        <ele>345.20001220703</ele>
        <time>2022-03-25T10:39:23.000Z</time>
      </trkpt>
      <trkpt lat="49.62311" lon="5.56323">
        <ele>345.20001220703</ele>
        <time>2022-03-25T10:39:26.000Z</time>
      </trkpt>
      <trkpt lat="49.62309" lon="5.5633">
        <ele>345.20001220703</ele>
        <time>2022-03-25T10:39:27.000Z</time>
      </trkpt>
      <trkpt lat="49.62307" lon="5.56342">
        <ele>345.20001220703</ele>
        <time>2022-03-25T10:39:29.000Z</time>
      </trkpt>
      <trkpt lat="49.62306" lon="5.56353">
        <ele>345.20001220703</ele>
        <time>2022-03-25T10:39:31.000Z</time>
      </trkpt>
      <trkpt lat="49.62305" lon="5.56375">
        <ele>345.60000610352</ele>
        <time>2022-03-25T10:39:35.000Z</time>
      </trkpt>
      <trkpt lat="49.62301" lon="5.56395">
        <ele>346.20001220703</ele>
        <time>2022-03-25T10:39:39.000Z</time>
      </trkpt>
      <trkpt lat="49.623" lon="5.564">
        <ele>346.39999389648</ele>
        <time>2022-03-25T10:39:40.000Z</time>
      </trkpt>
      <trkpt lat="49.623" lon="5.5642">
        <ele>347</ele>
        <time>2022-03-25T10:39:44.000Z</time>
      </trkpt>
      <trkpt lat="49.623" lon="5.56425">
        <ele>347.20001220703</ele>
        <time>2022-03-25T10:39:45.000Z</time>
      </trkpt>
      <trkpt lat="49.62297" lon="5.56449">
        <ele>348</ele>
        <time>2022-03-25T10:39:50.000Z</time>
      </trkpt>
      <trkpt lat="49.62295" lon="5.56458">
        <ele>348</ele>
        <time>2022-03-25T10:39:52.000Z</time>
      </trkpt>
      <trkpt lat="49.62291" lon="5.56486">
        <ele>347.60000610352</ele>
        <time>2022-03-25T10:39:57.000Z</time>
      </trkpt>
      <trkpt lat="49.62291" lon="5.56523">
        <ele>348</ele>
        <time>2022-03-25T10:40:03.000Z</time>
      </trkpt>
      <trkpt lat="49.62294" lon="5.5656">
        <ele>347.39999389648</ele>
        <time>2022-03-25T10:40:09.000Z</time>
      </trkpt>
      <trkpt lat="49.623" lon="5.56602">
        <ele>348.20001220703</ele>
        <time>2022-03-25T10:40:15.000Z</time>
      </trkpt>
      <trkpt lat="49.623" lon="5.56635">
        <ele>348.60000610352</ele>
        <time>2022-03-25T10:40:20.000Z</time>
      </trkpt>
      <trkpt lat="49.62302" lon="5.56651">
        <ele>348.79998779297</ele>
        <time>2022-03-25T10:40:23.000Z</time>
      </trkpt>
      <trkpt lat="49.62304" lon="5.56655">
        <ele>348.79998779297</ele>
        <time>2022-03-25T10:40:24.000Z</time>
      </trkpt>
      <trkpt lat="49.62308" lon="5.56659">
        <ele>349</ele>
        <time>2022-03-25T10:40:26.000Z</time>
      </trkpt>
      <trkpt lat="49.62313" lon="5.5666">
        <ele>349</ele>
        <time>2022-03-25T10:40:28.000Z</time>
      </trkpt>
      <trkpt lat="49.62316" lon="5.5666">
        <ele>349</ele>
        <time>2022-03-25T10:40:29.000Z</time>
      </trkpt>
      <trkpt lat="49.62319" lon="5.56659">
        <ele>349</ele>
        <time>2022-03-25T10:40:30.000Z</time>
      </trkpt>
      <trkpt lat="49.62331" lon="5.56665">
        <ele>349</ele>
        <time>2022-03-25T10:40:33.000Z</time>
      </trkpt>
      <trkpt lat="49.6234" lon="5.56671">
        <ele>349</ele>
        <time>2022-03-25T10:40:35.000Z</time>
      </trkpt>
      <trkpt lat="49.62353" lon="5.56681">
        <ele>349</ele>
        <time>2022-03-25T10:40:38.000Z</time>
      </trkpt>
      <trkpt lat="49.62356" lon="5.56684">
        <ele>349</ele>
        <time>2022-03-25T10:40:39.000Z</time>
      </trkpt>
      <trkpt lat="49.6236" lon="5.56686">
        <ele>349</ele>
        <time>2022-03-25T10:40:40.000Z</time>
      </trkpt>
      <trkpt lat="49.62369" lon="5.5669">
        <ele>348.79998779297</ele>
        <time>2022-03-25T10:40:42.000Z</time>
      </trkpt>
      <trkpt lat="49.62378" lon="5.56693">
        <ele>348.60000610352</ele>
        <time>2022-03-25T10:40:44.000Z</time>
      </trkpt>
      <trkpt lat="49.62394" lon="5.56696">
        <ele>348</ele>
        <time>2022-03-25T10:40:47.000Z</time>
      </trkpt>
      <trkpt lat="49.62407" lon="5.56698">
        <ele>348</ele>
        <time>2022-03-25T10:40:49.000Z</time>
      </trkpt>
      <trkpt lat="49.62414" lon="5.56698">
        <ele>348</ele>
        <time>2022-03-25T10:40:50.000Z</time>
      </trkpt>
      <trkpt lat="49.62433" lon="5.56701">
        <ele>348</ele>
        <time>2022-03-25T10:40:53.000Z</time>
      </trkpt>
      <trkpt lat="49.62439" lon="5.56702">
        <ele>348</ele>
        <time>2022-03-25T10:40:54.000Z</time>
      </trkpt>
      <trkpt lat="49.62454" lon="5.56707">
        <ele>347.79998779297</ele>
        <time>2022-03-25T10:40:57.000Z</time>
      </trkpt>
      <trkpt lat="49.62463" lon="5.5671">
        <ele>347.39999389648</ele>
        <time>2022-03-25T10:40:59.000Z</time>
      </trkpt>
      <trkpt lat="49.62495" lon="5.56725">
        <ele>346.20001220703</ele>
        <time>2022-03-25T10:41:05.000Z</time>
      </trkpt>
      <trkpt lat="49.62506" lon="5.5673">
        <ele>346</ele>
        <time>2022-03-25T10:41:07.000Z</time>
      </trkpt>
      <trkpt lat="49.62522" lon="5.56742">
        <ele>345.39999389648</ele>
        <time>2022-03-25T10:41:10.000Z</time>
      </trkpt>
      <trkpt lat="49.62532" lon="5.5675">
        <ele>345</ele>
        <time>2022-03-25T10:41:12.000Z</time>
      </trkpt>
      <trkpt lat="49.62542" lon="5.56761">
        <ele>344.60000610352</ele>
        <time>2022-03-25T10:41:14.000Z</time>
      </trkpt>
      <trkpt lat="49.62547" lon="5.56766">
        <ele>344.39999389648</ele>
        <time>2022-03-25T10:41:15.000Z</time>
      </trkpt>
      <trkpt lat="49.62563" lon="5.56779">
        <ele>343.79998779297</ele>
        <time>2022-03-25T10:41:18.000Z</time>
      </trkpt>
      <trkpt lat="49.62581" lon="5.56793">
        <ele>343</ele>
        <time>2022-03-25T10:41:21.000Z</time>
      </trkpt>
      <trkpt lat="49.62587" lon="5.56798">
        <ele>342.60000610352</ele>
        <time>2022-03-25T10:41:22.000Z</time>
      </trkpt>
      <trkpt lat="49.62612" lon="5.56816">
        <ele>341.20001220703</ele>
        <time>2022-03-25T10:41:26.000Z</time>
      </trkpt>
      <trkpt lat="49.62618" lon="5.56819">
        <ele>340.79998779297</ele>
        <time>2022-03-25T10:41:27.000Z</time>
      </trkpt>
      <trkpt lat="49.62638" lon="5.56829">
        <ele>339.39999389648</ele>
        <time>2022-03-25T10:41:30.000Z</time>
      </trkpt>
      <trkpt lat="49.62658" lon="5.56843">
        <ele>337.79998779297</ele>
        <time>2022-03-25T10:41:33.000Z</time>
      </trkpt>
      <trkpt lat="49.62664" lon="5.56849">
        <ele>337.39999389648</ele>
        <time>2022-03-25T10:41:34.000Z</time>
      </trkpt>
      <trkpt lat="49.62676" lon="5.56861">
        <ele>336.79998779297</ele>
        <time>2022-03-25T10:41:36.000Z</time>
      </trkpt>
      <trkpt lat="49.62686" lon="5.56872">
        <ele>336</ele>
        <time>2022-03-25T10:41:38.000Z</time>
      </trkpt>
      <trkpt lat="49.62691" lon="5.56878">
        <ele>335.60000610352</ele>
        <time>2022-03-25T10:41:39.000Z</time>
      </trkpt>
      <trkpt lat="49.62696" lon="5.56884">
        <ele>335.39999389648</ele>
        <time>2022-03-25T10:41:40.000Z</time>
      </trkpt>
      <trkpt lat="49.62706" lon="5.56894">
        <ele>335</ele>
        <time>2022-03-25T10:41:42.000Z</time>
      </trkpt>
      <trkpt lat="49.6271" lon="5.56898">
        <ele>335</ele>
        <time>2022-03-25T10:41:43.000Z</time>
      </trkpt>
      <trkpt lat="49.62715" lon="5.56902">
        <ele>335</ele>
        <time>2022-03-25T10:41:44.000Z</time>
      </trkpt>
      <trkpt lat="49.62724" lon="5.56912">
        <ele>335</ele>
        <time>2022-03-25T10:41:46.000Z</time>
      </trkpt>
      <trkpt lat="49.62738" lon="5.56926">
        <ele>335</ele>
        <time>2022-03-25T10:41:49.000Z</time>
      </trkpt>
      <trkpt lat="49.62747" lon="5.56934">
        <ele>335</ele>
        <time>2022-03-25T10:41:51.000Z</time>
      </trkpt>
      <trkpt lat="49.62754" lon="5.56939">
        <ele>335</ele>
        <time>2022-03-25T10:41:53.000Z</time>
      </trkpt>
      <trkpt lat="49.62765" lon="5.56942">
        <ele>335</ele>
        <time>2022-03-25T10:41:56.000Z</time>
      </trkpt>
      <trkpt lat="49.62769" lon="5.56944">
        <ele>335</ele>
        <time>2022-03-25T10:41:57.000Z</time>
      </trkpt>
      <trkpt lat="49.62774" lon="5.56946">
        <ele>335</ele>
        <time>2022-03-25T10:41:58.000Z</time>
      </trkpt>
      <trkpt lat="49.62795" lon="5.56952">
        <ele>335</ele>
        <time>2022-03-25T10:42:04.000Z</time>
      </trkpt>
      <trkpt lat="49.62823" lon="5.56947">
        <ele>335.39999389648</ele>
        <time>2022-03-25T10:42:11.000Z</time>
      </trkpt>
      <trkpt lat="49.62837" lon="5.56949">
        <ele>336</ele>
        <time>2022-03-25T10:42:15.000Z</time>
      </trkpt>
      <trkpt lat="49.62846" lon="5.5697">
        <ele>336</ele>
        <time>2022-03-25T10:42:20.000Z</time>
      </trkpt>
      <trkpt lat="49.62855" lon="5.57008">
        <ele>336</ele>
        <time>2022-03-25T10:42:26.000Z</time>
      </trkpt>
      <trkpt lat="49.62865" lon="5.57057">
        <ele>336</ele>
        <time>2022-03-25T10:42:33.000Z</time>
      </trkpt>
      <trkpt lat="49.62873" lon="5.57103">
        <ele>336.39999389648</ele>
        <time>2022-03-25T10:42:40.000Z</time>
      </trkpt>
      <trkpt lat="49.62878" lon="5.57138">
        <ele>337</ele>
        <time>2022-03-25T10:42:46.000Z</time>
      </trkpt>
      <trkpt lat="49.62878" lon="5.57142">
        <ele>337</ele>
        <time>2022-03-25T10:42:47.000Z</time>
      </trkpt>
      <trkpt lat="49.62878" lon="5.57157">
        <ele>337</ele>
        <time>2022-03-25T10:42:50.000Z</time>
      </trkpt>
      <trkpt lat="49.62884" lon="5.57203">
        <ele>337.20001220703</ele>
        <time>2022-03-25T10:42:56.000Z</time>
      </trkpt>
      <trkpt lat="49.62888" lon="5.57223">
        <ele>337.20001220703</ele>
        <time>2022-03-25T10:43:00.000Z</time>
      </trkpt>
      <trkpt lat="49.6289" lon="5.57224">
        <ele>337.20001220703</ele>
        <time>2022-03-25T10:43:01.000Z</time>
      </trkpt>
      <trkpt lat="49.62894" lon="5.57224">
        <ele>336.79998779297</ele>
        <time>2022-03-25T10:43:03.000Z</time>
      </trkpt>
      <trkpt lat="49.62897" lon="5.57223">
        <ele>336.60000610352</ele>
        <time>2022-03-25T10:43:04.000Z</time>
      </trkpt>
      <trkpt lat="49.62907" lon="5.57221">
        <ele>335.39999389648</ele>
        <time>2022-03-25T10:43:07.000Z</time>
      </trkpt>
      <trkpt lat="49.6293" lon="5.57216">
        <ele>334</ele>
        <time>2022-03-25T10:43:13.000Z</time>
      </trkpt>
      <trkpt lat="49.62948" lon="5.57203">
        <ele>334</ele>
        <time>2022-03-25T10:43:17.000Z</time>
      </trkpt>
      <trkpt lat="49.62967" lon="5.57195">
        <ele>335.39999389648</ele>
        <time>2022-03-25T10:43:22.000Z</time>
      </trkpt>
      <trkpt lat="49.6297" lon="5.57193">
        <ele>335.79998779297</ele>
        <time>2022-03-25T10:43:23.000Z</time>
      </trkpt>
      <trkpt lat="49.62992" lon="5.57178">
        <ele>337.20001220703</ele>
        <time>2022-03-25T10:43:28.000Z</time>
      </trkpt>
      <trkpt lat="49.63016" lon="5.57159">
        <ele>336.79998779297</ele>
        <time>2022-03-25T10:43:34.000Z</time>
      </trkpt>
      <trkpt lat="49.63032" lon="5.57146">
        <ele>336.39999389648</ele>
        <time>2022-03-25T10:43:38.000Z</time>
      </trkpt>
      <trkpt lat="49.63043" lon="5.57136">
        <ele>335.79998779297</ele>
        <time>2022-03-25T10:43:41.000Z</time>
      </trkpt>
      <trkpt lat="49.6306" lon="5.57125">
        <ele>336</ele>
        <time>2022-03-25T10:43:46.000Z</time>
      </trkpt>
      <trkpt lat="49.63064" lon="5.57122">
        <ele>336</ele>
        <time>2022-03-25T10:43:47.000Z</time>
      </trkpt>
      <trkpt lat="49.63081" lon="5.57107">
        <ele>336</ele>
        <time>2022-03-25T10:43:52.000Z</time>
      </trkpt>
      <trkpt lat="49.63096" lon="5.57094">
        <ele>336</ele>
        <time>2022-03-25T10:43:56.000Z</time>
      </trkpt>
      <trkpt lat="49.63103" lon="5.57088">
        <ele>336.39999389648</ele>
        <time>2022-03-25T10:43:58.000Z</time>
      </trkpt>
      <trkpt lat="49.63119" lon="5.57077">
        <ele>337.39999389648</ele>
        <time>2022-03-25T10:44:02.000Z</time>
      </trkpt>
      <trkpt lat="49.63131" lon="5.57067">
        <ele>338</ele>
        <time>2022-03-25T10:44:05.000Z</time>
      </trkpt>
      <trkpt lat="49.63141" lon="5.5706">
        <ele>338</ele>
        <time>2022-03-25T10:44:08.000Z</time>
      </trkpt>
      <trkpt lat="49.63147" lon="5.57055">
        <ele>338.20001220703</ele>
        <time>2022-03-25T10:44:10.000Z</time>
      </trkpt>
      <trkpt lat="49.6316" lon="5.57045">
        <ele>339</ele>
        <time>2022-03-25T10:44:14.000Z</time>
      </trkpt>
      <trkpt lat="49.63167" lon="5.57037">
        <ele>338.39999389648</ele>
        <time>2022-03-25T10:44:16.000Z</time>
      </trkpt>
      <trkpt lat="49.63195" lon="5.57016">
        <ele>338.60000610352</ele>
        <time>2022-03-25T10:44:22.000Z</time>
      </trkpt>
      <trkpt lat="49.63198" lon="5.57014">
        <ele>338.39999389648</ele>
        <time>2022-03-25T10:44:23.000Z</time>
      </trkpt>
      <trkpt lat="49.63219" lon="5.57001">
        <ele>338.79998779297</ele>
        <time>2022-03-25T10:44:28.000Z</time>
      </trkpt>
      <trkpt lat="49.63232" lon="5.56993">
        <ele>339.39999389648</ele>
        <time>2022-03-25T10:44:32.000Z</time>
      </trkpt>
      <trkpt lat="49.63235" lon="5.56994">
        <ele>339.60000610352</ele>
        <time>2022-03-25T10:44:33.000Z</time>
      </trkpt>
      <trkpt lat="49.63241" lon="5.57001">
        <ele>340</ele>
        <time>2022-03-25T10:44:36.000Z</time>
      </trkpt>
      <trkpt lat="49.6325" lon="5.57023">
        <ele>340.79998779297</ele>
        <time>2022-03-25T10:44:41.000Z</time>
      </trkpt>
      <trkpt lat="49.63253" lon="5.5706">
        <ele>341</ele>
        <time>2022-03-25T10:44:46.000Z</time>
      </trkpt>
      <trkpt lat="49.63252" lon="5.57098">
        <ele>341</ele>
        <time>2022-03-25T10:44:51.000Z</time>
      </trkpt>
      <trkpt lat="49.63253" lon="5.57105">
        <ele>341</ele>
        <time>2022-03-25T10:44:52.000Z</time>
      </trkpt>
      <trkpt lat="49.63253" lon="5.57139">
        <ele>341</ele>
        <time>2022-03-25T10:44:57.000Z</time>
      </trkpt>
      <trkpt lat="49.63251" lon="5.57173">
        <ele>339.79998779297</ele>
        <time>2022-03-25T10:45:02.000Z</time>
      </trkpt>
      <trkpt lat="49.63251" lon="5.57182">
        <ele>339.60000610352</ele>
        <time>2022-03-25T10:45:03.000Z</time>
      </trkpt>
      <trkpt lat="49.63252" lon="5.57208">
        <ele>338.60000610352</ele>
        <time>2022-03-25T10:45:06.000Z</time>
      </trkpt>
      <trkpt lat="49.63255" lon="5.57213">
        <ele>338.39999389648</ele>
        <time>2022-03-25T10:45:07.000Z</time>
      </trkpt>
      <trkpt lat="49.63264" lon="5.57216">
        <ele>338</ele>
        <time>2022-03-25T10:45:10.000Z</time>
      </trkpt>
      <trkpt lat="49.63267" lon="5.57215">
        <ele>337.79998779297</ele>
        <time>2022-03-25T10:45:11.000Z</time>
      </trkpt>
      <trkpt lat="49.63285" lon="5.57209">
        <ele>337.20001220703</ele>
        <time>2022-03-25T10:45:15.000Z</time>
      </trkpt>
      <trkpt lat="49.63307" lon="5.57201">
        <ele>336</ele>
        <time>2022-03-25T10:45:20.000Z</time>
      </trkpt>
      <trkpt lat="49.63324" lon="5.57201">
        <ele>335.79998779297</ele>
        <time>2022-03-25T10:45:24.000Z</time>
      </trkpt>
      <trkpt lat="49.63333" lon="5.57202">
        <ele>335.60000610352</ele>
        <time>2022-03-25T10:45:26.000Z</time>
      </trkpt>
      <trkpt lat="49.63348" lon="5.57204">
        <ele>336</ele>
        <time>2022-03-25T10:45:29.000Z</time>
      </trkpt>
      <trkpt lat="49.63353" lon="5.57205">
        <ele>336.20001220703</ele>
        <time>2022-03-25T10:45:30.000Z</time>
      </trkpt>
      <trkpt lat="49.63358" lon="5.57206">
        <ele>336.39999389648</ele>
        <time>2022-03-25T10:45:31.000Z</time>
      </trkpt>
      <trkpt lat="49.63379" lon="5.57212">
        <ele>337</ele>
        <time>2022-03-25T10:45:35.000Z</time>
      </trkpt>
      <trkpt lat="49.63395" lon="5.57215">
        <ele>337.79998779297</ele>
        <time>2022-03-25T10:45:38.000Z</time>
      </trkpt>
      <trkpt lat="49.63416" lon="5.57218">
        <ele>338.39999389648</ele>
        <time>2022-03-25T10:45:42.000Z</time>
      </trkpt>
      <trkpt lat="49.63426" lon="5.5722">
        <ele>338.39999389648</ele>
        <time>2022-03-25T10:45:44.000Z</time>
      </trkpt>
      <trkpt lat="49.63435" lon="5.5722">
        <ele>338.79998779297</ele>
        <time>2022-03-25T10:45:46.000Z</time>
      </trkpt>
      <trkpt lat="49.63444" lon="5.57221">
        <ele>339.20001220703</ele>
        <time>2022-03-25T10:45:48.000Z</time>
      </trkpt>
      <trkpt lat="49.63454" lon="5.5722">
        <ele>339.60000610352</ele>
        <time>2022-03-25T10:45:50.000Z</time>
      </trkpt>
      <trkpt lat="49.63487" lon="5.57218">
        <ele>340</ele>
        <time>2022-03-25T10:45:57.000Z</time>
      </trkpt>
      <trkpt lat="49.63491" lon="5.57218">
        <ele>340</ele>
        <time>2022-03-25T10:45:58.000Z</time>
      </trkpt>
      <trkpt lat="49.63505" lon="5.57218">
        <ele>339.39999389648</ele>
        <time>2022-03-25T10:46:01.000Z</time>
      </trkpt>
      <trkpt lat="49.63515" lon="5.57222">
        <ele>339.60000610352</ele>
        <time>2022-03-25T10:46:03.000Z</time>
      </trkpt>
      <trkpt lat="49.63526" lon="5.57226">
        <ele>339.79998779297</ele>
        <time>2022-03-25T10:46:05.000Z</time>
      </trkpt>
      <trkpt lat="49.63531" lon="5.57227">
        <ele>340</ele>
        <time>2022-03-25T10:46:06.000Z</time>
      </trkpt>
      <trkpt lat="49.63552" lon="5.5723">
        <ele>341</ele>
        <time>2022-03-25T10:46:09.000Z</time>
      </trkpt>
      <trkpt lat="49.63558" lon="5.57231">
        <ele>341.39999389648</ele>
        <time>2022-03-25T10:46:10.000Z</time>
      </trkpt>
      <trkpt lat="49.63569" lon="5.57232">
        <ele>341.79998779297</ele>
        <time>2022-03-25T10:46:12.000Z</time>
      </trkpt>
      <trkpt lat="49.63574" lon="5.57232">
        <ele>342</ele>
        <time>2022-03-25T10:46:13.000Z</time>
      </trkpt>
      <trkpt lat="49.63588" lon="5.57234">
        <ele>342.39999389648</ele>
        <time>2022-03-25T10:46:16.000Z</time>
      </trkpt>
      <trkpt lat="49.63618" lon="5.57232">
        <ele>342.39999389648</ele>
        <time>2022-03-25T10:46:23.000Z</time>
      </trkpt>
      <trkpt lat="49.63628" lon="5.57227">
        <ele>342</ele>
        <time>2022-03-25T10:46:26.000Z</time>
      </trkpt>
      <trkpt lat="49.6363" lon="5.57224">
        <ele>342</ele>
        <time>2022-03-25T10:46:27.000Z</time>
      </trkpt>
      <trkpt lat="49.63628" lon="5.57204">
        <ele>342.20001220703</ele>
        <time>2022-03-25T10:46:32.000Z</time>
      </trkpt>
      <trkpt lat="49.63624" lon="5.57191">
        <ele>342.79998779297</ele>
        <time>2022-03-25T10:46:34.000Z</time>
      </trkpt>
      <trkpt lat="49.63614" lon="5.57162">
        <ele>344.20001220703</ele>
        <time>2022-03-25T10:46:38.000Z</time>
      </trkpt>
      <trkpt lat="49.63601" lon="5.57124">
        <ele>345.79998779297</ele>
        <time>2022-03-25T10:46:43.000Z</time>
      </trkpt>
      <trkpt lat="49.63581" lon="5.57068">
        <ele>346.60000610352</ele>
        <time>2022-03-25T10:46:51.000Z</time>
      </trkpt>
      <trkpt lat="49.63576" lon="5.57054">
        <ele>346</ele>
        <time>2022-03-25T10:46:53.000Z</time>
      </trkpt>
      <trkpt lat="49.63566" lon="5.57024">
        <ele>344.20001220703</ele>
        <time>2022-03-25T10:46:58.000Z</time>
      </trkpt>
      <trkpt lat="49.63566" lon="5.57019">
        <ele>344</ele>
        <time>2022-03-25T10:46:59.000Z</time>
      </trkpt>
      <trkpt lat="49.63569" lon="5.57014">
        <ele>344.20001220703</ele>
        <time>2022-03-25T10:47:01.000Z</time>
      </trkpt>
      <trkpt lat="49.63584" lon="5.57003">
        <ele>345.60000610352</ele>
        <time>2022-03-25T10:47:05.000Z</time>
      </trkpt>
      <trkpt lat="49.63612" lon="5.56982">
        <ele>348.39999389648</ele>
        <time>2022-03-25T10:47:11.000Z</time>
      </trkpt>
      <trkpt lat="49.63642" lon="5.56958">
        <ele>350</ele>
        <time>2022-03-25T10:47:18.000Z</time>
      </trkpt>
      <trkpt lat="49.63653" lon="5.56951">
        <ele>350</ele>
        <time>2022-03-25T10:47:21.000Z</time>
      </trkpt>
      <trkpt lat="49.63656" lon="5.56949">
        <ele>350</ele>
        <time>2022-03-25T10:47:22.000Z</time>
      </trkpt>
      <trkpt lat="49.6366" lon="5.56946">
        <ele>350</ele>
        <time>2022-03-25T10:47:23.000Z</time>
      </trkpt>
      <trkpt lat="49.63682" lon="5.56928">
        <ele>349</ele>
        <time>2022-03-25T10:47:28.000Z</time>
      </trkpt>
      <trkpt lat="49.63712" lon="5.56905">
        <ele>348.60000610352</ele>
        <time>2022-03-25T10:47:35.000Z</time>
      </trkpt>
      <trkpt lat="49.63729" lon="5.56892">
        <ele>348.79998779297</ele>
        <time>2022-03-25T10:47:40.000Z</time>
      </trkpt>
      <trkpt lat="49.63746" lon="5.56879">
        <ele>347.20001220703</ele>
        <time>2022-03-25T10:47:46.000Z</time>
      </trkpt>
      <trkpt lat="49.63756" lon="5.56878">
        <ele>346.79998779297</ele>
        <time>2022-03-25T10:47:50.000Z</time>
      </trkpt>
      <trkpt lat="49.63759" lon="5.5688">
        <ele>346.60000610352</ele>
        <time>2022-03-25T10:47:51.000Z</time>
      </trkpt>
      <trkpt lat="49.63763" lon="5.56887">
        <ele>346.39999389648</ele>
        <time>2022-03-25T10:47:53.000Z</time>
      </trkpt>
      <trkpt lat="49.63768" lon="5.56897">
        <ele>346.20001220703</ele>
        <time>2022-03-25T10:47:55.000Z</time>
      </trkpt>
      <trkpt lat="49.6377" lon="5.56902">
        <ele>346.20001220703</ele>
        <time>2022-03-25T10:47:56.000Z</time>
      </trkpt>
      <trkpt lat="49.63781" lon="5.56929">
        <ele>346.79998779297</ele>
        <time>2022-03-25T10:48:02.000Z</time>
      </trkpt>
      <trkpt lat="49.63793" lon="5.56955">
        <ele>347.79998779297</ele>
        <time>2022-03-25T10:48:09.000Z</time>
      </trkpt>
      <trkpt lat="49.638" lon="5.56979">
        <ele>348.60000610352</ele>
        <time>2022-03-25T10:48:15.000Z</time>
      </trkpt>
      <trkpt lat="49.63812" lon="5.57006">
        <ele>348.79998779297</ele>
        <time>2022-03-25T10:48:21.000Z</time>
      </trkpt>
      <trkpt lat="49.63821" lon="5.57031">
        <ele>348.79998779297</ele>
        <time>2022-03-25T10:48:27.000Z</time>
      </trkpt>
      <trkpt lat="49.63822" lon="5.57036">
        <ele>349</ele>
        <time>2022-03-25T10:48:28.000Z</time>
      </trkpt>
      <trkpt lat="49.63832" lon="5.57064">
        <ele>350</ele>
        <time>2022-03-25T10:48:34.000Z</time>
      </trkpt>
      <trkpt lat="49.63846" lon="5.57095">
        <ele>350.60000610352</ele>
        <time>2022-03-25T10:48:40.000Z</time>
      </trkpt>
      <trkpt lat="49.63856" lon="5.57127">
        <ele>351.20001220703</ele>
        <time>2022-03-25T10:48:46.000Z</time>
      </trkpt>
      <trkpt lat="49.63859" lon="5.5715">
        <ele>351.20001220703</ele>
        <time>2022-03-25T10:48:51.000Z</time>
      </trkpt>
      <trkpt lat="49.63862" lon="5.57177">
        <ele>351.20001220703</ele>
        <time>2022-03-25T10:48:57.000Z</time>
      </trkpt>
      <trkpt lat="49.63861" lon="5.57205">
        <ele>351.39999389648</ele>
        <time>2022-03-25T10:49:03.000Z</time>
      </trkpt>
      <trkpt lat="49.63862" lon="5.57231">
        <ele>352.20001220703</ele>
        <time>2022-03-25T10:49:08.000Z</time>
      </trkpt>
      <trkpt lat="49.63864" lon="5.57257">
        <ele>353</ele>
        <time>2022-03-25T10:49:13.000Z</time>
      </trkpt>
      <trkpt lat="49.63867" lon="5.57279">
        <ele>352.79998779297</ele>
        <time>2022-03-25T10:49:17.000Z</time>
      </trkpt>
      <trkpt lat="49.63869" lon="5.57284">
        <ele>352.20001220703</ele>
        <time>2022-03-25T10:49:18.000Z</time>
      </trkpt>
      <trkpt lat="49.63872" lon="5.57287">
        <ele>351.79998779297</ele>
        <time>2022-03-25T10:49:19.000Z</time>
      </trkpt>
      <trkpt lat="49.63882" lon="5.57295">
        <ele>350.20001220703</ele>
        <time>2022-03-25T10:49:22.000Z</time>
      </trkpt>
      <trkpt lat="49.63886" lon="5.57295">
        <ele>349.60000610352</ele>
        <time>2022-03-25T10:49:23.000Z</time>
      </trkpt>
      <trkpt lat="49.63897" lon="5.57293">
        <ele>348.20001220703</ele>
        <time>2022-03-25T10:49:25.000Z</time>
      </trkpt>
      <trkpt lat="49.63902" lon="5.5729">
        <ele>347.20001220703</ele>
        <time>2022-03-25T10:49:26.000Z</time>
      </trkpt>
      <trkpt lat="49.63907" lon="5.57288">
        <ele>346.39999389648</ele>
        <time>2022-03-25T10:49:27.000Z</time>
      </trkpt>
      <trkpt lat="49.63912" lon="5.57286">
        <ele>345.39999389648</ele>
        <time>2022-03-25T10:49:28.000Z</time>
      </trkpt>
      <trkpt lat="49.63917" lon="5.57282">
        <ele>344.60000610352</ele>
        <time>2022-03-25T10:49:29.000Z</time>
      </trkpt>
      <trkpt lat="49.63923" lon="5.57278">
        <ele>343.60000610352</ele>
        <time>2022-03-25T10:49:30.000Z</time>
      </trkpt>
      <trkpt lat="49.63928" lon="5.57275">
        <ele>342.60000610352</ele>
        <time>2022-03-25T10:49:31.000Z</time>
      </trkpt>
      <trkpt lat="49.63933" lon="5.57273">
        <ele>341.39999389648</ele>
        <time>2022-03-25T10:49:32.000Z</time>
      </trkpt>
      <trkpt lat="49.63938" lon="5.5727">
        <ele>340.60000610352</ele>
        <time>2022-03-25T10:49:33.000Z</time>
      </trkpt>
      <trkpt lat="49.63943" lon="5.57262">
        <ele>339.60000610352</ele>
        <time>2022-03-25T10:49:35.000Z</time>
      </trkpt>
      <trkpt lat="49.63949" lon="5.57246">
        <ele>339</ele>
        <time>2022-03-25T10:49:39.000Z</time>
      </trkpt>
      <trkpt lat="49.63961" lon="5.57221">
        <ele>338.20001220703</ele>
        <time>2022-03-25T10:49:44.000Z</time>
      </trkpt>
      <trkpt lat="49.63972" lon="5.57195">
        <ele>336.79998779297</ele>
        <time>2022-03-25T10:49:49.000Z</time>
      </trkpt>
      <trkpt lat="49.63972" lon="5.5719">
        <ele>336.60000610352</ele>
        <time>2022-03-25T10:49:50.000Z</time>
      </trkpt>
      <trkpt lat="49.63972" lon="5.57181">
        <ele>336.60000610352</ele>
        <time>2022-03-25T10:49:52.000Z</time>
      </trkpt>
      <trkpt lat="49.63972" lon="5.57175">
        <ele>336.60000610352</ele>
        <time>2022-03-25T10:49:53.000Z</time>
      </trkpt>
      <trkpt lat="49.63973" lon="5.57152">
        <ele>335.39999389648</ele>
        <time>2022-03-25T10:49:58.000Z</time>
      </trkpt>
      <trkpt lat="49.63972" lon="5.57148">
        <ele>335.20001220703</ele>
        <time>2022-03-25T10:49:59.000Z</time>
      </trkpt>
      <trkpt lat="49.63969" lon="5.57132">
        <ele>334.60000610352</ele>
        <time>2022-03-25T10:50:02.000Z</time>
      </trkpt>
      <trkpt lat="49.63956" lon="5.57106">
        <ele>334.60000610352</ele>
        <time>2022-03-25T10:50:08.000Z</time>
      </trkpt>
      <trkpt lat="49.63942" lon="5.57079">
        <ele>334.39999389648</ele>
        <time>2022-03-25T10:50:14.000Z</time>
      </trkpt>
      <trkpt lat="49.63925" lon="5.57059">
        <ele>335.20001220703</ele>
        <time>2022-03-25T10:50:19.000Z</time>
      </trkpt>
      <trkpt lat="49.63917" lon="5.57036">
        <ele>333.60000610352</ele>
        <time>2022-03-25T10:50:23.000Z</time>
      </trkpt>
      <trkpt lat="49.63915" lon="5.57023">
        <ele>332.20001220703</ele>
        <time>2022-03-25T10:50:25.000Z</time>
      </trkpt>
      <trkpt lat="49.63913" lon="5.57018">
        <ele>332</ele>
        <time>2022-03-25T10:50:26.000Z</time>
      </trkpt>
      <trkpt lat="49.63911" lon="5.57014">
        <ele>331.79998779297</ele>
        <time>2022-03-25T10:50:27.000Z</time>
      </trkpt>
      <trkpt lat="49.63906" lon="5.56995">
        <ele>330.20001220703</ele>
        <time>2022-03-25T10:50:30.000Z</time>
      </trkpt>
      <trkpt lat="49.63902" lon="5.56979">
        <ele>328.79998779297</ele>
        <time>2022-03-25T10:50:32.000Z</time>
      </trkpt>
      <trkpt lat="49.63893" lon="5.56957">
        <ele>328.20001220703</ele>
        <time>2022-03-25T10:50:35.000Z</time>
      </trkpt>
      <trkpt lat="49.63887" lon="5.56943">
        <ele>328.39999389648</ele>
        <time>2022-03-25T10:50:37.000Z</time>
      </trkpt>
      <trkpt lat="49.63884" lon="5.56938">
        <ele>328.79998779297</ele>
        <time>2022-03-25T10:50:38.000Z</time>
      </trkpt>
      <trkpt lat="49.63872" lon="5.56907">
        <ele>329.39999389648</ele>
        <time>2022-03-25T10:50:43.000Z</time>
      </trkpt>
      <trkpt lat="49.63872" lon="5.569">
        <ele>328.20001220703</ele>
        <time>2022-03-25T10:50:44.000Z</time>
      </trkpt>
      <trkpt lat="49.63871" lon="5.56881">
        <ele>326</ele>
        <time>2022-03-25T10:50:47.000Z</time>
      </trkpt>
      <trkpt lat="49.63862" lon="5.56859">
        <ele>325.39999389648</ele>
        <time>2022-03-25T10:50:51.000Z</time>
      </trkpt>
      <trkpt lat="49.63844" lon="5.56825">
        <ele>326.20001220703</ele>
        <time>2022-03-25T10:50:58.000Z</time>
      </trkpt>
      <trkpt lat="49.63833" lon="5.568">
        <ele>325.79998779297</ele>
        <time>2022-03-25T10:51:03.000Z</time>
      </trkpt>
      <trkpt lat="49.63823" lon="5.56781">
        <ele>325.60000610352</ele>
        <time>2022-03-25T10:51:07.000Z</time>
      </trkpt>
      <trkpt lat="49.63807" lon="5.56744">
        <ele>324.79998779297</ele>
        <time>2022-03-25T10:51:13.000Z</time>
      </trkpt>
      <trkpt lat="49.63804" lon="5.56738">
        <ele>324.79998779297</ele>
        <time>2022-03-25T10:51:14.000Z</time>
      </trkpt>
      <trkpt lat="49.63799" lon="5.56724">
        <ele>324.60000610352</ele>
        <time>2022-03-25T10:51:16.000Z</time>
      </trkpt>
      <trkpt lat="49.63793" lon="5.56712">
        <ele>325</ele>
        <time>2022-03-25T10:51:18.000Z</time>
      </trkpt>
      <trkpt lat="49.63781" lon="5.56682">
        <ele>324.60000610352</ele>
        <time>2022-03-25T10:51:23.000Z</time>
      </trkpt>
      <trkpt lat="49.63772" lon="5.56659">
        <ele>324.39999389648</ele>
        <time>2022-03-25T10:51:27.000Z</time>
      </trkpt>
      <trkpt lat="49.63771" lon="5.56628">
        <ele>321.39999389648</ele>
        <time>2022-03-25T10:51:32.000Z</time>
      </trkpt>
      <trkpt lat="49.63777" lon="5.56609">
        <ele>317.60000610352</ele>
        <time>2022-03-25T10:51:35.000Z</time>
      </trkpt>
      <trkpt lat="49.6378" lon="5.56602">
        <ele>315.39999389648</ele>
        <time>2022-03-25T10:51:36.000Z</time>
      </trkpt>
      <trkpt lat="49.63784" lon="5.56594">
        <ele>313.20001220703</ele>
        <time>2022-03-25T10:51:37.000Z</time>
      </trkpt>
      <trkpt lat="49.63787" lon="5.56587">
        <ele>311.39999389648</ele>
        <time>2022-03-25T10:51:38.000Z</time>
      </trkpt>
      <trkpt lat="49.6379" lon="5.56579">
        <ele>310.39999389648</ele>
        <time>2022-03-25T10:51:39.000Z</time>
      </trkpt>
      <trkpt lat="49.63792" lon="5.56572">
        <ele>309.60000610352</ele>
        <time>2022-03-25T10:51:40.000Z</time>
      </trkpt>
      <trkpt lat="49.63793" lon="5.56567">
        <ele>309</ele>
        <time>2022-03-25T10:51:41.000Z</time>
      </trkpt>
      <trkpt lat="49.63794" lon="5.56565">
        <ele>308.79998779297</ele>
        <time>2022-03-25T10:51:42.000Z</time>
      </trkpt>
      <trkpt lat="49.63796" lon="5.56566">
        <ele>308.60000610352</ele>
        <time>2022-03-25T10:51:43.000Z</time>
      </trkpt>
      <trkpt lat="49.63799" lon="5.56572">
        <ele>308.60000610352</ele>
        <time>2022-03-25T10:51:45.000Z</time>
      </trkpt>
      <trkpt lat="49.63801" lon="5.56575">
        <ele>308.60000610352</ele>
        <time>2022-03-25T10:51:46.000Z</time>
      </trkpt>
      <trkpt lat="49.63803" lon="5.56578">
        <ele>308.39999389648</ele>
        <time>2022-03-25T10:51:47.000Z</time>
      </trkpt>
      <trkpt lat="49.63818" lon="5.56601">
        <ele>308.79998779297</ele>
        <time>2022-03-25T10:51:54.000Z</time>
      </trkpt>
      <trkpt lat="49.63821" lon="5.56603">
        <ele>308.79998779297</ele>
        <time>2022-03-25T10:51:56.000Z</time>
      </trkpt>
      <trkpt lat="49.63823" lon="5.56605">
        <ele>309</ele>
        <time>2022-03-25T10:51:58.000Z</time>
      </trkpt>
      <trkpt lat="49.63828" lon="5.56596">
        <ele>309</ele>
        <time>2022-03-25T10:52:01.000Z</time>
      </trkpt>
      <trkpt lat="49.6383" lon="5.56586">
        <ele>309.39999389648</ele>
        <time>2022-03-25T10:52:03.000Z</time>
      </trkpt>
      <trkpt lat="49.63831" lon="5.56572">
        <ele>309.20001220703</ele>
        <time>2022-03-25T10:52:05.000Z</time>
      </trkpt>
      <trkpt lat="49.63832" lon="5.56563">
        <ele>309.20001220703</ele>
        <time>2022-03-25T10:52:06.000Z</time>
      </trkpt>
      <trkpt lat="49.63835" lon="5.56511">
        <ele>307.39999389648</ele>
        <time>2022-03-25T10:52:11.000Z</time>
      </trkpt>
      <trkpt lat="49.63838" lon="5.56502">
        <ele>307.20001220703</ele>
        <time>2022-03-25T10:52:12.000Z</time>
      </trkpt>
      <trkpt lat="49.63844" lon="5.56488">
        <ele>308</ele>
        <time>2022-03-25T10:52:14.000Z</time>
      </trkpt>
      <trkpt lat="49.63846" lon="5.56483">
        <ele>308.20001220703</ele>
        <time>2022-03-25T10:52:15.000Z</time>
      </trkpt>
      <trkpt lat="49.63848" lon="5.56479">
        <ele>308.60000610352</ele>
        <time>2022-03-25T10:52:16.000Z</time>
      </trkpt>
      <trkpt lat="49.63848" lon="5.56476">
        <ele>308.60000610352</ele>
        <time>2022-03-25T10:52:17.000Z</time>
      </trkpt>
      <trkpt lat="49.63857" lon="5.56462">
        <ele>310.79998779297</ele>
        <time>2022-03-25T10:52:22.000Z</time>
      </trkpt>
      <trkpt lat="49.63873" lon="5.56447">
        <ele>313.39999389648</ele>
        <time>2022-03-25T10:52:28.000Z</time>
      </trkpt>
      <trkpt lat="49.6389" lon="5.5643">
        <ele>315.60000610352</ele>
        <time>2022-03-25T10:52:34.000Z</time>
      </trkpt>
      <trkpt lat="49.63904" lon="5.56418">
        <ele>314.60000610352</ele>
        <time>2022-03-25T10:52:39.000Z</time>
      </trkpt>
      <trkpt lat="49.63921" lon="5.56405">
        <ele>313.20001220703</ele>
        <time>2022-03-25T10:52:45.000Z</time>
      </trkpt>
      <trkpt lat="49.63936" lon="5.56393">
        <ele>313</ele>
        <time>2022-03-25T10:52:50.000Z</time>
      </trkpt>
      <trkpt lat="49.63944" lon="5.56384">
        <ele>312.60000610352</ele>
        <time>2022-03-25T10:52:53.000Z</time>
      </trkpt>
      <trkpt lat="49.63945" lon="5.56374">
        <ele>311.79998779297</ele>
        <time>2022-03-25T10:52:55.000Z</time>
      </trkpt>
      <trkpt lat="49.63946" lon="5.56364">
        <ele>310.79998779297</ele>
        <time>2022-03-25T10:52:57.000Z</time>
      </trkpt>
      <trkpt lat="49.63946" lon="5.56352">
        <ele>310.60000610352</ele>
        <time>2022-03-25T10:53:00.000Z</time>
      </trkpt>
      <trkpt lat="49.63946" lon="5.5634">
        <ele>310.60000610352</ele>
        <time>2022-03-25T10:53:03.000Z</time>
      </trkpt>
      <trkpt lat="49.63947" lon="5.56337">
        <ele>310.79998779297</ele>
        <time>2022-03-25T10:53:04.000Z</time>
      </trkpt>
      <trkpt lat="49.63951" lon="5.56321">
        <ele>311.60000610352</ele>
        <time>2022-03-25T10:53:08.000Z</time>
      </trkpt>
      <trkpt lat="49.63952" lon="5.56317">
        <ele>311.79998779297</ele>
        <time>2022-03-25T10:53:09.000Z</time>
      </trkpt>
      <trkpt lat="49.63953" lon="5.56315">
        <ele>312</ele>
        <time>2022-03-25T10:53:10.000Z</time>
      </trkpt>
      <trkpt lat="49.63955" lon="5.56313">
        <ele>312.39999389648</ele>
        <time>2022-03-25T10:53:11.000Z</time>
      </trkpt>
      <trkpt lat="49.63959" lon="5.56309">
        <ele>313.20001220703</ele>
        <time>2022-03-25T10:53:13.000Z</time>
      </trkpt>
      <trkpt lat="49.63963" lon="5.56308">
        <ele>314.20001220703</ele>
        <time>2022-03-25T10:53:15.000Z</time>
      </trkpt>
      <trkpt lat="49.63965" lon="5.56305">
        <ele>314.60000610352</ele>
        <time>2022-03-25T10:53:16.000Z</time>
      </trkpt>
      <trkpt lat="49.63967" lon="5.56303">
        <ele>315</ele>
        <time>2022-03-25T10:53:17.000Z</time>
      </trkpt>
      <trkpt lat="49.63972" lon="5.56298">
        <ele>315.79998779297</ele>
        <time>2022-03-25T10:53:20.000Z</time>
      </trkpt>
      <trkpt lat="49.63975" lon="5.56296">
        <ele>316.39999389648</ele>
        <time>2022-03-25T10:53:22.000Z</time>
      </trkpt>
      <trkpt lat="49.63977" lon="5.56296">
        <ele>316.79998779297</ele>
        <time>2022-03-25T10:53:23.000Z</time>
      </trkpt>
      <trkpt lat="49.63981" lon="5.56298">
        <ele>318</ele>
        <time>2022-03-25T10:53:25.000Z</time>
      </trkpt>
      <trkpt lat="49.63983" lon="5.563">
        <ele>318.60000610352</ele>
        <time>2022-03-25T10:53:26.000Z</time>
      </trkpt>
      <trkpt lat="49.63986" lon="5.56303">
        <ele>319.79998779297</ele>
        <time>2022-03-25T10:53:28.000Z</time>
      </trkpt>
      <trkpt lat="49.63994" lon="5.56307">
        <ele>322.20001220703</ele>
        <time>2022-03-25T10:53:32.000Z</time>
      </trkpt>
      <trkpt lat="49.64" lon="5.56308">
        <ele>323.79998779297</ele>
        <time>2022-03-25T10:53:36.000Z</time>
      </trkpt>
      <trkpt lat="49.64005" lon="5.5631">
        <ele>325.20001220703</ele>
        <time>2022-03-25T10:53:39.000Z</time>
      </trkpt>
      <trkpt lat="49.64006" lon="5.56309">
        <ele>325.60000610352</ele>
        <time>2022-03-25T10:53:40.000Z</time>
      </trkpt>
      <trkpt lat="49.64011" lon="5.56302">
        <ele>326.60000610352</ele>
        <time>2022-03-25T10:53:43.000Z</time>
      </trkpt>
      <trkpt lat="49.64013" lon="5.56299">
        <ele>327</ele>
        <time>2022-03-25T10:53:44.000Z</time>
      </trkpt>
      <trkpt lat="49.64015" lon="5.56297">
        <ele>327.39999389648</ele>
        <time>2022-03-25T10:53:45.000Z</time>
      </trkpt>
      <trkpt lat="49.64018" lon="5.56291">
        <ele>328</ele>
        <time>2022-03-25T10:53:48.000Z</time>
      </trkpt>
      <trkpt lat="49.64023" lon="5.5628">
        <ele>328.79998779297</ele>
        <time>2022-03-25T10:53:52.000Z</time>
      </trkpt>
      <trkpt lat="49.64036" lon="5.56268">
        <ele>331.60000610352</ele>
        <time>2022-03-25T10:53:56.000Z</time>
      </trkpt>
      <trkpt lat="49.64047" lon="5.56261">
        <ele>333.39999389648</ele>
        <time>2022-03-25T10:53:59.000Z</time>
      </trkpt>
      <trkpt lat="49.64052" lon="5.56257">
        <ele>334.20001220703</ele>
        <time>2022-03-25T10:54:01.000Z</time>
      </trkpt>
      <trkpt lat="49.6407" lon="5.56242">
        <ele>335.39999389648</ele>
        <time>2022-03-25T10:54:06.000Z</time>
      </trkpt>
      <trkpt lat="49.64085" lon="5.56229">
        <ele>336.20001220703</ele>
        <time>2022-03-25T10:54:12.000Z</time>
      </trkpt>
      <trkpt lat="49.64088" lon="5.56226">
        <ele>336.39999389648</ele>
        <time>2022-03-25T10:54:13.000Z</time>
      </trkpt>
      <trkpt lat="49.64095" lon="5.56216">
        <ele>335.60000610352</ele>
        <time>2022-03-25T10:54:17.000Z</time>
      </trkpt>
      <trkpt lat="49.64103" lon="5.56207">
        <ele>335.39999389648</ele>
        <time>2022-03-25T10:54:20.000Z</time>
      </trkpt>
      <trkpt lat="49.64106" lon="5.56205">
        <ele>335.60000610352</ele>
        <time>2022-03-25T10:54:21.000Z</time>
      </trkpt>
      <trkpt lat="49.6412" lon="5.5619">
        <ele>335.60000610352</ele>
        <time>2022-03-25T10:54:26.000Z</time>
      </trkpt>
      <trkpt lat="49.64135" lon="5.56182">
        <ele>335.79998779297</ele>
        <time>2022-03-25T10:54:32.000Z</time>
      </trkpt>
      <trkpt lat="49.64151" lon="5.56179">
        <ele>337.39999389648</ele>
        <time>2022-03-25T10:54:37.000Z</time>
      </trkpt>
      <trkpt lat="49.64157" lon="5.56179">
        <ele>338.20001220703</ele>
        <time>2022-03-25T10:54:39.000Z</time>
      </trkpt>
      <trkpt lat="49.6416" lon="5.5618">
        <ele>338.79998779297</ele>
        <time>2022-03-25T10:54:40.000Z</time>
      </trkpt>
      <trkpt lat="49.64176" lon="5.56193">
        <ele>342</ele>
        <time>2022-03-25T10:54:44.000Z</time>
      </trkpt>
      <trkpt lat="49.64188" lon="5.56208">
        <ele>343.60000610352</ele>
        <time>2022-03-25T10:54:48.000Z</time>
      </trkpt>
      <trkpt lat="49.64194" lon="5.56216">
        <ele>344.39999389648</ele>
        <time>2022-03-25T10:54:50.000Z</time>
      </trkpt>
      <trkpt lat="49.64199" lon="5.56222">
        <ele>345</ele>
        <time>2022-03-25T10:54:52.000Z</time>
      </trkpt>
      <trkpt lat="49.64209" lon="5.56239">
        <ele>345.20001220703</ele>
        <time>2022-03-25T10:54:56.000Z</time>
      </trkpt>
      <trkpt lat="49.64229" lon="5.56272">
        <ele>344.79998779297</ele>
        <time>2022-03-25T10:55:03.000Z</time>
      </trkpt>
      <trkpt lat="49.64232" lon="5.56277">
        <ele>344.60000610352</ele>
        <time>2022-03-25T10:55:04.000Z</time>
      </trkpt>
      <trkpt lat="49.64243" lon="5.56298">
        <ele>343.20001220703</ele>
        <time>2022-03-25T10:55:08.000Z</time>
      </trkpt>
      <trkpt lat="49.64251" lon="5.56303">
        <ele>342.39999389648</ele>
        <time>2022-03-25T10:55:10.000Z</time>
      </trkpt>
      <trkpt lat="49.64262" lon="5.56298">
        <ele>341.79998779297</ele>
        <time>2022-03-25T10:55:13.000Z</time>
      </trkpt>
      <trkpt lat="49.64271" lon="5.56293">
        <ele>341.20001220703</ele>
        <time>2022-03-25T10:55:15.000Z</time>
      </trkpt>
      <trkpt lat="49.64288" lon="5.56284">
        <ele>340.60000610352</ele>
        <time>2022-03-25T10:55:19.000Z</time>
      </trkpt>
      <trkpt lat="49.6431" lon="5.56273">
        <ele>341.39999389648</ele>
        <time>2022-03-25T10:55:24.000Z</time>
      </trkpt>
      <trkpt lat="49.64319" lon="5.56268">
        <ele>341.79998779297</ele>
        <time>2022-03-25T10:55:26.000Z</time>
      </trkpt>
      <trkpt lat="49.64348" lon="5.5625">
        <ele>343.39999389648</ele>
        <time>2022-03-25T10:55:33.000Z</time>
      </trkpt>
      <trkpt lat="49.64364" lon="5.56239">
        <ele>344.39999389648</ele>
        <time>2022-03-25T10:55:37.000Z</time>
      </trkpt>
      <trkpt lat="49.6438" lon="5.56228">
        <ele>344.79998779297</ele>
        <time>2022-03-25T10:55:41.000Z</time>
      </trkpt>
      <trkpt lat="49.64408" lon="5.56212">
        <ele>344.39999389648</ele>
        <time>2022-03-25T10:55:48.000Z</time>
      </trkpt>
      <trkpt lat="49.64445" lon="5.56189">
        <ele>343.79998779297</ele>
        <time>2022-03-25T10:55:57.000Z</time>
      </trkpt>
      <trkpt lat="49.64476" lon="5.56168">
        <ele>343</ele>
        <time>2022-03-25T10:56:05.000Z</time>
      </trkpt>
      <trkpt lat="49.64505" lon="5.5615">
        <ele>343.39999389648</ele>
        <time>2022-03-25T10:56:12.000Z</time>
      </trkpt>
      <trkpt lat="49.64545" lon="5.56126">
        <ele>343.60000610352</ele>
        <time>2022-03-25T10:56:21.000Z</time>
      </trkpt>
      <trkpt lat="49.64549" lon="5.56124">
        <ele>343.39999389648</ele>
        <time>2022-03-25T10:56:22.000Z</time>
      </trkpt>
      <trkpt lat="49.6456" lon="5.56128">
        <ele>343</ele>
        <time>2022-03-25T10:56:25.000Z</time>
      </trkpt>
      <trkpt lat="49.64566" lon="5.56136">
        <ele>342.79998779297</ele>
        <time>2022-03-25T10:56:27.000Z</time>
      </trkpt>
      <trkpt lat="49.64575" lon="5.5615">
        <ele>342.20001220703</ele>
        <time>2022-03-25T10:56:30.000Z</time>
      </trkpt>
      <trkpt lat="49.64581" lon="5.56159">
        <ele>341.60000610352</ele>
        <time>2022-03-25T10:56:32.000Z</time>
      </trkpt>
      <trkpt lat="49.64599" lon="5.56181">
        <ele>340.60000610352</ele>
        <time>2022-03-25T10:56:37.000Z</time>
      </trkpt>
      <trkpt lat="49.64629" lon="5.56222">
        <ele>341.39999389648</ele>
        <time>2022-03-25T10:56:46.000Z</time>
      </trkpt>
      <trkpt lat="49.6465" lon="5.56247">
        <ele>343</ele>
        <time>2022-03-25T10:56:52.000Z</time>
      </trkpt>
      <trkpt lat="49.64673" lon="5.56275">
        <ele>343.39999389648</ele>
        <time>2022-03-25T10:56:59.000Z</time>
      </trkpt>
      <trkpt lat="49.6469" lon="5.56297">
        <ele>345</ele>
        <time>2022-03-25T10:57:04.000Z</time>
      </trkpt>
      <trkpt lat="49.64697" lon="5.56305">
        <ele>345.79998779297</ele>
        <time>2022-03-25T10:57:06.000Z</time>
      </trkpt>
      <trkpt lat="49.64717" lon="5.56332">
        <ele>348.60000610352</ele>
        <time>2022-03-25T10:57:12.000Z</time>
      </trkpt>
      <trkpt lat="49.64723" lon="5.56341">
        <ele>349.39999389648</ele>
        <time>2022-03-25T10:57:14.000Z</time>
      </trkpt>
      <trkpt lat="49.64753" lon="5.56379">
        <ele>350.79998779297</ele>
        <time>2022-03-25T10:57:23.000Z</time>
      </trkpt>
      <trkpt lat="49.64772" lon="5.56404">
        <ele>351.39999389648</ele>
        <time>2022-03-25T10:57:29.000Z</time>
      </trkpt>
      <trkpt lat="49.64775" lon="5.56408">
        <ele>351.60000610352</ele>
        <time>2022-03-25T10:57:30.000Z</time>
      </trkpt>
      <trkpt lat="49.64797" lon="5.5643">
        <ele>352.60000610352</ele>
        <time>2022-03-25T10:57:36.000Z</time>
      </trkpt>
      <trkpt lat="49.64827" lon="5.56468">
        <ele>352.39999389648</ele>
        <time>2022-03-25T10:57:44.000Z</time>
      </trkpt>
      <trkpt lat="49.64831" lon="5.56474">
        <ele>352</ele>
        <time>2022-03-25T10:57:45.000Z</time>
      </trkpt>
      <trkpt lat="49.64847" lon="5.56499">
        <ele>350.79998779297</ele>
        <time>2022-03-25T10:57:49.000Z</time>
      </trkpt>
      <trkpt lat="49.64886" lon="5.56551">
        <ele>349</ele>
        <time>2022-03-25T10:57:58.000Z</time>
      </trkpt>
      <trkpt lat="49.64894" lon="5.56562">
        <ele>348.60000610352</ele>
        <time>2022-03-25T10:58:00.000Z</time>
      </trkpt>
      <trkpt lat="49.64916" lon="5.5659">
        <ele>348.39999389648</ele>
        <time>2022-03-25T10:58:05.000Z</time>
      </trkpt>
      <trkpt lat="49.6495" lon="5.56631">
        <ele>347.60000610352</ele>
        <time>2022-03-25T10:58:13.000Z</time>
      </trkpt>
      <trkpt lat="49.64965" lon="5.56647">
        <ele>347.79998779297</ele>
        <time>2022-03-25T10:58:17.000Z</time>
      </trkpt>
      <trkpt lat="49.64968" lon="5.5665">
        <ele>348</ele>
        <time>2022-03-25T10:58:18.000Z</time>
      </trkpt>
      <trkpt lat="49.64986" lon="5.56656">
        <ele>347.79998779297</ele>
        <time>2022-03-25T10:58:23.000Z</time>
      </trkpt>
      <trkpt lat="49.65011" lon="5.56647">
        <ele>346.20001220703</ele>
        <time>2022-03-25T10:58:30.000Z</time>
      </trkpt>
      <trkpt lat="49.65013" lon="5.56647">
        <ele>346.39999389648</ele>
        <time>2022-03-25T10:58:31.000Z</time>
      </trkpt>
      <trkpt lat="49.65017" lon="5.56651">
        <ele>346.39999389648</ele>
        <time>2022-03-25T10:58:33.000Z</time>
      </trkpt>
      <trkpt lat="49.65017" lon="5.56653">
        <ele>346.39999389648</ele>
        <time>2022-03-25T10:58:34.000Z</time>
      </trkpt>
      <trkpt lat="49.65016" lon="5.56654">
        <ele>346.60000610352</ele>
        <time>2022-03-25T10:58:35.000Z</time>
      </trkpt>
      <trkpt lat="49.65014" lon="5.56657">
        <ele>346.79998779297</ele>
        <time>2022-03-25T10:58:36.000Z</time>
      </trkpt>
      <trkpt lat="49.65009" lon="5.56663">
        <ele>347.39999389648</ele>
        <time>2022-03-25T10:58:38.000Z</time>
      </trkpt>
      <trkpt lat="49.64998" lon="5.56674">
        <ele>348.20001220703</ele>
        <time>2022-03-25T10:58:41.000Z</time>
      </trkpt>
      <trkpt lat="49.64989" lon="5.56682">
        <ele>348.60000610352</ele>
        <time>2022-03-25T10:58:43.000Z</time>
      </trkpt>
      <trkpt lat="49.64975" lon="5.56699">
        <ele>349</ele>
        <time>2022-03-25T10:58:46.000Z</time>
      </trkpt>
      <trkpt lat="49.6497" lon="5.56704">
        <ele>349.20001220703</ele>
        <time>2022-03-25T10:58:47.000Z</time>
      </trkpt>
      <trkpt lat="49.64942" lon="5.56738">
        <ele>348.20001220703</ele>
        <time>2022-03-25T10:58:53.000Z</time>
      </trkpt>
      <trkpt lat="49.64923" lon="5.56757">
        <ele>347</ele>
        <time>2022-03-25T10:58:56.000Z</time>
      </trkpt>
      <trkpt lat="49.6491" lon="5.56769">
        <ele>345.60000610352</ele>
        <time>2022-03-25T10:58:58.000Z</time>
      </trkpt>
      <trkpt lat="49.64904" lon="5.56774">
        <ele>345.39999389648</ele>
        <time>2022-03-25T10:58:59.000Z</time>
      </trkpt>
      <trkpt lat="49.64889" lon="5.56783">
        <ele>344.79998779297</ele>
        <time>2022-03-25T10:59:01.000Z</time>
      </trkpt>
      <trkpt lat="49.64873" lon="5.56789">
        <ele>343.60000610352</ele>
        <time>2022-03-25T10:59:03.000Z</time>
      </trkpt>
      <trkpt lat="49.64858" lon="5.56795">
        <ele>343</ele>
        <time>2022-03-25T10:59:05.000Z</time>
      </trkpt>
      <trkpt lat="49.64828" lon="5.56808">
        <ele>343</ele>
        <time>2022-03-25T10:59:09.000Z</time>
      </trkpt>
      <trkpt lat="49.64812" lon="5.56816">
        <ele>342.79998779297</ele>
        <time>2022-03-25T10:59:11.000Z</time>
      </trkpt>
      <trkpt lat="49.64788" lon="5.56829">
        <ele>342.20001220703</ele>
        <time>2022-03-25T10:59:14.000Z</time>
      </trkpt>
      <trkpt lat="49.64772" lon="5.56837">
        <ele>340.20001220703</ele>
        <time>2022-03-25T10:59:16.000Z</time>
      </trkpt>
      <trkpt lat="49.64758" lon="5.56846">
        <ele>337.79998779297</ele>
        <time>2022-03-25T10:59:18.000Z</time>
      </trkpt>
      <trkpt lat="49.64751" lon="5.56854">
        <ele>337.39999389648</ele>
        <time>2022-03-25T10:59:19.000Z</time>
      </trkpt>
      <trkpt lat="49.64747" lon="5.56863">
        <ele>337</ele>
        <time>2022-03-25T10:59:20.000Z</time>
      </trkpt>
      <trkpt lat="49.6474" lon="5.56891">
        <ele>338.39999389648</ele>
        <time>2022-03-25T10:59:23.000Z</time>
      </trkpt>
      <trkpt lat="49.64739" lon="5.56899">
        <ele>339.39999389648</ele>
        <time>2022-03-25T10:59:24.000Z</time>
      </trkpt>
      <trkpt lat="49.64738" lon="5.56923">
        <ele>341.60000610352</ele>
        <time>2022-03-25T10:59:27.000Z</time>
      </trkpt>
      <trkpt lat="49.64737" lon="5.56931">
        <ele>342.20001220703</ele>
        <time>2022-03-25T10:59:28.000Z</time>
      </trkpt>
      <trkpt lat="49.64738" lon="5.56946">
        <ele>345</ele>
        <time>2022-03-25T10:59:30.000Z</time>
      </trkpt>
      <trkpt lat="49.64743" lon="5.56967">
        <ele>346.79998779297</ele>
        <time>2022-03-25T10:59:33.000Z</time>
      </trkpt>
      <trkpt lat="49.64748" lon="5.56981">
        <ele>347.39999389648</ele>
        <time>2022-03-25T10:59:35.000Z</time>
      </trkpt>
      <trkpt lat="49.64751" lon="5.56987">
        <ele>347.20001220703</ele>
        <time>2022-03-25T10:59:36.000Z</time>
      </trkpt>
      <trkpt lat="49.64757" lon="5.56999">
        <ele>347</ele>
        <time>2022-03-25T10:59:38.000Z</time>
      </trkpt>
      <trkpt lat="49.64761" lon="5.57011">
        <ele>347</ele>
        <time>2022-03-25T10:59:40.000Z</time>
      </trkpt>
      <trkpt lat="49.64768" lon="5.57034">
        <ele>347.60000610352</ele>
        <time>2022-03-25T10:59:44.000Z</time>
      </trkpt>
      <trkpt lat="49.64771" lon="5.57046">
        <ele>347.39999389648</ele>
        <time>2022-03-25T10:59:46.000Z</time>
      </trkpt>
      <trkpt lat="49.64781" lon="5.57077">
        <ele>347</ele>
        <time>2022-03-25T10:59:51.000Z</time>
      </trkpt>
      <trkpt lat="49.64788" lon="5.57101">
        <ele>347</ele>
        <time>2022-03-25T10:59:55.000Z</time>
      </trkpt>
      <trkpt lat="49.64791" lon="5.57107">
        <ele>347</ele>
        <time>2022-03-25T10:59:56.000Z</time>
      </trkpt>
      <trkpt lat="49.64801" lon="5.57144">
        <ele>346.79998779297</ele>
        <time>2022-03-25T11:00:02.000Z</time>
      </trkpt>
      <trkpt lat="49.6481" lon="5.57184">
        <ele>346</ele>
        <time>2022-03-25T11:00:08.000Z</time>
      </trkpt>
      <trkpt lat="49.64812" lon="5.57189">
        <ele>346</ele>
        <time>2022-03-25T11:00:09.000Z</time>
      </trkpt>
      <trkpt lat="49.64821" lon="5.57224">
        <ele>346.39999389648</ele>
        <time>2022-03-25T11:00:15.000Z</time>
      </trkpt>
      <trkpt lat="49.64826" lon="5.57235">
        <ele>346.60000610352</ele>
        <time>2022-03-25T11:00:17.000Z</time>
      </trkpt>
      <trkpt lat="49.64835" lon="5.57246">
        <ele>347</ele>
        <time>2022-03-25T11:00:20.000Z</time>
      </trkpt>
      <trkpt lat="49.64854" lon="5.57264">
        <ele>346.60000610352</ele>
        <time>2022-03-25T11:00:25.000Z</time>
      </trkpt>
      <trkpt lat="49.64882" lon="5.57291">
        <ele>345</ele>
        <time>2022-03-25T11:00:32.000Z</time>
      </trkpt>
      <trkpt lat="49.64886" lon="5.57305">
        <ele>344.39999389648</ele>
        <time>2022-03-25T11:00:34.000Z</time>
      </trkpt>
      <trkpt lat="49.64887" lon="5.57312">
        <ele>344.20001220703</ele>
        <time>2022-03-25T11:00:35.000Z</time>
      </trkpt>
      <trkpt lat="49.64888" lon="5.57318">
        <ele>344.20001220703</ele>
        <time>2022-03-25T11:00:36.000Z</time>
      </trkpt>
      <trkpt lat="49.64888" lon="5.57325">
        <ele>344.20001220703</ele>
        <time>2022-03-25T11:00:37.000Z</time>
      </trkpt>
      <trkpt lat="49.64888" lon="5.57344">
        <ele>343.39999389648</ele>
        <time>2022-03-25T11:00:40.000Z</time>
      </trkpt>
      <trkpt lat="49.64888" lon="5.57351">
        <ele>343.20001220703</ele>
        <time>2022-03-25T11:00:41.000Z</time>
      </trkpt>
      <trkpt lat="49.64887" lon="5.57371">
        <ele>342.79998779297</ele>
        <time>2022-03-25T11:00:44.000Z</time>
      </trkpt>
      <trkpt lat="49.64885" lon="5.57391">
        <ele>342.79998779297</ele>
        <time>2022-03-25T11:00:47.000Z</time>
      </trkpt>
      <trkpt lat="49.64883" lon="5.57406">
        <ele>342.60000610352</ele>
        <time>2022-03-25T11:00:49.000Z</time>
      </trkpt>
      <trkpt lat="49.64882" lon="5.57414">
        <ele>342.39999389648</ele>
        <time>2022-03-25T11:00:50.000Z</time>
      </trkpt>
      <trkpt lat="49.64881" lon="5.57422">
        <ele>342.20001220703</ele>
        <time>2022-03-25T11:00:51.000Z</time>
      </trkpt>
      <trkpt lat="49.64877" lon="5.57444">
        <ele>341.79998779297</ele>
        <time>2022-03-25T11:00:54.000Z</time>
      </trkpt>
      <trkpt lat="49.64876" lon="5.57451">
        <ele>342</ele>
        <time>2022-03-25T11:00:55.000Z</time>
      </trkpt>
      <trkpt lat="49.64875" lon="5.57458">
        <ele>342</ele>
        <time>2022-03-25T11:00:56.000Z</time>
      </trkpt>
      <trkpt lat="49.64872" lon="5.57491">
        <ele>341.79998779297</ele>
        <time>2022-03-25T11:01:01.000Z</time>
      </trkpt>
      <trkpt lat="49.6487" lon="5.57553">
        <ele>344.20001220703</ele>
        <time>2022-03-25T11:01:10.000Z</time>
      </trkpt>
      <trkpt lat="49.64866" lon="5.57616">
        <ele>350.20001220703</ele>
        <time>2022-03-25T11:01:19.000Z</time>
      </trkpt>
      <trkpt lat="49.64864" lon="5.57622">
        <ele>350.60000610352</ele>
        <time>2022-03-25T11:01:20.000Z</time>
      </trkpt>
      <trkpt lat="49.64856" lon="5.57636">
        <ele>350.79998779297</ele>
        <time>2022-03-25T11:01:23.000Z</time>
      </trkpt>
      <trkpt lat="49.64849" lon="5.57642">
        <ele>351</ele>
        <time>2022-03-25T11:01:25.000Z</time>
      </trkpt>
      <trkpt lat="49.64839" lon="5.57652">
        <ele>351</ele>
        <time>2022-03-25T11:01:28.000Z</time>
      </trkpt>
      <trkpt lat="49.64835" lon="5.57657">
        <ele>350.79998779297</ele>
        <time>2022-03-25T11:01:29.000Z</time>
      </trkpt>
      <trkpt lat="49.64804" lon="5.57682">
        <ele>350.39999389648</ele>
        <time>2022-03-25T11:01:36.000Z</time>
      </trkpt>
      <trkpt lat="49.64775" lon="5.57702">
        <ele>349.79998779297</ele>
        <time>2022-03-25T11:01:42.000Z</time>
      </trkpt>
      <trkpt lat="49.64755" lon="5.5772">
        <ele>349.79998779297</ele>
        <time>2022-03-25T11:01:47.000Z</time>
      </trkpt>
      <trkpt lat="49.64754" lon="5.57723">
        <ele>349.79998779297</ele>
        <time>2022-03-25T11:01:48.000Z</time>
      </trkpt>
      <trkpt lat="49.64748" lon="5.57734">
        <ele>350.79998779297</ele>
        <time>2022-03-25T11:01:51.000Z</time>
      </trkpt>
      <trkpt lat="49.64747" lon="5.57739">
        <ele>351.20001220703</ele>
        <time>2022-03-25T11:01:52.000Z</time>
      </trkpt>
      <trkpt lat="49.6474" lon="5.57749">
        <ele>352.20001220703</ele>
        <time>2022-03-25T11:01:54.000Z</time>
      </trkpt>
      <trkpt lat="49.64731" lon="5.5776">
        <ele>353.20001220703</ele>
        <time>2022-03-25T11:01:56.000Z</time>
      </trkpt>
      <trkpt lat="49.64718" lon="5.57773">
        <ele>355.79998779297</ele>
        <time>2022-03-25T11:01:59.000Z</time>
      </trkpt>
      <trkpt lat="49.64704" lon="5.57783">
        <ele>358.39999389648</ele>
        <time>2022-03-25T11:02:02.000Z</time>
      </trkpt>
      <trkpt lat="49.64694" lon="5.57791">
        <ele>359.79998779297</ele>
        <time>2022-03-25T11:02:04.000Z</time>
      </trkpt>
      <trkpt lat="49.64678" lon="5.57812">
        <ele>360.60000610352</ele>
        <time>2022-03-25T11:02:08.000Z</time>
      </trkpt>
      <trkpt lat="49.6465" lon="5.57837">
        <ele>358.20001220703</ele>
        <time>2022-03-25T11:02:14.000Z</time>
      </trkpt>
      <trkpt lat="49.64645" lon="5.57839">
        <ele>357.79998779297</ele>
        <time>2022-03-25T11:02:15.000Z</time>
      </trkpt>
      <trkpt lat="49.64623" lon="5.57837">
        <ele>357.79998779297</ele>
        <time>2022-03-25T11:02:19.000Z</time>
      </trkpt>
      <trkpt lat="49.64612" lon="5.57836">
        <ele>358</ele>
        <time>2022-03-25T11:02:21.000Z</time>
      </trkpt>
      <trkpt lat="49.64606" lon="5.57837">
        <ele>358</ele>
        <time>2022-03-25T11:02:22.000Z</time>
      </trkpt>
      <trkpt lat="49.64584" lon="5.57843">
        <ele>357.39999389648</ele>
        <time>2022-03-25T11:02:26.000Z</time>
      </trkpt>
      <trkpt lat="49.64558" lon="5.57855">
        <ele>356.60000610352</ele>
        <time>2022-03-25T11:02:31.000Z</time>
      </trkpt>
      <trkpt lat="49.64553" lon="5.57859">
        <ele>356.20001220703</ele>
        <time>2022-03-25T11:02:32.000Z</time>
      </trkpt>
      <trkpt lat="49.64549" lon="5.57864">
        <ele>355.60000610352</ele>
        <time>2022-03-25T11:02:33.000Z</time>
      </trkpt>
      <trkpt lat="49.64522" lon="5.57895">
        <ele>351.60000610352</ele>
        <time>2022-03-25T11:02:38.000Z</time>
      </trkpt>
      <trkpt lat="49.64501" lon="5.57911">
        <ele>347.60000610352</ele>
        <time>2022-03-25T11:02:41.000Z</time>
      </trkpt>
      <trkpt lat="49.64487" lon="5.5792">
        <ele>345</ele>
        <time>2022-03-25T11:02:43.000Z</time>
      </trkpt>
      <trkpt lat="49.64473" lon="5.57931">
        <ele>343.39999389648</ele>
        <time>2022-03-25T11:02:45.000Z</time>
      </trkpt>
      <trkpt lat="49.64461" lon="5.57944">
        <ele>342.20001220703</ele>
        <time>2022-03-25T11:02:47.000Z</time>
      </trkpt>
      <trkpt lat="49.64457" lon="5.57955">
        <ele>341</ele>
        <time>2022-03-25T11:02:48.000Z</time>
      </trkpt>
      <trkpt lat="49.64453" lon="5.57966">
        <ele>340</ele>
        <time>2022-03-25T11:02:49.000Z</time>
      </trkpt>
      <trkpt lat="49.64446" lon="5.5799">
        <ele>337.20001220703</ele>
        <time>2022-03-25T11:02:51.000Z</time>
      </trkpt>
      <trkpt lat="49.64442" lon="5.58003">
        <ele>335.79998779297</ele>
        <time>2022-03-25T11:02:52.000Z</time>
      </trkpt>
      <trkpt lat="49.64436" lon="5.58014">
        <ele>334.60000610352</ele>
        <time>2022-03-25T11:02:53.000Z</time>
      </trkpt>
      <trkpt lat="49.64429" lon="5.58025">
        <ele>333.20001220703</ele>
        <time>2022-03-25T11:02:54.000Z</time>
      </trkpt>
      <trkpt lat="49.64421" lon="5.58035">
        <ele>331.79998779297</ele>
        <time>2022-03-25T11:02:55.000Z</time>
      </trkpt>
      <trkpt lat="49.64412" lon="5.58043">
        <ele>331.60000610352</ele>
        <time>2022-03-25T11:02:56.000Z</time>
      </trkpt>
      <trkpt lat="49.64403" lon="5.58053">
        <ele>330.79998779297</ele>
        <time>2022-03-25T11:02:57.000Z</time>
      </trkpt>
      <trkpt lat="49.64394" lon="5.58064">
        <ele>330.39999389648</ele>
        <time>2022-03-25T11:02:58.000Z</time>
      </trkpt>
      <trkpt lat="49.64386" lon="5.58077">
        <ele>331</ele>
        <time>2022-03-25T11:02:59.000Z</time>
      </trkpt>
      <trkpt lat="49.6438" lon="5.58092">
        <ele>331.79998779297</ele>
        <time>2022-03-25T11:03:00.000Z</time>
      </trkpt>
      <trkpt lat="49.64376" lon="5.58107">
        <ele>333.20001220703</ele>
        <time>2022-03-25T11:03:01.000Z</time>
      </trkpt>
      <trkpt lat="49.64373" lon="5.5812">
        <ele>334.20001220703</ele>
        <time>2022-03-25T11:03:02.000Z</time>
      </trkpt>
      <trkpt lat="49.6437" lon="5.58134">
        <ele>335.20001220703</ele>
        <time>2022-03-25T11:03:03.000Z</time>
      </trkpt>
      <trkpt lat="49.64367" lon="5.58159">
        <ele>337.20001220703</ele>
        <time>2022-03-25T11:03:05.000Z</time>
      </trkpt>
      <trkpt lat="49.64367" lon="5.58165">
        <ele>337.60000610352</ele>
        <time>2022-03-25T11:03:06.000Z</time>
      </trkpt>
      <trkpt lat="49.64368" lon="5.58171">
        <ele>338</ele>
        <time>2022-03-25T11:03:08.000Z</time>
      </trkpt>
      <trkpt lat="49.64368" lon="5.58173">
        <ele>338.20001220703</ele>
        <time>2022-03-25T11:03:09.000Z</time>
      </trkpt>
      <trkpt lat="49.64368" lon="5.58174">
        <ele>338.20001220703</ele>
        <time>2022-03-25T11:03:10.000Z</time>
      </trkpt>
      <trkpt lat="49.64373" lon="5.58182">
        <ele>339</ele>
        <time>2022-03-25T11:03:41.000Z</time>
      </trkpt>
      <trkpt lat="49.64372" lon="5.58195">
        <ele>340.39999389648</ele>
        <time>2022-03-25T11:03:47.000Z</time>
      </trkpt>
      <trkpt lat="49.64372" lon="5.582">
        <ele>340.79998779297</ele>
        <time>2022-03-25T11:03:49.000Z</time>
      </trkpt>
      <trkpt lat="49.64373" lon="5.58208">
        <ele>341.20001220703</ele>
        <time>2022-03-25T11:03:52.000Z</time>
      </trkpt>
      <trkpt lat="49.64374" lon="5.5821">
        <ele>341.39999389648</ele>
        <time>2022-03-25T11:03:53.000Z</time>
      </trkpt>
      <trkpt lat="49.64373" lon="5.58232">
        <ele>343</ele>
        <time>2022-03-25T11:04:04.000Z</time>
      </trkpt>
      <trkpt lat="49.64373" lon="5.58242">
        <ele>343.79998779297</ele>
        <time>2022-03-25T11:04:07.000Z</time>
      </trkpt>
      <trkpt lat="49.64372" lon="5.58244">
        <ele>344</ele>
        <time>2022-03-25T11:04:08.000Z</time>
      </trkpt>
      <trkpt lat="49.6437" lon="5.58252">
        <ele>344.60000610352</ele>
        <time>2022-03-25T11:04:11.000Z</time>
      </trkpt>
      <trkpt lat="49.64371" lon="5.58256">
        <ele>344.79998779297</ele>
        <time>2022-03-25T11:04:12.000Z</time>
      </trkpt>
      <trkpt lat="49.64371" lon="5.58261">
        <ele>345.20001220703</ele>
        <time>2022-03-25T11:04:13.000Z</time>
      </trkpt>
      <trkpt lat="49.64371" lon="5.58265">
        <ele>345.60000610352</ele>
        <time>2022-03-25T11:04:14.000Z</time>
      </trkpt>
      <trkpt lat="49.6437" lon="5.5827">
        <ele>346</ele>
        <time>2022-03-25T11:04:16.000Z</time>
      </trkpt>
      <trkpt lat="49.64369" lon="5.58278">
        <ele>346.60000610352</ele>
        <time>2022-03-25T11:04:19.000Z</time>
      </trkpt>
      <trkpt lat="49.64368" lon="5.58288">
        <ele>347.20001220703</ele>
        <time>2022-03-25T11:04:22.000Z</time>
      </trkpt>
      <trkpt lat="49.64369" lon="5.58299">
        <ele>347.60000610352</ele>
        <time>2022-03-25T11:04:25.000Z</time>
      </trkpt>
      <trkpt lat="49.64368" lon="5.58312">
        <ele>348</ele>
        <time>2022-03-25T11:04:29.000Z</time>
      </trkpt>
      <trkpt lat="49.64367" lon="5.58315">
        <ele>348</ele>
        <time>2022-03-25T11:04:30.000Z</time>
      </trkpt>
      <trkpt lat="49.64367" lon="5.58322">
        <ele>348</ele>
        <time>2022-03-25T11:04:33.000Z</time>
      </trkpt>
      <trkpt lat="49.64367" lon="5.58325">
        <ele>348</ele>
        <time>2022-03-25T11:04:34.000Z</time>
      </trkpt>
      <trkpt lat="49.64366" lon="5.58339">
        <ele>348.20001220703</ele>
        <time>2022-03-25T11:04:37.000Z</time>
      </trkpt>
      <trkpt lat="49.6436" lon="5.58372">
        <ele>349.60000610352</ele>
        <time>2022-03-25T11:04:43.000Z</time>
      </trkpt>
      <trkpt lat="49.64361" lon="5.58388">
        <ele>350.20001220703</ele>
        <time>2022-03-25T11:04:45.000Z</time>
      </trkpt>
      <trkpt lat="49.64362" lon="5.58406">
        <ele>350.20001220703</ele>
        <time>2022-03-25T11:04:48.000Z</time>
      </trkpt>
      <trkpt lat="49.64363" lon="5.58425">
        <ele>350.20001220703</ele>
        <time>2022-03-25T11:04:52.000Z</time>
      </trkpt>
      <trkpt lat="49.64364" lon="5.58435">
        <ele>350.20001220703</ele>
        <time>2022-03-25T11:04:54.000Z</time>
      </trkpt>
      <trkpt lat="49.64364" lon="5.58446">
        <ele>350</ele>
        <time>2022-03-25T11:04:56.000Z</time>
      </trkpt>
      <trkpt lat="49.64364" lon="5.58466">
        <ele>350</ele>
        <time>2022-03-25T11:05:00.000Z</time>
      </trkpt>
      <trkpt lat="49.64364" lon="5.58503">
        <ele>350</ele>
        <time>2022-03-25T11:05:07.000Z</time>
      </trkpt>
      <trkpt lat="49.64363" lon="5.58509">
        <ele>349.79998779297</ele>
        <time>2022-03-25T11:05:08.000Z</time>
      </trkpt>
      <trkpt lat="49.64358" lon="5.58538">
        <ele>348.20001220703</ele>
        <time>2022-03-25T11:05:13.000Z</time>
      </trkpt>
      <trkpt lat="49.6436" lon="5.5856">
        <ele>346.39999389648</ele>
        <time>2022-03-25T11:05:18.000Z</time>
      </trkpt>
      <trkpt lat="49.64359" lon="5.58587">
        <ele>344.39999389648</ele>
        <time>2022-03-25T11:05:22.000Z</time>
      </trkpt>
      <trkpt lat="49.6436" lon="5.58609">
        <ele>343</ele>
        <time>2022-03-25T11:05:25.000Z</time>
      </trkpt>
      <trkpt lat="49.64361" lon="5.58624">
        <ele>342</ele>
        <time>2022-03-25T11:05:27.000Z</time>
      </trkpt>
      <trkpt lat="49.6436" lon="5.58632">
        <ele>341.39999389648</ele>
        <time>2022-03-25T11:05:28.000Z</time>
      </trkpt>
      <trkpt lat="49.64359" lon="5.58645">
        <ele>340.39999389648</ele>
        <time>2022-03-25T11:05:30.000Z</time>
      </trkpt>
      <trkpt lat="49.64357" lon="5.58652">
        <ele>340</ele>
        <time>2022-03-25T11:05:31.000Z</time>
      </trkpt>
      <trkpt lat="49.64346" lon="5.58676">
        <ele>338.79998779297</ele>
        <time>2022-03-25T11:05:36.000Z</time>
      </trkpt>
      <trkpt lat="49.64334" lon="5.587">
        <ele>340.20001220703</ele>
        <time>2022-03-25T11:05:41.000Z</time>
      </trkpt>
      <trkpt lat="49.6433" lon="5.58705">
        <ele>340.60000610352</ele>
        <time>2022-03-25T11:05:42.000Z</time>
      </trkpt>
      <trkpt lat="49.64317" lon="5.58714">
        <ele>342.20001220703</ele>
        <time>2022-03-25T11:05:45.000Z</time>
      </trkpt>
      <trkpt lat="49.64301" lon="5.58724">
        <ele>344.60000610352</ele>
        <time>2022-03-25T11:05:49.000Z</time>
      </trkpt>
      <trkpt lat="49.64297" lon="5.58726">
        <ele>345</ele>
        <time>2022-03-25T11:05:50.000Z</time>
      </trkpt>
      <trkpt lat="49.64291" lon="5.58722">
        <ele>345</ele>
        <time>2022-03-25T11:05:52.000Z</time>
      </trkpt>
      <trkpt lat="49.64289" lon="5.58719">
        <ele>345</ele>
        <time>2022-03-25T11:05:53.000Z</time>
      </trkpt>
      <trkpt lat="49.64284" lon="5.58703">
        <ele>343.60000610352</ele>
        <time>2022-03-25T11:05:56.000Z</time>
      </trkpt>
      <trkpt lat="49.64282" lon="5.58697">
        <ele>343</ele>
        <time>2022-03-25T11:05:57.000Z</time>
      </trkpt>
      <trkpt lat="49.64269" lon="5.58654">
        <ele>341.20001220703</ele>
        <time>2022-03-25T11:06:02.000Z</time>
      </trkpt>
      <trkpt lat="49.64267" lon="5.58643">
        <ele>340.79998779297</ele>
        <time>2022-03-25T11:06:03.000Z</time>
      </trkpt>
      <trkpt lat="49.64257" lon="5.58607">
        <ele>339.79998779297</ele>
        <time>2022-03-25T11:06:06.000Z</time>
      </trkpt>
      <trkpt lat="49.64253" lon="5.58594">
        <ele>340</ele>
        <time>2022-03-25T11:06:07.000Z</time>
      </trkpt>
      <trkpt lat="49.6425" lon="5.58581">
        <ele>340.39999389648</ele>
        <time>2022-03-25T11:06:08.000Z</time>
      </trkpt>
      <trkpt lat="49.64244" lon="5.58554">
        <ele>341.39999389648</ele>
        <time>2022-03-25T11:06:10.000Z</time>
      </trkpt>
      <trkpt lat="49.64237" lon="5.58528">
        <ele>342</ele>
        <time>2022-03-25T11:06:12.000Z</time>
      </trkpt>
      <trkpt lat="49.64231" lon="5.58517">
        <ele>342.39999389648</ele>
        <time>2022-03-25T11:06:13.000Z</time>
      </trkpt>
      <trkpt lat="49.64225" lon="5.58507">
        <ele>342.79998779297</ele>
        <time>2022-03-25T11:06:14.000Z</time>
      </trkpt>
      <trkpt lat="49.64213" lon="5.58489">
        <ele>342.60000610352</ele>
        <time>2022-03-25T11:06:16.000Z</time>
      </trkpt>
      <trkpt lat="49.64207" lon="5.5848">
        <ele>342.39999389648</ele>
        <time>2022-03-25T11:06:17.000Z</time>
      </trkpt>
      <trkpt lat="49.64201" lon="5.5847">
        <ele>342.20001220703</ele>
        <time>2022-03-25T11:06:18.000Z</time>
      </trkpt>
      <trkpt lat="49.64186" lon="5.58439">
        <ele>341.79998779297</ele>
        <time>2022-03-25T11:06:21.000Z</time>
      </trkpt>
      <trkpt lat="49.6418" lon="5.58432">
        <ele>341.79998779297</ele>
        <time>2022-03-25T11:06:22.000Z</time>
      </trkpt>
      <trkpt lat="49.64166" lon="5.5842">
        <ele>341.60000610352</ele>
        <time>2022-03-25T11:06:24.000Z</time>
      </trkpt>
      <trkpt lat="49.64159" lon="5.58418">
        <ele>341.20001220703</ele>
        <time>2022-03-25T11:06:25.000Z</time>
      </trkpt>
      <trkpt lat="49.64153" lon="5.58414">
        <ele>341</ele>
        <time>2022-03-25T11:06:26.000Z</time>
      </trkpt>
      <trkpt lat="49.64145" lon="5.58413">
        <ele>340.39999389648</ele>
        <time>2022-03-25T11:06:27.000Z</time>
      </trkpt>
      <trkpt lat="49.64131" lon="5.58407">
        <ele>339.60000610352</ele>
        <time>2022-03-25T11:06:29.000Z</time>
      </trkpt>
      <trkpt lat="49.64116" lon="5.58402">
        <ele>339</ele>
        <time>2022-03-25T11:06:31.000Z</time>
      </trkpt>
      <trkpt lat="49.64109" lon="5.58401">
        <ele>338.60000610352</ele>
        <time>2022-03-25T11:06:32.000Z</time>
      </trkpt>
      <trkpt lat="49.64101" lon="5.584">
        <ele>338</ele>
        <time>2022-03-25T11:06:33.000Z</time>
      </trkpt>
      <trkpt lat="49.64096" lon="5.58399">
        <ele>337.60000610352</ele>
        <time>2022-03-25T11:06:34.000Z</time>
      </trkpt>
      <trkpt lat="49.6409" lon="5.58398">
        <ele>337.39999389648</ele>
        <time>2022-03-25T11:06:35.000Z</time>
      </trkpt>
      <trkpt lat="49.6408" lon="5.58395">
        <ele>336.60000610352</ele>
        <time>2022-03-25T11:06:37.000Z</time>
      </trkpt>
      <trkpt lat="49.64066" lon="5.58392">
        <ele>335.60000610352</ele>
        <time>2022-03-25T11:06:40.000Z</time>
      </trkpt>
      <trkpt lat="49.6406" lon="5.58391">
        <ele>335</ele>
        <time>2022-03-25T11:06:41.000Z</time>
      </trkpt>
      <trkpt lat="49.64054" lon="5.5839">
        <ele>334</ele>
        <time>2022-03-25T11:06:42.000Z</time>
      </trkpt>
      <trkpt lat="49.64042" lon="5.58389">
        <ele>332</ele>
        <time>2022-03-25T11:06:44.000Z</time>
      </trkpt>
      <trkpt lat="49.64029" lon="5.58387">
        <ele>329.60000610352</ele>
        <time>2022-03-25T11:06:46.000Z</time>
      </trkpt>
      <trkpt lat="49.64014" lon="5.58382">
        <ele>326.20001220703</ele>
        <time>2022-03-25T11:06:48.000Z</time>
      </trkpt>
      <trkpt lat="49.64006" lon="5.5838">
        <ele>324.60000610352</ele>
        <time>2022-03-25T11:06:49.000Z</time>
      </trkpt>
      <trkpt lat="49.63999" lon="5.58378">
        <ele>322.60000610352</ele>
        <time>2022-03-25T11:06:50.000Z</time>
      </trkpt>
      <trkpt lat="49.63992" lon="5.58376">
        <ele>320.60000610352</ele>
        <time>2022-03-25T11:06:51.000Z</time>
      </trkpt>
      <trkpt lat="49.63985" lon="5.58374">
        <ele>318.79998779297</ele>
        <time>2022-03-25T11:06:52.000Z</time>
      </trkpt>
      <trkpt lat="49.6398" lon="5.58371">
        <ele>317.39999389648</ele>
        <time>2022-03-25T11:06:53.000Z</time>
      </trkpt>
      <trkpt lat="49.63973" lon="5.58369">
        <ele>315.60000610352</ele>
        <time>2022-03-25T11:06:54.000Z</time>
      </trkpt>
      <trkpt lat="49.63959" lon="5.58363">
        <ele>312.39999389648</ele>
        <time>2022-03-25T11:06:56.000Z</time>
      </trkpt>
      <trkpt lat="49.63946" lon="5.58359">
        <ele>309.79998779297</ele>
        <time>2022-03-25T11:06:58.000Z</time>
      </trkpt>
      <trkpt lat="49.6394" lon="5.58358">
        <ele>308.60000610352</ele>
        <time>2022-03-25T11:06:59.000Z</time>
      </trkpt>
      <trkpt lat="49.63935" lon="5.58357">
        <ele>307.79998779297</ele>
        <time>2022-03-25T11:07:00.000Z</time>
      </trkpt>
      <trkpt lat="49.63928" lon="5.58357">
        <ele>306.60000610352</ele>
        <time>2022-03-25T11:07:01.000Z</time>
      </trkpt>
      <trkpt lat="49.63921" lon="5.58358">
        <ele>305.39999389648</ele>
        <time>2022-03-25T11:07:02.000Z</time>
      </trkpt>
      <trkpt lat="49.63915" lon="5.5836">
        <ele>304</ele>
        <time>2022-03-25T11:07:03.000Z</time>
      </trkpt>
      <trkpt lat="49.6391" lon="5.58363">
        <ele>302.39999389648</ele>
        <time>2022-03-25T11:07:04.000Z</time>
      </trkpt>
      <trkpt lat="49.63905" lon="5.58366">
        <ele>301</ele>
        <time>2022-03-25T11:07:05.000Z</time>
      </trkpt>
      <trkpt lat="49.63901" lon="5.58371">
        <ele>300</ele>
        <time>2022-03-25T11:07:06.000Z</time>
      </trkpt>
      <trkpt lat="49.63898" lon="5.58379">
        <ele>299.39999389648</ele>
        <time>2022-03-25T11:07:07.000Z</time>
      </trkpt>
      <trkpt lat="49.63896" lon="5.58388">
        <ele>298.79998779297</ele>
        <time>2022-03-25T11:07:08.000Z</time>
      </trkpt>
      <trkpt lat="49.63894" lon="5.58406">
        <ele>298.79998779297</ele>
        <time>2022-03-25T11:07:10.000Z</time>
      </trkpt>
      <trkpt lat="49.6389" lon="5.58425">
        <ele>298.79998779297</ele>
        <time>2022-03-25T11:07:12.000Z</time>
      </trkpt>
      <trkpt lat="49.6389" lon="5.58437">
        <ele>299.20001220703</ele>
        <time>2022-03-25T11:07:13.000Z</time>
      </trkpt>
      <trkpt lat="49.63892" lon="5.58454">
        <ele>299.79998779297</ele>
        <time>2022-03-25T11:07:15.000Z</time>
      </trkpt>
      <trkpt lat="49.639" lon="5.58511">
        <ele>295.79998779297</ele>
        <time>2022-03-25T11:07:22.000Z</time>
      </trkpt>
      <trkpt lat="49.63909" lon="5.58554">
        <ele>289.60000610352</ele>
        <time>2022-03-25T11:07:28.000Z</time>
      </trkpt>
      <trkpt lat="49.63914" lon="5.58594">
        <ele>289.39999389648</ele>
        <time>2022-03-25T11:07:33.000Z</time>
      </trkpt>
      <trkpt lat="49.63912" lon="5.58602">
        <ele>290.39999389648</ele>
        <time>2022-03-25T11:07:34.000Z</time>
      </trkpt>
      <trkpt lat="49.63898" lon="5.58616">
        <ele>289.79998779297</ele>
        <time>2022-03-25T11:07:37.000Z</time>
      </trkpt>
      <trkpt lat="49.63893" lon="5.5862">
        <ele>289</ele>
        <time>2022-03-25T11:07:38.000Z</time>
      </trkpt>
      <trkpt lat="49.63878" lon="5.58633">
        <ele>289.79998779297</ele>
        <time>2022-03-25T11:07:41.000Z</time>
      </trkpt>
      <trkpt lat="49.63863" lon="5.58648">
        <ele>291</ele>
        <time>2022-03-25T11:07:44.000Z</time>
      </trkpt>
      <trkpt lat="49.63836" lon="5.58675">
        <ele>290.60000610352</ele>
        <time>2022-03-25T11:07:49.000Z</time>
      </trkpt>
      <trkpt lat="49.63802" lon="5.58708">
        <ele>289.39999389648</ele>
        <time>2022-03-25T11:07:55.000Z</time>
      </trkpt>
      <trkpt lat="49.63797" lon="5.58713">
        <ele>289.79998779297</ele>
        <time>2022-03-25T11:07:56.000Z</time>
      </trkpt>
      <trkpt lat="49.6376" lon="5.58749">
        <ele>289</ele>
        <time>2022-03-25T11:08:03.000Z</time>
      </trkpt>
      <trkpt lat="49.63731" lon="5.58782">
        <ele>290.60000610352</ele>
        <time>2022-03-25T11:08:09.000Z</time>
      </trkpt>
      <trkpt lat="49.63698" lon="5.58834">
        <ele>289.79998779297</ele>
        <time>2022-03-25T11:08:17.000Z</time>
      </trkpt>
      <trkpt lat="49.63681" lon="5.58867">
        <ele>290.39999389648</ele>
        <time>2022-03-25T11:08:22.000Z</time>
      </trkpt>
      <trkpt lat="49.63673" lon="5.58889">
        <ele>289.60000610352</ele>
        <time>2022-03-25T11:08:25.000Z</time>
      </trkpt>
      <trkpt lat="49.63657" lon="5.5894">
        <ele>291</ele>
        <time>2022-03-25T11:08:32.000Z</time>
      </trkpt>
      <trkpt lat="49.63655" lon="5.58948">
        <ele>290.79998779297</ele>
        <time>2022-03-25T11:08:33.000Z</time>
      </trkpt>
      <trkpt lat="49.63633" lon="5.59023">
        <ele>290.60000610352</ele>
        <time>2022-03-25T11:08:43.000Z</time>
      </trkpt>
      <trkpt lat="49.63617" lon="5.59077">
        <ele>287.20001220703</ele>
        <time>2022-03-25T11:08:50.000Z</time>
      </trkpt>
      <trkpt lat="49.63609" lon="5.59107">
        <ele>288.79998779297</ele>
        <time>2022-03-25T11:08:54.000Z</time>
      </trkpt>
      <trkpt lat="49.63586" lon="5.59169">
        <ele>288.79998779297</ele>
        <time>2022-03-25T11:09:03.000Z</time>
      </trkpt>
      <trkpt lat="49.63565" lon="5.59218">
        <ele>292.20001220703</ele>
        <time>2022-03-25T11:09:11.000Z</time>
      </trkpt>
      <trkpt lat="49.63554" lon="5.59241">
        <ele>292.60000610352</ele>
        <time>2022-03-25T11:09:15.000Z</time>
      </trkpt>
      <trkpt lat="49.63544" lon="5.59257">
        <ele>292.79998779297</ele>
        <time>2022-03-25T11:09:18.000Z</time>
      </trkpt>
      <trkpt lat="49.6354" lon="5.59262">
        <ele>292.39999389648</ele>
        <time>2022-03-25T11:09:19.000Z</time>
      </trkpt>
      <trkpt lat="49.63525" lon="5.59272">
        <ele>292</ele>
        <time>2022-03-25T11:09:22.000Z</time>
      </trkpt>
      <trkpt lat="49.63514" lon="5.59275">
        <ele>292.20001220703</ele>
        <time>2022-03-25T11:09:24.000Z</time>
      </trkpt>
      <trkpt lat="49.6349" lon="5.59272">
        <ele>292.20001220703</ele>
        <time>2022-03-25T11:09:28.000Z</time>
      </trkpt>
      <trkpt lat="49.63483" lon="5.5927">
        <ele>292.60000610352</ele>
        <time>2022-03-25T11:09:29.000Z</time>
      </trkpt>
      <trkpt lat="49.63477" lon="5.59268">
        <ele>292.79998779297</ele>
        <time>2022-03-25T11:09:30.000Z</time>
      </trkpt>
      <trkpt lat="49.63458" lon="5.59261">
        <ele>294.60000610352</ele>
        <time>2022-03-25T11:09:33.000Z</time>
      </trkpt>
      <trkpt lat="49.6344" lon="5.59252">
        <ele>294.20001220703</ele>
        <time>2022-03-25T11:09:36.000Z</time>
      </trkpt>
      <trkpt lat="49.63403" lon="5.59236">
        <ele>290.79998779297</ele>
        <time>2022-03-25T11:09:43.000Z</time>
      </trkpt>
      <trkpt lat="49.63363" lon="5.59231">
        <ele>290</ele>
        <time>2022-03-25T11:09:50.000Z</time>
      </trkpt>
      <trkpt lat="49.63325" lon="5.59243">
        <ele>292</ele>
        <time>2022-03-25T11:09:57.000Z</time>
      </trkpt>
      <trkpt lat="49.63301" lon="5.59263">
        <ele>296.39999389648</ele>
        <time>2022-03-25T11:10:03.000Z</time>
      </trkpt>
      <trkpt lat="49.63297" lon="5.59267">
        <ele>297.20001220703</ele>
        <time>2022-03-25T11:10:05.000Z</time>
      </trkpt>
      <trkpt lat="49.63292" lon="5.59272">
        <ele>297.60000610352</ele>
        <time>2022-03-25T11:10:08.000Z</time>
      </trkpt>
      <trkpt lat="49.6329" lon="5.59274">
        <ele>297.79998779297</ele>
        <time>2022-03-25T11:10:09.000Z</time>
      </trkpt>
      <trkpt lat="49.63285" lon="5.59278">
        <ele>298</ele>
        <time>2022-03-25T11:10:12.000Z</time>
      </trkpt>
      <trkpt lat="49.63281" lon="5.59281">
        <ele>298.20001220703</ele>
        <time>2022-03-25T11:10:14.000Z</time>
      </trkpt>
      <trkpt lat="49.63279" lon="5.59283">
        <ele>298.60000610352</ele>
        <time>2022-03-25T11:10:15.000Z</time>
      </trkpt>
      <trkpt lat="49.63277" lon="5.59284">
        <ele>298.79998779297</ele>
        <time>2022-03-25T11:10:16.000Z</time>
      </trkpt>
      <trkpt lat="49.63272" lon="5.59286">
        <ele>299.39999389648</ele>
        <time>2022-03-25T11:10:18.000Z</time>
      </trkpt>
      <trkpt lat="49.63266" lon="5.59289">
        <ele>299.79998779297</ele>
        <time>2022-03-25T11:10:21.000Z</time>
      </trkpt>
      <trkpt lat="49.63264" lon="5.59289">
        <ele>300</ele>
        <time>2022-03-25T11:10:22.000Z</time>
      </trkpt>
      <trkpt lat="49.63256" lon="5.59292">
        <ele>300.39999389648</ele>
        <time>2022-03-25T11:10:26.000Z</time>
      </trkpt>
      <trkpt lat="49.63253" lon="5.59293">
        <ele>300.60000610352</ele>
        <time>2022-03-25T11:10:27.000Z</time>
      </trkpt>
      <trkpt lat="49.63244" lon="5.59296">
        <ele>302.60000610352</ele>
        <time>2022-03-25T11:10:31.000Z</time>
      </trkpt>
      <trkpt lat="49.63239" lon="5.59296">
        <ele>303.20001220703</ele>
        <time>2022-03-25T11:10:33.000Z</time>
      </trkpt>
      <trkpt lat="49.63234" lon="5.59296">
        <ele>303.79998779297</ele>
        <time>2022-03-25T11:10:35.000Z</time>
      </trkpt>
      <trkpt lat="49.63224" lon="5.59296">
        <ele>305.20001220703</ele>
        <time>2022-03-25T11:10:39.000Z</time>
      </trkpt>
      <trkpt lat="49.63217" lon="5.59297">
        <ele>306.20001220703</ele>
        <time>2022-03-25T11:10:42.000Z</time>
      </trkpt>
      <trkpt lat="49.63211" lon="5.59298">
        <ele>307.79998779297</ele>
        <time>2022-03-25T11:10:45.000Z</time>
      </trkpt>
      <trkpt lat="49.63209" lon="5.59298">
        <ele>308.39999389648</ele>
        <time>2022-03-25T11:10:46.000Z</time>
      </trkpt>
      <trkpt lat="49.63206" lon="5.59298">
        <ele>308.79998779297</ele>
        <time>2022-03-25T11:10:48.000Z</time>
      </trkpt>
      <trkpt lat="49.63201" lon="5.59298">
        <ele>310</ele>
        <time>2022-03-25T11:10:50.000Z</time>
      </trkpt>
      <trkpt lat="49.63198" lon="5.59298">
        <ele>310.60000610352</ele>
        <time>2022-03-25T11:10:51.000Z</time>
      </trkpt>
      <trkpt lat="49.63191" lon="5.59297">
        <ele>311.60000610352</ele>
        <time>2022-03-25T11:10:54.000Z</time>
      </trkpt>
      <trkpt lat="49.63184" lon="5.59295">
        <ele>312.20001220703</ele>
        <time>2022-03-25T11:10:57.000Z</time>
      </trkpt>
      <trkpt lat="49.63181" lon="5.59295">
        <ele>312.60000610352</ele>
        <time>2022-03-25T11:10:58.000Z</time>
      </trkpt>
      <trkpt lat="49.63175" lon="5.59293">
        <ele>313</ele>
        <time>2022-03-25T11:11:00.000Z</time>
      </trkpt>
      <trkpt lat="49.63169" lon="5.5929">
        <ele>313</ele>
        <time>2022-03-25T11:11:03.000Z</time>
      </trkpt>
      <trkpt lat="49.63167" lon="5.59289">
        <ele>312.79998779297</ele>
        <time>2022-03-25T11:11:04.000Z</time>
      </trkpt>
      <trkpt lat="49.63162" lon="5.59288">
        <ele>313.39999389648</ele>
        <time>2022-03-25T11:11:06.000Z</time>
      </trkpt>
      <trkpt lat="49.63155" lon="5.59285">
        <ele>314</ele>
        <time>2022-03-25T11:11:09.000Z</time>
      </trkpt>
      <trkpt lat="49.63151" lon="5.59283">
        <ele>314.20001220703</ele>
        <time>2022-03-25T11:11:11.000Z</time>
      </trkpt>
      <trkpt lat="49.63149" lon="5.59282">
        <ele>314.39999389648</ele>
        <time>2022-03-25T11:11:12.000Z</time>
      </trkpt>
      <trkpt lat="49.63143" lon="5.59281">
        <ele>315</ele>
        <time>2022-03-25T11:11:15.000Z</time>
      </trkpt>
      <trkpt lat="49.63137" lon="5.59278">
        <ele>315.79998779297</ele>
        <time>2022-03-25T11:11:18.000Z</time>
      </trkpt>
      <trkpt lat="49.63132" lon="5.59275">
        <ele>316.39999389648</ele>
        <time>2022-03-25T11:11:21.000Z</time>
      </trkpt>
      <trkpt lat="49.63128" lon="5.59273">
        <ele>316.79998779297</ele>
        <time>2022-03-25T11:11:23.000Z</time>
      </trkpt>
      <trkpt lat="49.63126" lon="5.59272">
        <ele>317</ele>
        <time>2022-03-25T11:11:24.000Z</time>
      </trkpt>
      <trkpt lat="49.63118" lon="5.5927">
        <ele>318.60000610352</ele>
        <time>2022-03-25T11:11:27.000Z</time>
      </trkpt>
      <trkpt lat="49.63113" lon="5.59268">
        <ele>319.39999389648</ele>
        <time>2022-03-25T11:11:29.000Z</time>
      </trkpt>
      <trkpt lat="49.6311" lon="5.59267">
        <ele>319.79998779297</ele>
        <time>2022-03-25T11:11:30.000Z</time>
      </trkpt>
      <trkpt lat="49.631" lon="5.59264">
        <ele>321</ele>
        <time>2022-03-25T11:11:33.000Z</time>
      </trkpt>
      <trkpt lat="49.63095" lon="5.59262">
        <ele>321.79998779297</ele>
        <time>2022-03-25T11:11:35.000Z</time>
      </trkpt>
      <trkpt lat="49.63093" lon="5.59261">
        <ele>322.39999389648</ele>
        <time>2022-03-25T11:11:36.000Z</time>
      </trkpt>
      <trkpt lat="49.63079" lon="5.59258">
        <ele>323.39999389648</ele>
        <time>2022-03-25T11:11:41.000Z</time>
      </trkpt>
      <trkpt lat="49.63067" lon="5.59262">
        <ele>325.60000610352</ele>
        <time>2022-03-25T11:11:45.000Z</time>
      </trkpt>
      <trkpt lat="49.63063" lon="5.59263">
        <ele>325.79998779297</ele>
        <time>2022-03-25T11:11:46.000Z</time>
      </trkpt>
      <trkpt lat="49.63052" lon="5.5927">
        <ele>326</ele>
        <time>2022-03-25T11:11:50.000Z</time>
      </trkpt>
      <trkpt lat="49.63046" lon="5.59275">
        <ele>325.79998779297</ele>
        <time>2022-03-25T11:11:52.000Z</time>
      </trkpt>
      <trkpt lat="49.63044" lon="5.59278">
        <ele>326</ele>
        <time>2022-03-25T11:11:53.000Z</time>
      </trkpt>
      <trkpt lat="49.6304" lon="5.59284">
        <ele>326.39999389648</ele>
        <time>2022-03-25T11:11:55.000Z</time>
      </trkpt>
      <trkpt lat="49.63036" lon="5.59291">
        <ele>327</ele>
        <time>2022-03-25T11:11:57.000Z</time>
      </trkpt>
      <trkpt lat="49.63035" lon="5.59294">
        <ele>327.39999389648</ele>
        <time>2022-03-25T11:11:58.000Z</time>
      </trkpt>
      <trkpt lat="49.63028" lon="5.59306">
        <ele>329</ele>
        <time>2022-03-25T11:12:01.000Z</time>
      </trkpt>
      <trkpt lat="49.63023" lon="5.59313">
        <ele>329.39999389648</ele>
        <time>2022-03-25T11:12:03.000Z</time>
      </trkpt>
      <trkpt lat="49.63017" lon="5.59324">
        <ele>330.20001220703</ele>
        <time>2022-03-25T11:12:06.000Z</time>
      </trkpt>
      <trkpt lat="49.63013" lon="5.59335">
        <ele>331.20001220703</ele>
        <time>2022-03-25T11:12:09.000Z</time>
      </trkpt>
      <trkpt lat="49.63011" lon="5.59344">
        <ele>332</ele>
        <time>2022-03-25T11:12:11.000Z</time>
      </trkpt>
      <trkpt lat="49.63012" lon="5.59351">
        <ele>333.20001220703</ele>
        <time>2022-03-25T11:12:13.000Z</time>
      </trkpt>
      <trkpt lat="49.63013" lon="5.59355">
        <ele>333.79998779297</ele>
        <time>2022-03-25T11:12:14.000Z</time>
      </trkpt>
      <trkpt lat="49.63015" lon="5.59362">
        <ele>335</ele>
        <time>2022-03-25T11:12:16.000Z</time>
      </trkpt>
      <trkpt lat="49.63018" lon="5.59368">
        <ele>335.79998779297</ele>
        <time>2022-03-25T11:12:18.000Z</time>
      </trkpt>
      <trkpt lat="49.63021" lon="5.59369">
        <ele>336.20001220703</ele>
        <time>2022-03-25T11:12:19.000Z</time>
      </trkpt>
      <trkpt lat="49.63022" lon="5.59369">
        <ele>336.39999389648</ele>
        <time>2022-03-25T11:12:20.000Z</time>
      </trkpt>
      <trkpt lat="49.63025" lon="5.59368">
        <ele>336.60000610352</ele>
        <time>2022-03-25T11:12:21.000Z</time>
      </trkpt>
      <trkpt lat="49.63036" lon="5.5936">
        <ele>337</ele>
        <time>2022-03-25T11:12:25.000Z</time>
      </trkpt>
      <trkpt lat="49.63051" lon="5.59347">
        <ele>337.60000610352</ele>
        <time>2022-03-25T11:12:30.000Z</time>
      </trkpt>
      <trkpt lat="49.6307" lon="5.59349">
        <ele>339</ele>
        <time>2022-03-25T11:12:35.000Z</time>
      </trkpt>
      <trkpt lat="49.63074" lon="5.59351">
        <ele>339.20001220703</ele>
        <time>2022-03-25T11:12:36.000Z</time>
      </trkpt>
      <trkpt lat="49.63077" lon="5.59355">
        <ele>339.39999389648</ele>
        <time>2022-03-25T11:12:37.000Z</time>
      </trkpt>
      <trkpt lat="49.63085" lon="5.59367">
        <ele>340.39999389648</ele>
        <time>2022-03-25T11:12:40.000Z</time>
      </trkpt>
      <trkpt lat="49.6309" lon="5.59374">
        <ele>340.60000610352</ele>
        <time>2022-03-25T11:12:42.000Z</time>
      </trkpt>
      <trkpt lat="49.63099" lon="5.59384">
        <ele>340</ele>
        <time>2022-03-25T11:12:45.000Z</time>
      </trkpt>
      <trkpt lat="49.63103" lon="5.59387">
        <ele>339.79998779297</ele>
        <time>2022-03-25T11:12:46.000Z</time>
      </trkpt>
      <trkpt lat="49.63124" lon="5.59411">
        <ele>338</ele>
        <time>2022-03-25T11:12:52.000Z</time>
      </trkpt>
      <trkpt lat="49.63141" lon="5.59438">
        <ele>338.39999389648</ele>
        <time>2022-03-25T11:12:58.000Z</time>
      </trkpt>
      <trkpt lat="49.63148" lon="5.59446">
        <ele>338.60000610352</ele>
        <time>2022-03-25T11:13:00.000Z</time>
      </trkpt>
      <trkpt lat="49.63158" lon="5.59458">
        <ele>338.60000610352</ele>
        <time>2022-03-25T11:13:03.000Z</time>
      </trkpt>
      <trkpt lat="49.63169" lon="5.5947">
        <ele>338.79998779297</ele>
        <time>2022-03-25T11:13:06.000Z</time>
      </trkpt>
      <trkpt lat="49.63184" lon="5.59492">
        <ele>339.20001220703</ele>
        <time>2022-03-25T11:13:10.000Z</time>
      </trkpt>
      <trkpt lat="49.63192" lon="5.59502">
        <ele>339.20001220703</ele>
        <time>2022-03-25T11:13:12.000Z</time>
      </trkpt>
      <trkpt lat="49.6321" lon="5.59522">
        <ele>340.20001220703</ele>
        <time>2022-03-25T11:13:16.000Z</time>
      </trkpt>
      <trkpt lat="49.63226" lon="5.59549">
        <ele>341.79998779297</ele>
        <time>2022-03-25T11:13:21.000Z</time>
      </trkpt>
      <trkpt lat="49.63238" lon="5.59577">
        <ele>343</ele>
        <time>2022-03-25T11:13:25.000Z</time>
      </trkpt>
      <trkpt lat="49.63246" lon="5.59587">
        <ele>343.79998779297</ele>
        <time>2022-03-25T11:13:27.000Z</time>
      </trkpt>
      <trkpt lat="49.63254" lon="5.59597">
        <ele>344.39999389648</ele>
        <time>2022-03-25T11:13:29.000Z</time>
      </trkpt>
      <trkpt lat="49.63258" lon="5.59602">
        <ele>344.79998779297</ele>
        <time>2022-03-25T11:13:30.000Z</time>
      </trkpt>
      <trkpt lat="49.6327" lon="5.59618">
        <ele>345.79998779297</ele>
        <time>2022-03-25T11:13:33.000Z</time>
      </trkpt>
      <trkpt lat="49.63307" lon="5.59661">
        <ele>347.60000610352</ele>
        <time>2022-03-25T11:13:41.000Z</time>
      </trkpt>
      <trkpt lat="49.63315" lon="5.5967">
        <ele>347.79998779297</ele>
        <time>2022-03-25T11:13:43.000Z</time>
      </trkpt>
      <trkpt lat="49.63336" lon="5.59691">
        <ele>348.60000610352</ele>
        <time>2022-03-25T11:13:48.000Z</time>
      </trkpt>
      <trkpt lat="49.63339" lon="5.59696">
        <ele>349</ele>
        <time>2022-03-25T11:13:49.000Z</time>
      </trkpt>
      <trkpt lat="49.63343" lon="5.59707">
        <ele>349.39999389648</ele>
        <time>2022-03-25T11:13:51.000Z</time>
      </trkpt>
      <trkpt lat="49.63349" lon="5.59723">
        <ele>350.39999389648</ele>
        <time>2022-03-25T11:13:53.000Z</time>
      </trkpt>
      <trkpt lat="49.63354" lon="5.59738">
        <ele>350.79998779297</ele>
        <time>2022-03-25T11:13:55.000Z</time>
      </trkpt>
      <trkpt lat="49.6336" lon="5.59751">
        <ele>351</ele>
        <time>2022-03-25T11:13:57.000Z</time>
      </trkpt>
      <trkpt lat="49.63367" lon="5.59763">
        <ele>351</ele>
        <time>2022-03-25T11:13:59.000Z</time>
      </trkpt>
      <trkpt lat="49.6337" lon="5.59769">
        <ele>351.20001220703</ele>
        <time>2022-03-25T11:14:00.000Z</time>
      </trkpt>
      <trkpt lat="49.6338" lon="5.59782">
        <ele>351.60000610352</ele>
        <time>2022-03-25T11:14:03.000Z</time>
      </trkpt>
      <trkpt lat="49.63395" lon="5.59801">
        <ele>352</ele>
        <time>2022-03-25T11:14:07.000Z</time>
      </trkpt>
      <trkpt lat="49.63403" lon="5.59811">
        <ele>352.20001220703</ele>
        <time>2022-03-25T11:14:09.000Z</time>
      </trkpt>
      <trkpt lat="49.6341" lon="5.59823">
        <ele>352.60000610352</ele>
        <time>2022-03-25T11:14:11.000Z</time>
      </trkpt>
      <trkpt lat="49.63419" lon="5.59841">
        <ele>353</ele>
        <time>2022-03-25T11:14:14.000Z</time>
      </trkpt>
      <trkpt lat="49.63422" lon="5.59847">
        <ele>353</ele>
        <time>2022-03-25T11:14:15.000Z</time>
      </trkpt>
      <trkpt lat="49.63429" lon="5.59857">
        <ele>353</ele>
        <time>2022-03-25T11:14:18.000Z</time>
      </trkpt>
      <trkpt lat="49.63436" lon="5.59863">
        <ele>353</ele>
        <time>2022-03-25T11:16:19.000Z</time>
      </trkpt>
      <trkpt lat="49.63442" lon="5.59869">
        <ele>352.60000610352</ele>
        <time>2022-03-25T11:16:21.000Z</time>
      </trkpt>
      <trkpt lat="49.63459" lon="5.59877">
        <ele>352</ele>
        <time>2022-03-25T11:16:26.000Z</time>
      </trkpt>
      <trkpt lat="49.63481" lon="5.59883">
        <ele>351</ele>
        <time>2022-03-25T11:16:32.000Z</time>
      </trkpt>
      <trkpt lat="49.63509" lon="5.59885">
        <ele>351.20001220703</ele>
        <time>2022-03-25T11:16:38.000Z</time>
      </trkpt>
      <trkpt lat="49.63544" lon="5.59884">
        <ele>352.20001220703</ele>
        <time>2022-03-25T11:16:44.000Z</time>
      </trkpt>
      <trkpt lat="49.63577" lon="5.59882">
        <ele>351.60000610352</ele>
        <time>2022-03-25T11:16:50.000Z</time>
      </trkpt>
      <trkpt lat="49.63614" lon="5.5988">
        <ele>350.20001220703</ele>
        <time>2022-03-25T11:16:56.000Z</time>
      </trkpt>
      <trkpt lat="49.6365" lon="5.59876">
        <ele>350.20001220703</ele>
        <time>2022-03-25T11:17:01.000Z</time>
      </trkpt>
      <trkpt lat="49.63657" lon="5.59875">
        <ele>350.39999389648</ele>
        <time>2022-03-25T11:17:02.000Z</time>
      </trkpt>
      <trkpt lat="49.63692" lon="5.59874">
        <ele>351.39999389648</ele>
        <time>2022-03-25T11:17:07.000Z</time>
      </trkpt>
      <trkpt lat="49.63704" lon="5.59877">
        <ele>351.39999389648</ele>
        <time>2022-03-25T11:17:09.000Z</time>
      </trkpt>
      <trkpt lat="49.63715" lon="5.59883">
        <ele>351.60000610352</ele>
        <time>2022-03-25T11:17:11.000Z</time>
      </trkpt>
      <trkpt lat="49.63745" lon="5.59912">
        <ele>355.60000610352</ele>
        <time>2022-03-25T11:17:17.000Z</time>
      </trkpt>
      <trkpt lat="49.63749" lon="5.59918">
        <ele>356.39999389648</ele>
        <time>2022-03-25T11:17:18.000Z</time>
      </trkpt>
      <trkpt lat="49.63781" lon="5.59952">
        <ele>360</ele>
        <time>2022-03-25T11:17:25.000Z</time>
      </trkpt>
      <trkpt lat="49.63789" lon="5.59962">
        <ele>360</ele>
        <time>2022-03-25T11:17:27.000Z</time>
      </trkpt>
      <trkpt lat="49.63802" lon="5.59976">
        <ele>360</ele>
        <time>2022-03-25T11:17:30.000Z</time>
      </trkpt>
      <trkpt lat="49.6381" lon="5.59984">
        <ele>359.79998779297</ele>
        <time>2022-03-25T11:17:32.000Z</time>
      </trkpt>
      <trkpt lat="49.63828" lon="5.60002">
        <ele>360.39999389648</ele>
        <time>2022-03-25T11:17:36.000Z</time>
      </trkpt>
      <trkpt lat="49.63841" lon="5.60015">
        <ele>361.20001220703</ele>
        <time>2022-03-25T11:17:39.000Z</time>
      </trkpt>
      <trkpt lat="49.63845" lon="5.60021">
        <ele>361.60000610352</ele>
        <time>2022-03-25T11:17:40.000Z</time>
      </trkpt>
      <trkpt lat="49.63865" lon="5.60048">
        <ele>363</ele>
        <time>2022-03-25T11:17:45.000Z</time>
      </trkpt>
      <trkpt lat="49.6387" lon="5.60054">
        <ele>362.79998779297</ele>
        <time>2022-03-25T11:17:46.000Z</time>
      </trkpt>
      <trkpt lat="49.6389" lon="5.60076">
        <ele>362</ele>
        <time>2022-03-25T11:17:51.000Z</time>
      </trkpt>
      <trkpt lat="49.63894" lon="5.60079">
        <ele>362</ele>
        <time>2022-03-25T11:17:52.000Z</time>
      </trkpt>
      <trkpt lat="49.63918" lon="5.60107">
        <ele>361</ele>
        <time>2022-03-25T11:17:58.000Z</time>
      </trkpt>
      <trkpt lat="49.63922" lon="5.60111">
        <ele>361</ele>
        <time>2022-03-25T11:17:59.000Z</time>
      </trkpt>
      <trkpt lat="49.63947" lon="5.60141">
        <ele>361</ele>
        <time>2022-03-25T11:18:05.000Z</time>
      </trkpt>
      <trkpt lat="49.63955" lon="5.60151">
        <ele>361.39999389648</ele>
        <time>2022-03-25T11:18:07.000Z</time>
      </trkpt>
      <trkpt lat="49.63968" lon="5.60166">
        <ele>361.79998779297</ele>
        <time>2022-03-25T11:18:10.000Z</time>
      </trkpt>
      <trkpt lat="49.63972" lon="5.6017">
        <ele>362</ele>
        <time>2022-03-25T11:18:11.000Z</time>
      </trkpt>
      <trkpt lat="49.63988" lon="5.60185">
        <ele>364</ele>
        <time>2022-03-25T11:18:15.000Z</time>
      </trkpt>
      <trkpt lat="49.63997" lon="5.60191">
        <ele>365</ele>
        <time>2022-03-25T11:18:17.000Z</time>
      </trkpt>
      <trkpt lat="49.64023" lon="5.60205">
        <ele>368</ele>
        <time>2022-03-25T11:18:23.000Z</time>
      </trkpt>
      <trkpt lat="49.64027" lon="5.60207">
        <ele>368.60000610352</ele>
        <time>2022-03-25T11:18:24.000Z</time>
      </trkpt>
      <trkpt lat="49.6404" lon="5.60212">
        <ele>369.60000610352</ele>
        <time>2022-03-25T11:18:27.000Z</time>
      </trkpt>
      <trkpt lat="49.64052" lon="5.60217">
        <ele>370.39999389648</ele>
        <time>2022-03-25T11:18:30.000Z</time>
      </trkpt>
      <trkpt lat="49.64057" lon="5.60218">
        <ele>371</ele>
        <time>2022-03-25T11:18:31.000Z</time>
      </trkpt>
      <trkpt lat="49.64062" lon="5.6022">
        <ele>371</ele>
        <time>2022-03-25T11:18:32.000Z</time>
      </trkpt>
      <trkpt lat="49.64083" lon="5.60229">
        <ele>370.39999389648</ele>
        <time>2022-03-25T11:18:36.000Z</time>
      </trkpt>
      <trkpt lat="49.64088" lon="5.6023">
        <ele>370.20001220703</ele>
        <time>2022-03-25T11:18:37.000Z</time>
      </trkpt>
      <trkpt lat="49.64112" lon="5.60236">
        <ele>370.60000610352</ele>
        <time>2022-03-25T11:18:41.000Z</time>
      </trkpt>
      <trkpt lat="49.64127" lon="5.60241">
        <ele>370.39999389648</ele>
        <time>2022-03-25T11:18:44.000Z</time>
      </trkpt>
      <trkpt lat="49.64148" lon="5.60248">
        <ele>370.20001220703</ele>
        <time>2022-03-25T11:18:48.000Z</time>
      </trkpt>
      <trkpt lat="49.64156" lon="5.60255">
        <ele>370.39999389648</ele>
        <time>2022-03-25T11:18:50.000Z</time>
      </trkpt>
      <trkpt lat="49.64169" lon="5.60266">
        <ele>371</ele>
        <time>2022-03-25T11:18:53.000Z</time>
      </trkpt>
      <trkpt lat="49.64183" lon="5.60276">
        <ele>371.39999389648</ele>
        <time>2022-03-25T11:18:56.000Z</time>
      </trkpt>
      <trkpt lat="49.64201" lon="5.60291">
        <ele>372.20001220703</ele>
        <time>2022-03-25T11:18:59.000Z</time>
      </trkpt>
      <trkpt lat="49.64216" lon="5.60302">
        <ele>372.20001220703</ele>
        <time>2022-03-25T11:19:02.000Z</time>
      </trkpt>
      <trkpt lat="49.64238" lon="5.60308">
        <ele>371.20001220703</ele>
        <time>2022-03-25T11:19:07.000Z</time>
      </trkpt>
      <trkpt lat="49.6426" lon="5.60316">
        <ele>369.39999389648</ele>
        <time>2022-03-25T11:19:11.000Z</time>
      </trkpt>
      <trkpt lat="49.64269" lon="5.60319">
        <ele>368.39999389648</ele>
        <time>2022-03-25T11:19:12.000Z</time>
      </trkpt>
      <trkpt lat="49.64275" lon="5.60319">
        <ele>367.79998779297</ele>
        <time>2022-03-25T11:19:13.000Z</time>
      </trkpt>
      <trkpt lat="49.64295" lon="5.60317">
        <ele>366</ele>
        <time>2022-03-25T11:19:16.000Z</time>
      </trkpt>
      <trkpt lat="49.64302" lon="5.60318">
        <ele>365.60000610352</ele>
        <time>2022-03-25T11:19:17.000Z</time>
      </trkpt>
      <trkpt lat="49.6431" lon="5.60321">
        <ele>365</ele>
        <time>2022-03-25T11:19:18.000Z</time>
      </trkpt>
      <trkpt lat="49.64324" lon="5.60329">
        <ele>365</ele>
        <time>2022-03-25T11:19:20.000Z</time>
      </trkpt>
      <trkpt lat="49.64331" lon="5.60333">
        <ele>365</ele>
        <time>2022-03-25T11:19:21.000Z</time>
      </trkpt>
      <trkpt lat="49.64346" lon="5.60343">
        <ele>365</ele>
        <time>2022-03-25T11:19:23.000Z</time>
      </trkpt>
      <trkpt lat="49.64369" lon="5.60356">
        <ele>365.20001220703</ele>
        <time>2022-03-25T11:19:26.000Z</time>
      </trkpt>
      <trkpt lat="49.64385" lon="5.60365">
        <ele>365</ele>
        <time>2022-03-25T11:19:28.000Z</time>
      </trkpt>
      <trkpt lat="49.64393" lon="5.6037">
        <ele>365</ele>
        <time>2022-03-25T11:19:29.000Z</time>
      </trkpt>
      <trkpt lat="49.64401" lon="5.60373">
        <ele>365</ele>
        <time>2022-03-25T11:19:30.000Z</time>
      </trkpt>
      <trkpt lat="49.64408" lon="5.60375">
        <ele>365</ele>
        <time>2022-03-25T11:19:31.000Z</time>
      </trkpt>
      <trkpt lat="49.64414" lon="5.60376">
        <ele>365</ele>
        <time>2022-03-25T11:19:32.000Z</time>
      </trkpt>
      <trkpt lat="49.64427" lon="5.6038">
        <ele>364.79998779297</ele>
        <time>2022-03-25T11:19:34.000Z</time>
      </trkpt>
      <trkpt lat="49.64433" lon="5.60382">
        <ele>364.60000610352</ele>
        <time>2022-03-25T11:19:35.000Z</time>
      </trkpt>
      <trkpt lat="49.64446" lon="5.60386">
        <ele>364</ele>
        <time>2022-03-25T11:19:37.000Z</time>
      </trkpt>
      <trkpt lat="49.64452" lon="5.60389">
        <ele>363.60000610352</ele>
        <time>2022-03-25T11:19:38.000Z</time>
      </trkpt>
      <trkpt lat="49.64461" lon="5.60398">
        <ele>362.60000610352</ele>
        <time>2022-03-25T11:19:40.000Z</time>
      </trkpt>
      <trkpt lat="49.6447" lon="5.6042">
        <ele>361.60000610352</ele>
        <time>2022-03-25T11:19:43.000Z</time>
      </trkpt>
      <trkpt lat="49.64473" lon="5.60425">
        <ele>361.20001220703</ele>
        <time>2022-03-25T11:19:44.000Z</time>
      </trkpt>
      <trkpt lat="49.64478" lon="5.60427">
        <ele>360.60000610352</ele>
        <time>2022-03-25T11:19:45.000Z</time>
      </trkpt>
      <trkpt lat="49.64482" lon="5.60425">
        <ele>360.39999389648</ele>
        <time>2022-03-25T11:19:46.000Z</time>
      </trkpt>
      <trkpt lat="49.64494" lon="5.60413">
        <ele>359.20001220703</ele>
        <time>2022-03-25T11:19:49.000Z</time>
      </trkpt>
      <trkpt lat="49.64509" lon="5.60411">
        <ele>358.20001220703</ele>
        <time>2022-03-25T11:19:52.000Z</time>
      </trkpt>
      <trkpt lat="49.64512" lon="5.60413">
        <ele>358.20001220703</ele>
        <time>2022-03-25T11:19:53.000Z</time>
      </trkpt>
      <trkpt lat="49.64529" lon="5.60417">
        <ele>358.79998779297</ele>
        <time>2022-03-25T11:19:58.000Z</time>
      </trkpt>
      <trkpt lat="49.64542" lon="5.6042">
        <ele>359.79998779297</ele>
        <time>2022-03-25T11:20:02.000Z</time>
      </trkpt>
      <trkpt lat="49.64549" lon="5.60423">
        <ele>360.20001220703</ele>
        <time>2022-03-25T11:20:04.000Z</time>
      </trkpt>
      <trkpt lat="49.64562" lon="5.60432">
        <ele>361</ele>
        <time>2022-03-25T11:20:08.000Z</time>
      </trkpt>
      <trkpt lat="49.64566" lon="5.60434">
        <ele>360.79998779297</ele>
        <time>2022-03-25T11:20:09.000Z</time>
      </trkpt>
      <trkpt lat="49.64573" lon="5.60439">
        <ele>360.60000610352</ele>
        <time>2022-03-25T11:20:11.000Z</time>
      </trkpt>
      <trkpt lat="49.64584" lon="5.60449">
        <ele>360.20001220703</ele>
        <time>2022-03-25T11:20:14.000Z</time>
      </trkpt>
      <trkpt lat="49.64588" lon="5.60452">
        <ele>360.20001220703</ele>
        <time>2022-03-25T11:20:15.000Z</time>
      </trkpt>
      <trkpt lat="49.64592" lon="5.60455">
        <ele>359.79998779297</ele>
        <time>2022-03-25T11:20:16.000Z</time>
      </trkpt>
      <trkpt lat="49.646" lon="5.6046">
        <ele>359</ele>
        <time>2022-03-25T11:20:18.000Z</time>
      </trkpt>
      <trkpt lat="49.64603" lon="5.60461">
        <ele>358.79998779297</ele>
        <time>2022-03-25T11:20:19.000Z</time>
      </trkpt>
      <trkpt lat="49.64613" lon="5.60464">
        <ele>357.79998779297</ele>
        <time>2022-03-25T11:20:22.000Z</time>
      </trkpt>
      <trkpt lat="49.64615" lon="5.60465">
        <ele>357.60000610352</ele>
        <time>2022-03-25T11:20:23.000Z</time>
      </trkpt>
      <trkpt lat="49.64631" lon="5.60469">
        <ele>356.60000610352</ele>
        <time>2022-03-25T11:20:28.000Z</time>
      </trkpt>
      <trkpt lat="49.64634" lon="5.6047">
        <ele>356.39999389648</ele>
        <time>2022-03-25T11:20:29.000Z</time>
      </trkpt>
      <trkpt lat="49.64652" lon="5.60476">
        <ele>356.39999389648</ele>
        <time>2022-03-25T11:20:35.000Z</time>
      </trkpt>
      <trkpt lat="49.64655" lon="5.60477">
        <ele>356.60000610352</ele>
        <time>2022-03-25T11:20:36.000Z</time>
      </trkpt>
      <trkpt lat="49.64675" lon="5.60482">
        <ele>358</ele>
        <time>2022-03-25T11:20:43.000Z</time>
      </trkpt>
      <trkpt lat="49.64686" lon="5.60485">
        <ele>358.60000610352</ele>
        <time>2022-03-25T11:20:47.000Z</time>
      </trkpt>
      <trkpt lat="49.647" lon="5.60487">
        <ele>359.20001220703</ele>
        <time>2022-03-25T11:20:51.000Z</time>
      </trkpt>
      <trkpt lat="49.64732" lon="5.60489">
        <ele>357.39999389648</ele>
        <time>2022-03-25T11:21:00.000Z</time>
      </trkpt>
      <trkpt lat="49.64763" lon="5.60489">
        <ele>358.79998779297</ele>
        <time>2022-03-25T11:21:09.000Z</time>
      </trkpt>
      <trkpt lat="49.64789" lon="5.60483">
        <ele>361</ele>
        <time>2022-03-25T11:21:16.000Z</time>
      </trkpt>
      <trkpt lat="49.64817" lon="5.60473">
        <ele>362.60000610352</ele>
        <time>2022-03-25T11:21:23.000Z</time>
      </trkpt>
      <trkpt lat="49.64847" lon="5.60458">
        <ele>360.79998779297</ele>
        <time>2022-03-25T11:21:29.000Z</time>
      </trkpt>
      <trkpt lat="49.64884" lon="5.6044">
        <ele>357.60000610352</ele>
        <time>2022-03-25T11:21:36.000Z</time>
      </trkpt>
      <trkpt lat="49.64895" lon="5.60435">
        <ele>357.20001220703</ele>
        <time>2022-03-25T11:21:38.000Z</time>
      </trkpt>
      <trkpt lat="49.64924" lon="5.60424">
        <ele>356.60000610352</ele>
        <time>2022-03-25T11:21:44.000Z</time>
      </trkpt>
      <trkpt lat="49.64958" lon="5.60422">
        <ele>358</ele>
        <time>2022-03-25T11:21:52.000Z</time>
      </trkpt>
      <trkpt lat="49.64986" lon="5.60423">
        <ele>358</ele>
        <time>2022-03-25T11:21:59.000Z</time>
      </trkpt>
      <trkpt lat="49.65006" lon="5.60422">
        <ele>358</ele>
        <time>2022-03-25T11:22:04.000Z</time>
      </trkpt>
      <trkpt lat="49.65025" lon="5.60413">
        <ele>357.60000610352</ele>
        <time>2022-03-25T11:22:09.000Z</time>
      </trkpt>
      <trkpt lat="49.65031" lon="5.60409">
        <ele>357.60000610352</ele>
        <time>2022-03-25T11:22:11.000Z</time>
      </trkpt>
      <trkpt lat="49.65053" lon="5.6039">
        <ele>358.39999389648</ele>
        <time>2022-03-25T11:22:18.000Z</time>
      </trkpt>
      <trkpt lat="49.65061" lon="5.60382">
        <ele>358.20001220703</ele>
        <time>2022-03-25T11:22:20.000Z</time>
      </trkpt>
      <trkpt lat="49.65074" lon="5.60365">
        <ele>357.60000610352</ele>
        <time>2022-03-25T11:22:23.000Z</time>
      </trkpt>
      <trkpt lat="49.65104" lon="5.60325">
        <ele>356.20001220703</ele>
        <time>2022-03-25T11:22:31.000Z</time>
      </trkpt>
      <trkpt lat="49.6513" lon="5.60294">
        <ele>357</ele>
        <time>2022-03-25T11:22:38.000Z</time>
      </trkpt>
      <trkpt lat="49.65138" lon="5.60286">
        <ele>357</ele>
        <time>2022-03-25T11:22:40.000Z</time>
      </trkpt>
      <trkpt lat="49.65164" lon="5.60254">
        <ele>357.79998779297</ele>
        <time>2022-03-25T11:22:47.000Z</time>
      </trkpt>
      <trkpt lat="49.65167" lon="5.60249">
        <ele>357.79998779297</ele>
        <time>2022-03-25T11:22:48.000Z</time>
      </trkpt>
      <trkpt lat="49.65183" lon="5.60223">
        <ele>358.20001220703</ele>
        <time>2022-03-25T11:22:53.000Z</time>
      </trkpt>
      <trkpt lat="49.6521" lon="5.60191">
        <ele>359.79998779297</ele>
        <time>2022-03-25T11:23:00.000Z</time>
      </trkpt>
      <trkpt lat="49.65237" lon="5.60172">
        <ele>361.60000610352</ele>
        <time>2022-03-25T11:23:06.000Z</time>
      </trkpt>
      <trkpt lat="49.65282" lon="5.60135">
        <ele>364.60000610352</ele>
        <time>2022-03-25T11:23:16.000Z</time>
      </trkpt>
      <trkpt lat="49.65295" lon="5.60124">
        <ele>364.20001220703</ele>
        <time>2022-03-25T11:23:19.000Z</time>
      </trkpt>
      <trkpt lat="49.65307" lon="5.60111">
        <ele>364.60000610352</ele>
        <time>2022-03-25T11:23:22.000Z</time>
      </trkpt>
      <trkpt lat="49.65324" lon="5.60093">
        <ele>363.79998779297</ele>
        <time>2022-03-25T11:23:26.000Z</time>
      </trkpt>
      <trkpt lat="49.6534" lon="5.60079">
        <ele>363.20001220703</ele>
        <time>2022-03-25T11:23:29.000Z</time>
      </trkpt>
      <trkpt lat="49.65361" lon="5.6006">
        <ele>362.79998779297</ele>
        <time>2022-03-25T11:23:33.000Z</time>
      </trkpt>
      <trkpt lat="49.65371" lon="5.6005">
        <ele>363</ele>
        <time>2022-03-25T11:23:35.000Z</time>
      </trkpt>
      <trkpt lat="49.65392" lon="5.60032">
        <ele>364.79998779297</ele>
        <time>2022-03-25T11:23:39.000Z</time>
      </trkpt>
      <trkpt lat="49.65407" lon="5.60019">
        <ele>364.79998779297</ele>
        <time>2022-03-25T11:23:42.000Z</time>
      </trkpt>
      <trkpt lat="49.65427" lon="5.60001">
        <ele>366.39999389648</ele>
        <time>2022-03-25T11:23:46.000Z</time>
      </trkpt>
      <trkpt lat="49.65431" lon="5.59997">
        <ele>366</ele>
        <time>2022-03-25T11:23:47.000Z</time>
      </trkpt>
      <trkpt lat="49.65461" lon="5.59966">
        <ele>363.60000610352</ele>
        <time>2022-03-25T11:23:53.000Z</time>
      </trkpt>
      <trkpt lat="49.65471" lon="5.59954">
        <ele>361.39999389648</ele>
        <time>2022-03-25T11:23:55.000Z</time>
      </trkpt>
      <trkpt lat="49.65497" lon="5.5992">
        <ele>358.79998779297</ele>
        <time>2022-03-25T11:24:00.000Z</time>
      </trkpt>
      <trkpt lat="49.65518" lon="5.59887">
        <ele>357.60000610352</ele>
        <time>2022-03-25T11:24:05.000Z</time>
      </trkpt>
      <trkpt lat="49.65523" lon="5.59881">
        <ele>358</ele>
        <time>2022-03-25T11:24:06.000Z</time>
      </trkpt>
      <trkpt lat="49.65547" lon="5.59834">
        <ele>358.79998779297</ele>
        <time>2022-03-25T11:24:12.000Z</time>
      </trkpt>
      <trkpt lat="49.65557" lon="5.59811">
        <ele>358.79998779297</ele>
        <time>2022-03-25T11:24:15.000Z</time>
      </trkpt>
      <trkpt lat="49.6557" lon="5.5978">
        <ele>358.20001220703</ele>
        <time>2022-03-25T11:24:19.000Z</time>
      </trkpt>
      <trkpt lat="49.65595" lon="5.59731">
        <ele>357.79998779297</ele>
        <time>2022-03-25T11:24:26.000Z</time>
      </trkpt>
      <trkpt lat="49.65614" lon="5.597">
        <ele>357</ele>
        <time>2022-03-25T11:24:31.000Z</time>
      </trkpt>
      <trkpt lat="49.65622" lon="5.59688">
        <ele>357.60000610352</ele>
        <time>2022-03-25T11:24:33.000Z</time>
      </trkpt>
      <trkpt lat="49.65635" lon="5.59672">
        <ele>358.39999389648</ele>
        <time>2022-03-25T11:24:36.000Z</time>
      </trkpt>
      <trkpt lat="49.65644" lon="5.59663">
        <ele>358.79998779297</ele>
        <time>2022-03-25T11:24:38.000Z</time>
      </trkpt>
      <trkpt lat="49.65672" lon="5.59641">
        <ele>359</ele>
        <time>2022-03-25T11:24:44.000Z</time>
      </trkpt>
      <trkpt lat="49.6571" lon="5.59617">
        <ele>359.39999389648</ele>
        <time>2022-03-25T11:24:51.000Z</time>
      </trkpt>
      <trkpt lat="49.65734" lon="5.59596">
        <ele>360</ele>
        <time>2022-03-25T11:24:57.000Z</time>
      </trkpt>
      <trkpt lat="49.65762" lon="5.59564">
        <ele>357</ele>
        <time>2022-03-25T11:25:03.000Z</time>
      </trkpt>
      <trkpt lat="49.65803" lon="5.5952">
        <ele>352.79998779297</ele>
        <time>2022-03-25T11:25:10.000Z</time>
      </trkpt>
      <trkpt lat="49.65809" lon="5.59516">
        <ele>352.60000610352</ele>
        <time>2022-03-25T11:25:11.000Z</time>
      </trkpt>
      <trkpt lat="49.65822" lon="5.59513">
        <ele>351.79998779297</ele>
        <time>2022-03-25T11:25:13.000Z</time>
      </trkpt>
      <trkpt lat="49.65828" lon="5.59516">
        <ele>351</ele>
        <time>2022-03-25T11:25:14.000Z</time>
      </trkpt>
      <trkpt lat="49.65841" lon="5.59523">
        <ele>349.79998779297</ele>
        <time>2022-03-25T11:25:16.000Z</time>
      </trkpt>
      <trkpt lat="49.65846" lon="5.59527">
        <ele>349.60000610352</ele>
        <time>2022-03-25T11:25:17.000Z</time>
      </trkpt>
      <trkpt lat="49.65865" lon="5.59542">
        <ele>349</ele>
        <time>2022-03-25T11:25:21.000Z</time>
      </trkpt>
      <trkpt lat="49.65877" lon="5.5955">
        <ele>349.39999389648</ele>
        <time>2022-03-25T11:25:25.000Z</time>
      </trkpt>
      <trkpt lat="49.6588" lon="5.59556">
        <ele>349.60000610352</ele>
        <time>2022-03-25T11:25:27.000Z</time>
      </trkpt>
      <trkpt lat="49.65887" lon="5.59564">
        <ele>350</ele>
        <time>2022-03-25T11:25:30.000Z</time>
      </trkpt>
      <trkpt lat="49.6589" lon="5.59567">
        <ele>350.20001220703</ele>
        <time>2022-03-25T11:25:31.000Z</time>
      </trkpt>
      <trkpt lat="49.65912" lon="5.59586">
        <ele>351</ele>
        <time>2022-03-25T11:25:37.000Z</time>
      </trkpt>
      <trkpt lat="49.65952" lon="5.59605">
        <ele>352.39999389648</ele>
        <time>2022-03-25T11:25:46.000Z</time>
      </trkpt>
      <trkpt lat="49.6599" lon="5.59617">
        <ele>356</ele>
        <time>2022-03-25T11:25:53.000Z</time>
      </trkpt>
      <trkpt lat="49.66008" lon="5.59623">
        <ele>357</ele>
        <time>2022-03-25T11:25:56.000Z</time>
      </trkpt>
      <trkpt lat="49.66039" lon="5.59632">
        <ele>353.60000610352</ele>
        <time>2022-03-25T11:26:01.000Z</time>
      </trkpt>
      <trkpt lat="49.66083" lon="5.59645">
        <ele>346.60000610352</ele>
        <time>2022-03-25T11:26:08.000Z</time>
      </trkpt>
      <trkpt lat="49.66089" lon="5.59647">
        <ele>346</ele>
        <time>2022-03-25T11:26:09.000Z</time>
      </trkpt>
      <trkpt lat="49.66123" lon="5.59658">
        <ele>347.60000610352</ele>
        <time>2022-03-25T11:26:14.000Z</time>
      </trkpt>
      <trkpt lat="49.6613" lon="5.59659">
        <ele>348</ele>
        <time>2022-03-25T11:26:15.000Z</time>
      </trkpt>
      <trkpt lat="49.66149" lon="5.59663">
        <ele>348.39999389648</ele>
        <time>2022-03-25T11:26:18.000Z</time>
      </trkpt>
      <trkpt lat="49.66171" lon="5.59664">
        <ele>346.79998779297</ele>
        <time>2022-03-25T11:26:21.000Z</time>
      </trkpt>
      <trkpt lat="49.66185" lon="5.59665">
        <ele>345.39999389648</ele>
        <time>2022-03-25T11:26:23.000Z</time>
      </trkpt>
      <trkpt lat="49.66226" lon="5.59668">
        <ele>342</ele>
        <time>2022-03-25T11:26:29.000Z</time>
      </trkpt>
      <trkpt lat="49.66272" lon="5.59671">
        <ele>342</ele>
        <time>2022-03-25T11:26:36.000Z</time>
      </trkpt>
      <trkpt lat="49.66284" lon="5.59672">
        <ele>342</ele>
        <time>2022-03-25T11:26:38.000Z</time>
      </trkpt>
      <trkpt lat="49.66342" lon="5.59676">
        <ele>339</ele>
        <time>2022-03-25T11:26:47.000Z</time>
      </trkpt>
      <trkpt lat="49.66383" lon="5.59678">
        <ele>338.60000610352</ele>
        <time>2022-03-25T11:26:53.000Z</time>
      </trkpt>
      <trkpt lat="49.66389" lon="5.59679">
        <ele>338.79998779297</ele>
        <time>2022-03-25T11:26:54.000Z</time>
      </trkpt>
      <trkpt lat="49.66413" lon="5.59694">
        <ele>340.39999389648</ele>
        <time>2022-03-25T11:26:58.000Z</time>
      </trkpt>
      <trkpt lat="49.66441" lon="5.59714">
        <ele>342.20001220703</ele>
        <time>2022-03-25T11:27:03.000Z</time>
      </trkpt>
      <trkpt lat="49.66459" lon="5.59723">
        <ele>342.79998779297</ele>
        <time>2022-03-25T11:27:06.000Z</time>
      </trkpt>
      <trkpt lat="49.66499" lon="5.5974">
        <ele>342</ele>
        <time>2022-03-25T11:27:13.000Z</time>
      </trkpt>
      <trkpt lat="49.66539" lon="5.59754">
        <ele>341.20001220703</ele>
        <time>2022-03-25T11:27:20.000Z</time>
      </trkpt>
      <trkpt lat="49.66571" lon="5.59766">
        <ele>342.39999389648</ele>
        <time>2022-03-25T11:27:26.000Z</time>
      </trkpt>
      <trkpt lat="49.66577" lon="5.59768">
        <ele>342.60000610352</ele>
        <time>2022-03-25T11:27:27.000Z</time>
      </trkpt>
      <trkpt lat="49.66608" lon="5.59779">
        <ele>343</ele>
        <time>2022-03-25T11:27:33.000Z</time>
      </trkpt>
      <trkpt lat="49.66628" lon="5.59787">
        <ele>342.20001220703</ele>
        <time>2022-03-25T11:27:37.000Z</time>
      </trkpt>
      <trkpt lat="49.66674" lon="5.59803">
        <ele>340.79998779297</ele>
        <time>2022-03-25T11:27:46.000Z</time>
      </trkpt>
      <trkpt lat="49.6671" lon="5.59816">
        <ele>341.60000610352</ele>
        <time>2022-03-25T11:27:53.000Z</time>
      </trkpt>
      <trkpt lat="49.66759" lon="5.59835">
        <ele>342.60000610352</ele>
        <time>2022-03-25T11:28:03.000Z</time>
      </trkpt>
      <trkpt lat="49.66765" lon="5.59842">
        <ele>342</ele>
        <time>2022-03-25T11:28:05.000Z</time>
      </trkpt>
      <trkpt lat="49.66766" lon="5.59847">
        <ele>341.79998779297</ele>
        <time>2022-03-25T11:28:06.000Z</time>
      </trkpt>
      <trkpt lat="49.66766" lon="5.59867">
        <ele>341.20001220703</ele>
        <time>2022-03-25T11:28:09.000Z</time>
      </trkpt>
      <trkpt lat="49.66766" lon="5.59881">
        <ele>341.20001220703</ele>
        <time>2022-03-25T11:28:11.000Z</time>
      </trkpt>
      <trkpt lat="49.66768" lon="5.59944">
        <ele>341.60000610352</ele>
        <time>2022-03-25T11:28:19.000Z</time>
      </trkpt>
      <trkpt lat="49.66769" lon="5.59991">
        <ele>341.39999389648</ele>
        <time>2022-03-25T11:28:24.000Z</time>
      </trkpt>
      <trkpt lat="49.6677" lon="5.60008">
        <ele>341</ele>
        <time>2022-03-25T11:28:26.000Z</time>
      </trkpt>
      <trkpt lat="49.66772" lon="5.60014">
        <ele>341</ele>
        <time>2022-03-25T11:28:27.000Z</time>
      </trkpt>
      <trkpt lat="49.66776" lon="5.60021">
        <ele>341</ele>
        <time>2022-03-25T11:28:29.000Z</time>
      </trkpt>
      <trkpt lat="49.66779" lon="5.60022">
        <ele>341</ele>
        <time>2022-03-25T11:28:30.000Z</time>
      </trkpt>
      <trkpt lat="49.66795" lon="5.60014">
        <ele>341.39999389648</ele>
        <time>2022-03-25T11:28:34.000Z</time>
      </trkpt>
      <trkpt lat="49.66826" lon="5.60002">
        <ele>341</ele>
        <time>2022-03-25T11:28:41.000Z</time>
      </trkpt>
      <trkpt lat="49.66858" lon="5.59998">
        <ele>340.20001220703</ele>
        <time>2022-03-25T11:28:48.000Z</time>
      </trkpt>
      <trkpt lat="49.66881" lon="5.6">
        <ele>340.60000610352</ele>
        <time>2022-03-25T11:28:53.000Z</time>
      </trkpt>
      <trkpt lat="49.66895" lon="5.60004">
        <ele>341</ele>
        <time>2022-03-25T11:28:56.000Z</time>
      </trkpt>
      <trkpt lat="49.66927" lon="5.60007">
        <ele>342</ele>
        <time>2022-03-25T11:29:03.000Z</time>
      </trkpt>
      <trkpt lat="49.66936" lon="5.60008">
        <ele>342</ele>
        <time>2022-03-25T11:29:05.000Z</time>
      </trkpt>
      <trkpt lat="49.66959" lon="5.60008">
        <ele>342.20001220703</ele>
        <time>2022-03-25T11:29:10.000Z</time>
      </trkpt>
      <trkpt lat="49.66978" lon="5.60011">
        <ele>342.79998779297</ele>
        <time>2022-03-25T11:29:14.000Z</time>
      </trkpt>
      <trkpt lat="49.66991" lon="5.60011">
        <ele>342.60000610352</ele>
        <time>2022-03-25T11:29:17.000Z</time>
      </trkpt>
      <trkpt lat="49.67009" lon="5.60012">
        <ele>342.60000610352</ele>
        <time>2022-03-25T11:29:21.000Z</time>
      </trkpt>
      <trkpt lat="49.67037" lon="5.60012">
        <ele>342.60000610352</ele>
        <time>2022-03-25T11:29:27.000Z</time>
      </trkpt>
      <trkpt lat="49.67055" lon="5.60015">
        <ele>342.60000610352</ele>
        <time>2022-03-25T11:29:31.000Z</time>
      </trkpt>
      <trkpt lat="49.67057" lon="5.6002">
        <ele>342.39999389648</ele>
        <time>2022-03-25T11:29:32.000Z</time>
      </trkpt>
      <trkpt lat="49.67061" lon="5.60049">
        <ele>341.39999389648</ele>
        <time>2022-03-25T11:29:36.000Z</time>
      </trkpt>
      <trkpt lat="49.67061" lon="5.60075">
        <ele>340.39999389648</ele>
        <time>2022-03-25T11:29:39.000Z</time>
      </trkpt>
      <trkpt lat="49.67066" lon="5.60091">
        <ele>340.20001220703</ele>
        <time>2022-03-25T11:29:41.000Z</time>
      </trkpt>
      <trkpt lat="49.67079" lon="5.60109">
        <ele>340.60000610352</ele>
        <time>2022-03-25T11:29:44.000Z</time>
      </trkpt>
      <trkpt lat="49.67084" lon="5.60115">
        <ele>340.60000610352</ele>
        <time>2022-03-25T11:29:45.000Z</time>
      </trkpt>
      <trkpt lat="49.67098" lon="5.60132">
        <ele>340</ele>
        <time>2022-03-25T11:29:48.000Z</time>
      </trkpt>
      <trkpt lat="49.67103" lon="5.60139">
        <ele>339.60000610352</ele>
        <time>2022-03-25T11:29:49.000Z</time>
      </trkpt>
      <trkpt lat="49.67108" lon="5.60157">
        <ele>338.79998779297</ele>
        <time>2022-03-25T11:29:51.000Z</time>
      </trkpt>
      <trkpt lat="49.67111" lon="5.60176">
        <ele>338.20001220703</ele>
        <time>2022-03-25T11:29:53.000Z</time>
      </trkpt>
      <trkpt lat="49.67112" lon="5.60186">
        <ele>338.20001220703</ele>
        <time>2022-03-25T11:29:54.000Z</time>
      </trkpt>
      <trkpt lat="49.67116" lon="5.60215">
        <ele>337.39999389648</ele>
        <time>2022-03-25T11:29:57.000Z</time>
      </trkpt>
      <trkpt lat="49.67119" lon="5.60245">
        <ele>336.20001220703</ele>
        <time>2022-03-25T11:30:00.000Z</time>
      </trkpt>
      <trkpt lat="49.67124" lon="5.60295">
        <ele>336</ele>
        <time>2022-03-25T11:30:05.000Z</time>
      </trkpt>
      <trkpt lat="49.67125" lon="5.60316">
        <ele>335.79998779297</ele>
        <time>2022-03-25T11:30:07.000Z</time>
      </trkpt>
      <trkpt lat="49.67123" lon="5.60346">
        <ele>335.39999389648</ele>
        <time>2022-03-25T11:30:10.000Z</time>
      </trkpt>
      <trkpt lat="49.67124" lon="5.60356">
        <ele>335</ele>
        <time>2022-03-25T11:30:11.000Z</time>
      </trkpt>
      <trkpt lat="49.67125" lon="5.60366">
        <ele>334.60000610352</ele>
        <time>2022-03-25T11:30:12.000Z</time>
      </trkpt>
      <trkpt lat="49.6713" lon="5.60393">
        <ele>333.39999389648</ele>
        <time>2022-03-25T11:30:15.000Z</time>
      </trkpt>
      <trkpt lat="49.67137" lon="5.60402">
        <ele>332.79998779297</ele>
        <time>2022-03-25T11:30:17.000Z</time>
      </trkpt>
      <trkpt lat="49.67141" lon="5.60401">
        <ele>332.79998779297</ele>
        <time>2022-03-25T11:30:18.000Z</time>
      </trkpt>
      <trkpt lat="49.67146" lon="5.60397">
        <ele>332.79998779297</ele>
        <time>2022-03-25T11:30:19.000Z</time>
      </trkpt>
      <trkpt lat="49.67153" lon="5.60388">
        <ele>333.20001220703</ele>
        <time>2022-03-25T11:30:21.000Z</time>
      </trkpt>
      <trkpt lat="49.6717" lon="5.60369">
        <ele>333.79998779297</ele>
        <time>2022-03-25T11:30:25.000Z</time>
      </trkpt>
      <trkpt lat="49.67174" lon="5.60365">
        <ele>334</ele>
        <time>2022-03-25T11:30:26.000Z</time>
      </trkpt>
      <trkpt lat="49.67183" lon="5.60364">
        <ele>334</ele>
        <time>2022-03-25T11:30:28.000Z</time>
      </trkpt>
      <trkpt lat="49.67193" lon="5.60374">
        <ele>333.60000610352</ele>
        <time>2022-03-25T11:30:31.000Z</time>
      </trkpt>
      <trkpt lat="49.67205" lon="5.60394">
        <ele>333.20001220703</ele>
        <time>2022-03-25T11:30:37.000Z</time>
      </trkpt>
      <trkpt lat="49.67224" lon="5.60392">
        <ele>333.79998779297</ele>
        <time>2022-03-25T11:30:41.000Z</time>
      </trkpt>
      <trkpt lat="49.67238" lon="5.60389">
        <ele>334.20001220703</ele>
        <time>2022-03-25T11:30:44.000Z</time>
      </trkpt>
      <trkpt lat="49.67247" lon="5.60383">
        <ele>334.20001220703</ele>
        <time>2022-03-25T11:30:46.000Z</time>
      </trkpt>
      <trkpt lat="49.67259" lon="5.60378">
        <ele>333.79998779297</ele>
        <time>2022-03-25T11:30:49.000Z</time>
      </trkpt>
      <trkpt lat="49.67264" lon="5.6038">
        <ele>333.60000610352</ele>
        <time>2022-03-25T11:30:50.000Z</time>
      </trkpt>
      <trkpt lat="49.67276" lon="5.60391">
        <ele>333.20001220703</ele>
        <time>2022-03-25T11:30:53.000Z</time>
      </trkpt>
      <trkpt lat="49.67278" lon="5.60394">
        <ele>333.20001220703</ele>
        <time>2022-03-25T11:30:59.000Z</time>
      </trkpt>
      <trkpt lat="49.67284" lon="5.60405">
        <ele>333</ele>
        <time>2022-03-25T11:31:04.000Z</time>
      </trkpt>
      <trkpt lat="49.67286" lon="5.60406">
        <ele>332.79998779297</ele>
        <time>2022-03-25T11:31:05.000Z</time>
      </trkpt>
    </trkseg>
  </trk>
</gpx>